<?xml version="1.0" encoding="UTF-8" standalone="no" ?>
<gpx xmlns="http://www.topografix.com/GPX/1/1" xmlns:xsi="http://www.w3.org/2001/XMLSchema-instance" xsi:schemaLocation="http://www.topografix.com/GPX/1/1 http://www.topografix.com/GPX/1/1/gpx.xsd" version="1.1" creator="VisuGPX - https://www.visugpx.com">
  <metadata>
    <name>Tour vers Crémieux</name>
  </metadata>
  <trk>
    <name><![CDATA[Tour vers Crémieux_1]]></name>
    <trkseg>
      <trkpt lat="45.61485" lon="5.27468">
        <ele>243</ele>
        <time>2021-05-08T07:12:53.152Z</time>
      </trkpt>
      <trkpt lat="45.61485" lon="5.27468">
        <ele>243</ele>
        <time>2021-05-08T07:12:54.152Z</time>
      </trkpt>
      <trkpt lat="45.61485" lon="5.27468">
        <ele>243</ele>
        <time>2021-05-08T07:12:55.152Z</time>
      </trkpt>
      <trkpt lat="45.61485" lon="5.27468">
        <ele>243</ele>
        <time>2021-05-08T07:12:56.152Z</time>
      </trkpt>
      <trkpt lat="45.61485" lon="5.27468">
        <ele>243</ele>
        <time>2021-05-08T07:12:57.152Z</time>
      </trkpt>
      <trkpt lat="45.61485" lon="5.27468">
        <ele>243</ele>
        <time>2021-05-08T07:12:58.152Z</time>
      </trkpt>
      <trkpt lat="45.61485" lon="5.27468">
        <ele>243</ele>
        <time>2021-05-08T07:12:59.152Z</time>
      </trkpt>
      <trkpt lat="45.61485" lon="5.27468">
        <ele>243</ele>
        <time>2021-05-08T07:13:00.152Z</time>
      </trkpt>
      <trkpt lat="45.61487" lon="5.27467">
        <ele>243</ele>
        <time>2021-05-08T07:13:01.152Z</time>
      </trkpt>
      <trkpt lat="45.61488" lon="5.27466">
        <ele>243</ele>
        <time>2021-05-08T07:13:02.152Z</time>
      </trkpt>
      <trkpt lat="45.61489" lon="5.27466">
        <ele>243</ele>
        <time>2021-05-08T07:13:03.152Z</time>
      </trkpt>
      <trkpt lat="45.6149" lon="5.27467">
        <ele>243</ele>
        <time>2021-05-08T07:13:04.152Z</time>
      </trkpt>
      <trkpt lat="45.61492" lon="5.2747">
        <ele>243</ele>
        <time>2021-05-08T07:13:05.152Z</time>
      </trkpt>
      <trkpt lat="45.61494" lon="5.27472">
        <ele>243</ele>
        <time>2021-05-08T07:13:06.152Z</time>
      </trkpt>
      <trkpt lat="45.61497" lon="5.27475">
        <ele>244</ele>
        <time>2021-05-08T07:13:07.152Z</time>
      </trkpt>
      <trkpt lat="45.615" lon="5.27475">
        <ele>244</ele>
        <time>2021-05-08T07:13:08.152Z</time>
      </trkpt>
      <trkpt lat="45.61504" lon="5.27476">
        <ele>243</ele>
        <time>2021-05-08T07:13:09.152Z</time>
      </trkpt>
      <trkpt lat="45.61508" lon="5.27477">
        <ele>243</ele>
        <time>2021-05-08T07:13:10.152Z</time>
      </trkpt>
      <trkpt lat="45.61512" lon="5.27477">
        <ele>243</ele>
        <time>2021-05-08T07:13:11.152Z</time>
      </trkpt>
      <trkpt lat="45.61515" lon="5.27477">
        <ele>242</ele>
        <time>2021-05-08T07:13:12.152Z</time>
      </trkpt>
      <trkpt lat="45.61518" lon="5.27478">
        <ele>241</ele>
        <time>2021-05-08T07:13:13.152Z</time>
      </trkpt>
      <trkpt lat="45.61521" lon="5.27482">
        <ele>240</ele>
        <time>2021-05-08T07:13:14.152Z</time>
      </trkpt>
      <trkpt lat="45.61522" lon="5.27486">
        <ele>239</ele>
        <time>2021-05-08T07:13:15.152Z</time>
      </trkpt>
      <trkpt lat="45.61523" lon="5.27491">
        <ele>239</ele>
        <time>2021-05-08T07:13:16.152Z</time>
      </trkpt>
      <trkpt lat="45.61522" lon="5.27497">
        <ele>238</ele>
        <time>2021-05-08T07:13:17.152Z</time>
      </trkpt>
      <trkpt lat="45.61522" lon="5.27501">
        <ele>237</ele>
        <time>2021-05-08T07:13:18.152Z</time>
      </trkpt>
      <trkpt lat="45.61522" lon="5.27507">
        <ele>237</ele>
        <time>2021-05-08T07:13:19.152Z</time>
      </trkpt>
      <trkpt lat="45.61523" lon="5.27512">
        <ele>237</ele>
        <time>2021-05-08T07:13:20.152Z</time>
      </trkpt>
      <trkpt lat="45.61523" lon="5.27517">
        <ele>236</ele>
        <time>2021-05-08T07:13:21.152Z</time>
      </trkpt>
      <trkpt lat="45.61523" lon="5.27521">
        <ele>236</ele>
        <time>2021-05-08T07:13:22.152Z</time>
      </trkpt>
      <trkpt lat="45.61522" lon="5.27526">
        <ele>236</ele>
        <time>2021-05-08T07:13:23.152Z</time>
      </trkpt>
      <trkpt lat="45.61521" lon="5.27531">
        <ele>236</ele>
        <time>2021-05-08T07:13:24.152Z</time>
      </trkpt>
      <trkpt lat="45.61521" lon="5.27536">
        <ele>235</ele>
        <time>2021-05-08T07:13:25.152Z</time>
      </trkpt>
      <trkpt lat="45.6152" lon="5.2754">
        <ele>235</ele>
        <time>2021-05-08T07:13:26.152Z</time>
      </trkpt>
      <trkpt lat="45.6152" lon="5.27544">
        <ele>234</ele>
        <time>2021-05-08T07:13:27.152Z</time>
      </trkpt>
      <trkpt lat="45.61519" lon="5.27548">
        <ele>233</ele>
        <time>2021-05-08T07:13:28.152Z</time>
      </trkpt>
      <trkpt lat="45.61519" lon="5.27552">
        <ele>233</ele>
        <time>2021-05-08T07:13:29.152Z</time>
      </trkpt>
      <trkpt lat="45.61518" lon="5.27556">
        <ele>232</ele>
        <time>2021-05-08T07:13:30.152Z</time>
      </trkpt>
      <trkpt lat="45.61516" lon="5.27559">
        <ele>232</ele>
        <time>2021-05-08T07:13:31.152Z</time>
      </trkpt>
      <trkpt lat="45.61515" lon="5.27562">
        <ele>231</ele>
        <time>2021-05-08T07:13:32.152Z</time>
      </trkpt>
      <trkpt lat="45.61514" lon="5.27565">
        <ele>231</ele>
        <time>2021-05-08T07:13:33.152Z</time>
      </trkpt>
      <trkpt lat="45.61513" lon="5.27569">
        <ele>230</ele>
        <time>2021-05-08T07:13:34.152Z</time>
      </trkpt>
      <trkpt lat="45.61513" lon="5.27573">
        <ele>230</ele>
        <time>2021-05-08T07:13:35.152Z</time>
      </trkpt>
      <trkpt lat="45.61514" lon="5.27576">
        <ele>230</ele>
        <time>2021-05-08T07:13:36.152Z</time>
      </trkpt>
      <trkpt lat="45.61516" lon="5.27577">
        <ele>229</ele>
        <time>2021-05-08T07:13:37.152Z</time>
      </trkpt>
      <trkpt lat="45.61517" lon="5.27578">
        <ele>229</ele>
        <time>2021-05-08T07:13:38.152Z</time>
      </trkpt>
      <trkpt lat="45.6152" lon="5.27579">
        <ele>229</ele>
        <time>2021-05-08T07:13:39.152Z</time>
      </trkpt>
      <trkpt lat="45.61523" lon="5.27579">
        <ele>229</ele>
        <time>2021-05-08T07:13:40.152Z</time>
      </trkpt>
      <trkpt lat="45.61527" lon="5.27579">
        <ele>229</ele>
        <time>2021-05-08T07:13:41.152Z</time>
      </trkpt>
      <trkpt lat="45.61531" lon="5.27581">
        <ele>229</ele>
        <time>2021-05-08T07:13:42.152Z</time>
      </trkpt>
      <trkpt lat="45.61535" lon="5.27585">
        <ele>229</ele>
        <time>2021-05-08T07:13:43.152Z</time>
      </trkpt>
      <trkpt lat="45.6154" lon="5.27588">
        <ele>229</ele>
        <time>2021-05-08T07:13:44.152Z</time>
      </trkpt>
      <trkpt lat="45.61545" lon="5.2759">
        <ele>229</ele>
        <time>2021-05-08T07:13:45.152Z</time>
      </trkpt>
      <trkpt lat="45.6155" lon="5.27593">
        <ele>229</ele>
        <time>2021-05-08T07:13:46.152Z</time>
      </trkpt>
      <trkpt lat="45.61555" lon="5.27596">
        <ele>229</ele>
        <time>2021-05-08T07:13:47.152Z</time>
      </trkpt>
      <trkpt lat="45.6156" lon="5.27598">
        <ele>229</ele>
        <time>2021-05-08T07:13:48.152Z</time>
      </trkpt>
      <trkpt lat="45.61566" lon="5.27601">
        <ele>229</ele>
        <time>2021-05-08T07:13:49.152Z</time>
      </trkpt>
      <trkpt lat="45.61571" lon="5.27604">
        <ele>228</ele>
        <time>2021-05-08T07:13:50.152Z</time>
      </trkpt>
      <trkpt lat="45.61578" lon="5.27606">
        <ele>228</ele>
        <time>2021-05-08T07:13:51.152Z</time>
      </trkpt>
      <trkpt lat="45.61584" lon="5.27608">
        <ele>228</ele>
        <time>2021-05-08T07:13:52.152Z</time>
      </trkpt>
      <trkpt lat="45.61591" lon="5.2761">
        <ele>228</ele>
        <time>2021-05-08T07:13:53.152Z</time>
      </trkpt>
      <trkpt lat="45.61598" lon="5.27612">
        <ele>227</ele>
        <time>2021-05-08T07:13:54.152Z</time>
      </trkpt>
      <trkpt lat="45.61605" lon="5.27614">
        <ele>227</ele>
        <time>2021-05-08T07:13:55.152Z</time>
      </trkpt>
      <trkpt lat="45.61612" lon="5.27617">
        <ele>227</ele>
        <time>2021-05-08T07:13:56.152Z</time>
      </trkpt>
      <trkpt lat="45.61618" lon="5.27621">
        <ele>226</ele>
        <time>2021-05-08T07:13:57.152Z</time>
      </trkpt>
      <trkpt lat="45.61624" lon="5.27624">
        <ele>226</ele>
        <time>2021-05-08T07:13:58.152Z</time>
      </trkpt>
      <trkpt lat="45.61631" lon="5.27628">
        <ele>225</ele>
        <time>2021-05-08T07:13:59.152Z</time>
      </trkpt>
      <trkpt lat="45.61638" lon="5.27632">
        <ele>225</ele>
        <time>2021-05-08T07:14:00.152Z</time>
      </trkpt>
      <trkpt lat="45.61645" lon="5.27635">
        <ele>224</ele>
        <time>2021-05-08T07:14:01.152Z</time>
      </trkpt>
      <trkpt lat="45.61652" lon="5.27638">
        <ele>224</ele>
        <time>2021-05-08T07:14:02.152Z</time>
      </trkpt>
      <trkpt lat="45.61659" lon="5.27641">
        <ele>224</ele>
        <time>2021-05-08T07:14:03.152Z</time>
      </trkpt>
      <trkpt lat="45.61666" lon="5.27645">
        <ele>223</ele>
        <time>2021-05-08T07:14:04.152Z</time>
      </trkpt>
      <trkpt lat="45.61672" lon="5.27649">
        <ele>223</ele>
        <time>2021-05-08T07:14:05.152Z</time>
      </trkpt>
      <trkpt lat="45.61679" lon="5.27653">
        <ele>222</ele>
        <time>2021-05-08T07:14:06.152Z</time>
      </trkpt>
      <trkpt lat="45.61686" lon="5.27657">
        <ele>222</ele>
        <time>2021-05-08T07:14:07.152Z</time>
      </trkpt>
      <trkpt lat="45.61693" lon="5.27661">
        <ele>222</ele>
        <time>2021-05-08T07:14:08.152Z</time>
      </trkpt>
      <trkpt lat="45.617" lon="5.27664">
        <ele>222</ele>
        <time>2021-05-08T07:14:09.152Z</time>
      </trkpt>
      <trkpt lat="45.61707" lon="5.27668">
        <ele>222</ele>
        <time>2021-05-08T07:14:10.152Z</time>
      </trkpt>
      <trkpt lat="45.61715" lon="5.27671">
        <ele>223</ele>
        <time>2021-05-08T07:14:11.152Z</time>
      </trkpt>
      <trkpt lat="45.61722" lon="5.27675">
        <ele>223</ele>
        <time>2021-05-08T07:14:12.152Z</time>
      </trkpt>
      <trkpt lat="45.61729" lon="5.27679">
        <ele>223</ele>
        <time>2021-05-08T07:14:13.152Z</time>
      </trkpt>
      <trkpt lat="45.61736" lon="5.27682">
        <ele>223</ele>
        <time>2021-05-08T07:14:14.152Z</time>
      </trkpt>
      <trkpt lat="45.61744" lon="5.27686">
        <ele>223</ele>
        <time>2021-05-08T07:14:15.152Z</time>
      </trkpt>
      <trkpt lat="45.61751" lon="5.27691">
        <ele>223</ele>
        <time>2021-05-08T07:14:16.152Z</time>
      </trkpt>
      <trkpt lat="45.61759" lon="5.27694">
        <ele>223</ele>
        <time>2021-05-08T07:14:17.152Z</time>
      </trkpt>
      <trkpt lat="45.61765" lon="5.27695">
        <ele>224</ele>
        <time>2021-05-08T07:14:18.152Z</time>
      </trkpt>
      <trkpt lat="45.6177" lon="5.27694">
        <ele>224</ele>
        <time>2021-05-08T07:14:19.152Z</time>
      </trkpt>
      <trkpt lat="45.61774" lon="5.2769">
        <ele>224</ele>
        <time>2021-05-08T07:14:20.152Z</time>
      </trkpt>
      <trkpt lat="45.61778" lon="5.27685">
        <ele>224</ele>
        <time>2021-05-08T07:14:21.152Z</time>
      </trkpt>
      <trkpt lat="45.61782" lon="5.27677">
        <ele>224</ele>
        <time>2021-05-08T07:14:22.152Z</time>
      </trkpt>
      <trkpt lat="45.61785" lon="5.27667">
        <ele>224</ele>
        <time>2021-05-08T07:14:23.152Z</time>
      </trkpt>
      <trkpt lat="45.61789" lon="5.27658">
        <ele>224</ele>
        <time>2021-05-08T07:14:24.152Z</time>
      </trkpt>
      <trkpt lat="45.61792" lon="5.27649">
        <ele>224</ele>
        <time>2021-05-08T07:14:25.152Z</time>
      </trkpt>
      <trkpt lat="45.61795" lon="5.27639">
        <ele>225</ele>
        <time>2021-05-08T07:14:26.152Z</time>
      </trkpt>
      <trkpt lat="45.61798" lon="5.27629">
        <ele>225</ele>
        <time>2021-05-08T07:14:27.152Z</time>
      </trkpt>
      <trkpt lat="45.61801" lon="5.27618">
        <ele>225</ele>
        <time>2021-05-08T07:14:28.152Z</time>
      </trkpt>
      <trkpt lat="45.61804" lon="5.27607">
        <ele>226</ele>
        <time>2021-05-08T07:14:29.152Z</time>
      </trkpt>
      <trkpt lat="45.61807" lon="5.27596">
        <ele>226</ele>
        <time>2021-05-08T07:14:30.152Z</time>
      </trkpt>
      <trkpt lat="45.6181" lon="5.27585">
        <ele>226</ele>
        <time>2021-05-08T07:14:31.152Z</time>
      </trkpt>
      <trkpt lat="45.61813" lon="5.27575">
        <ele>226</ele>
        <time>2021-05-08T07:14:32.152Z</time>
      </trkpt>
      <trkpt lat="45.61816" lon="5.27564">
        <ele>227</ele>
        <time>2021-05-08T07:14:33.152Z</time>
      </trkpt>
      <trkpt lat="45.61819" lon="5.27554">
        <ele>227</ele>
        <time>2021-05-08T07:14:34.152Z</time>
      </trkpt>
      <trkpt lat="45.61822" lon="5.27544">
        <ele>227</ele>
        <time>2021-05-08T07:14:35.152Z</time>
      </trkpt>
      <trkpt lat="45.61825" lon="5.27534">
        <ele>227</ele>
        <time>2021-05-08T07:14:36.152Z</time>
      </trkpt>
      <trkpt lat="45.61827" lon="5.27525">
        <ele>227</ele>
        <time>2021-05-08T07:14:37.152Z</time>
      </trkpt>
      <trkpt lat="45.6183" lon="5.27516">
        <ele>227</ele>
        <time>2021-05-08T07:14:38.152Z</time>
      </trkpt>
      <trkpt lat="45.61833" lon="5.27507">
        <ele>226</ele>
        <time>2021-05-08T07:14:39.152Z</time>
      </trkpt>
      <trkpt lat="45.61836" lon="5.27499">
        <ele>226</ele>
        <time>2021-05-08T07:14:40.152Z</time>
      </trkpt>
      <trkpt lat="45.6184" lon="5.27492">
        <ele>226</ele>
        <time>2021-05-08T07:14:41.152Z</time>
      </trkpt>
      <trkpt lat="45.61845" lon="5.27487">
        <ele>226</ele>
        <time>2021-05-08T07:14:42.152Z</time>
      </trkpt>
      <trkpt lat="45.61851" lon="5.27485">
        <ele>227</ele>
        <time>2021-05-08T07:14:43.152Z</time>
      </trkpt>
      <trkpt lat="45.61857" lon="5.27486">
        <ele>227</ele>
        <time>2021-05-08T07:14:44.152Z</time>
      </trkpt>
      <trkpt lat="45.61862" lon="5.27488">
        <ele>226</ele>
        <time>2021-05-08T07:14:45.152Z</time>
      </trkpt>
      <trkpt lat="45.61868" lon="5.27492">
        <ele>226</ele>
        <time>2021-05-08T07:14:46.152Z</time>
      </trkpt>
      <trkpt lat="45.61873" lon="5.27496">
        <ele>226</ele>
        <time>2021-05-08T07:14:47.152Z</time>
      </trkpt>
      <trkpt lat="45.61878" lon="5.27501">
        <ele>226</ele>
        <time>2021-05-08T07:14:48.152Z</time>
      </trkpt>
      <trkpt lat="45.61884" lon="5.27506">
        <ele>225</ele>
        <time>2021-05-08T07:14:49.152Z</time>
      </trkpt>
      <trkpt lat="45.6189" lon="5.27512">
        <ele>225</ele>
        <time>2021-05-08T07:14:50.152Z</time>
      </trkpt>
      <trkpt lat="45.61895" lon="5.27517">
        <ele>225</ele>
        <time>2021-05-08T07:14:51.152Z</time>
      </trkpt>
      <trkpt lat="45.619" lon="5.27521">
        <ele>225</ele>
        <time>2021-05-08T07:14:52.152Z</time>
      </trkpt>
      <trkpt lat="45.61906" lon="5.27527">
        <ele>225</ele>
        <time>2021-05-08T07:14:53.152Z</time>
      </trkpt>
      <trkpt lat="45.61912" lon="5.27532">
        <ele>226</ele>
        <time>2021-05-08T07:14:54.152Z</time>
      </trkpt>
      <trkpt lat="45.61918" lon="5.27537">
        <ele>226</ele>
        <time>2021-05-08T07:14:55.152Z</time>
      </trkpt>
      <trkpt lat="45.61923" lon="5.27541">
        <ele>226</ele>
        <time>2021-05-08T07:14:56.152Z</time>
      </trkpt>
      <trkpt lat="45.61928" lon="5.27547">
        <ele>226</ele>
        <time>2021-05-08T07:14:57.152Z</time>
      </trkpt>
      <trkpt lat="45.61935" lon="5.27553">
        <ele>226</ele>
        <time>2021-05-08T07:14:58.152Z</time>
      </trkpt>
      <trkpt lat="45.6194" lon="5.27558">
        <ele>226</ele>
        <time>2021-05-08T07:14:59.152Z</time>
      </trkpt>
      <trkpt lat="45.61945" lon="5.27563">
        <ele>225</ele>
        <time>2021-05-08T07:15:00.152Z</time>
      </trkpt>
      <trkpt lat="45.61949" lon="5.27568">
        <ele>225</ele>
        <time>2021-05-08T07:15:01.152Z</time>
      </trkpt>
      <trkpt lat="45.61955" lon="5.27574">
        <ele>225</ele>
        <time>2021-05-08T07:15:02.152Z</time>
      </trkpt>
      <trkpt lat="45.6196" lon="5.2758">
        <ele>225</ele>
        <time>2021-05-08T07:15:03.152Z</time>
      </trkpt>
      <trkpt lat="45.61964" lon="5.27586">
        <ele>225</ele>
        <time>2021-05-08T07:15:04.152Z</time>
      </trkpt>
      <trkpt lat="45.61968" lon="5.27593">
        <ele>225</ele>
        <time>2021-05-08T07:15:05.152Z</time>
      </trkpt>
      <trkpt lat="45.61972" lon="5.276">
        <ele>224</ele>
        <time>2021-05-08T07:15:06.152Z</time>
      </trkpt>
      <trkpt lat="45.61976" lon="5.27607">
        <ele>224</ele>
        <time>2021-05-08T07:15:07.152Z</time>
      </trkpt>
      <trkpt lat="45.61979" lon="5.27613">
        <ele>224</ele>
        <time>2021-05-08T07:15:08.152Z</time>
      </trkpt>
      <trkpt lat="45.61983" lon="5.27619">
        <ele>224</ele>
        <time>2021-05-08T07:15:09.152Z</time>
      </trkpt>
      <trkpt lat="45.61987" lon="5.27623">
        <ele>224</ele>
        <time>2021-05-08T07:15:10.152Z</time>
      </trkpt>
      <trkpt lat="45.6199" lon="5.27626">
        <ele>224</ele>
        <time>2021-05-08T07:15:11.152Z</time>
      </trkpt>
      <trkpt lat="45.61994" lon="5.2763">
        <ele>225</ele>
        <time>2021-05-08T07:15:12.152Z</time>
      </trkpt>
      <trkpt lat="45.61997" lon="5.27634">
        <ele>225</ele>
        <time>2021-05-08T07:15:13.152Z</time>
      </trkpt>
      <trkpt lat="45.62" lon="5.27639">
        <ele>225</ele>
        <time>2021-05-08T07:15:14.152Z</time>
      </trkpt>
      <trkpt lat="45.62002" lon="5.27644">
        <ele>226</ele>
        <time>2021-05-08T07:15:15.152Z</time>
      </trkpt>
      <trkpt lat="45.62005" lon="5.2765">
        <ele>225</ele>
        <time>2021-05-08T07:15:16.152Z</time>
      </trkpt>
      <trkpt lat="45.62007" lon="5.27657">
        <ele>225</ele>
        <time>2021-05-08T07:15:17.152Z</time>
      </trkpt>
      <trkpt lat="45.62009" lon="5.27665">
        <ele>225</ele>
        <time>2021-05-08T07:15:18.152Z</time>
      </trkpt>
      <trkpt lat="45.62011" lon="5.27672">
        <ele>225</ele>
        <time>2021-05-08T07:15:19.152Z</time>
      </trkpt>
      <trkpt lat="45.62014" lon="5.2768">
        <ele>224</ele>
        <time>2021-05-08T07:15:20.152Z</time>
      </trkpt>
      <trkpt lat="45.62016" lon="5.27687">
        <ele>225</ele>
        <time>2021-05-08T07:15:21.152Z</time>
      </trkpt>
      <trkpt lat="45.62019" lon="5.27695">
        <ele>225</ele>
        <time>2021-05-08T07:15:22.152Z</time>
      </trkpt>
      <trkpt lat="45.62021" lon="5.27703">
        <ele>225</ele>
        <time>2021-05-08T07:15:23.152Z</time>
      </trkpt>
      <trkpt lat="45.62023" lon="5.27711">
        <ele>225</ele>
        <time>2021-05-08T07:15:24.152Z</time>
      </trkpt>
      <trkpt lat="45.62026" lon="5.27719">
        <ele>225</ele>
        <time>2021-05-08T07:15:25.152Z</time>
      </trkpt>
      <trkpt lat="45.62029" lon="5.27728">
        <ele>225</ele>
        <time>2021-05-08T07:15:26.152Z</time>
      </trkpt>
      <trkpt lat="45.62031" lon="5.27736">
        <ele>224</ele>
        <time>2021-05-08T07:15:27.152Z</time>
      </trkpt>
      <trkpt lat="45.62034" lon="5.27744">
        <ele>224</ele>
        <time>2021-05-08T07:15:28.152Z</time>
      </trkpt>
      <trkpt lat="45.62036" lon="5.27751">
        <ele>223</ele>
        <time>2021-05-08T07:15:29.152Z</time>
      </trkpt>
      <trkpt lat="45.62039" lon="5.27762">
        <ele>223</ele>
        <time>2021-05-08T07:15:30.152Z</time>
      </trkpt>
      <trkpt lat="45.62042" lon="5.2777">
        <ele>223</ele>
        <time>2021-05-08T07:15:31.152Z</time>
      </trkpt>
      <trkpt lat="45.62045" lon="5.27779">
        <ele>223</ele>
        <time>2021-05-08T07:15:32.152Z</time>
      </trkpt>
      <trkpt lat="45.62049" lon="5.27788">
        <ele>224</ele>
        <time>2021-05-08T07:15:33.152Z</time>
      </trkpt>
      <trkpt lat="45.62052" lon="5.27797">
        <ele>224</ele>
        <time>2021-05-08T07:15:34.152Z</time>
      </trkpt>
      <trkpt lat="45.62055" lon="5.27805">
        <ele>224</ele>
        <time>2021-05-08T07:15:35.152Z</time>
      </trkpt>
      <trkpt lat="45.62058" lon="5.27814">
        <ele>224</ele>
        <time>2021-05-08T07:15:36.152Z</time>
      </trkpt>
      <trkpt lat="45.62061" lon="5.27822">
        <ele>224</ele>
        <time>2021-05-08T07:15:37.152Z</time>
      </trkpt>
      <trkpt lat="45.62065" lon="5.27831">
        <ele>224</ele>
        <time>2021-05-08T07:15:38.152Z</time>
      </trkpt>
      <trkpt lat="45.62069" lon="5.27839">
        <ele>225</ele>
        <time>2021-05-08T07:15:39.152Z</time>
      </trkpt>
      <trkpt lat="45.62072" lon="5.27848">
        <ele>225</ele>
        <time>2021-05-08T07:15:40.152Z</time>
      </trkpt>
      <trkpt lat="45.62076" lon="5.27856">
        <ele>225</ele>
        <time>2021-05-08T07:15:41.152Z</time>
      </trkpt>
      <trkpt lat="45.62079" lon="5.27864">
        <ele>225</ele>
        <time>2021-05-08T07:15:42.152Z</time>
      </trkpt>
      <trkpt lat="45.62082" lon="5.2787">
        <ele>225</ele>
        <time>2021-05-08T07:15:43.152Z</time>
      </trkpt>
      <trkpt lat="45.62086" lon="5.2788">
        <ele>225</ele>
        <time>2021-05-08T07:15:44.152Z</time>
      </trkpt>
      <trkpt lat="45.6209" lon="5.27887">
        <ele>226</ele>
        <time>2021-05-08T07:15:45.152Z</time>
      </trkpt>
      <trkpt lat="45.62093" lon="5.27895">
        <ele>226</ele>
        <time>2021-05-08T07:15:46.152Z</time>
      </trkpt>
      <trkpt lat="45.62097" lon="5.27903">
        <ele>226</ele>
        <time>2021-05-08T07:15:47.152Z</time>
      </trkpt>
      <trkpt lat="45.62101" lon="5.27911">
        <ele>227</ele>
        <time>2021-05-08T07:15:48.152Z</time>
      </trkpt>
      <trkpt lat="45.62105" lon="5.27919">
        <ele>227</ele>
        <time>2021-05-08T07:15:49.152Z</time>
      </trkpt>
      <trkpt lat="45.62109" lon="5.27927">
        <ele>227</ele>
        <time>2021-05-08T07:15:50.152Z</time>
      </trkpt>
      <trkpt lat="45.62113" lon="5.27935">
        <ele>227</ele>
        <time>2021-05-08T07:15:51.152Z</time>
      </trkpt>
      <trkpt lat="45.62116" lon="5.27941">
        <ele>228</ele>
        <time>2021-05-08T07:15:52.152Z</time>
      </trkpt>
      <trkpt lat="45.62121" lon="5.27951">
        <ele>228</ele>
        <time>2021-05-08T07:15:53.152Z</time>
      </trkpt>
      <trkpt lat="45.62125" lon="5.27959">
        <ele>228</ele>
        <time>2021-05-08T07:15:54.152Z</time>
      </trkpt>
      <trkpt lat="45.6213" lon="5.27967">
        <ele>228</ele>
        <time>2021-05-08T07:15:55.152Z</time>
      </trkpt>
      <trkpt lat="45.62134" lon="5.27974">
        <ele>228</ele>
        <time>2021-05-08T07:15:56.152Z</time>
      </trkpt>
      <trkpt lat="45.62139" lon="5.27982">
        <ele>228</ele>
        <time>2021-05-08T07:15:57.152Z</time>
      </trkpt>
      <trkpt lat="45.62144" lon="5.2799">
        <ele>228</ele>
        <time>2021-05-08T07:15:58.152Z</time>
      </trkpt>
      <trkpt lat="45.62149" lon="5.27997">
        <ele>228</ele>
        <time>2021-05-08T07:15:59.152Z</time>
      </trkpt>
      <trkpt lat="45.62153" lon="5.28004">
        <ele>228</ele>
        <time>2021-05-08T07:16:00.152Z</time>
      </trkpt>
      <trkpt lat="45.62158" lon="5.28011">
        <ele>229</ele>
        <time>2021-05-08T07:16:01.152Z</time>
      </trkpt>
      <trkpt lat="45.62164" lon="5.28021">
        <ele>229</ele>
        <time>2021-05-08T07:16:02.152Z</time>
      </trkpt>
      <trkpt lat="45.6217" lon="5.28029">
        <ele>229</ele>
        <time>2021-05-08T07:16:03.152Z</time>
      </trkpt>
      <trkpt lat="45.62176" lon="5.28036">
        <ele>230</ele>
        <time>2021-05-08T07:16:04.152Z</time>
      </trkpt>
      <trkpt lat="45.6218" lon="5.28042">
        <ele>230</ele>
        <time>2021-05-08T07:16:05.152Z</time>
      </trkpt>
      <trkpt lat="45.62187" lon="5.28051">
        <ele>230</ele>
        <time>2021-05-08T07:16:06.152Z</time>
      </trkpt>
      <trkpt lat="45.62193" lon="5.28059">
        <ele>231</ele>
        <time>2021-05-08T07:16:07.152Z</time>
      </trkpt>
      <trkpt lat="45.62199" lon="5.28066">
        <ele>231</ele>
        <time>2021-05-08T07:16:08.152Z</time>
      </trkpt>
      <trkpt lat="45.62204" lon="5.28072">
        <ele>231</ele>
        <time>2021-05-08T07:16:09.152Z</time>
      </trkpt>
      <trkpt lat="45.6221" lon="5.2808">
        <ele>231</ele>
        <time>2021-05-08T07:16:10.152Z</time>
      </trkpt>
      <trkpt lat="45.62217" lon="5.28089">
        <ele>231</ele>
        <time>2021-05-08T07:16:11.152Z</time>
      </trkpt>
      <trkpt lat="45.62223" lon="5.28097">
        <ele>231</ele>
        <time>2021-05-08T07:16:12.152Z</time>
      </trkpt>
      <trkpt lat="45.6223" lon="5.28104">
        <ele>231</ele>
        <time>2021-05-08T07:16:13.152Z</time>
      </trkpt>
      <trkpt lat="45.62236" lon="5.28112">
        <ele>231</ele>
        <time>2021-05-08T07:16:14.152Z</time>
      </trkpt>
      <trkpt lat="45.62243" lon="5.2812">
        <ele>231</ele>
        <time>2021-05-08T07:16:15.152Z</time>
      </trkpt>
      <trkpt lat="45.62249" lon="5.28128">
        <ele>232</ele>
        <time>2021-05-08T07:16:16.152Z</time>
      </trkpt>
      <trkpt lat="45.62256" lon="5.28136">
        <ele>232</ele>
        <time>2021-05-08T07:16:17.152Z</time>
      </trkpt>
      <trkpt lat="45.62263" lon="5.28144">
        <ele>233</ele>
        <time>2021-05-08T07:16:18.152Z</time>
      </trkpt>
      <trkpt lat="45.6227" lon="5.28152">
        <ele>233</ele>
        <time>2021-05-08T07:16:19.152Z</time>
      </trkpt>
      <trkpt lat="45.62277" lon="5.2816">
        <ele>233</ele>
        <time>2021-05-08T07:16:20.152Z</time>
      </trkpt>
      <trkpt lat="45.62284" lon="5.28168">
        <ele>233</ele>
        <time>2021-05-08T07:16:21.152Z</time>
      </trkpt>
      <trkpt lat="45.6229" lon="5.28176">
        <ele>233</ele>
        <time>2021-05-08T07:16:22.152Z</time>
      </trkpt>
      <trkpt lat="45.62297" lon="5.28185">
        <ele>233</ele>
        <time>2021-05-08T07:16:23.152Z</time>
      </trkpt>
      <trkpt lat="45.62304" lon="5.28193">
        <ele>232</ele>
        <time>2021-05-08T07:16:24.152Z</time>
      </trkpt>
      <trkpt lat="45.6231" lon="5.28202">
        <ele>232</ele>
        <time>2021-05-08T07:16:25.152Z</time>
      </trkpt>
      <trkpt lat="45.62317" lon="5.28211">
        <ele>231</ele>
        <time>2021-05-08T07:16:26.152Z</time>
      </trkpt>
      <trkpt lat="45.62324" lon="5.28219">
        <ele>231</ele>
        <time>2021-05-08T07:16:27.152Z</time>
      </trkpt>
      <trkpt lat="45.62331" lon="5.28228">
        <ele>230</ele>
        <time>2021-05-08T07:16:28.152Z</time>
      </trkpt>
      <trkpt lat="45.62338" lon="5.28237">
        <ele>230</ele>
        <time>2021-05-08T07:16:29.152Z</time>
      </trkpt>
      <trkpt lat="45.62345" lon="5.28245">
        <ele>229</ele>
        <time>2021-05-08T07:16:30.152Z</time>
      </trkpt>
      <trkpt lat="45.62352" lon="5.28254">
        <ele>229</ele>
        <time>2021-05-08T07:16:31.152Z</time>
      </trkpt>
      <trkpt lat="45.62359" lon="5.28263">
        <ele>229</ele>
        <time>2021-05-08T07:16:32.152Z</time>
      </trkpt>
      <trkpt lat="45.62366" lon="5.28272">
        <ele>229</ele>
        <time>2021-05-08T07:16:33.152Z</time>
      </trkpt>
      <trkpt lat="45.62373" lon="5.28281">
        <ele>229</ele>
        <time>2021-05-08T07:16:34.152Z</time>
      </trkpt>
      <trkpt lat="45.6238" lon="5.28289">
        <ele>229</ele>
        <time>2021-05-08T07:16:35.152Z</time>
      </trkpt>
      <trkpt lat="45.62387" lon="5.28298">
        <ele>228</ele>
        <time>2021-05-08T07:16:36.152Z</time>
      </trkpt>
      <trkpt lat="45.62394" lon="5.28307">
        <ele>228</ele>
        <time>2021-05-08T07:16:37.152Z</time>
      </trkpt>
      <trkpt lat="45.624" lon="5.28316">
        <ele>227</ele>
        <time>2021-05-08T07:16:38.152Z</time>
      </trkpt>
      <trkpt lat="45.62407" lon="5.28324">
        <ele>227</ele>
        <time>2021-05-08T07:16:39.152Z</time>
      </trkpt>
      <trkpt lat="45.62414" lon="5.28333">
        <ele>227</ele>
        <time>2021-05-08T07:16:40.152Z</time>
      </trkpt>
      <trkpt lat="45.62421" lon="5.28341">
        <ele>227</ele>
        <time>2021-05-08T07:16:41.152Z</time>
      </trkpt>
      <trkpt lat="45.62427" lon="5.28349">
        <ele>226</ele>
        <time>2021-05-08T07:16:42.152Z</time>
      </trkpt>
      <trkpt lat="45.62434" lon="5.28357">
        <ele>226</ele>
        <time>2021-05-08T07:16:43.152Z</time>
      </trkpt>
      <trkpt lat="45.6244" lon="5.28365">
        <ele>226</ele>
        <time>2021-05-08T07:16:44.152Z</time>
      </trkpt>
      <trkpt lat="45.62447" lon="5.28373">
        <ele>226</ele>
        <time>2021-05-08T07:16:45.152Z</time>
      </trkpt>
      <trkpt lat="45.62452" lon="5.28381">
        <ele>226</ele>
        <time>2021-05-08T07:16:46.152Z</time>
      </trkpt>
      <trkpt lat="45.62458" lon="5.2839">
        <ele>226</ele>
        <time>2021-05-08T07:16:47.152Z</time>
      </trkpt>
      <trkpt lat="45.62463" lon="5.28399">
        <ele>226</ele>
        <time>2021-05-08T07:16:48.152Z</time>
      </trkpt>
      <trkpt lat="45.62468" lon="5.28409">
        <ele>226</ele>
        <time>2021-05-08T07:16:49.152Z</time>
      </trkpt>
      <trkpt lat="45.62473" lon="5.28419">
        <ele>226</ele>
        <time>2021-05-08T07:16:50.152Z</time>
      </trkpt>
      <trkpt lat="45.62477" lon="5.28429">
        <ele>226</ele>
        <time>2021-05-08T07:16:51.152Z</time>
      </trkpt>
      <trkpt lat="45.6248" lon="5.2844">
        <ele>225</ele>
        <time>2021-05-08T07:16:52.152Z</time>
      </trkpt>
      <trkpt lat="45.62483" lon="5.28451">
        <ele>225</ele>
        <time>2021-05-08T07:16:53.152Z</time>
      </trkpt>
      <trkpt lat="45.62485" lon="5.28462">
        <ele>225</ele>
        <time>2021-05-08T07:16:54.152Z</time>
      </trkpt>
      <trkpt lat="45.62487" lon="5.28474">
        <ele>225</ele>
        <time>2021-05-08T07:16:55.152Z</time>
      </trkpt>
      <trkpt lat="45.62489" lon="5.28485">
        <ele>225</ele>
        <time>2021-05-08T07:16:56.152Z</time>
      </trkpt>
      <trkpt lat="45.6249" lon="5.28497">
        <ele>225</ele>
        <time>2021-05-08T07:16:57.152Z</time>
      </trkpt>
      <trkpt lat="45.62492" lon="5.28508">
        <ele>225</ele>
        <time>2021-05-08T07:16:58.152Z</time>
      </trkpt>
      <trkpt lat="45.62494" lon="5.28519">
        <ele>225</ele>
        <time>2021-05-08T07:16:59.152Z</time>
      </trkpt>
      <trkpt lat="45.62496" lon="5.2853">
        <ele>224</ele>
        <time>2021-05-08T07:17:00.152Z</time>
      </trkpt>
      <trkpt lat="45.62499" lon="5.2854">
        <ele>224</ele>
        <time>2021-05-08T07:17:01.152Z</time>
      </trkpt>
      <trkpt lat="45.62503" lon="5.2855">
        <ele>224</ele>
        <time>2021-05-08T07:17:02.152Z</time>
      </trkpt>
      <trkpt lat="45.62507" lon="5.28559">
        <ele>224</ele>
        <time>2021-05-08T07:17:03.152Z</time>
      </trkpt>
      <trkpt lat="45.62512" lon="5.28567">
        <ele>224</ele>
        <time>2021-05-08T07:17:04.152Z</time>
      </trkpt>
      <trkpt lat="45.62517" lon="5.28575">
        <ele>225</ele>
        <time>2021-05-08T07:17:05.152Z</time>
      </trkpt>
      <trkpt lat="45.62523" lon="5.28583">
        <ele>225</ele>
        <time>2021-05-08T07:17:06.152Z</time>
      </trkpt>
      <trkpt lat="45.62528" lon="5.2859">
        <ele>225</ele>
        <time>2021-05-08T07:17:07.152Z</time>
      </trkpt>
      <trkpt lat="45.62533" lon="5.28598">
        <ele>225</ele>
        <time>2021-05-08T07:17:08.152Z</time>
      </trkpt>
      <trkpt lat="45.62538" lon="5.28606">
        <ele>225</ele>
        <time>2021-05-08T07:17:09.152Z</time>
      </trkpt>
      <trkpt lat="45.62543" lon="5.28614">
        <ele>225</ele>
        <time>2021-05-08T07:17:10.152Z</time>
      </trkpt>
      <trkpt lat="45.62548" lon="5.28622">
        <ele>225</ele>
        <time>2021-05-08T07:17:11.152Z</time>
      </trkpt>
      <trkpt lat="45.62553" lon="5.2863">
        <ele>224</ele>
        <time>2021-05-08T07:17:12.152Z</time>
      </trkpt>
      <trkpt lat="45.62557" lon="5.28639">
        <ele>224</ele>
        <time>2021-05-08T07:17:13.152Z</time>
      </trkpt>
      <trkpt lat="45.62562" lon="5.28647">
        <ele>224</ele>
        <time>2021-05-08T07:17:14.152Z</time>
      </trkpt>
      <trkpt lat="45.62567" lon="5.28655">
        <ele>224</ele>
        <time>2021-05-08T07:17:15.152Z</time>
      </trkpt>
      <trkpt lat="45.62572" lon="5.28663">
        <ele>225</ele>
        <time>2021-05-08T07:17:16.152Z</time>
      </trkpt>
      <trkpt lat="45.62575" lon="5.28671">
        <ele>225</ele>
        <time>2021-05-08T07:17:17.152Z</time>
      </trkpt>
      <trkpt lat="45.62578" lon="5.28679">
        <ele>224</ele>
        <time>2021-05-08T07:17:18.152Z</time>
      </trkpt>
      <trkpt lat="45.62581" lon="5.28688">
        <ele>224</ele>
        <time>2021-05-08T07:17:19.152Z</time>
      </trkpt>
      <trkpt lat="45.62585" lon="5.28696">
        <ele>225</ele>
        <time>2021-05-08T07:17:20.152Z</time>
      </trkpt>
      <trkpt lat="45.62589" lon="5.28703">
        <ele>225</ele>
        <time>2021-05-08T07:17:21.152Z</time>
      </trkpt>
      <trkpt lat="45.62595" lon="5.28709">
        <ele>225</ele>
        <time>2021-05-08T07:17:22.152Z</time>
      </trkpt>
      <trkpt lat="45.62601" lon="5.28711">
        <ele>226</ele>
        <time>2021-05-08T07:17:23.152Z</time>
      </trkpt>
      <trkpt lat="45.62608" lon="5.28711">
        <ele>226</ele>
        <time>2021-05-08T07:17:24.152Z</time>
      </trkpt>
      <trkpt lat="45.62615" lon="5.2871">
        <ele>226</ele>
        <time>2021-05-08T07:17:25.152Z</time>
      </trkpt>
      <trkpt lat="45.62623" lon="5.28708">
        <ele>226</ele>
        <time>2021-05-08T07:17:26.152Z</time>
      </trkpt>
      <trkpt lat="45.6263" lon="5.28707">
        <ele>225</ele>
        <time>2021-05-08T07:17:27.152Z</time>
      </trkpt>
      <trkpt lat="45.62638" lon="5.28708">
        <ele>225</ele>
        <time>2021-05-08T07:17:28.152Z</time>
      </trkpt>
      <trkpt lat="45.62646" lon="5.28708">
        <ele>225</ele>
        <time>2021-05-08T07:17:29.152Z</time>
      </trkpt>
      <trkpt lat="45.62654" lon="5.2871">
        <ele>225</ele>
        <time>2021-05-08T07:17:30.152Z</time>
      </trkpt>
      <trkpt lat="45.62662" lon="5.2871">
        <ele>224</ele>
        <time>2021-05-08T07:17:31.152Z</time>
      </trkpt>
      <trkpt lat="45.62668" lon="5.28711">
        <ele>224</ele>
        <time>2021-05-08T07:17:32.152Z</time>
      </trkpt>
      <trkpt lat="45.62678" lon="5.28713">
        <ele>225</ele>
        <time>2021-05-08T07:17:33.152Z</time>
      </trkpt>
      <trkpt lat="45.62685" lon="5.28714">
        <ele>225</ele>
        <time>2021-05-08T07:17:34.152Z</time>
      </trkpt>
      <trkpt lat="45.62693" lon="5.28716">
        <ele>225</ele>
        <time>2021-05-08T07:17:35.152Z</time>
      </trkpt>
      <trkpt lat="45.627" lon="5.28718">
        <ele>225</ele>
        <time>2021-05-08T07:17:36.152Z</time>
      </trkpt>
      <trkpt lat="45.62707" lon="5.2872">
        <ele>225</ele>
        <time>2021-05-08T07:17:37.152Z</time>
      </trkpt>
      <trkpt lat="45.62714" lon="5.28724">
        <ele>224</ele>
        <time>2021-05-08T07:17:38.152Z</time>
      </trkpt>
      <trkpt lat="45.62721" lon="5.28728">
        <ele>224</ele>
        <time>2021-05-08T07:17:39.152Z</time>
      </trkpt>
      <trkpt lat="45.62728" lon="5.28734">
        <ele>224</ele>
        <time>2021-05-08T07:17:40.152Z</time>
      </trkpt>
      <trkpt lat="45.62734" lon="5.2874">
        <ele>223</ele>
        <time>2021-05-08T07:17:41.152Z</time>
      </trkpt>
      <trkpt lat="45.6274" lon="5.28747">
        <ele>223</ele>
        <time>2021-05-08T07:17:42.152Z</time>
      </trkpt>
      <trkpt lat="45.62746" lon="5.28754">
        <ele>223</ele>
        <time>2021-05-08T07:17:43.152Z</time>
      </trkpt>
      <trkpt lat="45.62751" lon="5.28762">
        <ele>222</ele>
        <time>2021-05-08T07:17:44.152Z</time>
      </trkpt>
      <trkpt lat="45.62758" lon="5.28769">
        <ele>223</ele>
        <time>2021-05-08T07:17:45.152Z</time>
      </trkpt>
      <trkpt lat="45.62764" lon="5.28776">
        <ele>223</ele>
        <time>2021-05-08T07:17:46.152Z</time>
      </trkpt>
      <trkpt lat="45.62769" lon="5.28784">
        <ele>223</ele>
        <time>2021-05-08T07:17:47.152Z</time>
      </trkpt>
      <trkpt lat="45.62775" lon="5.28792">
        <ele>222</ele>
        <time>2021-05-08T07:17:48.152Z</time>
      </trkpt>
      <trkpt lat="45.62781" lon="5.28799">
        <ele>223</ele>
        <time>2021-05-08T07:17:49.152Z</time>
      </trkpt>
      <trkpt lat="45.62787" lon="5.28807">
        <ele>223</ele>
        <time>2021-05-08T07:17:50.152Z</time>
      </trkpt>
      <trkpt lat="45.62793" lon="5.28815">
        <ele>223</ele>
        <time>2021-05-08T07:17:51.152Z</time>
      </trkpt>
      <trkpt lat="45.62799" lon="5.28822">
        <ele>223</ele>
        <time>2021-05-08T07:17:52.152Z</time>
      </trkpt>
      <trkpt lat="45.62804" lon="5.28829">
        <ele>223</ele>
        <time>2021-05-08T07:17:53.152Z</time>
      </trkpt>
      <trkpt lat="45.6281" lon="5.28837">
        <ele>223</ele>
        <time>2021-05-08T07:17:54.152Z</time>
      </trkpt>
      <trkpt lat="45.62816" lon="5.28844">
        <ele>223</ele>
        <time>2021-05-08T07:17:55.152Z</time>
      </trkpt>
      <trkpt lat="45.62822" lon="5.28851">
        <ele>223</ele>
        <time>2021-05-08T07:17:56.152Z</time>
      </trkpt>
      <trkpt lat="45.62827" lon="5.28856">
        <ele>223</ele>
        <time>2021-05-08T07:17:57.152Z</time>
      </trkpt>
      <trkpt lat="45.62832" lon="5.28863">
        <ele>223</ele>
        <time>2021-05-08T07:17:58.152Z</time>
      </trkpt>
      <trkpt lat="45.62839" lon="5.28872">
        <ele>223</ele>
        <time>2021-05-08T07:17:59.152Z</time>
      </trkpt>
      <trkpt lat="45.62842" lon="5.28877">
        <ele>223</ele>
        <time>2021-05-08T07:18:00.152Z</time>
      </trkpt>
      <trkpt lat="45.62847" lon="5.28883">
        <ele>223</ele>
        <time>2021-05-08T07:18:01.152Z</time>
      </trkpt>
      <trkpt lat="45.62852" lon="5.28889">
        <ele>223</ele>
        <time>2021-05-08T07:18:02.152Z</time>
      </trkpt>
      <trkpt lat="45.62856" lon="5.28895">
        <ele>223</ele>
        <time>2021-05-08T07:18:03.152Z</time>
      </trkpt>
      <trkpt lat="45.6286" lon="5.289">
        <ele>223</ele>
        <time>2021-05-08T07:18:04.152Z</time>
      </trkpt>
      <trkpt lat="45.62864" lon="5.28905">
        <ele>223</ele>
        <time>2021-05-08T07:18:05.152Z</time>
      </trkpt>
      <trkpt lat="45.62868" lon="5.28911">
        <ele>223</ele>
        <time>2021-05-08T07:18:06.152Z</time>
      </trkpt>
      <trkpt lat="45.62871" lon="5.28915">
        <ele>223</ele>
        <time>2021-05-08T07:18:07.152Z</time>
      </trkpt>
      <trkpt lat="45.62875" lon="5.2892">
        <ele>223</ele>
        <time>2021-05-08T07:18:08.152Z</time>
      </trkpt>
      <trkpt lat="45.62879" lon="5.28925">
        <ele>223</ele>
        <time>2021-05-08T07:18:09.152Z</time>
      </trkpt>
      <trkpt lat="45.62883" lon="5.28931">
        <ele>223</ele>
        <time>2021-05-08T07:18:10.152Z</time>
      </trkpt>
      <trkpt lat="45.62888" lon="5.28937">
        <ele>224</ele>
        <time>2021-05-08T07:18:11.152Z</time>
      </trkpt>
      <trkpt lat="45.62893" lon="5.28943">
        <ele>224</ele>
        <time>2021-05-08T07:18:12.152Z</time>
      </trkpt>
      <trkpt lat="45.62898" lon="5.2895">
        <ele>224</ele>
        <time>2021-05-08T07:18:13.152Z</time>
      </trkpt>
      <trkpt lat="45.62903" lon="5.28956">
        <ele>224</ele>
        <time>2021-05-08T07:18:14.152Z</time>
      </trkpt>
      <trkpt lat="45.62908" lon="5.28963">
        <ele>224</ele>
        <time>2021-05-08T07:18:15.152Z</time>
      </trkpt>
      <trkpt lat="45.62914" lon="5.2897">
        <ele>225</ele>
        <time>2021-05-08T07:18:16.152Z</time>
      </trkpt>
      <trkpt lat="45.6292" lon="5.28977">
        <ele>225</ele>
        <time>2021-05-08T07:18:17.152Z</time>
      </trkpt>
      <trkpt lat="45.62926" lon="5.28985">
        <ele>225</ele>
        <time>2021-05-08T07:18:18.152Z</time>
      </trkpt>
      <trkpt lat="45.62932" lon="5.28992">
        <ele>225</ele>
        <time>2021-05-08T07:18:19.152Z</time>
      </trkpt>
      <trkpt lat="45.62938" lon="5.28999">
        <ele>225</ele>
        <time>2021-05-08T07:18:20.152Z</time>
      </trkpt>
      <trkpt lat="45.62944" lon="5.29006">
        <ele>225</ele>
        <time>2021-05-08T07:18:21.152Z</time>
      </trkpt>
      <trkpt lat="45.62949" lon="5.29013">
        <ele>225</ele>
        <time>2021-05-08T07:18:22.152Z</time>
      </trkpt>
      <trkpt lat="45.62955" lon="5.29021">
        <ele>224</ele>
        <time>2021-05-08T07:18:23.152Z</time>
      </trkpt>
      <trkpt lat="45.62963" lon="5.2903">
        <ele>224</ele>
        <time>2021-05-08T07:18:24.152Z</time>
      </trkpt>
      <trkpt lat="45.62969" lon="5.29038">
        <ele>224</ele>
        <time>2021-05-08T07:18:25.152Z</time>
      </trkpt>
      <trkpt lat="45.62974" lon="5.29045">
        <ele>224</ele>
        <time>2021-05-08T07:18:26.152Z</time>
      </trkpt>
      <trkpt lat="45.6298" lon="5.29052">
        <ele>224</ele>
        <time>2021-05-08T07:18:27.152Z</time>
      </trkpt>
      <trkpt lat="45.62986" lon="5.2906">
        <ele>224</ele>
        <time>2021-05-08T07:18:28.152Z</time>
      </trkpt>
      <trkpt lat="45.62992" lon="5.29068">
        <ele>224</ele>
        <time>2021-05-08T07:18:29.152Z</time>
      </trkpt>
      <trkpt lat="45.62999" lon="5.29077">
        <ele>223</ele>
        <time>2021-05-08T07:18:30.152Z</time>
      </trkpt>
      <trkpt lat="45.63004" lon="5.29083">
        <ele>223</ele>
        <time>2021-05-08T07:18:31.152Z</time>
      </trkpt>
      <trkpt lat="45.63011" lon="5.29093">
        <ele>223</ele>
        <time>2021-05-08T07:18:32.152Z</time>
      </trkpt>
      <trkpt lat="45.63016" lon="5.29099">
        <ele>222</ele>
        <time>2021-05-08T07:18:33.152Z</time>
      </trkpt>
      <trkpt lat="45.63022" lon="5.29107">
        <ele>222</ele>
        <time>2021-05-08T07:18:34.152Z</time>
      </trkpt>
      <trkpt lat="45.63028" lon="5.29115">
        <ele>222</ele>
        <time>2021-05-08T07:18:35.152Z</time>
      </trkpt>
      <trkpt lat="45.63034" lon="5.29123">
        <ele>222</ele>
        <time>2021-05-08T07:18:36.152Z</time>
      </trkpt>
      <trkpt lat="45.6304" lon="5.2913">
        <ele>222</ele>
        <time>2021-05-08T07:18:37.152Z</time>
      </trkpt>
      <trkpt lat="45.63047" lon="5.29138">
        <ele>222</ele>
        <time>2021-05-08T07:18:38.152Z</time>
      </trkpt>
      <trkpt lat="45.63053" lon="5.29146">
        <ele>222</ele>
        <time>2021-05-08T07:18:39.152Z</time>
      </trkpt>
      <trkpt lat="45.63059" lon="5.29154">
        <ele>223</ele>
        <time>2021-05-08T07:18:40.152Z</time>
      </trkpt>
      <trkpt lat="45.63065" lon="5.29162">
        <ele>223</ele>
        <time>2021-05-08T07:18:41.152Z</time>
      </trkpt>
      <trkpt lat="45.63071" lon="5.2917">
        <ele>222</ele>
        <time>2021-05-08T07:18:42.152Z</time>
      </trkpt>
      <trkpt lat="45.63079" lon="5.2918">
        <ele>222</ele>
        <time>2021-05-08T07:18:43.152Z</time>
      </trkpt>
      <trkpt lat="45.63085" lon="5.29188">
        <ele>222</ele>
        <time>2021-05-08T07:18:44.152Z</time>
      </trkpt>
      <trkpt lat="45.63091" lon="5.29195">
        <ele>222</ele>
        <time>2021-05-08T07:18:45.152Z</time>
      </trkpt>
      <trkpt lat="45.63097" lon="5.29203">
        <ele>223</ele>
        <time>2021-05-08T07:18:46.152Z</time>
      </trkpt>
      <trkpt lat="45.63104" lon="5.29211">
        <ele>223</ele>
        <time>2021-05-08T07:18:47.152Z</time>
      </trkpt>
      <trkpt lat="45.6311" lon="5.29219">
        <ele>223</ele>
        <time>2021-05-08T07:18:48.152Z</time>
      </trkpt>
      <trkpt lat="45.63116" lon="5.29226">
        <ele>223</ele>
        <time>2021-05-08T07:18:49.152Z</time>
      </trkpt>
      <trkpt lat="45.63122" lon="5.29234">
        <ele>224</ele>
        <time>2021-05-08T07:18:50.152Z</time>
      </trkpt>
      <trkpt lat="45.63128" lon="5.29241">
        <ele>224</ele>
        <time>2021-05-08T07:18:51.152Z</time>
      </trkpt>
      <trkpt lat="45.63134" lon="5.29249">
        <ele>224</ele>
        <time>2021-05-08T07:18:52.152Z</time>
      </trkpt>
      <trkpt lat="45.63139" lon="5.29255">
        <ele>225</ele>
        <time>2021-05-08T07:18:53.152Z</time>
      </trkpt>
      <trkpt lat="45.63146" lon="5.29264">
        <ele>225</ele>
        <time>2021-05-08T07:18:54.152Z</time>
      </trkpt>
      <trkpt lat="45.63152" lon="5.29272">
        <ele>224</ele>
        <time>2021-05-08T07:18:55.152Z</time>
      </trkpt>
      <trkpt lat="45.63158" lon="5.2928">
        <ele>224</ele>
        <time>2021-05-08T07:18:56.152Z</time>
      </trkpt>
      <trkpt lat="45.63163" lon="5.29286">
        <ele>224</ele>
        <time>2021-05-08T07:18:57.152Z</time>
      </trkpt>
      <trkpt lat="45.6317" lon="5.29295">
        <ele>224</ele>
        <time>2021-05-08T07:18:58.152Z</time>
      </trkpt>
      <trkpt lat="45.63175" lon="5.29301">
        <ele>224</ele>
        <time>2021-05-08T07:18:59.152Z</time>
      </trkpt>
      <trkpt lat="45.63182" lon="5.29309">
        <ele>224</ele>
        <time>2021-05-08T07:19:00.152Z</time>
      </trkpt>
      <trkpt lat="45.63188" lon="5.29317">
        <ele>225</ele>
        <time>2021-05-08T07:19:01.152Z</time>
      </trkpt>
      <trkpt lat="45.63194" lon="5.29325">
        <ele>225</ele>
        <time>2021-05-08T07:19:02.152Z</time>
      </trkpt>
      <trkpt lat="45.632" lon="5.29333">
        <ele>225</ele>
        <time>2021-05-08T07:19:03.152Z</time>
      </trkpt>
      <trkpt lat="45.63206" lon="5.29341">
        <ele>225</ele>
        <time>2021-05-08T07:19:04.152Z</time>
      </trkpt>
      <trkpt lat="45.63213" lon="5.2935">
        <ele>225</ele>
        <time>2021-05-08T07:19:05.152Z</time>
      </trkpt>
      <trkpt lat="45.63219" lon="5.29357">
        <ele>225</ele>
        <time>2021-05-08T07:19:06.152Z</time>
      </trkpt>
      <trkpt lat="45.63225" lon="5.29366">
        <ele>226</ele>
        <time>2021-05-08T07:19:07.152Z</time>
      </trkpt>
      <trkpt lat="45.63231" lon="5.29373">
        <ele>226</ele>
        <time>2021-05-08T07:19:08.152Z</time>
      </trkpt>
      <trkpt lat="45.63239" lon="5.29382">
        <ele>227</ele>
        <time>2021-05-08T07:19:09.152Z</time>
      </trkpt>
      <trkpt lat="45.63245" lon="5.2939">
        <ele>227</ele>
        <time>2021-05-08T07:19:10.152Z</time>
      </trkpt>
      <trkpt lat="45.6325" lon="5.29396">
        <ele>227</ele>
        <time>2021-05-08T07:19:11.152Z</time>
      </trkpt>
      <trkpt lat="45.63257" lon="5.29405">
        <ele>227</ele>
        <time>2021-05-08T07:19:12.152Z</time>
      </trkpt>
      <trkpt lat="45.63263" lon="5.29413">
        <ele>227</ele>
        <time>2021-05-08T07:19:13.152Z</time>
      </trkpt>
      <trkpt lat="45.63269" lon="5.2942">
        <ele>227</ele>
        <time>2021-05-08T07:19:14.152Z</time>
      </trkpt>
      <trkpt lat="45.63274" lon="5.29426">
        <ele>226</ele>
        <time>2021-05-08T07:19:15.152Z</time>
      </trkpt>
      <trkpt lat="45.63281" lon="5.29435">
        <ele>226</ele>
        <time>2021-05-08T07:19:16.152Z</time>
      </trkpt>
      <trkpt lat="45.63287" lon="5.29442">
        <ele>226</ele>
        <time>2021-05-08T07:19:17.152Z</time>
      </trkpt>
      <trkpt lat="45.63292" lon="5.2945">
        <ele>226</ele>
        <time>2021-05-08T07:19:18.152Z</time>
      </trkpt>
      <trkpt lat="45.63298" lon="5.29457">
        <ele>226</ele>
        <time>2021-05-08T07:19:19.152Z</time>
      </trkpt>
      <trkpt lat="45.63304" lon="5.29464">
        <ele>227</ele>
        <time>2021-05-08T07:19:20.152Z</time>
      </trkpt>
      <trkpt lat="45.6331" lon="5.29472">
        <ele>227</ele>
        <time>2021-05-08T07:19:21.152Z</time>
      </trkpt>
      <trkpt lat="45.63316" lon="5.29479">
        <ele>227</ele>
        <time>2021-05-08T07:19:22.152Z</time>
      </trkpt>
      <trkpt lat="45.63322" lon="5.29486">
        <ele>227</ele>
        <time>2021-05-08T07:19:23.152Z</time>
      </trkpt>
      <trkpt lat="45.63328" lon="5.29493">
        <ele>227</ele>
        <time>2021-05-08T07:19:24.152Z</time>
      </trkpt>
      <trkpt lat="45.63333" lon="5.29499">
        <ele>227</ele>
        <time>2021-05-08T07:19:25.152Z</time>
      </trkpt>
      <trkpt lat="45.6334" lon="5.29508">
        <ele>227</ele>
        <time>2021-05-08T07:19:26.152Z</time>
      </trkpt>
      <trkpt lat="45.63346" lon="5.29514">
        <ele>227</ele>
        <time>2021-05-08T07:19:27.152Z</time>
      </trkpt>
      <trkpt lat="45.63352" lon="5.29521">
        <ele>227</ele>
        <time>2021-05-08T07:19:28.152Z</time>
      </trkpt>
      <trkpt lat="45.63359" lon="5.29527">
        <ele>227</ele>
        <time>2021-05-08T07:19:29.152Z</time>
      </trkpt>
      <trkpt lat="45.63365" lon="5.29533">
        <ele>227</ele>
        <time>2021-05-08T07:19:30.152Z</time>
      </trkpt>
      <trkpt lat="45.6337" lon="5.29538">
        <ele>226</ele>
        <time>2021-05-08T07:19:31.152Z</time>
      </trkpt>
      <trkpt lat="45.63378" lon="5.29545">
        <ele>226</ele>
        <time>2021-05-08T07:19:32.152Z</time>
      </trkpt>
      <trkpt lat="45.63384" lon="5.29548">
        <ele>226</ele>
        <time>2021-05-08T07:19:33.152Z</time>
      </trkpt>
      <trkpt lat="45.63391" lon="5.29553">
        <ele>226</ele>
        <time>2021-05-08T07:19:34.152Z</time>
      </trkpt>
      <trkpt lat="45.63399" lon="5.29558">
        <ele>227</ele>
        <time>2021-05-08T07:19:35.152Z</time>
      </trkpt>
      <trkpt lat="45.63407" lon="5.29561">
        <ele>227</ele>
        <time>2021-05-08T07:19:36.152Z</time>
      </trkpt>
      <trkpt lat="45.63414" lon="5.29564">
        <ele>228</ele>
        <time>2021-05-08T07:19:37.152Z</time>
      </trkpt>
      <trkpt lat="45.6342" lon="5.29567">
        <ele>228</ele>
        <time>2021-05-08T07:19:38.152Z</time>
      </trkpt>
      <trkpt lat="45.63429" lon="5.2957">
        <ele>229</ele>
        <time>2021-05-08T07:19:39.152Z</time>
      </trkpt>
      <trkpt lat="45.63436" lon="5.29573">
        <ele>228</ele>
        <time>2021-05-08T07:19:40.152Z</time>
      </trkpt>
      <trkpt lat="45.63444" lon="5.29575">
        <ele>228</ele>
        <time>2021-05-08T07:19:41.152Z</time>
      </trkpt>
      <trkpt lat="45.63451" lon="5.29577">
        <ele>228</ele>
        <time>2021-05-08T07:19:42.152Z</time>
      </trkpt>
      <trkpt lat="45.63457" lon="5.29578">
        <ele>228</ele>
        <time>2021-05-08T07:19:43.152Z</time>
      </trkpt>
      <trkpt lat="45.63467" lon="5.2958">
        <ele>228</ele>
        <time>2021-05-08T07:19:44.152Z</time>
      </trkpt>
      <trkpt lat="45.63474" lon="5.29582">
        <ele>228</ele>
        <time>2021-05-08T07:19:45.152Z</time>
      </trkpt>
      <trkpt lat="45.63482" lon="5.29583">
        <ele>228</ele>
        <time>2021-05-08T07:19:46.152Z</time>
      </trkpt>
      <trkpt lat="45.6349" lon="5.29584">
        <ele>227</ele>
        <time>2021-05-08T07:19:47.152Z</time>
      </trkpt>
      <trkpt lat="45.63496" lon="5.29586">
        <ele>227</ele>
        <time>2021-05-08T07:19:48.152Z</time>
      </trkpt>
      <trkpt lat="45.63504" lon="5.29587">
        <ele>227</ele>
        <time>2021-05-08T07:19:49.152Z</time>
      </trkpt>
      <trkpt lat="45.63511" lon="5.29588">
        <ele>226</ele>
        <time>2021-05-08T07:19:50.152Z</time>
      </trkpt>
      <trkpt lat="45.63521" lon="5.29589">
        <ele>226</ele>
        <time>2021-05-08T07:19:51.152Z</time>
      </trkpt>
      <trkpt lat="45.63527" lon="5.2959">
        <ele>226</ele>
        <time>2021-05-08T07:19:52.152Z</time>
      </trkpt>
      <trkpt lat="45.63536" lon="5.29591">
        <ele>226</ele>
        <time>2021-05-08T07:19:53.152Z</time>
      </trkpt>
      <trkpt lat="45.63542" lon="5.29592">
        <ele>226</ele>
        <time>2021-05-08T07:19:54.152Z</time>
      </trkpt>
      <trkpt lat="45.6355" lon="5.29593">
        <ele>226</ele>
        <time>2021-05-08T07:19:55.152Z</time>
      </trkpt>
      <trkpt lat="45.63558" lon="5.29594">
        <ele>227</ele>
        <time>2021-05-08T07:19:56.152Z</time>
      </trkpt>
      <trkpt lat="45.63565" lon="5.29595">
        <ele>226</ele>
        <time>2021-05-08T07:19:57.152Z</time>
      </trkpt>
      <trkpt lat="45.63574" lon="5.29597">
        <ele>226</ele>
        <time>2021-05-08T07:19:58.152Z</time>
      </trkpt>
      <trkpt lat="45.63582" lon="5.29598">
        <ele>226</ele>
        <time>2021-05-08T07:19:59.152Z</time>
      </trkpt>
      <trkpt lat="45.63589" lon="5.29599">
        <ele>226</ele>
        <time>2021-05-08T07:20:00.152Z</time>
      </trkpt>
      <trkpt lat="45.63595" lon="5.296">
        <ele>227</ele>
        <time>2021-05-08T07:20:01.152Z</time>
      </trkpt>
      <trkpt lat="45.63602" lon="5.29601">
        <ele>227</ele>
        <time>2021-05-08T07:20:02.152Z</time>
      </trkpt>
      <trkpt lat="45.6361" lon="5.29602">
        <ele>227</ele>
        <time>2021-05-08T07:20:03.152Z</time>
      </trkpt>
      <trkpt lat="45.63619" lon="5.29603">
        <ele>227</ele>
        <time>2021-05-08T07:20:04.152Z</time>
      </trkpt>
      <trkpt lat="45.63626" lon="5.29604">
        <ele>227</ele>
        <time>2021-05-08T07:20:05.152Z</time>
      </trkpt>
      <trkpt lat="45.63632" lon="5.29605">
        <ele>226</ele>
        <time>2021-05-08T07:20:06.152Z</time>
      </trkpt>
      <trkpt lat="45.6364" lon="5.29606">
        <ele>226</ele>
        <time>2021-05-08T07:20:07.152Z</time>
      </trkpt>
      <trkpt lat="45.63647" lon="5.29606">
        <ele>226</ele>
        <time>2021-05-08T07:20:08.152Z</time>
      </trkpt>
      <trkpt lat="45.63656" lon="5.29608">
        <ele>226</ele>
        <time>2021-05-08T07:20:09.152Z</time>
      </trkpt>
      <trkpt lat="45.63663" lon="5.29609">
        <ele>226</ele>
        <time>2021-05-08T07:20:10.152Z</time>
      </trkpt>
      <trkpt lat="45.63669" lon="5.29609">
        <ele>226</ele>
        <time>2021-05-08T07:20:11.152Z</time>
      </trkpt>
      <trkpt lat="45.63678" lon="5.29611">
        <ele>225</ele>
        <time>2021-05-08T07:20:12.152Z</time>
      </trkpt>
      <trkpt lat="45.63686" lon="5.29612">
        <ele>225</ele>
        <time>2021-05-08T07:20:13.152Z</time>
      </trkpt>
      <trkpt lat="45.63694" lon="5.29613">
        <ele>225</ele>
        <time>2021-05-08T07:20:14.152Z</time>
      </trkpt>
      <trkpt lat="45.63701" lon="5.29615">
        <ele>224</ele>
        <time>2021-05-08T07:20:15.152Z</time>
      </trkpt>
      <trkpt lat="45.63708" lon="5.29616">
        <ele>224</ele>
        <time>2021-05-08T07:20:16.152Z</time>
      </trkpt>
      <trkpt lat="45.63717" lon="5.29617">
        <ele>225</ele>
        <time>2021-05-08T07:20:17.152Z</time>
      </trkpt>
      <trkpt lat="45.63723" lon="5.29618">
        <ele>225</ele>
        <time>2021-05-08T07:20:18.152Z</time>
      </trkpt>
      <trkpt lat="45.63732" lon="5.29619">
        <ele>226</ele>
        <time>2021-05-08T07:20:19.152Z</time>
      </trkpt>
      <trkpt lat="45.6374" lon="5.29621">
        <ele>226</ele>
        <time>2021-05-08T07:20:20.152Z</time>
      </trkpt>
      <trkpt lat="45.63746" lon="5.29622">
        <ele>226</ele>
        <time>2021-05-08T07:20:21.152Z</time>
      </trkpt>
      <trkpt lat="45.63754" lon="5.29623">
        <ele>226</ele>
        <time>2021-05-08T07:20:22.152Z</time>
      </trkpt>
      <trkpt lat="45.63764" lon="5.29625">
        <ele>226</ele>
        <time>2021-05-08T07:20:23.152Z</time>
      </trkpt>
      <trkpt lat="45.63771" lon="5.29626">
        <ele>226</ele>
        <time>2021-05-08T07:20:24.152Z</time>
      </trkpt>
      <trkpt lat="45.63778" lon="5.29627">
        <ele>226</ele>
        <time>2021-05-08T07:20:25.152Z</time>
      </trkpt>
      <trkpt lat="45.63786" lon="5.29629">
        <ele>225</ele>
        <time>2021-05-08T07:20:26.152Z</time>
      </trkpt>
      <trkpt lat="45.63795" lon="5.2963">
        <ele>225</ele>
        <time>2021-05-08T07:20:27.152Z</time>
      </trkpt>
      <trkpt lat="45.63804" lon="5.29631">
        <ele>225</ele>
        <time>2021-05-08T07:20:28.152Z</time>
      </trkpt>
      <trkpt lat="45.63812" lon="5.29632">
        <ele>225</ele>
        <time>2021-05-08T07:20:29.152Z</time>
      </trkpt>
      <trkpt lat="45.63818" lon="5.29633">
        <ele>225</ele>
        <time>2021-05-08T07:20:30.152Z</time>
      </trkpt>
      <trkpt lat="45.63828" lon="5.29634">
        <ele>225</ele>
        <time>2021-05-08T07:20:31.152Z</time>
      </trkpt>
      <trkpt lat="45.63836" lon="5.29636">
        <ele>225</ele>
        <time>2021-05-08T07:20:32.152Z</time>
      </trkpt>
      <trkpt lat="45.63844" lon="5.29637">
        <ele>226</ele>
        <time>2021-05-08T07:20:33.152Z</time>
      </trkpt>
      <trkpt lat="45.63851" lon="5.29638">
        <ele>226</ele>
        <time>2021-05-08T07:20:34.152Z</time>
      </trkpt>
      <trkpt lat="45.63861" lon="5.29639">
        <ele>226</ele>
        <time>2021-05-08T07:20:35.152Z</time>
      </trkpt>
      <trkpt lat="45.63869" lon="5.29641">
        <ele>225</ele>
        <time>2021-05-08T07:20:36.152Z</time>
      </trkpt>
      <trkpt lat="45.63877" lon="5.29642">
        <ele>225</ele>
        <time>2021-05-08T07:20:37.152Z</time>
      </trkpt>
      <trkpt lat="45.63885" lon="5.29643">
        <ele>225</ele>
        <time>2021-05-08T07:20:38.152Z</time>
      </trkpt>
      <trkpt lat="45.63892" lon="5.29644">
        <ele>225</ele>
        <time>2021-05-08T07:20:39.152Z</time>
      </trkpt>
      <trkpt lat="45.63901" lon="5.29646">
        <ele>225</ele>
        <time>2021-05-08T07:20:40.152Z</time>
      </trkpt>
      <trkpt lat="45.63909" lon="5.29647">
        <ele>225</ele>
        <time>2021-05-08T07:20:41.152Z</time>
      </trkpt>
      <trkpt lat="45.63918" lon="5.29649">
        <ele>225</ele>
        <time>2021-05-08T07:20:42.152Z</time>
      </trkpt>
      <trkpt lat="45.63924" lon="5.2965">
        <ele>225</ele>
        <time>2021-05-08T07:20:43.152Z</time>
      </trkpt>
      <trkpt lat="45.63932" lon="5.29651">
        <ele>225</ele>
        <time>2021-05-08T07:20:44.152Z</time>
      </trkpt>
      <trkpt lat="45.63942" lon="5.29653">
        <ele>225</ele>
        <time>2021-05-08T07:20:45.152Z</time>
      </trkpt>
      <trkpt lat="45.6395" lon="5.29654">
        <ele>225</ele>
        <time>2021-05-08T07:20:46.152Z</time>
      </trkpt>
      <trkpt lat="45.63958" lon="5.29655">
        <ele>225</ele>
        <time>2021-05-08T07:20:47.152Z</time>
      </trkpt>
      <trkpt lat="45.63966" lon="5.29657">
        <ele>225</ele>
        <time>2021-05-08T07:20:48.152Z</time>
      </trkpt>
      <trkpt lat="45.63974" lon="5.29658">
        <ele>224</ele>
        <time>2021-05-08T07:20:49.152Z</time>
      </trkpt>
      <trkpt lat="45.63981" lon="5.29659">
        <ele>224</ele>
        <time>2021-05-08T07:20:50.152Z</time>
      </trkpt>
      <trkpt lat="45.63989" lon="5.2966">
        <ele>225</ele>
        <time>2021-05-08T07:20:51.152Z</time>
      </trkpt>
      <trkpt lat="45.63997" lon="5.29661">
        <ele>225</ele>
        <time>2021-05-08T07:20:52.152Z</time>
      </trkpt>
      <trkpt lat="45.64005" lon="5.29662">
        <ele>225</ele>
        <time>2021-05-08T07:20:53.152Z</time>
      </trkpt>
      <trkpt lat="45.64013" lon="5.29663">
        <ele>225</ele>
        <time>2021-05-08T07:20:54.152Z</time>
      </trkpt>
      <trkpt lat="45.64021" lon="5.29664">
        <ele>225</ele>
        <time>2021-05-08T07:20:55.152Z</time>
      </trkpt>
      <trkpt lat="45.64029" lon="5.29665">
        <ele>225</ele>
        <time>2021-05-08T07:20:56.152Z</time>
      </trkpt>
      <trkpt lat="45.64037" lon="5.29667">
        <ele>225</ele>
        <time>2021-05-08T07:20:57.152Z</time>
      </trkpt>
      <trkpt lat="45.64045" lon="5.29668">
        <ele>225</ele>
        <time>2021-05-08T07:20:58.152Z</time>
      </trkpt>
      <trkpt lat="45.64053" lon="5.29669">
        <ele>225</ele>
        <time>2021-05-08T07:20:59.152Z</time>
      </trkpt>
      <trkpt lat="45.64061" lon="5.2967">
        <ele>225</ele>
        <time>2021-05-08T07:21:00.152Z</time>
      </trkpt>
      <trkpt lat="45.64067" lon="5.29671">
        <ele>225</ele>
        <time>2021-05-08T07:21:01.152Z</time>
      </trkpt>
      <trkpt lat="45.64074" lon="5.29672">
        <ele>226</ele>
        <time>2021-05-08T07:21:02.152Z</time>
      </trkpt>
      <trkpt lat="45.64082" lon="5.29673">
        <ele>226</ele>
        <time>2021-05-08T07:21:03.152Z</time>
      </trkpt>
      <trkpt lat="45.6409" lon="5.29674">
        <ele>226</ele>
        <time>2021-05-08T07:21:04.152Z</time>
      </trkpt>
      <trkpt lat="45.64098" lon="5.29675">
        <ele>227</ele>
        <time>2021-05-08T07:21:05.152Z</time>
      </trkpt>
      <trkpt lat="45.64106" lon="5.29676">
        <ele>227</ele>
        <time>2021-05-08T07:21:06.152Z</time>
      </trkpt>
      <trkpt lat="45.64113" lon="5.29678">
        <ele>227</ele>
        <time>2021-05-08T07:21:07.152Z</time>
      </trkpt>
      <trkpt lat="45.64121" lon="5.29679">
        <ele>227</ele>
        <time>2021-05-08T07:21:08.152Z</time>
      </trkpt>
      <trkpt lat="45.64128" lon="5.29681">
        <ele>226</ele>
        <time>2021-05-08T07:21:09.152Z</time>
      </trkpt>
      <trkpt lat="45.64136" lon="5.29682">
        <ele>226</ele>
        <time>2021-05-08T07:21:10.152Z</time>
      </trkpt>
      <trkpt lat="45.64143" lon="5.29684">
        <ele>226</ele>
        <time>2021-05-08T07:21:11.152Z</time>
      </trkpt>
      <trkpt lat="45.64151" lon="5.29685">
        <ele>226</ele>
        <time>2021-05-08T07:21:12.152Z</time>
      </trkpt>
      <trkpt lat="45.64158" lon="5.29686">
        <ele>226</ele>
        <time>2021-05-08T07:21:13.152Z</time>
      </trkpt>
      <trkpt lat="45.64166" lon="5.29687">
        <ele>226</ele>
        <time>2021-05-08T07:21:14.152Z</time>
      </trkpt>
      <trkpt lat="45.64174" lon="5.29688">
        <ele>226</ele>
        <time>2021-05-08T07:21:15.152Z</time>
      </trkpt>
      <trkpt lat="45.64183" lon="5.29689">
        <ele>227</ele>
        <time>2021-05-08T07:21:16.152Z</time>
      </trkpt>
      <trkpt lat="45.64188" lon="5.29691">
        <ele>227</ele>
        <time>2021-05-08T07:21:17.152Z</time>
      </trkpt>
      <trkpt lat="45.64195" lon="5.29692">
        <ele>227</ele>
        <time>2021-05-08T07:21:18.152Z</time>
      </trkpt>
      <trkpt lat="45.64204" lon="5.29695">
        <ele>227</ele>
        <time>2021-05-08T07:21:19.152Z</time>
      </trkpt>
      <trkpt lat="45.6421" lon="5.29697">
        <ele>227</ele>
        <time>2021-05-08T07:21:20.152Z</time>
      </trkpt>
      <trkpt lat="45.64217" lon="5.297">
        <ele>227</ele>
        <time>2021-05-08T07:21:21.152Z</time>
      </trkpt>
      <trkpt lat="45.64224" lon="5.29703">
        <ele>226</ele>
        <time>2021-05-08T07:21:22.152Z</time>
      </trkpt>
      <trkpt lat="45.64232" lon="5.29707">
        <ele>226</ele>
        <time>2021-05-08T07:21:23.152Z</time>
      </trkpt>
      <trkpt lat="45.64239" lon="5.2971">
        <ele>226</ele>
        <time>2021-05-08T07:21:24.152Z</time>
      </trkpt>
      <trkpt lat="45.64246" lon="5.29715">
        <ele>226</ele>
        <time>2021-05-08T07:21:25.152Z</time>
      </trkpt>
      <trkpt lat="45.64252" lon="5.29719">
        <ele>227</ele>
        <time>2021-05-08T07:21:26.152Z</time>
      </trkpt>
      <trkpt lat="45.64261" lon="5.29726">
        <ele>227</ele>
        <time>2021-05-08T07:21:27.152Z</time>
      </trkpt>
      <trkpt lat="45.64267" lon="5.29731">
        <ele>227</ele>
        <time>2021-05-08T07:21:28.152Z</time>
      </trkpt>
      <trkpt lat="45.64273" lon="5.29737">
        <ele>227</ele>
        <time>2021-05-08T07:21:29.152Z</time>
      </trkpt>
      <trkpt lat="45.64279" lon="5.29743">
        <ele>226</ele>
        <time>2021-05-08T07:21:30.152Z</time>
      </trkpt>
      <trkpt lat="45.64284" lon="5.29748">
        <ele>227</ele>
        <time>2021-05-08T07:21:31.152Z</time>
      </trkpt>
      <trkpt lat="45.6429" lon="5.29755">
        <ele>227</ele>
        <time>2021-05-08T07:21:32.152Z</time>
      </trkpt>
      <trkpt lat="45.64297" lon="5.29763">
        <ele>227</ele>
        <time>2021-05-08T07:21:33.152Z</time>
      </trkpt>
      <trkpt lat="45.64302" lon="5.2977">
        <ele>227</ele>
        <time>2021-05-08T07:21:34.152Z</time>
      </trkpt>
      <trkpt lat="45.64306" lon="5.29775">
        <ele>227</ele>
        <time>2021-05-08T07:21:35.152Z</time>
      </trkpt>
      <trkpt lat="45.64311" lon="5.29782">
        <ele>227</ele>
        <time>2021-05-08T07:21:36.152Z</time>
      </trkpt>
      <trkpt lat="45.64317" lon="5.29791">
        <ele>226</ele>
        <time>2021-05-08T07:21:37.152Z</time>
      </trkpt>
      <trkpt lat="45.64322" lon="5.29798">
        <ele>226</ele>
        <time>2021-05-08T07:21:38.152Z</time>
      </trkpt>
      <trkpt lat="45.64327" lon="5.29804">
        <ele>226</ele>
        <time>2021-05-08T07:21:39.152Z</time>
      </trkpt>
      <trkpt lat="45.64332" lon="5.29811">
        <ele>226</ele>
        <time>2021-05-08T07:21:40.152Z</time>
      </trkpt>
      <trkpt lat="45.64337" lon="5.29819">
        <ele>226</ele>
        <time>2021-05-08T07:21:41.152Z</time>
      </trkpt>
      <trkpt lat="45.64341" lon="5.29826">
        <ele>226</ele>
        <time>2021-05-08T07:21:42.152Z</time>
      </trkpt>
      <trkpt lat="45.64346" lon="5.29833">
        <ele>226</ele>
        <time>2021-05-08T07:21:43.152Z</time>
      </trkpt>
      <trkpt lat="45.64351" lon="5.2984">
        <ele>226</ele>
        <time>2021-05-08T07:21:44.152Z</time>
      </trkpt>
      <trkpt lat="45.64356" lon="5.29848">
        <ele>226</ele>
        <time>2021-05-08T07:21:45.152Z</time>
      </trkpt>
      <trkpt lat="45.64361" lon="5.29855">
        <ele>226</ele>
        <time>2021-05-08T07:21:46.152Z</time>
      </trkpt>
      <trkpt lat="45.64366" lon="5.29863">
        <ele>226</ele>
        <time>2021-05-08T07:21:47.152Z</time>
      </trkpt>
      <trkpt lat="45.64371" lon="5.2987">
        <ele>225</ele>
        <time>2021-05-08T07:21:48.152Z</time>
      </trkpt>
      <trkpt lat="45.64376" lon="5.29878">
        <ele>225</ele>
        <time>2021-05-08T07:21:49.152Z</time>
      </trkpt>
      <trkpt lat="45.64381" lon="5.29885">
        <ele>225</ele>
        <time>2021-05-08T07:21:50.152Z</time>
      </trkpt>
      <trkpt lat="45.64386" lon="5.29893">
        <ele>225</ele>
        <time>2021-05-08T07:21:51.152Z</time>
      </trkpt>
      <trkpt lat="45.64391" lon="5.299">
        <ele>225</ele>
        <time>2021-05-08T07:21:52.152Z</time>
      </trkpt>
      <trkpt lat="45.64396" lon="5.29908">
        <ele>225</ele>
        <time>2021-05-08T07:21:53.152Z</time>
      </trkpt>
      <trkpt lat="45.64402" lon="5.29915">
        <ele>225</ele>
        <time>2021-05-08T07:21:54.152Z</time>
      </trkpt>
      <trkpt lat="45.64407" lon="5.29923">
        <ele>225</ele>
        <time>2021-05-08T07:21:55.152Z</time>
      </trkpt>
      <trkpt lat="45.64414" lon="5.29932">
        <ele>226</ele>
        <time>2021-05-08T07:21:56.152Z</time>
      </trkpt>
      <trkpt lat="45.64419" lon="5.2994">
        <ele>225</ele>
        <time>2021-05-08T07:21:57.152Z</time>
      </trkpt>
      <trkpt lat="45.64424" lon="5.29946">
        <ele>225</ele>
        <time>2021-05-08T07:21:58.152Z</time>
      </trkpt>
      <trkpt lat="45.64429" lon="5.29954">
        <ele>225</ele>
        <time>2021-05-08T07:21:59.152Z</time>
      </trkpt>
      <trkpt lat="45.64435" lon="5.29961">
        <ele>225</ele>
        <time>2021-05-08T07:22:00.152Z</time>
      </trkpt>
      <trkpt lat="45.6444" lon="5.29969">
        <ele>225</ele>
        <time>2021-05-08T07:22:01.152Z</time>
      </trkpt>
      <trkpt lat="45.64447" lon="5.29978">
        <ele>225</ele>
        <time>2021-05-08T07:22:02.152Z</time>
      </trkpt>
      <trkpt lat="45.64451" lon="5.29985">
        <ele>226</ele>
        <time>2021-05-08T07:22:03.152Z</time>
      </trkpt>
      <trkpt lat="45.64457" lon="5.29993">
        <ele>226</ele>
        <time>2021-05-08T07:22:04.152Z</time>
      </trkpt>
      <trkpt lat="45.64463" lon="5.30002">
        <ele>226</ele>
        <time>2021-05-08T07:22:05.152Z</time>
      </trkpt>
      <trkpt lat="45.64467" lon="5.30008">
        <ele>225</ele>
        <time>2021-05-08T07:22:06.152Z</time>
      </trkpt>
      <trkpt lat="45.64472" lon="5.30016">
        <ele>225</ele>
        <time>2021-05-08T07:22:07.152Z</time>
      </trkpt>
      <trkpt lat="45.64478" lon="5.30024">
        <ele>225</ele>
        <time>2021-05-08T07:22:08.152Z</time>
      </trkpt>
      <trkpt lat="45.64483" lon="5.30032">
        <ele>225</ele>
        <time>2021-05-08T07:22:09.152Z</time>
      </trkpt>
      <trkpt lat="45.64488" lon="5.3004">
        <ele>226</ele>
        <time>2021-05-08T07:22:10.152Z</time>
      </trkpt>
      <trkpt lat="45.64493" lon="5.30049">
        <ele>226</ele>
        <time>2021-05-08T07:22:11.152Z</time>
      </trkpt>
      <trkpt lat="45.64499" lon="5.30057">
        <ele>226</ele>
        <time>2021-05-08T07:22:12.152Z</time>
      </trkpt>
      <trkpt lat="45.64504" lon="5.30065">
        <ele>226</ele>
        <time>2021-05-08T07:22:13.152Z</time>
      </trkpt>
      <trkpt lat="45.64509" lon="5.30073">
        <ele>226</ele>
        <time>2021-05-08T07:22:14.152Z</time>
      </trkpt>
      <trkpt lat="45.64515" lon="5.30081">
        <ele>226</ele>
        <time>2021-05-08T07:22:15.152Z</time>
      </trkpt>
      <trkpt lat="45.6452" lon="5.30089">
        <ele>226</ele>
        <time>2021-05-08T07:22:16.152Z</time>
      </trkpt>
      <trkpt lat="45.64525" lon="5.30097">
        <ele>226</ele>
        <time>2021-05-08T07:22:17.152Z</time>
      </trkpt>
      <trkpt lat="45.6453" lon="5.30105">
        <ele>226</ele>
        <time>2021-05-08T07:22:18.152Z</time>
      </trkpt>
      <trkpt lat="45.64535" lon="5.30114">
        <ele>226</ele>
        <time>2021-05-08T07:22:19.152Z</time>
      </trkpt>
      <trkpt lat="45.6454" lon="5.30122">
        <ele>227</ele>
        <time>2021-05-08T07:22:20.152Z</time>
      </trkpt>
      <trkpt lat="45.64545" lon="5.30131">
        <ele>227</ele>
        <time>2021-05-08T07:22:21.152Z</time>
      </trkpt>
      <trkpt lat="45.6455" lon="5.30139">
        <ele>227</ele>
        <time>2021-05-08T07:22:22.152Z</time>
      </trkpt>
      <trkpt lat="45.64555" lon="5.30147">
        <ele>227</ele>
        <time>2021-05-08T07:22:23.152Z</time>
      </trkpt>
      <trkpt lat="45.6456" lon="5.30154">
        <ele>227</ele>
        <time>2021-05-08T07:22:24.152Z</time>
      </trkpt>
      <trkpt lat="45.64566" lon="5.30161">
        <ele>228</ele>
        <time>2021-05-08T07:22:25.152Z</time>
      </trkpt>
      <trkpt lat="45.64571" lon="5.30169">
        <ele>228</ele>
        <time>2021-05-08T07:22:26.152Z</time>
      </trkpt>
      <trkpt lat="45.64575" lon="5.30178">
        <ele>228</ele>
        <time>2021-05-08T07:22:27.152Z</time>
      </trkpt>
      <trkpt lat="45.64577" lon="5.30187">
        <ele>227</ele>
        <time>2021-05-08T07:22:28.152Z</time>
      </trkpt>
      <trkpt lat="45.64578" lon="5.30197">
        <ele>227</ele>
        <time>2021-05-08T07:22:29.152Z</time>
      </trkpt>
      <trkpt lat="45.64578" lon="5.30207">
        <ele>226</ele>
        <time>2021-05-08T07:22:30.152Z</time>
      </trkpt>
      <trkpt lat="45.6458" lon="5.30217">
        <ele>227</ele>
        <time>2021-05-08T07:22:31.152Z</time>
      </trkpt>
      <trkpt lat="45.64583" lon="5.30225">
        <ele>227</ele>
        <time>2021-05-08T07:22:32.152Z</time>
      </trkpt>
      <trkpt lat="45.64587" lon="5.3023">
        <ele>227</ele>
        <time>2021-05-08T07:22:33.152Z</time>
      </trkpt>
      <trkpt lat="45.64593" lon="5.30232">
        <ele>227</ele>
        <time>2021-05-08T07:22:34.152Z</time>
      </trkpt>
      <trkpt lat="45.64599" lon="5.30232">
        <ele>226</ele>
        <time>2021-05-08T07:22:35.152Z</time>
      </trkpt>
      <trkpt lat="45.64605" lon="5.30228">
        <ele>226</ele>
        <time>2021-05-08T07:22:36.152Z</time>
      </trkpt>
      <trkpt lat="45.6461" lon="5.30222">
        <ele>226</ele>
        <time>2021-05-08T07:22:37.152Z</time>
      </trkpt>
      <trkpt lat="45.64615" lon="5.30213">
        <ele>225</ele>
        <time>2021-05-08T07:22:38.152Z</time>
      </trkpt>
      <trkpt lat="45.6462" lon="5.30205">
        <ele>225</ele>
        <time>2021-05-08T07:22:39.152Z</time>
      </trkpt>
      <trkpt lat="45.64626" lon="5.30196">
        <ele>225</ele>
        <time>2021-05-08T07:22:40.152Z</time>
      </trkpt>
      <trkpt lat="45.64632" lon="5.30189">
        <ele>225</ele>
        <time>2021-05-08T07:22:41.152Z</time>
      </trkpt>
      <trkpt lat="45.6464" lon="5.30182">
        <ele>225</ele>
        <time>2021-05-08T07:22:42.152Z</time>
      </trkpt>
      <trkpt lat="45.64647" lon="5.30176">
        <ele>225</ele>
        <time>2021-05-08T07:22:43.152Z</time>
      </trkpt>
      <trkpt lat="45.64654" lon="5.3017">
        <ele>225</ele>
        <time>2021-05-08T07:22:44.152Z</time>
      </trkpt>
      <trkpt lat="45.64662" lon="5.30164">
        <ele>225</ele>
        <time>2021-05-08T07:22:45.152Z</time>
      </trkpt>
      <trkpt lat="45.64669" lon="5.30158">
        <ele>225</ele>
        <time>2021-05-08T07:22:46.152Z</time>
      </trkpt>
      <trkpt lat="45.64676" lon="5.30153">
        <ele>225</ele>
        <time>2021-05-08T07:22:47.152Z</time>
      </trkpt>
      <trkpt lat="45.64684" lon="5.30147">
        <ele>225</ele>
        <time>2021-05-08T07:22:48.152Z</time>
      </trkpt>
      <trkpt lat="45.64691" lon="5.30141">
        <ele>226</ele>
        <time>2021-05-08T07:22:49.152Z</time>
      </trkpt>
      <trkpt lat="45.64699" lon="5.30136">
        <ele>227</ele>
        <time>2021-05-08T07:22:50.152Z</time>
      </trkpt>
      <trkpt lat="45.64706" lon="5.30131">
        <ele>228</ele>
        <time>2021-05-08T07:22:51.152Z</time>
      </trkpt>
      <trkpt lat="45.64713" lon="5.30126">
        <ele>228</ele>
        <time>2021-05-08T07:22:52.152Z</time>
      </trkpt>
      <trkpt lat="45.6472" lon="5.30121">
        <ele>228</ele>
        <time>2021-05-08T07:22:53.152Z</time>
      </trkpt>
      <trkpt lat="45.64727" lon="5.30116">
        <ele>228</ele>
        <time>2021-05-08T07:22:54.152Z</time>
      </trkpt>
      <trkpt lat="45.64735" lon="5.3011">
        <ele>228</ele>
        <time>2021-05-08T07:22:55.152Z</time>
      </trkpt>
      <trkpt lat="45.64742" lon="5.30105">
        <ele>228</ele>
        <time>2021-05-08T07:22:56.152Z</time>
      </trkpt>
      <trkpt lat="45.64749" lon="5.301">
        <ele>228</ele>
        <time>2021-05-08T07:22:57.152Z</time>
      </trkpt>
      <trkpt lat="45.64756" lon="5.30095">
        <ele>228</ele>
        <time>2021-05-08T07:22:58.152Z</time>
      </trkpt>
      <trkpt lat="45.64764" lon="5.3009">
        <ele>228</ele>
        <time>2021-05-08T07:22:59.152Z</time>
      </trkpt>
      <trkpt lat="45.64771" lon="5.30085">
        <ele>227</ele>
        <time>2021-05-08T07:23:00.152Z</time>
      </trkpt>
      <trkpt lat="45.64778" lon="5.3008">
        <ele>227</ele>
        <time>2021-05-08T07:23:01.152Z</time>
      </trkpt>
      <trkpt lat="45.64785" lon="5.30075">
        <ele>227</ele>
        <time>2021-05-08T07:23:02.152Z</time>
      </trkpt>
      <trkpt lat="45.64792" lon="5.3007">
        <ele>226</ele>
        <time>2021-05-08T07:23:03.152Z</time>
      </trkpt>
      <trkpt lat="45.64799" lon="5.30064">
        <ele>226</ele>
        <time>2021-05-08T07:23:04.152Z</time>
      </trkpt>
      <trkpt lat="45.64806" lon="5.30059">
        <ele>226</ele>
        <time>2021-05-08T07:23:05.152Z</time>
      </trkpt>
      <trkpt lat="45.64814" lon="5.30054">
        <ele>226</ele>
        <time>2021-05-08T07:23:06.152Z</time>
      </trkpt>
      <trkpt lat="45.64821" lon="5.30048">
        <ele>227</ele>
        <time>2021-05-08T07:23:07.152Z</time>
      </trkpt>
      <trkpt lat="45.64828" lon="5.30042">
        <ele>227</ele>
        <time>2021-05-08T07:23:08.152Z</time>
      </trkpt>
      <trkpt lat="45.64835" lon="5.30036">
        <ele>227</ele>
        <time>2021-05-08T07:23:09.152Z</time>
      </trkpt>
      <trkpt lat="45.64841" lon="5.3003">
        <ele>228</ele>
        <time>2021-05-08T07:23:10.152Z</time>
      </trkpt>
      <trkpt lat="45.64848" lon="5.30023">
        <ele>228</ele>
        <time>2021-05-08T07:23:11.152Z</time>
      </trkpt>
      <trkpt lat="45.64855" lon="5.30016">
        <ele>228</ele>
        <time>2021-05-08T07:23:12.152Z</time>
      </trkpt>
      <trkpt lat="45.64861" lon="5.30008">
        <ele>229</ele>
        <time>2021-05-08T07:23:13.152Z</time>
      </trkpt>
      <trkpt lat="45.64867" lon="5.30001">
        <ele>229</ele>
        <time>2021-05-08T07:23:14.152Z</time>
      </trkpt>
      <trkpt lat="45.64873" lon="5.29993">
        <ele>229</ele>
        <time>2021-05-08T07:23:15.152Z</time>
      </trkpt>
      <trkpt lat="45.64879" lon="5.29985">
        <ele>228</ele>
        <time>2021-05-08T07:23:16.152Z</time>
      </trkpt>
      <trkpt lat="45.64885" lon="5.29977">
        <ele>228</ele>
        <time>2021-05-08T07:23:17.152Z</time>
      </trkpt>
      <trkpt lat="45.64891" lon="5.29969">
        <ele>228</ele>
        <time>2021-05-08T07:23:18.152Z</time>
      </trkpt>
      <trkpt lat="45.64897" lon="5.29961">
        <ele>228</ele>
        <time>2021-05-08T07:23:19.152Z</time>
      </trkpt>
      <trkpt lat="45.64902" lon="5.29953">
        <ele>228</ele>
        <time>2021-05-08T07:23:20.152Z</time>
      </trkpt>
      <trkpt lat="45.64908" lon="5.29945">
        <ele>228</ele>
        <time>2021-05-08T07:23:21.152Z</time>
      </trkpt>
      <trkpt lat="45.64914" lon="5.29937">
        <ele>228</ele>
        <time>2021-05-08T07:23:22.152Z</time>
      </trkpt>
      <trkpt lat="45.6492" lon="5.29929">
        <ele>228</ele>
        <time>2021-05-08T07:23:23.152Z</time>
      </trkpt>
      <trkpt lat="45.64926" lon="5.29921">
        <ele>228</ele>
        <time>2021-05-08T07:23:24.152Z</time>
      </trkpt>
      <trkpt lat="45.64932" lon="5.29912">
        <ele>228</ele>
        <time>2021-05-08T07:23:25.152Z</time>
      </trkpt>
      <trkpt lat="45.64938" lon="5.29904">
        <ele>228</ele>
        <time>2021-05-08T07:23:26.152Z</time>
      </trkpt>
      <trkpt lat="45.64944" lon="5.29896">
        <ele>228</ele>
        <time>2021-05-08T07:23:27.152Z</time>
      </trkpt>
      <trkpt lat="45.64951" lon="5.29888">
        <ele>228</ele>
        <time>2021-05-08T07:23:28.152Z</time>
      </trkpt>
      <trkpt lat="45.64957" lon="5.29879">
        <ele>228</ele>
        <time>2021-05-08T07:23:29.152Z</time>
      </trkpt>
      <trkpt lat="45.64963" lon="5.29871">
        <ele>228</ele>
        <time>2021-05-08T07:23:30.152Z</time>
      </trkpt>
      <trkpt lat="45.64968" lon="5.29863">
        <ele>228</ele>
        <time>2021-05-08T07:23:31.152Z</time>
      </trkpt>
      <trkpt lat="45.64974" lon="5.29855">
        <ele>227</ele>
        <time>2021-05-08T07:23:32.152Z</time>
      </trkpt>
      <trkpt lat="45.6498" lon="5.29847">
        <ele>227</ele>
        <time>2021-05-08T07:23:33.152Z</time>
      </trkpt>
      <trkpt lat="45.64986" lon="5.29839">
        <ele>227</ele>
        <time>2021-05-08T07:23:34.152Z</time>
      </trkpt>
      <trkpt lat="45.64992" lon="5.2983">
        <ele>227</ele>
        <time>2021-05-08T07:23:35.152Z</time>
      </trkpt>
      <trkpt lat="45.64998" lon="5.29822">
        <ele>227</ele>
        <time>2021-05-08T07:23:36.152Z</time>
      </trkpt>
      <trkpt lat="45.65004" lon="5.29814">
        <ele>227</ele>
        <time>2021-05-08T07:23:37.152Z</time>
      </trkpt>
      <trkpt lat="45.65009" lon="5.29806">
        <ele>227</ele>
        <time>2021-05-08T07:23:38.152Z</time>
      </trkpt>
      <trkpt lat="45.65016" lon="5.29798">
        <ele>227</ele>
        <time>2021-05-08T07:23:39.152Z</time>
      </trkpt>
      <trkpt lat="45.65022" lon="5.2979">
        <ele>226</ele>
        <time>2021-05-08T07:23:40.152Z</time>
      </trkpt>
      <trkpt lat="45.65028" lon="5.29781">
        <ele>226</ele>
        <time>2021-05-08T07:23:41.152Z</time>
      </trkpt>
      <trkpt lat="45.65033" lon="5.29773">
        <ele>226</ele>
        <time>2021-05-08T07:23:42.152Z</time>
      </trkpt>
      <trkpt lat="45.65039" lon="5.29765">
        <ele>226</ele>
        <time>2021-05-08T07:23:43.152Z</time>
      </trkpt>
      <trkpt lat="45.65045" lon="5.29757">
        <ele>227</ele>
        <time>2021-05-08T07:23:44.152Z</time>
      </trkpt>
      <trkpt lat="45.65051" lon="5.29748">
        <ele>227</ele>
        <time>2021-05-08T07:23:45.152Z</time>
      </trkpt>
      <trkpt lat="45.65058" lon="5.2974">
        <ele>228</ele>
        <time>2021-05-08T07:23:46.152Z</time>
      </trkpt>
      <trkpt lat="45.65063" lon="5.29732">
        <ele>228</ele>
        <time>2021-05-08T07:23:47.152Z</time>
      </trkpt>
      <trkpt lat="45.65069" lon="5.29724">
        <ele>228</ele>
        <time>2021-05-08T07:23:48.152Z</time>
      </trkpt>
      <trkpt lat="45.65076" lon="5.29716">
        <ele>229</ele>
        <time>2021-05-08T07:23:49.152Z</time>
      </trkpt>
      <trkpt lat="45.65082" lon="5.29708">
        <ele>229</ele>
        <time>2021-05-08T07:23:50.152Z</time>
      </trkpt>
      <trkpt lat="45.65088" lon="5.297">
        <ele>229</ele>
        <time>2021-05-08T07:23:51.152Z</time>
      </trkpt>
      <trkpt lat="45.65093" lon="5.29692">
        <ele>229</ele>
        <time>2021-05-08T07:23:52.152Z</time>
      </trkpt>
      <trkpt lat="45.65099" lon="5.29684">
        <ele>229</ele>
        <time>2021-05-08T07:23:53.152Z</time>
      </trkpt>
      <trkpt lat="45.65105" lon="5.29676">
        <ele>229</ele>
        <time>2021-05-08T07:23:54.152Z</time>
      </trkpt>
      <trkpt lat="45.65111" lon="5.29667">
        <ele>230</ele>
        <time>2021-05-08T07:23:55.152Z</time>
      </trkpt>
      <trkpt lat="45.65117" lon="5.29659">
        <ele>230</ele>
        <time>2021-05-08T07:23:56.152Z</time>
      </trkpt>
      <trkpt lat="45.65122" lon="5.29651">
        <ele>230</ele>
        <time>2021-05-08T07:23:57.152Z</time>
      </trkpt>
      <trkpt lat="45.65128" lon="5.29643">
        <ele>230</ele>
        <time>2021-05-08T07:23:58.152Z</time>
      </trkpt>
      <trkpt lat="45.65134" lon="5.29635">
        <ele>230</ele>
        <time>2021-05-08T07:23:59.152Z</time>
      </trkpt>
      <trkpt lat="45.65139" lon="5.29628">
        <ele>230</ele>
        <time>2021-05-08T07:24:00.152Z</time>
      </trkpt>
      <trkpt lat="45.65145" lon="5.29621">
        <ele>230</ele>
        <time>2021-05-08T07:24:01.152Z</time>
      </trkpt>
      <trkpt lat="45.65151" lon="5.29613">
        <ele>230</ele>
        <time>2021-05-08T07:24:02.152Z</time>
      </trkpt>
      <trkpt lat="45.65157" lon="5.29605">
        <ele>230</ele>
        <time>2021-05-08T07:24:03.152Z</time>
      </trkpt>
      <trkpt lat="45.65163" lon="5.29597">
        <ele>231</ele>
        <time>2021-05-08T07:24:04.152Z</time>
      </trkpt>
      <trkpt lat="45.65169" lon="5.29589">
        <ele>231</ele>
        <time>2021-05-08T07:24:05.152Z</time>
      </trkpt>
      <trkpt lat="45.65176" lon="5.29579">
        <ele>231</ele>
        <time>2021-05-08T07:24:06.152Z</time>
      </trkpt>
      <trkpt lat="45.65182" lon="5.2957">
        <ele>231</ele>
        <time>2021-05-08T07:24:07.152Z</time>
      </trkpt>
      <trkpt lat="45.65187" lon="5.29562">
        <ele>231</ele>
        <time>2021-05-08T07:24:08.152Z</time>
      </trkpt>
      <trkpt lat="45.65192" lon="5.29554">
        <ele>231</ele>
        <time>2021-05-08T07:24:09.152Z</time>
      </trkpt>
      <trkpt lat="45.65197" lon="5.29548">
        <ele>231</ele>
        <time>2021-05-08T07:24:10.152Z</time>
      </trkpt>
      <trkpt lat="45.65204" lon="5.29539">
        <ele>231</ele>
        <time>2021-05-08T07:24:11.152Z</time>
      </trkpt>
      <trkpt lat="45.6521" lon="5.29531">
        <ele>231</ele>
        <time>2021-05-08T07:24:12.152Z</time>
      </trkpt>
      <trkpt lat="45.65215" lon="5.29524">
        <ele>230</ele>
        <time>2021-05-08T07:24:13.152Z</time>
      </trkpt>
      <trkpt lat="45.6522" lon="5.29517">
        <ele>230</ele>
        <time>2021-05-08T07:24:14.152Z</time>
      </trkpt>
      <trkpt lat="45.65226" lon="5.29509">
        <ele>229</ele>
        <time>2021-05-08T07:24:15.152Z</time>
      </trkpt>
      <trkpt lat="45.65234" lon="5.295">
        <ele>230</ele>
        <time>2021-05-08T07:24:16.152Z</time>
      </trkpt>
      <trkpt lat="45.65239" lon="5.29492">
        <ele>230</ele>
        <time>2021-05-08T07:24:17.152Z</time>
      </trkpt>
      <trkpt lat="45.65246" lon="5.29484">
        <ele>230</ele>
        <time>2021-05-08T07:24:18.152Z</time>
      </trkpt>
      <trkpt lat="45.6525" lon="5.29477">
        <ele>230</ele>
        <time>2021-05-08T07:24:19.152Z</time>
      </trkpt>
      <trkpt lat="45.65258" lon="5.29467">
        <ele>230</ele>
        <time>2021-05-08T07:24:20.152Z</time>
      </trkpt>
      <trkpt lat="45.65264" lon="5.29458">
        <ele>230</ele>
        <time>2021-05-08T07:24:21.152Z</time>
      </trkpt>
      <trkpt lat="45.6527" lon="5.29451">
        <ele>229</ele>
        <time>2021-05-08T07:24:22.152Z</time>
      </trkpt>
      <trkpt lat="45.65275" lon="5.29444">
        <ele>229</ele>
        <time>2021-05-08T07:24:23.152Z</time>
      </trkpt>
      <trkpt lat="45.65281" lon="5.29437">
        <ele>229</ele>
        <time>2021-05-08T07:24:24.152Z</time>
      </trkpt>
      <trkpt lat="45.65287" lon="5.2943">
        <ele>229</ele>
        <time>2021-05-08T07:24:25.152Z</time>
      </trkpt>
      <trkpt lat="45.65292" lon="5.29425">
        <ele>229</ele>
        <time>2021-05-08T07:24:26.152Z</time>
      </trkpt>
      <trkpt lat="45.65299" lon="5.29416">
        <ele>229</ele>
        <time>2021-05-08T07:24:27.152Z</time>
      </trkpt>
      <trkpt lat="45.65305" lon="5.29411">
        <ele>229</ele>
        <time>2021-05-08T07:24:28.152Z</time>
      </trkpt>
      <trkpt lat="45.65312" lon="5.29402">
        <ele>228</ele>
        <time>2021-05-08T07:24:29.152Z</time>
      </trkpt>
      <trkpt lat="45.65318" lon="5.29395">
        <ele>228</ele>
        <time>2021-05-08T07:24:30.152Z</time>
      </trkpt>
      <trkpt lat="45.65322" lon="5.29389">
        <ele>227</ele>
        <time>2021-05-08T07:24:31.152Z</time>
      </trkpt>
      <trkpt lat="45.65329" lon="5.29382">
        <ele>227</ele>
        <time>2021-05-08T07:24:32.152Z</time>
      </trkpt>
      <trkpt lat="45.65335" lon="5.29375">
        <ele>227</ele>
        <time>2021-05-08T07:24:33.152Z</time>
      </trkpt>
      <trkpt lat="45.65341" lon="5.29368">
        <ele>226</ele>
        <time>2021-05-08T07:24:34.152Z</time>
      </trkpt>
      <trkpt lat="45.65349" lon="5.29359">
        <ele>226</ele>
        <time>2021-05-08T07:24:35.152Z</time>
      </trkpt>
      <trkpt lat="45.65354" lon="5.29353">
        <ele>226</ele>
        <time>2021-05-08T07:24:36.152Z</time>
      </trkpt>
      <trkpt lat="45.6536" lon="5.29346">
        <ele>226</ele>
        <time>2021-05-08T07:24:37.152Z</time>
      </trkpt>
      <trkpt lat="45.65366" lon="5.29339">
        <ele>226</ele>
        <time>2021-05-08T07:24:38.152Z</time>
      </trkpt>
      <trkpt lat="45.65373" lon="5.29331">
        <ele>226</ele>
        <time>2021-05-08T07:24:39.152Z</time>
      </trkpt>
      <trkpt lat="45.65379" lon="5.29324">
        <ele>226</ele>
        <time>2021-05-08T07:24:40.152Z</time>
      </trkpt>
      <trkpt lat="45.65386" lon="5.29317">
        <ele>226</ele>
        <time>2021-05-08T07:24:41.152Z</time>
      </trkpt>
      <trkpt lat="45.65392" lon="5.2931">
        <ele>225</ele>
        <time>2021-05-08T07:24:42.152Z</time>
      </trkpt>
      <trkpt lat="45.65398" lon="5.29303">
        <ele>225</ele>
        <time>2021-05-08T07:24:43.152Z</time>
      </trkpt>
      <trkpt lat="45.65405" lon="5.29296">
        <ele>225</ele>
        <time>2021-05-08T07:24:44.152Z</time>
      </trkpt>
      <trkpt lat="45.65411" lon="5.29288">
        <ele>225</ele>
        <time>2021-05-08T07:24:45.152Z</time>
      </trkpt>
      <trkpt lat="45.65417" lon="5.29281">
        <ele>225</ele>
        <time>2021-05-08T07:24:46.152Z</time>
      </trkpt>
      <trkpt lat="45.65424" lon="5.29275">
        <ele>225</ele>
        <time>2021-05-08T07:24:47.152Z</time>
      </trkpt>
      <trkpt lat="45.6543" lon="5.29268">
        <ele>225</ele>
        <time>2021-05-08T07:24:48.152Z</time>
      </trkpt>
      <trkpt lat="45.65436" lon="5.2926">
        <ele>225</ele>
        <time>2021-05-08T07:24:49.152Z</time>
      </trkpt>
      <trkpt lat="45.65442" lon="5.29253">
        <ele>225</ele>
        <time>2021-05-08T07:24:50.152Z</time>
      </trkpt>
      <trkpt lat="45.65449" lon="5.29247">
        <ele>225</ele>
        <time>2021-05-08T07:24:51.152Z</time>
      </trkpt>
      <trkpt lat="45.65455" lon="5.2924">
        <ele>224</ele>
        <time>2021-05-08T07:24:52.152Z</time>
      </trkpt>
      <trkpt lat="45.65461" lon="5.29233">
        <ele>224</ele>
        <time>2021-05-08T07:24:53.152Z</time>
      </trkpt>
      <trkpt lat="45.65468" lon="5.29225">
        <ele>224</ele>
        <time>2021-05-08T07:24:54.152Z</time>
      </trkpt>
      <trkpt lat="45.65474" lon="5.29218">
        <ele>225</ele>
        <time>2021-05-08T07:24:55.152Z</time>
      </trkpt>
      <trkpt lat="45.65481" lon="5.29211">
        <ele>225</ele>
        <time>2021-05-08T07:24:56.152Z</time>
      </trkpt>
      <trkpt lat="45.65487" lon="5.29203">
        <ele>225</ele>
        <time>2021-05-08T07:24:57.152Z</time>
      </trkpt>
      <trkpt lat="45.65493" lon="5.29197">
        <ele>225</ele>
        <time>2021-05-08T07:24:58.152Z</time>
      </trkpt>
      <trkpt lat="45.65501" lon="5.29188">
        <ele>225</ele>
        <time>2021-05-08T07:24:59.152Z</time>
      </trkpt>
      <trkpt lat="45.65506" lon="5.29183">
        <ele>224</ele>
        <time>2021-05-08T07:25:00.152Z</time>
      </trkpt>
      <trkpt lat="45.65513" lon="5.29176">
        <ele>224</ele>
        <time>2021-05-08T07:25:01.152Z</time>
      </trkpt>
      <trkpt lat="45.65519" lon="5.29168">
        <ele>224</ele>
        <time>2021-05-08T07:25:02.152Z</time>
      </trkpt>
      <trkpt lat="45.65525" lon="5.29161">
        <ele>224</ele>
        <time>2021-05-08T07:25:03.152Z</time>
      </trkpt>
      <trkpt lat="45.65531" lon="5.29154">
        <ele>224</ele>
        <time>2021-05-08T07:25:04.152Z</time>
      </trkpt>
      <trkpt lat="45.65538" lon="5.29146">
        <ele>224</ele>
        <time>2021-05-08T07:25:05.152Z</time>
      </trkpt>
      <trkpt lat="45.65544" lon="5.29139">
        <ele>225</ele>
        <time>2021-05-08T07:25:06.152Z</time>
      </trkpt>
      <trkpt lat="45.6555" lon="5.29132">
        <ele>225</ele>
        <time>2021-05-08T07:25:07.152Z</time>
      </trkpt>
      <trkpt lat="45.65556" lon="5.29125">
        <ele>224</ele>
        <time>2021-05-08T07:25:08.152Z</time>
      </trkpt>
      <trkpt lat="45.65562" lon="5.29118">
        <ele>223</ele>
        <time>2021-05-08T07:25:09.152Z</time>
      </trkpt>
      <trkpt lat="45.65568" lon="5.29112">
        <ele>222</ele>
        <time>2021-05-08T07:25:10.152Z</time>
      </trkpt>
      <trkpt lat="45.65574" lon="5.29106">
        <ele>222</ele>
        <time>2021-05-08T07:25:11.152Z</time>
      </trkpt>
      <trkpt lat="45.6558" lon="5.29099">
        <ele>221</ele>
        <time>2021-05-08T07:25:12.152Z</time>
      </trkpt>
      <trkpt lat="45.65586" lon="5.29092">
        <ele>221</ele>
        <time>2021-05-08T07:25:13.152Z</time>
      </trkpt>
      <trkpt lat="45.65592" lon="5.29085">
        <ele>221</ele>
        <time>2021-05-08T07:25:14.152Z</time>
      </trkpt>
      <trkpt lat="45.65598" lon="5.29078">
        <ele>221</ele>
        <time>2021-05-08T07:25:15.152Z</time>
      </trkpt>
      <trkpt lat="45.65605" lon="5.29071">
        <ele>221</ele>
        <time>2021-05-08T07:25:16.152Z</time>
      </trkpt>
      <trkpt lat="45.65611" lon="5.29064">
        <ele>222</ele>
        <time>2021-05-08T07:25:17.152Z</time>
      </trkpt>
      <trkpt lat="45.65617" lon="5.29056">
        <ele>222</ele>
        <time>2021-05-08T07:25:18.152Z</time>
      </trkpt>
      <trkpt lat="45.65624" lon="5.29048">
        <ele>223</ele>
        <time>2021-05-08T07:25:19.152Z</time>
      </trkpt>
      <trkpt lat="45.6563" lon="5.29042">
        <ele>223</ele>
        <time>2021-05-08T07:25:20.152Z</time>
      </trkpt>
      <trkpt lat="45.65635" lon="5.29036">
        <ele>223</ele>
        <time>2021-05-08T07:25:21.152Z</time>
      </trkpt>
      <trkpt lat="45.65643" lon="5.29028">
        <ele>222</ele>
        <time>2021-05-08T07:25:22.152Z</time>
      </trkpt>
      <trkpt lat="45.65649" lon="5.29021">
        <ele>223</ele>
        <time>2021-05-08T07:25:23.152Z</time>
      </trkpt>
      <trkpt lat="45.65655" lon="5.29014">
        <ele>223</ele>
        <time>2021-05-08T07:25:24.152Z</time>
      </trkpt>
      <trkpt lat="45.65661" lon="5.29007">
        <ele>223</ele>
        <time>2021-05-08T07:25:25.152Z</time>
      </trkpt>
      <trkpt lat="45.65666" lon="5.29001">
        <ele>223</ele>
        <time>2021-05-08T07:25:26.152Z</time>
      </trkpt>
      <trkpt lat="45.65672" lon="5.28994">
        <ele>223</ele>
        <time>2021-05-08T07:25:27.152Z</time>
      </trkpt>
      <trkpt lat="45.65679" lon="5.28986">
        <ele>223</ele>
        <time>2021-05-08T07:25:28.152Z</time>
      </trkpt>
      <trkpt lat="45.65684" lon="5.2898">
        <ele>223</ele>
        <time>2021-05-08T07:25:29.152Z</time>
      </trkpt>
      <trkpt lat="45.6569" lon="5.28974">
        <ele>223</ele>
        <time>2021-05-08T07:25:30.152Z</time>
      </trkpt>
      <trkpt lat="45.65697" lon="5.28966">
        <ele>223</ele>
        <time>2021-05-08T07:25:31.152Z</time>
      </trkpt>
      <trkpt lat="45.65702" lon="5.28961">
        <ele>222</ele>
        <time>2021-05-08T07:25:32.152Z</time>
      </trkpt>
      <trkpt lat="45.65708" lon="5.28954">
        <ele>223</ele>
        <time>2021-05-08T07:25:33.152Z</time>
      </trkpt>
      <trkpt lat="45.65715" lon="5.28947">
        <ele>223</ele>
        <time>2021-05-08T07:25:34.152Z</time>
      </trkpt>
      <trkpt lat="45.65721" lon="5.2894">
        <ele>223</ele>
        <time>2021-05-08T07:25:35.152Z</time>
      </trkpt>
      <trkpt lat="45.65728" lon="5.28934">
        <ele>223</ele>
        <time>2021-05-08T07:25:36.152Z</time>
      </trkpt>
      <trkpt lat="45.65735" lon="5.28929">
        <ele>223</ele>
        <time>2021-05-08T07:25:37.152Z</time>
      </trkpt>
      <trkpt lat="45.65742" lon="5.28924">
        <ele>223</ele>
        <time>2021-05-08T07:25:38.152Z</time>
      </trkpt>
      <trkpt lat="45.65749" lon="5.2892">
        <ele>224</ele>
        <time>2021-05-08T07:25:39.152Z</time>
      </trkpt>
      <trkpt lat="45.65756" lon="5.28915">
        <ele>224</ele>
        <time>2021-05-08T07:25:40.152Z</time>
      </trkpt>
      <trkpt lat="45.65764" lon="5.28911">
        <ele>224</ele>
        <time>2021-05-08T07:25:41.152Z</time>
      </trkpt>
      <trkpt lat="45.65771" lon="5.28908">
        <ele>224</ele>
        <time>2021-05-08T07:25:42.152Z</time>
      </trkpt>
      <trkpt lat="45.65778" lon="5.28905">
        <ele>224</ele>
        <time>2021-05-08T07:25:43.152Z</time>
      </trkpt>
      <trkpt lat="45.65786" lon="5.28902">
        <ele>224</ele>
        <time>2021-05-08T07:25:44.152Z</time>
      </trkpt>
      <trkpt lat="45.65793" lon="5.289">
        <ele>224</ele>
        <time>2021-05-08T07:25:45.152Z</time>
      </trkpt>
      <trkpt lat="45.65801" lon="5.28897">
        <ele>224</ele>
        <time>2021-05-08T07:25:46.152Z</time>
      </trkpt>
      <trkpt lat="45.65808" lon="5.28896">
        <ele>224</ele>
        <time>2021-05-08T07:25:47.152Z</time>
      </trkpt>
      <trkpt lat="45.65815" lon="5.28894">
        <ele>223</ele>
        <time>2021-05-08T07:25:48.152Z</time>
      </trkpt>
      <trkpt lat="45.65823" lon="5.28893">
        <ele>223</ele>
        <time>2021-05-08T07:25:49.152Z</time>
      </trkpt>
      <trkpt lat="45.65831" lon="5.28893">
        <ele>224</ele>
        <time>2021-05-08T07:25:50.152Z</time>
      </trkpt>
      <trkpt lat="45.65838" lon="5.28892">
        <ele>224</ele>
        <time>2021-05-08T07:25:51.152Z</time>
      </trkpt>
      <trkpt lat="45.65846" lon="5.28892">
        <ele>225</ele>
        <time>2021-05-08T07:25:52.152Z</time>
      </trkpt>
      <trkpt lat="45.65854" lon="5.28893">
        <ele>225</ele>
        <time>2021-05-08T07:25:53.152Z</time>
      </trkpt>
      <trkpt lat="45.65861" lon="5.28894">
        <ele>226</ele>
        <time>2021-05-08T07:25:54.152Z</time>
      </trkpt>
      <trkpt lat="45.65869" lon="5.28895">
        <ele>226</ele>
        <time>2021-05-08T07:25:55.152Z</time>
      </trkpt>
      <trkpt lat="45.65876" lon="5.28897">
        <ele>226</ele>
        <time>2021-05-08T07:25:56.152Z</time>
      </trkpt>
      <trkpt lat="45.65883" lon="5.28899">
        <ele>225</ele>
        <time>2021-05-08T07:25:57.152Z</time>
      </trkpt>
      <trkpt lat="45.6589" lon="5.28902">
        <ele>225</ele>
        <time>2021-05-08T07:25:58.152Z</time>
      </trkpt>
      <trkpt lat="45.65898" lon="5.28905">
        <ele>225</ele>
        <time>2021-05-08T07:25:59.152Z</time>
      </trkpt>
      <trkpt lat="45.65905" lon="5.28908">
        <ele>225</ele>
        <time>2021-05-08T07:26:00.152Z</time>
      </trkpt>
      <trkpt lat="45.65912" lon="5.28912">
        <ele>225</ele>
        <time>2021-05-08T07:26:01.152Z</time>
      </trkpt>
      <trkpt lat="45.6592" lon="5.28916">
        <ele>225</ele>
        <time>2021-05-08T07:26:02.152Z</time>
      </trkpt>
      <trkpt lat="45.65927" lon="5.2892">
        <ele>225</ele>
        <time>2021-05-08T07:26:03.152Z</time>
      </trkpt>
      <trkpt lat="45.65934" lon="5.28925">
        <ele>226</ele>
        <time>2021-05-08T07:26:04.152Z</time>
      </trkpt>
      <trkpt lat="45.6594" lon="5.2893">
        <ele>226</ele>
        <time>2021-05-08T07:26:05.152Z</time>
      </trkpt>
      <trkpt lat="45.65947" lon="5.28935">
        <ele>226</ele>
        <time>2021-05-08T07:26:06.152Z</time>
      </trkpt>
      <trkpt lat="45.65954" lon="5.2894">
        <ele>226</ele>
        <time>2021-05-08T07:26:07.152Z</time>
      </trkpt>
      <trkpt lat="45.65961" lon="5.28945">
        <ele>226</ele>
        <time>2021-05-08T07:26:08.152Z</time>
      </trkpt>
      <trkpt lat="45.65968" lon="5.2895">
        <ele>227</ele>
        <time>2021-05-08T07:26:09.152Z</time>
      </trkpt>
      <trkpt lat="45.65975" lon="5.28955">
        <ele>227</ele>
        <time>2021-05-08T07:26:10.152Z</time>
      </trkpt>
      <trkpt lat="45.65982" lon="5.2896">
        <ele>227</ele>
        <time>2021-05-08T07:26:11.152Z</time>
      </trkpt>
      <trkpt lat="45.65989" lon="5.28965">
        <ele>227</ele>
        <time>2021-05-08T07:26:12.152Z</time>
      </trkpt>
      <trkpt lat="45.65996" lon="5.2897">
        <ele>226</ele>
        <time>2021-05-08T07:26:13.152Z</time>
      </trkpt>
      <trkpt lat="45.66002" lon="5.28975">
        <ele>226</ele>
        <time>2021-05-08T07:26:14.152Z</time>
      </trkpt>
      <trkpt lat="45.66009" lon="5.2898">
        <ele>225</ele>
        <time>2021-05-08T07:26:15.152Z</time>
      </trkpt>
      <trkpt lat="45.66016" lon="5.28985">
        <ele>225</ele>
        <time>2021-05-08T07:26:16.152Z</time>
      </trkpt>
      <trkpt lat="45.66024" lon="5.28991">
        <ele>225</ele>
        <time>2021-05-08T07:26:17.152Z</time>
      </trkpt>
      <trkpt lat="45.6603" lon="5.28995">
        <ele>225</ele>
        <time>2021-05-08T07:26:18.152Z</time>
      </trkpt>
      <trkpt lat="45.66036" lon="5.29">
        <ele>224</ele>
        <time>2021-05-08T07:26:19.152Z</time>
      </trkpt>
      <trkpt lat="45.66043" lon="5.29005">
        <ele>224</ele>
        <time>2021-05-08T07:26:20.152Z</time>
      </trkpt>
      <trkpt lat="45.6605" lon="5.2901">
        <ele>224</ele>
        <time>2021-05-08T07:26:21.152Z</time>
      </trkpt>
      <trkpt lat="45.66057" lon="5.29014">
        <ele>225</ele>
        <time>2021-05-08T07:26:22.152Z</time>
      </trkpt>
      <trkpt lat="45.66063" lon="5.29019">
        <ele>225</ele>
        <time>2021-05-08T07:26:23.152Z</time>
      </trkpt>
      <trkpt lat="45.6607" lon="5.29024">
        <ele>225</ele>
        <time>2021-05-08T07:26:24.152Z</time>
      </trkpt>
      <trkpt lat="45.66076" lon="5.29029">
        <ele>225</ele>
        <time>2021-05-08T07:26:25.152Z</time>
      </trkpt>
      <trkpt lat="45.66083" lon="5.29033">
        <ele>225</ele>
        <time>2021-05-08T07:26:26.152Z</time>
      </trkpt>
      <trkpt lat="45.66089" lon="5.29038">
        <ele>225</ele>
        <time>2021-05-08T07:26:27.152Z</time>
      </trkpt>
      <trkpt lat="45.66096" lon="5.29042">
        <ele>226</ele>
        <time>2021-05-08T07:26:28.152Z</time>
      </trkpt>
      <trkpt lat="45.66102" lon="5.29046">
        <ele>226</ele>
        <time>2021-05-08T07:26:29.152Z</time>
      </trkpt>
      <trkpt lat="45.66109" lon="5.2905">
        <ele>226</ele>
        <time>2021-05-08T07:26:30.152Z</time>
      </trkpt>
      <trkpt lat="45.66115" lon="5.29055">
        <ele>226</ele>
        <time>2021-05-08T07:26:31.152Z</time>
      </trkpt>
      <trkpt lat="45.6612" lon="5.29059">
        <ele>226</ele>
        <time>2021-05-08T07:26:32.152Z</time>
      </trkpt>
      <trkpt lat="45.66126" lon="5.29063">
        <ele>225</ele>
        <time>2021-05-08T07:26:33.152Z</time>
      </trkpt>
      <trkpt lat="45.66132" lon="5.29068">
        <ele>225</ele>
        <time>2021-05-08T07:26:34.152Z</time>
      </trkpt>
      <trkpt lat="45.66138" lon="5.29072">
        <ele>225</ele>
        <time>2021-05-08T07:26:35.152Z</time>
      </trkpt>
      <trkpt lat="45.66144" lon="5.29077">
        <ele>225</ele>
        <time>2021-05-08T07:26:36.152Z</time>
      </trkpt>
      <trkpt lat="45.6615" lon="5.29081">
        <ele>225</ele>
        <time>2021-05-08T07:26:37.152Z</time>
      </trkpt>
      <trkpt lat="45.66156" lon="5.29086">
        <ele>226</ele>
        <time>2021-05-08T07:26:38.152Z</time>
      </trkpt>
      <trkpt lat="45.66163" lon="5.29091">
        <ele>226</ele>
        <time>2021-05-08T07:26:39.152Z</time>
      </trkpt>
      <trkpt lat="45.66169" lon="5.29096">
        <ele>227</ele>
        <time>2021-05-08T07:26:40.152Z</time>
      </trkpt>
      <trkpt lat="45.66175" lon="5.29102">
        <ele>227</ele>
        <time>2021-05-08T07:26:41.152Z</time>
      </trkpt>
      <trkpt lat="45.66181" lon="5.29108">
        <ele>227</ele>
        <time>2021-05-08T07:26:42.152Z</time>
      </trkpt>
      <trkpt lat="45.66187" lon="5.29114">
        <ele>227</ele>
        <time>2021-05-08T07:26:43.152Z</time>
      </trkpt>
      <trkpt lat="45.66193" lon="5.29121">
        <ele>227</ele>
        <time>2021-05-08T07:26:44.152Z</time>
      </trkpt>
      <trkpt lat="45.66198" lon="5.29128">
        <ele>227</ele>
        <time>2021-05-08T07:26:45.152Z</time>
      </trkpt>
      <trkpt lat="45.66204" lon="5.29135">
        <ele>228</ele>
        <time>2021-05-08T07:26:46.152Z</time>
      </trkpt>
      <trkpt lat="45.6621" lon="5.29143">
        <ele>228</ele>
        <time>2021-05-08T07:26:47.152Z</time>
      </trkpt>
      <trkpt lat="45.66214" lon="5.2915">
        <ele>227</ele>
        <time>2021-05-08T07:26:48.152Z</time>
      </trkpt>
      <trkpt lat="45.6622" lon="5.29157">
        <ele>226</ele>
        <time>2021-05-08T07:26:49.152Z</time>
      </trkpt>
      <trkpt lat="45.66225" lon="5.29164">
        <ele>226</ele>
        <time>2021-05-08T07:26:50.152Z</time>
      </trkpt>
      <trkpt lat="45.66231" lon="5.29172">
        <ele>226</ele>
        <time>2021-05-08T07:26:51.152Z</time>
      </trkpt>
      <trkpt lat="45.66237" lon="5.29179">
        <ele>226</ele>
        <time>2021-05-08T07:26:52.152Z</time>
      </trkpt>
      <trkpt lat="45.66242" lon="5.29186">
        <ele>226</ele>
        <time>2021-05-08T07:26:53.152Z</time>
      </trkpt>
      <trkpt lat="45.66248" lon="5.29193">
        <ele>226</ele>
        <time>2021-05-08T07:26:54.152Z</time>
      </trkpt>
      <trkpt lat="45.66254" lon="5.29201">
        <ele>226</ele>
        <time>2021-05-08T07:26:55.152Z</time>
      </trkpt>
      <trkpt lat="45.66259" lon="5.29208">
        <ele>226</ele>
        <time>2021-05-08T07:26:56.152Z</time>
      </trkpt>
      <trkpt lat="45.66265" lon="5.29216">
        <ele>227</ele>
        <time>2021-05-08T07:26:57.152Z</time>
      </trkpt>
      <trkpt lat="45.66271" lon="5.29223">
        <ele>227</ele>
        <time>2021-05-08T07:26:58.152Z</time>
      </trkpt>
      <trkpt lat="45.66276" lon="5.29231">
        <ele>227</ele>
        <time>2021-05-08T07:26:59.152Z</time>
      </trkpt>
      <trkpt lat="45.66282" lon="5.29238">
        <ele>227</ele>
        <time>2021-05-08T07:27:00.152Z</time>
      </trkpt>
      <trkpt lat="45.66288" lon="5.29246">
        <ele>227</ele>
        <time>2021-05-08T07:27:01.152Z</time>
      </trkpt>
      <trkpt lat="45.66294" lon="5.29253">
        <ele>227</ele>
        <time>2021-05-08T07:27:02.152Z</time>
      </trkpt>
      <trkpt lat="45.66299" lon="5.2926">
        <ele>227</ele>
        <time>2021-05-08T07:27:03.152Z</time>
      </trkpt>
      <trkpt lat="45.66305" lon="5.29267">
        <ele>227</ele>
        <time>2021-05-08T07:27:04.152Z</time>
      </trkpt>
      <trkpt lat="45.66311" lon="5.29275">
        <ele>227</ele>
        <time>2021-05-08T07:27:05.152Z</time>
      </trkpt>
      <trkpt lat="45.66316" lon="5.29282">
        <ele>227</ele>
        <time>2021-05-08T07:27:06.152Z</time>
      </trkpt>
      <trkpt lat="45.66322" lon="5.29289">
        <ele>227</ele>
        <time>2021-05-08T07:27:07.152Z</time>
      </trkpt>
      <trkpt lat="45.66328" lon="5.29296">
        <ele>226</ele>
        <time>2021-05-08T07:27:08.152Z</time>
      </trkpt>
      <trkpt lat="45.66333" lon="5.29304">
        <ele>226</ele>
        <time>2021-05-08T07:27:09.152Z</time>
      </trkpt>
      <trkpt lat="45.66339" lon="5.29311">
        <ele>226</ele>
        <time>2021-05-08T07:27:10.152Z</time>
      </trkpt>
      <trkpt lat="45.66345" lon="5.29317">
        <ele>226</ele>
        <time>2021-05-08T07:27:11.152Z</time>
      </trkpt>
      <trkpt lat="45.66351" lon="5.29324">
        <ele>227</ele>
        <time>2021-05-08T07:27:12.152Z</time>
      </trkpt>
      <trkpt lat="45.66356" lon="5.29331">
        <ele>227</ele>
        <time>2021-05-08T07:27:13.152Z</time>
      </trkpt>
      <trkpt lat="45.66362" lon="5.29339">
        <ele>227</ele>
        <time>2021-05-08T07:27:14.152Z</time>
      </trkpt>
      <trkpt lat="45.66367" lon="5.29346">
        <ele>227</ele>
        <time>2021-05-08T07:27:15.152Z</time>
      </trkpt>
      <trkpt lat="45.66373" lon="5.29353">
        <ele>227</ele>
        <time>2021-05-08T07:27:16.152Z</time>
      </trkpt>
      <trkpt lat="45.66378" lon="5.29359">
        <ele>227</ele>
        <time>2021-05-08T07:27:17.152Z</time>
      </trkpt>
      <trkpt lat="45.66384" lon="5.29366">
        <ele>227</ele>
        <time>2021-05-08T07:27:18.152Z</time>
      </trkpt>
      <trkpt lat="45.66389" lon="5.29373">
        <ele>227</ele>
        <time>2021-05-08T07:27:19.152Z</time>
      </trkpt>
      <trkpt lat="45.66394" lon="5.2938">
        <ele>228</ele>
        <time>2021-05-08T07:27:20.152Z</time>
      </trkpt>
      <trkpt lat="45.664" lon="5.29387">
        <ele>228</ele>
        <time>2021-05-08T07:27:21.152Z</time>
      </trkpt>
      <trkpt lat="45.66405" lon="5.29394">
        <ele>229</ele>
        <time>2021-05-08T07:27:22.152Z</time>
      </trkpt>
      <trkpt lat="45.66411" lon="5.29401">
        <ele>229</ele>
        <time>2021-05-08T07:27:23.152Z</time>
      </trkpt>
      <trkpt lat="45.66416" lon="5.29408">
        <ele>229</ele>
        <time>2021-05-08T07:27:24.152Z</time>
      </trkpt>
      <trkpt lat="45.66421" lon="5.29415">
        <ele>229</ele>
        <time>2021-05-08T07:27:25.152Z</time>
      </trkpt>
      <trkpt lat="45.66427" lon="5.29422">
        <ele>229</ele>
        <time>2021-05-08T07:27:26.152Z</time>
      </trkpt>
      <trkpt lat="45.66432" lon="5.29428">
        <ele>229</ele>
        <time>2021-05-08T07:27:27.152Z</time>
      </trkpt>
      <trkpt lat="45.66437" lon="5.29435">
        <ele>229</ele>
        <time>2021-05-08T07:27:28.152Z</time>
      </trkpt>
      <trkpt lat="45.66442" lon="5.29442">
        <ele>230</ele>
        <time>2021-05-08T07:27:29.152Z</time>
      </trkpt>
      <trkpt lat="45.66447" lon="5.29448">
        <ele>230</ele>
        <time>2021-05-08T07:27:30.152Z</time>
      </trkpt>
      <trkpt lat="45.66453" lon="5.29455">
        <ele>230</ele>
        <time>2021-05-08T07:27:31.152Z</time>
      </trkpt>
      <trkpt lat="45.66458" lon="5.29461">
        <ele>230</ele>
        <time>2021-05-08T07:27:32.152Z</time>
      </trkpt>
      <trkpt lat="45.66463" lon="5.29467">
        <ele>230</ele>
        <time>2021-05-08T07:27:33.152Z</time>
      </trkpt>
      <trkpt lat="45.66467" lon="5.29473">
        <ele>231</ele>
        <time>2021-05-08T07:27:34.152Z</time>
      </trkpt>
      <trkpt lat="45.66472" lon="5.29479">
        <ele>231</ele>
        <time>2021-05-08T07:27:35.152Z</time>
      </trkpt>
      <trkpt lat="45.66477" lon="5.29485">
        <ele>231</ele>
        <time>2021-05-08T07:27:36.152Z</time>
      </trkpt>
      <trkpt lat="45.66482" lon="5.29492">
        <ele>231</ele>
        <time>2021-05-08T07:27:37.152Z</time>
      </trkpt>
      <trkpt lat="45.66488" lon="5.29498">
        <ele>231</ele>
        <time>2021-05-08T07:27:38.152Z</time>
      </trkpt>
      <trkpt lat="45.66493" lon="5.29505">
        <ele>231</ele>
        <time>2021-05-08T07:27:39.152Z</time>
      </trkpt>
      <trkpt lat="45.66498" lon="5.29512">
        <ele>231</ele>
        <time>2021-05-08T07:27:40.152Z</time>
      </trkpt>
      <trkpt lat="45.66503" lon="5.29519">
        <ele>231</ele>
        <time>2021-05-08T07:27:41.152Z</time>
      </trkpt>
      <trkpt lat="45.66508" lon="5.29526">
        <ele>230</ele>
        <time>2021-05-08T07:27:42.152Z</time>
      </trkpt>
      <trkpt lat="45.66514" lon="5.29533">
        <ele>230</ele>
        <time>2021-05-08T07:27:43.152Z</time>
      </trkpt>
      <trkpt lat="45.66519" lon="5.29539">
        <ele>230</ele>
        <time>2021-05-08T07:27:44.152Z</time>
      </trkpt>
      <trkpt lat="45.66524" lon="5.29546">
        <ele>229</ele>
        <time>2021-05-08T07:27:45.152Z</time>
      </trkpt>
      <trkpt lat="45.6653" lon="5.29553">
        <ele>230</ele>
        <time>2021-05-08T07:27:46.152Z</time>
      </trkpt>
      <trkpt lat="45.66535" lon="5.29559">
        <ele>230</ele>
        <time>2021-05-08T07:27:47.152Z</time>
      </trkpt>
      <trkpt lat="45.66541" lon="5.29566">
        <ele>231</ele>
        <time>2021-05-08T07:27:48.152Z</time>
      </trkpt>
      <trkpt lat="45.66546" lon="5.29572">
        <ele>231</ele>
        <time>2021-05-08T07:27:49.152Z</time>
      </trkpt>
      <trkpt lat="45.66551" lon="5.29579">
        <ele>232</ele>
        <time>2021-05-08T07:27:50.152Z</time>
      </trkpt>
      <trkpt lat="45.66556" lon="5.29585">
        <ele>232</ele>
        <time>2021-05-08T07:27:51.152Z</time>
      </trkpt>
      <trkpt lat="45.66561" lon="5.29592">
        <ele>233</ele>
        <time>2021-05-08T07:27:52.152Z</time>
      </trkpt>
      <trkpt lat="45.66567" lon="5.29598">
        <ele>233</ele>
        <time>2021-05-08T07:27:53.152Z</time>
      </trkpt>
      <trkpt lat="45.66572" lon="5.29605">
        <ele>233</ele>
        <time>2021-05-08T07:27:54.152Z</time>
      </trkpt>
      <trkpt lat="45.66577" lon="5.29611">
        <ele>233</ele>
        <time>2021-05-08T07:27:55.152Z</time>
      </trkpt>
      <trkpt lat="45.66582" lon="5.29618">
        <ele>233</ele>
        <time>2021-05-08T07:27:56.152Z</time>
      </trkpt>
      <trkpt lat="45.66588" lon="5.29624">
        <ele>234</ele>
        <time>2021-05-08T07:27:57.152Z</time>
      </trkpt>
      <trkpt lat="45.66593" lon="5.29631">
        <ele>234</ele>
        <time>2021-05-08T07:27:58.152Z</time>
      </trkpt>
      <trkpt lat="45.66598" lon="5.29637">
        <ele>235</ele>
        <time>2021-05-08T07:27:59.152Z</time>
      </trkpt>
      <trkpt lat="45.66604" lon="5.29644">
        <ele>235</ele>
        <time>2021-05-08T07:28:00.152Z</time>
      </trkpt>
      <trkpt lat="45.66609" lon="5.2965">
        <ele>235</ele>
        <time>2021-05-08T07:28:01.152Z</time>
      </trkpt>
      <trkpt lat="45.66614" lon="5.29657">
        <ele>235</ele>
        <time>2021-05-08T07:28:02.152Z</time>
      </trkpt>
      <trkpt lat="45.6662" lon="5.29664">
        <ele>235</ele>
        <time>2021-05-08T07:28:03.152Z</time>
      </trkpt>
      <trkpt lat="45.66626" lon="5.2967">
        <ele>234</ele>
        <time>2021-05-08T07:28:04.152Z</time>
      </trkpt>
      <trkpt lat="45.66631" lon="5.29676">
        <ele>234</ele>
        <time>2021-05-08T07:28:05.152Z</time>
      </trkpt>
      <trkpt lat="45.66637" lon="5.29683">
        <ele>234</ele>
        <time>2021-05-08T07:28:06.152Z</time>
      </trkpt>
      <trkpt lat="45.66643" lon="5.29689">
        <ele>234</ele>
        <time>2021-05-08T07:28:07.152Z</time>
      </trkpt>
      <trkpt lat="45.66649" lon="5.29694">
        <ele>234</ele>
        <time>2021-05-08T07:28:08.152Z</time>
      </trkpt>
      <trkpt lat="45.66655" lon="5.297">
        <ele>234</ele>
        <time>2021-05-08T07:28:09.152Z</time>
      </trkpt>
      <trkpt lat="45.66661" lon="5.29705">
        <ele>234</ele>
        <time>2021-05-08T07:28:10.152Z</time>
      </trkpt>
      <trkpt lat="45.66667" lon="5.2971">
        <ele>233</ele>
        <time>2021-05-08T07:28:11.152Z</time>
      </trkpt>
      <trkpt lat="45.66673" lon="5.29714">
        <ele>233</ele>
        <time>2021-05-08T07:28:12.152Z</time>
      </trkpt>
      <trkpt lat="45.66679" lon="5.29719">
        <ele>233</ele>
        <time>2021-05-08T07:28:13.152Z</time>
      </trkpt>
      <trkpt lat="45.66685" lon="5.29724">
        <ele>233</ele>
        <time>2021-05-08T07:28:14.152Z</time>
      </trkpt>
      <trkpt lat="45.66691" lon="5.29728">
        <ele>232</ele>
        <time>2021-05-08T07:28:15.152Z</time>
      </trkpt>
      <trkpt lat="45.66697" lon="5.29733">
        <ele>232</ele>
        <time>2021-05-08T07:28:16.152Z</time>
      </trkpt>
      <trkpt lat="45.66703" lon="5.29737">
        <ele>232</ele>
        <time>2021-05-08T07:28:17.152Z</time>
      </trkpt>
      <trkpt lat="45.66709" lon="5.29741">
        <ele>231</ele>
        <time>2021-05-08T07:28:18.152Z</time>
      </trkpt>
      <trkpt lat="45.66715" lon="5.29746">
        <ele>231</ele>
        <time>2021-05-08T07:28:19.152Z</time>
      </trkpt>
      <trkpt lat="45.66721" lon="5.2975">
        <ele>231</ele>
        <time>2021-05-08T07:28:20.152Z</time>
      </trkpt>
      <trkpt lat="45.66727" lon="5.29755">
        <ele>231</ele>
        <time>2021-05-08T07:28:21.152Z</time>
      </trkpt>
      <trkpt lat="45.66733" lon="5.29759">
        <ele>231</ele>
        <time>2021-05-08T07:28:22.152Z</time>
      </trkpt>
      <trkpt lat="45.66739" lon="5.29763">
        <ele>231</ele>
        <time>2021-05-08T07:28:23.152Z</time>
      </trkpt>
      <trkpt lat="45.66745" lon="5.29768">
        <ele>231</ele>
        <time>2021-05-08T07:28:24.152Z</time>
      </trkpt>
      <trkpt lat="45.66751" lon="5.29772">
        <ele>231</ele>
        <time>2021-05-08T07:28:25.152Z</time>
      </trkpt>
      <trkpt lat="45.66758" lon="5.29776">
        <ele>232</ele>
        <time>2021-05-08T07:28:26.152Z</time>
      </trkpt>
      <trkpt lat="45.66764" lon="5.29781">
        <ele>232</ele>
        <time>2021-05-08T07:28:27.152Z</time>
      </trkpt>
      <trkpt lat="45.6677" lon="5.29785">
        <ele>232</ele>
        <time>2021-05-08T07:28:28.152Z</time>
      </trkpt>
      <trkpt lat="45.66776" lon="5.2979">
        <ele>232</ele>
        <time>2021-05-08T07:28:29.152Z</time>
      </trkpt>
      <trkpt lat="45.66783" lon="5.29794">
        <ele>232</ele>
        <time>2021-05-08T07:28:30.152Z</time>
      </trkpt>
      <trkpt lat="45.66789" lon="5.29799">
        <ele>232</ele>
        <time>2021-05-08T07:28:31.152Z</time>
      </trkpt>
      <trkpt lat="45.66796" lon="5.29804">
        <ele>232</ele>
        <time>2021-05-08T07:28:32.152Z</time>
      </trkpt>
      <trkpt lat="45.66802" lon="5.29808">
        <ele>232</ele>
        <time>2021-05-08T07:28:33.152Z</time>
      </trkpt>
      <trkpt lat="45.66808" lon="5.29813">
        <ele>232</ele>
        <time>2021-05-08T07:28:34.152Z</time>
      </trkpt>
      <trkpt lat="45.66815" lon="5.29817">
        <ele>233</ele>
        <time>2021-05-08T07:28:35.152Z</time>
      </trkpt>
      <trkpt lat="45.66821" lon="5.29822">
        <ele>233</ele>
        <time>2021-05-08T07:28:36.152Z</time>
      </trkpt>
      <trkpt lat="45.66827" lon="5.29827">
        <ele>233</ele>
        <time>2021-05-08T07:28:37.152Z</time>
      </trkpt>
      <trkpt lat="45.66834" lon="5.29831">
        <ele>233</ele>
        <time>2021-05-08T07:28:38.152Z</time>
      </trkpt>
      <trkpt lat="45.6684" lon="5.29836">
        <ele>234</ele>
        <time>2021-05-08T07:28:39.152Z</time>
      </trkpt>
      <trkpt lat="45.66847" lon="5.2984">
        <ele>234</ele>
        <time>2021-05-08T07:28:40.152Z</time>
      </trkpt>
      <trkpt lat="45.66853" lon="5.29845">
        <ele>233</ele>
        <time>2021-05-08T07:28:41.152Z</time>
      </trkpt>
      <trkpt lat="45.66859" lon="5.29849">
        <ele>233</ele>
        <time>2021-05-08T07:28:42.152Z</time>
      </trkpt>
      <trkpt lat="45.66865" lon="5.29854">
        <ele>233</ele>
        <time>2021-05-08T07:28:43.152Z</time>
      </trkpt>
      <trkpt lat="45.66872" lon="5.29858">
        <ele>233</ele>
        <time>2021-05-08T07:28:44.152Z</time>
      </trkpt>
      <trkpt lat="45.66878" lon="5.29862">
        <ele>234</ele>
        <time>2021-05-08T07:28:45.152Z</time>
      </trkpt>
      <trkpt lat="45.66885" lon="5.29867">
        <ele>234</ele>
        <time>2021-05-08T07:28:46.152Z</time>
      </trkpt>
      <trkpt lat="45.66891" lon="5.29872">
        <ele>233</ele>
        <time>2021-05-08T07:28:47.152Z</time>
      </trkpt>
      <trkpt lat="45.66898" lon="5.29876">
        <ele>233</ele>
        <time>2021-05-08T07:28:48.152Z</time>
      </trkpt>
      <trkpt lat="45.66905" lon="5.29881">
        <ele>233</ele>
        <time>2021-05-08T07:28:49.152Z</time>
      </trkpt>
      <trkpt lat="45.66911" lon="5.29886">
        <ele>234</ele>
        <time>2021-05-08T07:28:50.152Z</time>
      </trkpt>
      <trkpt lat="45.66918" lon="5.2989">
        <ele>234</ele>
        <time>2021-05-08T07:28:51.152Z</time>
      </trkpt>
      <trkpt lat="45.66925" lon="5.29895">
        <ele>234</ele>
        <time>2021-05-08T07:28:52.152Z</time>
      </trkpt>
      <trkpt lat="45.66931" lon="5.299">
        <ele>234</ele>
        <time>2021-05-08T07:28:53.152Z</time>
      </trkpt>
      <trkpt lat="45.66938" lon="5.29904">
        <ele>234</ele>
        <time>2021-05-08T07:28:54.152Z</time>
      </trkpt>
      <trkpt lat="45.66944" lon="5.29908">
        <ele>233</ele>
        <time>2021-05-08T07:28:55.152Z</time>
      </trkpt>
      <trkpt lat="45.66951" lon="5.29912">
        <ele>233</ele>
        <time>2021-05-08T07:28:56.152Z</time>
      </trkpt>
      <trkpt lat="45.66958" lon="5.29916">
        <ele>234</ele>
        <time>2021-05-08T07:28:57.152Z</time>
      </trkpt>
      <trkpt lat="45.66964" lon="5.2992">
        <ele>234</ele>
        <time>2021-05-08T07:28:58.152Z</time>
      </trkpt>
      <trkpt lat="45.66971" lon="5.29923">
        <ele>233</ele>
        <time>2021-05-08T07:28:59.152Z</time>
      </trkpt>
      <trkpt lat="45.66977" lon="5.29925">
        <ele>233</ele>
        <time>2021-05-08T07:29:00.152Z</time>
      </trkpt>
      <trkpt lat="45.66984" lon="5.29928">
        <ele>233</ele>
        <time>2021-05-08T07:29:01.152Z</time>
      </trkpt>
      <trkpt lat="45.66991" lon="5.29931">
        <ele>234</ele>
        <time>2021-05-08T07:29:02.152Z</time>
      </trkpt>
      <trkpt lat="45.66997" lon="5.29933">
        <ele>234</ele>
        <time>2021-05-08T07:29:03.152Z</time>
      </trkpt>
      <trkpt lat="45.67004" lon="5.29935">
        <ele>235</ele>
        <time>2021-05-08T07:29:04.152Z</time>
      </trkpt>
      <trkpt lat="45.6701" lon="5.29937">
        <ele>235</ele>
        <time>2021-05-08T07:29:05.152Z</time>
      </trkpt>
      <trkpt lat="45.67017" lon="5.29939">
        <ele>235</ele>
        <time>2021-05-08T07:29:06.152Z</time>
      </trkpt>
      <trkpt lat="45.67023" lon="5.29941">
        <ele>236</ele>
        <time>2021-05-08T07:29:07.152Z</time>
      </trkpt>
      <trkpt lat="45.67029" lon="5.29943">
        <ele>237</ele>
        <time>2021-05-08T07:29:08.152Z</time>
      </trkpt>
      <trkpt lat="45.67036" lon="5.29945">
        <ele>237</ele>
        <time>2021-05-08T07:29:09.152Z</time>
      </trkpt>
      <trkpt lat="45.67042" lon="5.29947">
        <ele>238</ele>
        <time>2021-05-08T07:29:10.152Z</time>
      </trkpt>
      <trkpt lat="45.67048" lon="5.29949">
        <ele>238</ele>
        <time>2021-05-08T07:29:11.152Z</time>
      </trkpt>
      <trkpt lat="45.67055" lon="5.29951">
        <ele>238</ele>
        <time>2021-05-08T07:29:12.152Z</time>
      </trkpt>
      <trkpt lat="45.67062" lon="5.29953">
        <ele>238</ele>
        <time>2021-05-08T07:29:13.152Z</time>
      </trkpt>
      <trkpt lat="45.67069" lon="5.29955">
        <ele>238</ele>
        <time>2021-05-08T07:29:14.152Z</time>
      </trkpt>
      <trkpt lat="45.67076" lon="5.29957">
        <ele>238</ele>
        <time>2021-05-08T07:29:15.152Z</time>
      </trkpt>
      <trkpt lat="45.67082" lon="5.2996">
        <ele>238</ele>
        <time>2021-05-08T07:29:16.152Z</time>
      </trkpt>
      <trkpt lat="45.67089" lon="5.29962">
        <ele>238</ele>
        <time>2021-05-08T07:29:17.152Z</time>
      </trkpt>
      <trkpt lat="45.67096" lon="5.29964">
        <ele>238</ele>
        <time>2021-05-08T07:29:18.152Z</time>
      </trkpt>
      <trkpt lat="45.67103" lon="5.29965">
        <ele>238</ele>
        <time>2021-05-08T07:29:19.152Z</time>
      </trkpt>
      <trkpt lat="45.67109" lon="5.29967">
        <ele>238</ele>
        <time>2021-05-08T07:29:20.152Z</time>
      </trkpt>
      <trkpt lat="45.67116" lon="5.29968">
        <ele>239</ele>
        <time>2021-05-08T07:29:21.152Z</time>
      </trkpt>
      <trkpt lat="45.67123" lon="5.29969">
        <ele>239</ele>
        <time>2021-05-08T07:29:22.152Z</time>
      </trkpt>
      <trkpt lat="45.67131" lon="5.2997">
        <ele>239</ele>
        <time>2021-05-08T07:29:23.152Z</time>
      </trkpt>
      <trkpt lat="45.67138" lon="5.2997">
        <ele>240</ele>
        <time>2021-05-08T07:29:24.152Z</time>
      </trkpt>
      <trkpt lat="45.67145" lon="5.29969">
        <ele>241</ele>
        <time>2021-05-08T07:29:25.152Z</time>
      </trkpt>
      <trkpt lat="45.67152" lon="5.29969">
        <ele>241</ele>
        <time>2021-05-08T07:29:26.152Z</time>
      </trkpt>
      <trkpt lat="45.67159" lon="5.29968">
        <ele>241</ele>
        <time>2021-05-08T07:29:27.152Z</time>
      </trkpt>
      <trkpt lat="45.67166" lon="5.29967">
        <ele>242</ele>
        <time>2021-05-08T07:29:28.152Z</time>
      </trkpt>
      <trkpt lat="45.67173" lon="5.29965">
        <ele>242</ele>
        <time>2021-05-08T07:29:29.152Z</time>
      </trkpt>
      <trkpt lat="45.6718" lon="5.29963">
        <ele>242</ele>
        <time>2021-05-08T07:29:30.152Z</time>
      </trkpt>
      <trkpt lat="45.67187" lon="5.29962">
        <ele>243</ele>
        <time>2021-05-08T07:29:31.152Z</time>
      </trkpt>
      <trkpt lat="45.67194" lon="5.2996">
        <ele>243</ele>
        <time>2021-05-08T07:29:32.152Z</time>
      </trkpt>
      <trkpt lat="45.67201" lon="5.29958">
        <ele>243</ele>
        <time>2021-05-08T07:29:33.152Z</time>
      </trkpt>
      <trkpt lat="45.67208" lon="5.29956">
        <ele>244</ele>
        <time>2021-05-08T07:29:34.152Z</time>
      </trkpt>
      <trkpt lat="45.67215" lon="5.29954">
        <ele>244</ele>
        <time>2021-05-08T07:29:35.152Z</time>
      </trkpt>
      <trkpt lat="45.67222" lon="5.29952">
        <ele>245</ele>
        <time>2021-05-08T07:29:36.152Z</time>
      </trkpt>
      <trkpt lat="45.6723" lon="5.2995">
        <ele>245</ele>
        <time>2021-05-08T07:29:37.152Z</time>
      </trkpt>
      <trkpt lat="45.67237" lon="5.29949">
        <ele>246</ele>
        <time>2021-05-08T07:29:38.152Z</time>
      </trkpt>
      <trkpt lat="45.67244" lon="5.29947">
        <ele>246</ele>
        <time>2021-05-08T07:29:39.152Z</time>
      </trkpt>
      <trkpt lat="45.67252" lon="5.29945">
        <ele>246</ele>
        <time>2021-05-08T07:29:40.152Z</time>
      </trkpt>
      <trkpt lat="45.67259" lon="5.29944">
        <ele>246</ele>
        <time>2021-05-08T07:29:41.152Z</time>
      </trkpt>
      <trkpt lat="45.67266" lon="5.29942">
        <ele>247</ele>
        <time>2021-05-08T07:29:42.152Z</time>
      </trkpt>
      <trkpt lat="45.67273" lon="5.29941">
        <ele>247</ele>
        <time>2021-05-08T07:29:43.152Z</time>
      </trkpt>
      <trkpt lat="45.67281" lon="5.29939">
        <ele>247</ele>
        <time>2021-05-08T07:29:44.152Z</time>
      </trkpt>
      <trkpt lat="45.67288" lon="5.29937">
        <ele>247</ele>
        <time>2021-05-08T07:29:45.152Z</time>
      </trkpt>
      <trkpt lat="45.67295" lon="5.29935">
        <ele>247</ele>
        <time>2021-05-08T07:29:46.152Z</time>
      </trkpt>
      <trkpt lat="45.67302" lon="5.29935">
        <ele>246</ele>
        <time>2021-05-08T07:29:47.152Z</time>
      </trkpt>
      <trkpt lat="45.67309" lon="5.29933">
        <ele>246</ele>
        <time>2021-05-08T07:29:48.152Z</time>
      </trkpt>
      <trkpt lat="45.67316" lon="5.29932">
        <ele>246</ele>
        <time>2021-05-08T07:29:49.152Z</time>
      </trkpt>
      <trkpt lat="45.67323" lon="5.2993">
        <ele>245</ele>
        <time>2021-05-08T07:29:50.152Z</time>
      </trkpt>
      <trkpt lat="45.6733" lon="5.29928">
        <ele>245</ele>
        <time>2021-05-08T07:29:51.152Z</time>
      </trkpt>
      <trkpt lat="45.67337" lon="5.29927">
        <ele>245</ele>
        <time>2021-05-08T07:29:52.152Z</time>
      </trkpt>
      <trkpt lat="45.67344" lon="5.29925">
        <ele>245</ele>
        <time>2021-05-08T07:29:53.152Z</time>
      </trkpt>
      <trkpt lat="45.67351" lon="5.29923">
        <ele>245</ele>
        <time>2021-05-08T07:29:54.152Z</time>
      </trkpt>
      <trkpt lat="45.67358" lon="5.29921">
        <ele>245</ele>
        <time>2021-05-08T07:29:55.152Z</time>
      </trkpt>
      <trkpt lat="45.67365" lon="5.29919">
        <ele>245</ele>
        <time>2021-05-08T07:29:56.152Z</time>
      </trkpt>
      <trkpt lat="45.67372" lon="5.29917">
        <ele>246</ele>
        <time>2021-05-08T07:29:57.152Z</time>
      </trkpt>
      <trkpt lat="45.67379" lon="5.29915">
        <ele>246</ele>
        <time>2021-05-08T07:29:58.152Z</time>
      </trkpt>
      <trkpt lat="45.67385" lon="5.29912">
        <ele>246</ele>
        <time>2021-05-08T07:29:59.152Z</time>
      </trkpt>
      <trkpt lat="45.67392" lon="5.2991">
        <ele>246</ele>
        <time>2021-05-08T07:30:00.152Z</time>
      </trkpt>
      <trkpt lat="45.67398" lon="5.29908">
        <ele>246</ele>
        <time>2021-05-08T07:30:01.152Z</time>
      </trkpt>
      <trkpt lat="45.67405" lon="5.29906">
        <ele>246</ele>
        <time>2021-05-08T07:30:02.152Z</time>
      </trkpt>
      <trkpt lat="45.67411" lon="5.29903">
        <ele>246</ele>
        <time>2021-05-08T07:30:03.152Z</time>
      </trkpt>
      <trkpt lat="45.67418" lon="5.29901">
        <ele>246</ele>
        <time>2021-05-08T07:30:04.152Z</time>
      </trkpt>
      <trkpt lat="45.67424" lon="5.29898">
        <ele>246</ele>
        <time>2021-05-08T07:30:05.152Z</time>
      </trkpt>
      <trkpt lat="45.6743" lon="5.29895">
        <ele>246</ele>
        <time>2021-05-08T07:30:06.152Z</time>
      </trkpt>
      <trkpt lat="45.67437" lon="5.29893">
        <ele>246</ele>
        <time>2021-05-08T07:30:07.152Z</time>
      </trkpt>
      <trkpt lat="45.67443" lon="5.2989">
        <ele>246</ele>
        <time>2021-05-08T07:30:08.152Z</time>
      </trkpt>
      <trkpt lat="45.6745" lon="5.29888">
        <ele>246</ele>
        <time>2021-05-08T07:30:09.152Z</time>
      </trkpt>
      <trkpt lat="45.67457" lon="5.29885">
        <ele>246</ele>
        <time>2021-05-08T07:30:10.152Z</time>
      </trkpt>
      <trkpt lat="45.67464" lon="5.29882">
        <ele>246</ele>
        <time>2021-05-08T07:30:11.152Z</time>
      </trkpt>
      <trkpt lat="45.67471" lon="5.29879">
        <ele>246</ele>
        <time>2021-05-08T07:30:12.152Z</time>
      </trkpt>
      <trkpt lat="45.67478" lon="5.29875">
        <ele>246</ele>
        <time>2021-05-08T07:30:13.152Z</time>
      </trkpt>
      <trkpt lat="45.67484" lon="5.29871">
        <ele>246</ele>
        <time>2021-05-08T07:30:14.152Z</time>
      </trkpt>
      <trkpt lat="45.67491" lon="5.29866">
        <ele>246</ele>
        <time>2021-05-08T07:30:15.152Z</time>
      </trkpt>
      <trkpt lat="45.67497" lon="5.29861">
        <ele>245</ele>
        <time>2021-05-08T07:30:16.152Z</time>
      </trkpt>
      <trkpt lat="45.67503" lon="5.29856">
        <ele>245</ele>
        <time>2021-05-08T07:30:17.152Z</time>
      </trkpt>
      <trkpt lat="45.67509" lon="5.2985">
        <ele>244</ele>
        <time>2021-05-08T07:30:18.152Z</time>
      </trkpt>
      <trkpt lat="45.67515" lon="5.29845">
        <ele>244</ele>
        <time>2021-05-08T07:30:19.152Z</time>
      </trkpt>
      <trkpt lat="45.67521" lon="5.29839">
        <ele>244</ele>
        <time>2021-05-08T07:30:20.152Z</time>
      </trkpt>
      <trkpt lat="45.67527" lon="5.29832">
        <ele>244</ele>
        <time>2021-05-08T07:30:21.152Z</time>
      </trkpt>
      <trkpt lat="45.67533" lon="5.29826">
        <ele>244</ele>
        <time>2021-05-08T07:30:22.152Z</time>
      </trkpt>
      <trkpt lat="45.67538" lon="5.29819">
        <ele>244</ele>
        <time>2021-05-08T07:30:23.152Z</time>
      </trkpt>
      <trkpt lat="45.67543" lon="5.29813">
        <ele>244</ele>
        <time>2021-05-08T07:30:24.152Z</time>
      </trkpt>
      <trkpt lat="45.67548" lon="5.29806">
        <ele>243</ele>
        <time>2021-05-08T07:30:25.152Z</time>
      </trkpt>
      <trkpt lat="45.67553" lon="5.298">
        <ele>243</ele>
        <time>2021-05-08T07:30:26.152Z</time>
      </trkpt>
      <trkpt lat="45.67558" lon="5.29793">
        <ele>243</ele>
        <time>2021-05-08T07:30:27.152Z</time>
      </trkpt>
      <trkpt lat="45.67563" lon="5.29786">
        <ele>244</ele>
        <time>2021-05-08T07:30:28.152Z</time>
      </trkpt>
      <trkpt lat="45.67568" lon="5.29778">
        <ele>245</ele>
        <time>2021-05-08T07:30:29.152Z</time>
      </trkpt>
      <trkpt lat="45.67573" lon="5.29771">
        <ele>245</ele>
        <time>2021-05-08T07:30:30.152Z</time>
      </trkpt>
      <trkpt lat="45.67578" lon="5.29763">
        <ele>246</ele>
        <time>2021-05-08T07:30:31.152Z</time>
      </trkpt>
      <trkpt lat="45.67583" lon="5.29758">
        <ele>247</ele>
        <time>2021-05-08T07:30:32.152Z</time>
      </trkpt>
      <trkpt lat="45.67588" lon="5.29752">
        <ele>247</ele>
        <time>2021-05-08T07:30:33.152Z</time>
      </trkpt>
      <trkpt lat="45.67593" lon="5.29746">
        <ele>248</ele>
        <time>2021-05-08T07:30:34.152Z</time>
      </trkpt>
      <trkpt lat="45.67598" lon="5.29739">
        <ele>248</ele>
        <time>2021-05-08T07:30:35.152Z</time>
      </trkpt>
      <trkpt lat="45.67602" lon="5.29733">
        <ele>248</ele>
        <time>2021-05-08T07:30:36.152Z</time>
      </trkpt>
      <trkpt lat="45.67607" lon="5.29727">
        <ele>248</ele>
        <time>2021-05-08T07:30:37.152Z</time>
      </trkpt>
      <trkpt lat="45.67613" lon="5.2972">
        <ele>248</ele>
        <time>2021-05-08T07:30:38.152Z</time>
      </trkpt>
      <trkpt lat="45.67618" lon="5.29714">
        <ele>248</ele>
        <time>2021-05-08T07:30:39.152Z</time>
      </trkpt>
      <trkpt lat="45.67623" lon="5.29706">
        <ele>248</ele>
        <time>2021-05-08T07:30:40.152Z</time>
      </trkpt>
      <trkpt lat="45.67628" lon="5.297">
        <ele>248</ele>
        <time>2021-05-08T07:30:41.152Z</time>
      </trkpt>
      <trkpt lat="45.67634" lon="5.29692">
        <ele>249</ele>
        <time>2021-05-08T07:30:42.152Z</time>
      </trkpt>
      <trkpt lat="45.67639" lon="5.29685">
        <ele>248</ele>
        <time>2021-05-08T07:30:43.152Z</time>
      </trkpt>
      <trkpt lat="45.67645" lon="5.29678">
        <ele>248</ele>
        <time>2021-05-08T07:30:44.152Z</time>
      </trkpt>
      <trkpt lat="45.6765" lon="5.2967">
        <ele>248</ele>
        <time>2021-05-08T07:30:45.152Z</time>
      </trkpt>
      <trkpt lat="45.67656" lon="5.29662">
        <ele>248</ele>
        <time>2021-05-08T07:30:46.152Z</time>
      </trkpt>
      <trkpt lat="45.67662" lon="5.29655">
        <ele>248</ele>
        <time>2021-05-08T07:30:47.152Z</time>
      </trkpt>
      <trkpt lat="45.67668" lon="5.29647">
        <ele>248</ele>
        <time>2021-05-08T07:30:48.152Z</time>
      </trkpt>
      <trkpt lat="45.67674" lon="5.2964">
        <ele>248</ele>
        <time>2021-05-08T07:30:49.152Z</time>
      </trkpt>
      <trkpt lat="45.6768" lon="5.29632">
        <ele>248</ele>
        <time>2021-05-08T07:30:50.152Z</time>
      </trkpt>
      <trkpt lat="45.67686" lon="5.29625">
        <ele>248</ele>
        <time>2021-05-08T07:30:51.152Z</time>
      </trkpt>
      <trkpt lat="45.67692" lon="5.29618">
        <ele>247</ele>
        <time>2021-05-08T07:30:52.152Z</time>
      </trkpt>
      <trkpt lat="45.67698" lon="5.29611">
        <ele>247</ele>
        <time>2021-05-08T07:30:53.152Z</time>
      </trkpt>
      <trkpt lat="45.67705" lon="5.29605">
        <ele>247</ele>
        <time>2021-05-08T07:30:54.152Z</time>
      </trkpt>
      <trkpt lat="45.67711" lon="5.29598">
        <ele>247</ele>
        <time>2021-05-08T07:30:55.152Z</time>
      </trkpt>
      <trkpt lat="45.67717" lon="5.29592">
        <ele>247</ele>
        <time>2021-05-08T07:30:56.152Z</time>
      </trkpt>
      <trkpt lat="45.67723" lon="5.29587">
        <ele>247</ele>
        <time>2021-05-08T07:30:57.152Z</time>
      </trkpt>
      <trkpt lat="45.6773" lon="5.29582">
        <ele>247</ele>
        <time>2021-05-08T07:30:58.152Z</time>
      </trkpt>
      <trkpt lat="45.67736" lon="5.29576">
        <ele>248</ele>
        <time>2021-05-08T07:30:59.152Z</time>
      </trkpt>
      <trkpt lat="45.67742" lon="5.29571">
        <ele>248</ele>
        <time>2021-05-08T07:31:00.152Z</time>
      </trkpt>
      <trkpt lat="45.67747" lon="5.29566">
        <ele>249</ele>
        <time>2021-05-08T07:31:01.152Z</time>
      </trkpt>
      <trkpt lat="45.67753" lon="5.29561">
        <ele>250</ele>
        <time>2021-05-08T07:31:02.152Z</time>
      </trkpt>
      <trkpt lat="45.67759" lon="5.29557">
        <ele>250</ele>
        <time>2021-05-08T07:31:03.152Z</time>
      </trkpt>
      <trkpt lat="45.67765" lon="5.29552">
        <ele>251</ele>
        <time>2021-05-08T07:31:04.152Z</time>
      </trkpt>
      <trkpt lat="45.67771" lon="5.29548">
        <ele>251</ele>
        <time>2021-05-08T07:31:05.152Z</time>
      </trkpt>
      <trkpt lat="45.67775" lon="5.29546">
        <ele>251</ele>
        <time>2021-05-08T07:31:06.152Z</time>
      </trkpt>
      <trkpt lat="45.67782" lon="5.29541">
        <ele>251</ele>
        <time>2021-05-08T07:31:07.152Z</time>
      </trkpt>
      <trkpt lat="45.67788" lon="5.29537">
        <ele>251</ele>
        <time>2021-05-08T07:31:08.152Z</time>
      </trkpt>
      <trkpt lat="45.67793" lon="5.29533">
        <ele>251</ele>
        <time>2021-05-08T07:31:09.152Z</time>
      </trkpt>
      <trkpt lat="45.67798" lon="5.29529">
        <ele>252</ele>
        <time>2021-05-08T07:31:10.152Z</time>
      </trkpt>
      <trkpt lat="45.67803" lon="5.29525">
        <ele>252</ele>
        <time>2021-05-08T07:31:11.152Z</time>
      </trkpt>
      <trkpt lat="45.6781" lon="5.2952">
        <ele>252</ele>
        <time>2021-05-08T07:31:12.152Z</time>
      </trkpt>
      <trkpt lat="45.67815" lon="5.29516">
        <ele>252</ele>
        <time>2021-05-08T07:31:13.152Z</time>
      </trkpt>
      <trkpt lat="45.67821" lon="5.29511">
        <ele>251</ele>
        <time>2021-05-08T07:31:14.152Z</time>
      </trkpt>
      <trkpt lat="45.67827" lon="5.29507">
        <ele>251</ele>
        <time>2021-05-08T07:31:15.152Z</time>
      </trkpt>
      <trkpt lat="45.67833" lon="5.29503">
        <ele>251</ele>
        <time>2021-05-08T07:31:16.152Z</time>
      </trkpt>
      <trkpt lat="45.67839" lon="5.29498">
        <ele>251</ele>
        <time>2021-05-08T07:31:17.152Z</time>
      </trkpt>
      <trkpt lat="45.67845" lon="5.29494">
        <ele>252</ele>
        <time>2021-05-08T07:31:18.152Z</time>
      </trkpt>
      <trkpt lat="45.67851" lon="5.29489">
        <ele>252</ele>
        <time>2021-05-08T07:31:19.152Z</time>
      </trkpt>
      <trkpt lat="45.67857" lon="5.29485">
        <ele>252</ele>
        <time>2021-05-08T07:31:20.152Z</time>
      </trkpt>
      <trkpt lat="45.67863" lon="5.2948">
        <ele>252</ele>
        <time>2021-05-08T07:31:21.152Z</time>
      </trkpt>
      <trkpt lat="45.67869" lon="5.29475">
        <ele>252</ele>
        <time>2021-05-08T07:31:22.152Z</time>
      </trkpt>
      <trkpt lat="45.67875" lon="5.29471">
        <ele>252</ele>
        <time>2021-05-08T07:31:23.152Z</time>
      </trkpt>
      <trkpt lat="45.67881" lon="5.29467">
        <ele>253</ele>
        <time>2021-05-08T07:31:24.152Z</time>
      </trkpt>
      <trkpt lat="45.67887" lon="5.29462">
        <ele>253</ele>
        <time>2021-05-08T07:31:25.152Z</time>
      </trkpt>
      <trkpt lat="45.67893" lon="5.29457">
        <ele>253</ele>
        <time>2021-05-08T07:31:26.152Z</time>
      </trkpt>
      <trkpt lat="45.67899" lon="5.29452">
        <ele>253</ele>
        <time>2021-05-08T07:31:27.152Z</time>
      </trkpt>
      <trkpt lat="45.67905" lon="5.29447">
        <ele>254</ele>
        <time>2021-05-08T07:31:28.152Z</time>
      </trkpt>
      <trkpt lat="45.67911" lon="5.29442">
        <ele>254</ele>
        <time>2021-05-08T07:31:29.152Z</time>
      </trkpt>
      <trkpt lat="45.67916" lon="5.29437">
        <ele>254</ele>
        <time>2021-05-08T07:31:30.152Z</time>
      </trkpt>
      <trkpt lat="45.67922" lon="5.29432">
        <ele>254</ele>
        <time>2021-05-08T07:31:31.152Z</time>
      </trkpt>
      <trkpt lat="45.67929" lon="5.29427">
        <ele>254</ele>
        <time>2021-05-08T07:31:32.152Z</time>
      </trkpt>
      <trkpt lat="45.67935" lon="5.29423">
        <ele>254</ele>
        <time>2021-05-08T07:31:33.152Z</time>
      </trkpt>
      <trkpt lat="45.67941" lon="5.29418">
        <ele>254</ele>
        <time>2021-05-08T07:31:34.152Z</time>
      </trkpt>
      <trkpt lat="45.67948" lon="5.29413">
        <ele>255</ele>
        <time>2021-05-08T07:31:35.152Z</time>
      </trkpt>
      <trkpt lat="45.67954" lon="5.29407">
        <ele>255</ele>
        <time>2021-05-08T07:31:36.152Z</time>
      </trkpt>
      <trkpt lat="45.6796" lon="5.29402">
        <ele>255</ele>
        <time>2021-05-08T07:31:37.152Z</time>
      </trkpt>
      <trkpt lat="45.67967" lon="5.29397">
        <ele>255</ele>
        <time>2021-05-08T07:31:38.152Z</time>
      </trkpt>
      <trkpt lat="45.67974" lon="5.29393">
        <ele>255</ele>
        <time>2021-05-08T07:31:39.152Z</time>
      </trkpt>
      <trkpt lat="45.6798" lon="5.29387">
        <ele>256</ele>
        <time>2021-05-08T07:31:40.152Z</time>
      </trkpt>
      <trkpt lat="45.67987" lon="5.29382">
        <ele>256</ele>
        <time>2021-05-08T07:31:41.152Z</time>
      </trkpt>
      <trkpt lat="45.67994" lon="5.29377">
        <ele>257</ele>
        <time>2021-05-08T07:31:42.152Z</time>
      </trkpt>
      <trkpt lat="45.68001" lon="5.29371">
        <ele>257</ele>
        <time>2021-05-08T07:31:43.152Z</time>
      </trkpt>
      <trkpt lat="45.68007" lon="5.29366">
        <ele>257</ele>
        <time>2021-05-08T07:31:44.152Z</time>
      </trkpt>
      <trkpt lat="45.68014" lon="5.29361">
        <ele>257</ele>
        <time>2021-05-08T07:31:45.152Z</time>
      </trkpt>
      <trkpt lat="45.68021" lon="5.29355">
        <ele>257</ele>
        <time>2021-05-08T07:31:46.152Z</time>
      </trkpt>
      <trkpt lat="45.68028" lon="5.29349">
        <ele>257</ele>
        <time>2021-05-08T07:31:47.152Z</time>
      </trkpt>
      <trkpt lat="45.68035" lon="5.29344">
        <ele>257</ele>
        <time>2021-05-08T07:31:48.152Z</time>
      </trkpt>
      <trkpt lat="45.68042" lon="5.29339">
        <ele>257</ele>
        <time>2021-05-08T07:31:49.152Z</time>
      </trkpt>
      <trkpt lat="45.68049" lon="5.29333">
        <ele>257</ele>
        <time>2021-05-08T07:31:50.152Z</time>
      </trkpt>
      <trkpt lat="45.68055" lon="5.29328">
        <ele>257</ele>
        <time>2021-05-08T07:31:51.152Z</time>
      </trkpt>
      <trkpt lat="45.68062" lon="5.29322">
        <ele>257</ele>
        <time>2021-05-08T07:31:52.152Z</time>
      </trkpt>
      <trkpt lat="45.68069" lon="5.29317">
        <ele>256</ele>
        <time>2021-05-08T07:31:53.152Z</time>
      </trkpt>
      <trkpt lat="45.68076" lon="5.29311">
        <ele>256</ele>
        <time>2021-05-08T07:31:54.152Z</time>
      </trkpt>
      <trkpt lat="45.68083" lon="5.29306">
        <ele>257</ele>
        <time>2021-05-08T07:31:55.152Z</time>
      </trkpt>
      <trkpt lat="45.6809" lon="5.293">
        <ele>257</ele>
        <time>2021-05-08T07:31:56.152Z</time>
      </trkpt>
      <trkpt lat="45.68097" lon="5.29294">
        <ele>258</ele>
        <time>2021-05-08T07:31:57.152Z</time>
      </trkpt>
      <trkpt lat="45.68103" lon="5.29288">
        <ele>258</ele>
        <time>2021-05-08T07:31:58.152Z</time>
      </trkpt>
      <trkpt lat="45.6811" lon="5.29283">
        <ele>258</ele>
        <time>2021-05-08T07:31:59.152Z</time>
      </trkpt>
      <trkpt lat="45.68117" lon="5.29277">
        <ele>259</ele>
        <time>2021-05-08T07:32:00.152Z</time>
      </trkpt>
      <trkpt lat="45.68124" lon="5.29272">
        <ele>259</ele>
        <time>2021-05-08T07:32:01.152Z</time>
      </trkpt>
      <trkpt lat="45.68131" lon="5.29267">
        <ele>259</ele>
        <time>2021-05-08T07:32:02.152Z</time>
      </trkpt>
      <trkpt lat="45.68138" lon="5.29262">
        <ele>260</ele>
        <time>2021-05-08T07:32:03.152Z</time>
      </trkpt>
      <trkpt lat="45.68144" lon="5.29257">
        <ele>260</ele>
        <time>2021-05-08T07:32:04.152Z</time>
      </trkpt>
      <trkpt lat="45.6815" lon="5.29253">
        <ele>259</ele>
        <time>2021-05-08T07:32:05.152Z</time>
      </trkpt>
      <trkpt lat="45.68156" lon="5.29248">
        <ele>259</ele>
        <time>2021-05-08T07:32:06.152Z</time>
      </trkpt>
      <trkpt lat="45.68163" lon="5.29243">
        <ele>259</ele>
        <time>2021-05-08T07:32:07.152Z</time>
      </trkpt>
      <trkpt lat="45.68169" lon="5.29237">
        <ele>259</ele>
        <time>2021-05-08T07:32:08.152Z</time>
      </trkpt>
      <trkpt lat="45.68176" lon="5.29233">
        <ele>259</ele>
        <time>2021-05-08T07:32:09.152Z</time>
      </trkpt>
      <trkpt lat="45.68182" lon="5.29228">
        <ele>258</ele>
        <time>2021-05-08T07:32:10.152Z</time>
      </trkpt>
      <trkpt lat="45.68189" lon="5.29223">
        <ele>258</ele>
        <time>2021-05-08T07:32:11.152Z</time>
      </trkpt>
      <trkpt lat="45.68195" lon="5.29218">
        <ele>258</ele>
        <time>2021-05-08T07:32:12.152Z</time>
      </trkpt>
      <trkpt lat="45.68201" lon="5.29213">
        <ele>258</ele>
        <time>2021-05-08T07:32:13.152Z</time>
      </trkpt>
      <trkpt lat="45.68208" lon="5.29208">
        <ele>258</ele>
        <time>2021-05-08T07:32:14.152Z</time>
      </trkpt>
      <trkpt lat="45.68214" lon="5.29203">
        <ele>259</ele>
        <time>2021-05-08T07:32:15.152Z</time>
      </trkpt>
      <trkpt lat="45.6822" lon="5.29198">
        <ele>259</ele>
        <time>2021-05-08T07:32:16.152Z</time>
      </trkpt>
      <trkpt lat="45.68227" lon="5.29193">
        <ele>259</ele>
        <time>2021-05-08T07:32:17.152Z</time>
      </trkpt>
      <trkpt lat="45.68233" lon="5.29188">
        <ele>259</ele>
        <time>2021-05-08T07:32:18.152Z</time>
      </trkpt>
      <trkpt lat="45.68239" lon="5.29183">
        <ele>259</ele>
        <time>2021-05-08T07:32:19.152Z</time>
      </trkpt>
      <trkpt lat="45.68245" lon="5.29178">
        <ele>260</ele>
        <time>2021-05-08T07:32:20.152Z</time>
      </trkpt>
      <trkpt lat="45.68251" lon="5.29173">
        <ele>260</ele>
        <time>2021-05-08T07:32:21.152Z</time>
      </trkpt>
      <trkpt lat="45.68257" lon="5.29168">
        <ele>260</ele>
        <time>2021-05-08T07:32:22.152Z</time>
      </trkpt>
      <trkpt lat="45.68263" lon="5.29163">
        <ele>260</ele>
        <time>2021-05-08T07:32:23.152Z</time>
      </trkpt>
      <trkpt lat="45.68269" lon="5.29158">
        <ele>261</ele>
        <time>2021-05-08T07:32:24.152Z</time>
      </trkpt>
      <trkpt lat="45.68274" lon="5.29153">
        <ele>261</ele>
        <time>2021-05-08T07:32:25.152Z</time>
      </trkpt>
      <trkpt lat="45.6828" lon="5.29148">
        <ele>261</ele>
        <time>2021-05-08T07:32:26.152Z</time>
      </trkpt>
      <trkpt lat="45.68285" lon="5.29143">
        <ele>261</ele>
        <time>2021-05-08T07:32:27.152Z</time>
      </trkpt>
      <trkpt lat="45.6829" lon="5.29137">
        <ele>261</ele>
        <time>2021-05-08T07:32:28.152Z</time>
      </trkpt>
      <trkpt lat="45.68295" lon="5.29132">
        <ele>262</ele>
        <time>2021-05-08T07:32:29.152Z</time>
      </trkpt>
      <trkpt lat="45.683" lon="5.29127">
        <ele>262</ele>
        <time>2021-05-08T07:32:30.152Z</time>
      </trkpt>
      <trkpt lat="45.68304" lon="5.2912">
        <ele>262</ele>
        <time>2021-05-08T07:32:31.152Z</time>
      </trkpt>
      <trkpt lat="45.68308" lon="5.29113">
        <ele>262</ele>
        <time>2021-05-08T07:32:32.152Z</time>
      </trkpt>
      <trkpt lat="45.68312" lon="5.29107">
        <ele>263</ele>
        <time>2021-05-08T07:32:33.152Z</time>
      </trkpt>
      <trkpt lat="45.68317" lon="5.291">
        <ele>262</ele>
        <time>2021-05-08T07:32:34.152Z</time>
      </trkpt>
      <trkpt lat="45.68321" lon="5.29094">
        <ele>262</ele>
        <time>2021-05-08T07:32:35.152Z</time>
      </trkpt>
      <trkpt lat="45.68325" lon="5.29087">
        <ele>262</ele>
        <time>2021-05-08T07:32:36.152Z</time>
      </trkpt>
      <trkpt lat="45.68329" lon="5.29079">
        <ele>261</ele>
        <time>2021-05-08T07:32:37.152Z</time>
      </trkpt>
      <trkpt lat="45.68332" lon="5.29072">
        <ele>261</ele>
        <time>2021-05-08T07:32:38.152Z</time>
      </trkpt>
      <trkpt lat="45.68337" lon="5.29065">
        <ele>261</ele>
        <time>2021-05-08T07:32:39.152Z</time>
      </trkpt>
      <trkpt lat="45.68341" lon="5.29057">
        <ele>261</ele>
        <time>2021-05-08T07:32:40.152Z</time>
      </trkpt>
      <trkpt lat="45.68345" lon="5.2905">
        <ele>261</ele>
        <time>2021-05-08T07:32:41.152Z</time>
      </trkpt>
      <trkpt lat="45.68349" lon="5.29043">
        <ele>261</ele>
        <time>2021-05-08T07:32:42.152Z</time>
      </trkpt>
      <trkpt lat="45.68353" lon="5.29034">
        <ele>261</ele>
        <time>2021-05-08T07:32:43.152Z</time>
      </trkpt>
      <trkpt lat="45.68358" lon="5.29027">
        <ele>262</ele>
        <time>2021-05-08T07:32:44.152Z</time>
      </trkpt>
      <trkpt lat="45.68361" lon="5.29021">
        <ele>262</ele>
        <time>2021-05-08T07:32:45.152Z</time>
      </trkpt>
      <trkpt lat="45.68366" lon="5.29014">
        <ele>263</ele>
        <time>2021-05-08T07:32:46.152Z</time>
      </trkpt>
      <trkpt lat="45.68371" lon="5.29008">
        <ele>264</ele>
        <time>2021-05-08T07:32:47.152Z</time>
      </trkpt>
      <trkpt lat="45.68376" lon="5.29001">
        <ele>264</ele>
        <time>2021-05-08T07:32:48.152Z</time>
      </trkpt>
      <trkpt lat="45.68381" lon="5.28995">
        <ele>266</ele>
        <time>2021-05-08T07:32:49.152Z</time>
      </trkpt>
      <trkpt lat="45.68386" lon="5.28989">
        <ele>266</ele>
        <time>2021-05-08T07:32:50.152Z</time>
      </trkpt>
      <trkpt lat="45.68391" lon="5.28984">
        <ele>267</ele>
        <time>2021-05-08T07:32:51.152Z</time>
      </trkpt>
      <trkpt lat="45.68396" lon="5.2898">
        <ele>267</ele>
        <time>2021-05-08T07:32:52.152Z</time>
      </trkpt>
      <trkpt lat="45.68401" lon="5.28976">
        <ele>267</ele>
        <time>2021-05-08T07:32:53.152Z</time>
      </trkpt>
      <trkpt lat="45.68406" lon="5.28972">
        <ele>268</ele>
        <time>2021-05-08T07:32:54.152Z</time>
      </trkpt>
      <trkpt lat="45.68412" lon="5.28969">
        <ele>268</ele>
        <time>2021-05-08T07:32:55.152Z</time>
      </trkpt>
      <trkpt lat="45.68418" lon="5.28966">
        <ele>268</ele>
        <time>2021-05-08T07:32:56.152Z</time>
      </trkpt>
      <trkpt lat="45.68424" lon="5.28963">
        <ele>268</ele>
        <time>2021-05-08T07:32:57.152Z</time>
      </trkpt>
      <trkpt lat="45.68429" lon="5.28961">
        <ele>269</ele>
        <time>2021-05-08T07:32:58.152Z</time>
      </trkpt>
      <trkpt lat="45.68435" lon="5.28959">
        <ele>269</ele>
        <time>2021-05-08T07:32:59.152Z</time>
      </trkpt>
      <trkpt lat="45.6844" lon="5.28958">
        <ele>270</ele>
        <time>2021-05-08T07:33:00.152Z</time>
      </trkpt>
      <trkpt lat="45.68445" lon="5.28958">
        <ele>270</ele>
        <time>2021-05-08T07:33:01.152Z</time>
      </trkpt>
      <trkpt lat="45.6845" lon="5.28957">
        <ele>270</ele>
        <time>2021-05-08T07:33:02.152Z</time>
      </trkpt>
      <trkpt lat="45.68455" lon="5.28956">
        <ele>271</ele>
        <time>2021-05-08T07:33:03.152Z</time>
      </trkpt>
      <trkpt lat="45.6846" lon="5.28955">
        <ele>271</ele>
        <time>2021-05-08T07:33:04.152Z</time>
      </trkpt>
      <trkpt lat="45.68464" lon="5.28955">
        <ele>271</ele>
        <time>2021-05-08T07:33:05.152Z</time>
      </trkpt>
      <trkpt lat="45.68468" lon="5.28954">
        <ele>271</ele>
        <time>2021-05-08T07:33:06.152Z</time>
      </trkpt>
      <trkpt lat="45.68473" lon="5.28954">
        <ele>272</ele>
        <time>2021-05-08T07:33:07.152Z</time>
      </trkpt>
      <trkpt lat="45.68477" lon="5.28954">
        <ele>272</ele>
        <time>2021-05-08T07:33:08.152Z</time>
      </trkpt>
      <trkpt lat="45.68481" lon="5.28955">
        <ele>272</ele>
        <time>2021-05-08T07:33:09.152Z</time>
      </trkpt>
      <trkpt lat="45.68485" lon="5.28957">
        <ele>272</ele>
        <time>2021-05-08T07:33:10.152Z</time>
      </trkpt>
      <trkpt lat="45.68489" lon="5.2896">
        <ele>272</ele>
        <time>2021-05-08T07:33:11.152Z</time>
      </trkpt>
      <trkpt lat="45.68493" lon="5.28963">
        <ele>272</ele>
        <time>2021-05-08T07:33:12.152Z</time>
      </trkpt>
      <trkpt lat="45.68497" lon="5.28967">
        <ele>272</ele>
        <time>2021-05-08T07:33:13.152Z</time>
      </trkpt>
      <trkpt lat="45.68501" lon="5.28969">
        <ele>272</ele>
        <time>2021-05-08T07:33:14.152Z</time>
      </trkpt>
      <trkpt lat="45.68507" lon="5.28971">
        <ele>272</ele>
        <time>2021-05-08T07:33:15.152Z</time>
      </trkpt>
      <trkpt lat="45.68511" lon="5.28971">
        <ele>272</ele>
        <time>2021-05-08T07:33:16.152Z</time>
      </trkpt>
      <trkpt lat="45.68516" lon="5.28969">
        <ele>273</ele>
        <time>2021-05-08T07:33:17.152Z</time>
      </trkpt>
      <trkpt lat="45.6852" lon="5.28965">
        <ele>273</ele>
        <time>2021-05-08T07:33:18.152Z</time>
      </trkpt>
      <trkpt lat="45.68523" lon="5.28959">
        <ele>273</ele>
        <time>2021-05-08T07:33:19.152Z</time>
      </trkpt>
      <trkpt lat="45.68526" lon="5.28953">
        <ele>273</ele>
        <time>2021-05-08T07:33:20.152Z</time>
      </trkpt>
      <trkpt lat="45.68527" lon="5.28945">
        <ele>273</ele>
        <time>2021-05-08T07:33:21.152Z</time>
      </trkpt>
      <trkpt lat="45.68527" lon="5.28937">
        <ele>272</ele>
        <time>2021-05-08T07:33:22.152Z</time>
      </trkpt>
      <trkpt lat="45.68525" lon="5.2893">
        <ele>272</ele>
        <time>2021-05-08T07:33:23.152Z</time>
      </trkpt>
      <trkpt lat="45.68522" lon="5.28924">
        <ele>272</ele>
        <time>2021-05-08T07:33:24.152Z</time>
      </trkpt>
      <trkpt lat="45.68519" lon="5.28919">
        <ele>271</ele>
        <time>2021-05-08T07:33:25.152Z</time>
      </trkpt>
      <trkpt lat="45.68516" lon="5.28911">
        <ele>271</ele>
        <time>2021-05-08T07:33:26.152Z</time>
      </trkpt>
      <trkpt lat="45.68513" lon="5.28903">
        <ele>271</ele>
        <time>2021-05-08T07:33:27.152Z</time>
      </trkpt>
      <trkpt lat="45.68511" lon="5.28894">
        <ele>271</ele>
        <time>2021-05-08T07:33:28.152Z</time>
      </trkpt>
      <trkpt lat="45.6851" lon="5.28888">
        <ele>271</ele>
        <time>2021-05-08T07:33:29.152Z</time>
      </trkpt>
      <trkpt lat="45.68512" lon="5.28879">
        <ele>271</ele>
        <time>2021-05-08T07:33:30.152Z</time>
      </trkpt>
      <trkpt lat="45.68514" lon="5.28869">
        <ele>271</ele>
        <time>2021-05-08T07:33:31.152Z</time>
      </trkpt>
      <trkpt lat="45.68517" lon="5.28861">
        <ele>271</ele>
        <time>2021-05-08T07:33:32.152Z</time>
      </trkpt>
      <trkpt lat="45.68519" lon="5.28855">
        <ele>271</ele>
        <time>2021-05-08T07:33:33.152Z</time>
      </trkpt>
      <trkpt lat="45.68522" lon="5.28847">
        <ele>271</ele>
        <time>2021-05-08T07:33:34.152Z</time>
      </trkpt>
      <trkpt lat="45.68525" lon="5.28839">
        <ele>271</ele>
        <time>2021-05-08T07:33:35.152Z</time>
      </trkpt>
      <trkpt lat="45.68529" lon="5.28829">
        <ele>271</ele>
        <time>2021-05-08T07:33:36.152Z</time>
      </trkpt>
      <trkpt lat="45.68532" lon="5.28822">
        <ele>271</ele>
        <time>2021-05-08T07:33:37.152Z</time>
      </trkpt>
      <trkpt lat="45.68535" lon="5.28812">
        <ele>271</ele>
        <time>2021-05-08T07:33:38.152Z</time>
      </trkpt>
      <trkpt lat="45.6854" lon="5.28802">
        <ele>271</ele>
        <time>2021-05-08T07:33:39.152Z</time>
      </trkpt>
      <trkpt lat="45.68545" lon="5.2879">
        <ele>272</ele>
        <time>2021-05-08T07:33:40.152Z</time>
      </trkpt>
      <trkpt lat="45.68549" lon="5.28779">
        <ele>272</ele>
        <time>2021-05-08T07:33:41.152Z</time>
      </trkpt>
      <trkpt lat="45.68554" lon="5.28768">
        <ele>272</ele>
        <time>2021-05-08T07:33:42.152Z</time>
      </trkpt>
      <trkpt lat="45.68557" lon="5.28758">
        <ele>272</ele>
        <time>2021-05-08T07:33:43.152Z</time>
      </trkpt>
      <trkpt lat="45.68562" lon="5.28746">
        <ele>272</ele>
        <time>2021-05-08T07:33:44.152Z</time>
      </trkpt>
      <trkpt lat="45.68568" lon="5.28732">
        <ele>272</ele>
        <time>2021-05-08T07:33:45.152Z</time>
      </trkpt>
      <trkpt lat="45.68573" lon="5.28721">
        <ele>272</ele>
        <time>2021-05-08T07:33:46.152Z</time>
      </trkpt>
      <trkpt lat="45.68577" lon="5.28708">
        <ele>272</ele>
        <time>2021-05-08T07:33:47.152Z</time>
      </trkpt>
      <trkpt lat="45.68581" lon="5.28698">
        <ele>272</ele>
        <time>2021-05-08T07:33:48.152Z</time>
      </trkpt>
      <trkpt lat="45.68587" lon="5.28684">
        <ele>272</ele>
        <time>2021-05-08T07:33:49.152Z</time>
      </trkpt>
      <trkpt lat="45.68591" lon="5.28674">
        <ele>272</ele>
        <time>2021-05-08T07:33:50.152Z</time>
      </trkpt>
      <trkpt lat="45.68597" lon="5.28659">
        <ele>272</ele>
        <time>2021-05-08T07:33:51.152Z</time>
      </trkpt>
      <trkpt lat="45.68602" lon="5.28646">
        <ele>272</ele>
        <time>2021-05-08T07:33:52.152Z</time>
      </trkpt>
      <trkpt lat="45.68608" lon="5.28634">
        <ele>271</ele>
        <time>2021-05-08T07:33:53.152Z</time>
      </trkpt>
      <trkpt lat="45.68612" lon="5.28623">
        <ele>271</ele>
        <time>2021-05-08T07:33:54.152Z</time>
      </trkpt>
      <trkpt lat="45.68616" lon="5.2861">
        <ele>271</ele>
        <time>2021-05-08T07:33:55.152Z</time>
      </trkpt>
      <trkpt lat="45.68622" lon="5.28595">
        <ele>271</ele>
        <time>2021-05-08T07:33:56.152Z</time>
      </trkpt>
      <trkpt lat="45.68627" lon="5.28582">
        <ele>271</ele>
        <time>2021-05-08T07:33:57.152Z</time>
      </trkpt>
      <trkpt lat="45.68631" lon="5.28571">
        <ele>270</ele>
        <time>2021-05-08T07:33:58.152Z</time>
      </trkpt>
      <trkpt lat="45.68635" lon="5.28558">
        <ele>271</ele>
        <time>2021-05-08T07:33:59.152Z</time>
      </trkpt>
      <trkpt lat="45.6864" lon="5.28544">
        <ele>271</ele>
        <time>2021-05-08T07:34:00.152Z</time>
      </trkpt>
      <trkpt lat="45.68645" lon="5.28528">
        <ele>271</ele>
        <time>2021-05-08T07:34:01.152Z</time>
      </trkpt>
      <trkpt lat="45.68649" lon="5.28517">
        <ele>271</ele>
        <time>2021-05-08T07:34:02.152Z</time>
      </trkpt>
      <trkpt lat="45.68655" lon="5.28502">
        <ele>271</ele>
        <time>2021-05-08T07:34:03.152Z</time>
      </trkpt>
      <trkpt lat="45.6866" lon="5.28489">
        <ele>271</ele>
        <time>2021-05-08T07:34:04.152Z</time>
      </trkpt>
      <trkpt lat="45.68665" lon="5.28476">
        <ele>271</ele>
        <time>2021-05-08T07:34:05.152Z</time>
      </trkpt>
      <trkpt lat="45.6867" lon="5.28464">
        <ele>272</ele>
        <time>2021-05-08T07:34:06.152Z</time>
      </trkpt>
      <trkpt lat="45.68675" lon="5.28451">
        <ele>272</ele>
        <time>2021-05-08T07:34:07.152Z</time>
      </trkpt>
      <trkpt lat="45.68679" lon="5.2844">
        <ele>272</ele>
        <time>2021-05-08T07:34:08.152Z</time>
      </trkpt>
      <trkpt lat="45.68684" lon="5.28428">
        <ele>272</ele>
        <time>2021-05-08T07:34:09.152Z</time>
      </trkpt>
      <trkpt lat="45.68688" lon="5.28417">
        <ele>272</ele>
        <time>2021-05-08T07:34:10.152Z</time>
      </trkpt>
      <trkpt lat="45.68693" lon="5.28406">
        <ele>272</ele>
        <time>2021-05-08T07:34:11.152Z</time>
      </trkpt>
      <trkpt lat="45.68697" lon="5.28395">
        <ele>273</ele>
        <time>2021-05-08T07:34:12.152Z</time>
      </trkpt>
      <trkpt lat="45.68701" lon="5.28384">
        <ele>273</ele>
        <time>2021-05-08T07:34:13.152Z</time>
      </trkpt>
      <trkpt lat="45.68705" lon="5.28374">
        <ele>273</ele>
        <time>2021-05-08T07:34:14.152Z</time>
      </trkpt>
      <trkpt lat="45.6871" lon="5.28364">
        <ele>274</ele>
        <time>2021-05-08T07:34:15.152Z</time>
      </trkpt>
      <trkpt lat="45.68715" lon="5.28355">
        <ele>274</ele>
        <time>2021-05-08T07:34:16.152Z</time>
      </trkpt>
      <trkpt lat="45.6872" lon="5.28346">
        <ele>275</ele>
        <time>2021-05-08T07:34:17.152Z</time>
      </trkpt>
      <trkpt lat="45.68725" lon="5.28338">
        <ele>275</ele>
        <time>2021-05-08T07:34:18.152Z</time>
      </trkpt>
      <trkpt lat="45.68731" lon="5.2833">
        <ele>275</ele>
        <time>2021-05-08T07:34:19.152Z</time>
      </trkpt>
      <trkpt lat="45.68738" lon="5.28323">
        <ele>276</ele>
        <time>2021-05-08T07:34:20.152Z</time>
      </trkpt>
      <trkpt lat="45.68744" lon="5.28316">
        <ele>276</ele>
        <time>2021-05-08T07:34:21.152Z</time>
      </trkpt>
      <trkpt lat="45.68751" lon="5.28309">
        <ele>277</ele>
        <time>2021-05-08T07:34:22.152Z</time>
      </trkpt>
      <trkpt lat="45.68758" lon="5.28304">
        <ele>278</ele>
        <time>2021-05-08T07:34:23.152Z</time>
      </trkpt>
      <trkpt lat="45.68765" lon="5.28299">
        <ele>278</ele>
        <time>2021-05-08T07:34:24.152Z</time>
      </trkpt>
      <trkpt lat="45.68773" lon="5.28295">
        <ele>278</ele>
        <time>2021-05-08T07:34:25.152Z</time>
      </trkpt>
      <trkpt lat="45.68781" lon="5.28291">
        <ele>278</ele>
        <time>2021-05-08T07:34:26.152Z</time>
      </trkpt>
      <trkpt lat="45.68788" lon="5.28288">
        <ele>278</ele>
        <time>2021-05-08T07:34:27.152Z</time>
      </trkpt>
      <trkpt lat="45.68796" lon="5.28286">
        <ele>278</ele>
        <time>2021-05-08T07:34:28.152Z</time>
      </trkpt>
      <trkpt lat="45.68803" lon="5.28285">
        <ele>278</ele>
        <time>2021-05-08T07:34:29.152Z</time>
      </trkpt>
      <trkpt lat="45.68811" lon="5.28284">
        <ele>278</ele>
        <time>2021-05-08T07:34:30.152Z</time>
      </trkpt>
      <trkpt lat="45.68819" lon="5.28284">
        <ele>278</ele>
        <time>2021-05-08T07:34:31.152Z</time>
      </trkpt>
      <trkpt lat="45.68827" lon="5.28285">
        <ele>278</ele>
        <time>2021-05-08T07:34:32.152Z</time>
      </trkpt>
      <trkpt lat="45.68835" lon="5.28285">
        <ele>278</ele>
        <time>2021-05-08T07:34:33.152Z</time>
      </trkpt>
      <trkpt lat="45.68844" lon="5.28286">
        <ele>278</ele>
        <time>2021-05-08T07:34:34.152Z</time>
      </trkpt>
      <trkpt lat="45.68852" lon="5.28287">
        <ele>278</ele>
        <time>2021-05-08T07:34:35.152Z</time>
      </trkpt>
      <trkpt lat="45.68861" lon="5.28289">
        <ele>278</ele>
        <time>2021-05-08T07:34:36.152Z</time>
      </trkpt>
      <trkpt lat="45.68869" lon="5.28291">
        <ele>279</ele>
        <time>2021-05-08T07:34:37.152Z</time>
      </trkpt>
      <trkpt lat="45.68878" lon="5.28293">
        <ele>279</ele>
        <time>2021-05-08T07:34:38.152Z</time>
      </trkpt>
      <trkpt lat="45.68887" lon="5.28294">
        <ele>279</ele>
        <time>2021-05-08T07:34:39.152Z</time>
      </trkpt>
      <trkpt lat="45.68896" lon="5.28296">
        <ele>280</ele>
        <time>2021-05-08T07:34:40.152Z</time>
      </trkpt>
      <trkpt lat="45.68905" lon="5.28298">
        <ele>280</ele>
        <time>2021-05-08T07:34:41.152Z</time>
      </trkpt>
      <trkpt lat="45.68915" lon="5.28301">
        <ele>280</ele>
        <time>2021-05-08T07:34:42.152Z</time>
      </trkpt>
      <trkpt lat="45.68924" lon="5.28303">
        <ele>281</ele>
        <time>2021-05-08T07:34:43.152Z</time>
      </trkpt>
      <trkpt lat="45.68934" lon="5.28305">
        <ele>281</ele>
        <time>2021-05-08T07:34:44.152Z</time>
      </trkpt>
      <trkpt lat="45.68943" lon="5.28308">
        <ele>281</ele>
        <time>2021-05-08T07:34:45.152Z</time>
      </trkpt>
      <trkpt lat="45.68953" lon="5.2831">
        <ele>281</ele>
        <time>2021-05-08T07:34:46.152Z</time>
      </trkpt>
      <trkpt lat="45.68962" lon="5.28313">
        <ele>282</ele>
        <time>2021-05-08T07:34:47.152Z</time>
      </trkpt>
      <trkpt lat="45.68972" lon="5.28315">
        <ele>282</ele>
        <time>2021-05-08T07:34:48.152Z</time>
      </trkpt>
      <trkpt lat="45.68981" lon="5.28318">
        <ele>282</ele>
        <time>2021-05-08T07:34:49.152Z</time>
      </trkpt>
      <trkpt lat="45.6899" lon="5.28321">
        <ele>282</ele>
        <time>2021-05-08T07:34:50.152Z</time>
      </trkpt>
      <trkpt lat="45.68998" lon="5.28324">
        <ele>282</ele>
        <time>2021-05-08T07:34:51.152Z</time>
      </trkpt>
      <trkpt lat="45.69008" lon="5.28328">
        <ele>281</ele>
        <time>2021-05-08T07:34:52.152Z</time>
      </trkpt>
      <trkpt lat="45.69017" lon="5.28332">
        <ele>281</ele>
        <time>2021-05-08T07:34:53.152Z</time>
      </trkpt>
      <trkpt lat="45.69026" lon="5.28336">
        <ele>281</ele>
        <time>2021-05-08T07:34:54.152Z</time>
      </trkpt>
      <trkpt lat="45.69035" lon="5.2834">
        <ele>281</ele>
        <time>2021-05-08T07:34:55.152Z</time>
      </trkpt>
      <trkpt lat="45.69043" lon="5.28345">
        <ele>281</ele>
        <time>2021-05-08T07:34:56.152Z</time>
      </trkpt>
      <trkpt lat="45.69051" lon="5.28352">
        <ele>282</ele>
        <time>2021-05-08T07:34:57.152Z</time>
      </trkpt>
      <trkpt lat="45.6906" lon="5.28359">
        <ele>282</ele>
        <time>2021-05-08T07:34:58.152Z</time>
      </trkpt>
      <trkpt lat="45.69068" lon="5.28368">
        <ele>281</ele>
        <time>2021-05-08T07:34:59.152Z</time>
      </trkpt>
      <trkpt lat="45.69076" lon="5.28377">
        <ele>281</ele>
        <time>2021-05-08T07:35:00.152Z</time>
      </trkpt>
      <trkpt lat="45.69083" lon="5.28386">
        <ele>280</ele>
        <time>2021-05-08T07:35:01.152Z</time>
      </trkpt>
      <trkpt lat="45.69092" lon="5.28396">
        <ele>280</ele>
        <time>2021-05-08T07:35:02.152Z</time>
      </trkpt>
      <trkpt lat="45.691" lon="5.28403">
        <ele>280</ele>
        <time>2021-05-08T07:35:03.152Z</time>
      </trkpt>
      <trkpt lat="45.69106" lon="5.28409">
        <ele>280</ele>
        <time>2021-05-08T07:35:04.152Z</time>
      </trkpt>
      <trkpt lat="45.69113" lon="5.28414">
        <ele>279</ele>
        <time>2021-05-08T07:35:05.152Z</time>
      </trkpt>
      <trkpt lat="45.69119" lon="5.28419">
        <ele>279</ele>
        <time>2021-05-08T07:35:06.152Z</time>
      </trkpt>
      <trkpt lat="45.69126" lon="5.28424">
        <ele>279</ele>
        <time>2021-05-08T07:35:07.152Z</time>
      </trkpt>
      <trkpt lat="45.69133" lon="5.28428">
        <ele>279</ele>
        <time>2021-05-08T07:35:08.152Z</time>
      </trkpt>
      <trkpt lat="45.6914" lon="5.28431">
        <ele>279</ele>
        <time>2021-05-08T07:35:09.152Z</time>
      </trkpt>
      <trkpt lat="45.69147" lon="5.28435">
        <ele>278</ele>
        <time>2021-05-08T07:35:10.152Z</time>
      </trkpt>
      <trkpt lat="45.69155" lon="5.28438">
        <ele>278</ele>
        <time>2021-05-08T07:35:11.152Z</time>
      </trkpt>
      <trkpt lat="45.69162" lon="5.28441">
        <ele>277</ele>
        <time>2021-05-08T07:35:12.152Z</time>
      </trkpt>
      <trkpt lat="45.69169" lon="5.28442">
        <ele>277</ele>
        <time>2021-05-08T07:35:13.152Z</time>
      </trkpt>
      <trkpt lat="45.69176" lon="5.28443">
        <ele>277</ele>
        <time>2021-05-08T07:35:14.152Z</time>
      </trkpt>
      <trkpt lat="45.69183" lon="5.28445">
        <ele>277</ele>
        <time>2021-05-08T07:35:15.152Z</time>
      </trkpt>
      <trkpt lat="45.69189" lon="5.28445">
        <ele>277</ele>
        <time>2021-05-08T07:35:16.152Z</time>
      </trkpt>
      <trkpt lat="45.69196" lon="5.28445">
        <ele>277</ele>
        <time>2021-05-08T07:35:17.152Z</time>
      </trkpt>
      <trkpt lat="45.69203" lon="5.28445">
        <ele>277</ele>
        <time>2021-05-08T07:35:18.152Z</time>
      </trkpt>
      <trkpt lat="45.6921" lon="5.28446">
        <ele>278</ele>
        <time>2021-05-08T07:35:19.152Z</time>
      </trkpt>
      <trkpt lat="45.69219" lon="5.28447">
        <ele>278</ele>
        <time>2021-05-08T07:35:20.152Z</time>
      </trkpt>
      <trkpt lat="45.69226" lon="5.28448">
        <ele>278</ele>
        <time>2021-05-08T07:35:21.152Z</time>
      </trkpt>
      <trkpt lat="45.69233" lon="5.28448">
        <ele>278</ele>
        <time>2021-05-08T07:35:22.152Z</time>
      </trkpt>
      <trkpt lat="45.69241" lon="5.2845">
        <ele>278</ele>
        <time>2021-05-08T07:35:23.152Z</time>
      </trkpt>
      <trkpt lat="45.69247" lon="5.28451">
        <ele>278</ele>
        <time>2021-05-08T07:35:24.152Z</time>
      </trkpt>
      <trkpt lat="45.69256" lon="5.28452">
        <ele>279</ele>
        <time>2021-05-08T07:35:25.152Z</time>
      </trkpt>
      <trkpt lat="45.69263" lon="5.28452">
        <ele>279</ele>
        <time>2021-05-08T07:35:26.152Z</time>
      </trkpt>
      <trkpt lat="45.69271" lon="5.28453">
        <ele>279</ele>
        <time>2021-05-08T07:35:27.152Z</time>
      </trkpt>
      <trkpt lat="45.69278" lon="5.28454">
        <ele>279</ele>
        <time>2021-05-08T07:35:28.152Z</time>
      </trkpt>
      <trkpt lat="45.69287" lon="5.28455">
        <ele>279</ele>
        <time>2021-05-08T07:35:29.152Z</time>
      </trkpt>
      <trkpt lat="45.69295" lon="5.28455">
        <ele>278</ele>
        <time>2021-05-08T07:35:30.152Z</time>
      </trkpt>
      <trkpt lat="45.69303" lon="5.28457">
        <ele>278</ele>
        <time>2021-05-08T07:35:31.152Z</time>
      </trkpt>
      <trkpt lat="45.6931" lon="5.28458">
        <ele>278</ele>
        <time>2021-05-08T07:35:32.152Z</time>
      </trkpt>
      <trkpt lat="45.69317" lon="5.28459">
        <ele>278</ele>
        <time>2021-05-08T07:35:33.152Z</time>
      </trkpt>
      <trkpt lat="45.69326" lon="5.2846">
        <ele>278</ele>
        <time>2021-05-08T07:35:34.152Z</time>
      </trkpt>
      <trkpt lat="45.69332" lon="5.2846">
        <ele>278</ele>
        <time>2021-05-08T07:35:35.152Z</time>
      </trkpt>
      <trkpt lat="45.6934" lon="5.2846">
        <ele>277</ele>
        <time>2021-05-08T07:35:36.152Z</time>
      </trkpt>
      <trkpt lat="45.6935" lon="5.28461">
        <ele>277</ele>
        <time>2021-05-08T07:35:37.152Z</time>
      </trkpt>
      <trkpt lat="45.69359" lon="5.28462">
        <ele>277</ele>
        <time>2021-05-08T07:35:38.152Z</time>
      </trkpt>
      <trkpt lat="45.69367" lon="5.28464">
        <ele>277</ele>
        <time>2021-05-08T07:35:39.152Z</time>
      </trkpt>
      <trkpt lat="45.69376" lon="5.28466">
        <ele>276</ele>
        <time>2021-05-08T07:35:40.152Z</time>
      </trkpt>
      <trkpt lat="45.69384" lon="5.2847">
        <ele>275</ele>
        <time>2021-05-08T07:35:41.152Z</time>
      </trkpt>
      <trkpt lat="45.69392" lon="5.28473">
        <ele>275</ele>
        <time>2021-05-08T07:35:42.152Z</time>
      </trkpt>
      <trkpt lat="45.69403" lon="5.28477">
        <ele>274</ele>
        <time>2021-05-08T07:35:43.152Z</time>
      </trkpt>
      <trkpt lat="45.69411" lon="5.28481">
        <ele>274</ele>
        <time>2021-05-08T07:35:44.152Z</time>
      </trkpt>
      <trkpt lat="45.69421" lon="5.28487">
        <ele>273</ele>
        <time>2021-05-08T07:35:45.152Z</time>
      </trkpt>
      <trkpt lat="45.69431" lon="5.28495">
        <ele>273</ele>
        <time>2021-05-08T07:35:46.152Z</time>
      </trkpt>
      <trkpt lat="45.6944" lon="5.28501">
        <ele>272</ele>
        <time>2021-05-08T07:35:47.152Z</time>
      </trkpt>
      <trkpt lat="45.69449" lon="5.28508">
        <ele>272</ele>
        <time>2021-05-08T07:35:48.152Z</time>
      </trkpt>
      <trkpt lat="45.69458" lon="5.28515">
        <ele>272</ele>
        <time>2021-05-08T07:35:49.152Z</time>
      </trkpt>
      <trkpt lat="45.69466" lon="5.28524">
        <ele>271</ele>
        <time>2021-05-08T07:35:50.152Z</time>
      </trkpt>
      <trkpt lat="45.69474" lon="5.28533">
        <ele>271</ele>
        <time>2021-05-08T07:35:51.152Z</time>
      </trkpt>
      <trkpt lat="45.69481" lon="5.2854">
        <ele>271</ele>
        <time>2021-05-08T07:35:52.152Z</time>
      </trkpt>
      <trkpt lat="45.69491" lon="5.2855">
        <ele>271</ele>
        <time>2021-05-08T07:35:53.152Z</time>
      </trkpt>
      <trkpt lat="45.695" lon="5.28559">
        <ele>271</ele>
        <time>2021-05-08T07:35:54.152Z</time>
      </trkpt>
      <trkpt lat="45.69508" lon="5.28568">
        <ele>271</ele>
        <time>2021-05-08T07:35:55.152Z</time>
      </trkpt>
      <trkpt lat="45.69517" lon="5.28576">
        <ele>272</ele>
        <time>2021-05-08T07:35:56.152Z</time>
      </trkpt>
      <trkpt lat="45.69524" lon="5.28585">
        <ele>272</ele>
        <time>2021-05-08T07:35:57.152Z</time>
      </trkpt>
      <trkpt lat="45.69532" lon="5.28594">
        <ele>271</ele>
        <time>2021-05-08T07:35:58.152Z</time>
      </trkpt>
      <trkpt lat="45.6954" lon="5.28603">
        <ele>271</ele>
        <time>2021-05-08T07:35:59.152Z</time>
      </trkpt>
      <trkpt lat="45.69548" lon="5.28612">
        <ele>270</ele>
        <time>2021-05-08T07:36:00.152Z</time>
      </trkpt>
      <trkpt lat="45.69555" lon="5.2862">
        <ele>270</ele>
        <time>2021-05-08T07:36:01.152Z</time>
      </trkpt>
      <trkpt lat="45.69563" lon="5.28629">
        <ele>269</ele>
        <time>2021-05-08T07:36:02.152Z</time>
      </trkpt>
      <trkpt lat="45.6957" lon="5.28637">
        <ele>269</ele>
        <time>2021-05-08T07:36:03.152Z</time>
      </trkpt>
      <trkpt lat="45.69577" lon="5.28644">
        <ele>269</ele>
        <time>2021-05-08T07:36:04.152Z</time>
      </trkpt>
      <trkpt lat="45.69583" lon="5.28651">
        <ele>269</ele>
        <time>2021-05-08T07:36:05.152Z</time>
      </trkpt>
      <trkpt lat="45.69591" lon="5.28657">
        <ele>269</ele>
        <time>2021-05-08T07:36:06.152Z</time>
      </trkpt>
      <trkpt lat="45.69598" lon="5.28663">
        <ele>269</ele>
        <time>2021-05-08T07:36:07.152Z</time>
      </trkpt>
      <trkpt lat="45.69604" lon="5.28669">
        <ele>270</ele>
        <time>2021-05-08T07:36:08.152Z</time>
      </trkpt>
      <trkpt lat="45.6961" lon="5.28674">
        <ele>270</ele>
        <time>2021-05-08T07:36:09.152Z</time>
      </trkpt>
      <trkpt lat="45.69615" lon="5.28679">
        <ele>270</ele>
        <time>2021-05-08T07:36:10.152Z</time>
      </trkpt>
      <trkpt lat="45.69621" lon="5.28684">
        <ele>270</ele>
        <time>2021-05-08T07:36:11.152Z</time>
      </trkpt>
      <trkpt lat="45.69627" lon="5.28688">
        <ele>270</ele>
        <time>2021-05-08T07:36:12.152Z</time>
      </trkpt>
      <trkpt lat="45.69632" lon="5.28693">
        <ele>270</ele>
        <time>2021-05-08T07:36:13.152Z</time>
      </trkpt>
      <trkpt lat="45.69638" lon="5.28697">
        <ele>270</ele>
        <time>2021-05-08T07:36:14.152Z</time>
      </trkpt>
      <trkpt lat="45.69643" lon="5.28702">
        <ele>270</ele>
        <time>2021-05-08T07:36:15.152Z</time>
      </trkpt>
      <trkpt lat="45.69648" lon="5.28706">
        <ele>271</ele>
        <time>2021-05-08T07:36:16.152Z</time>
      </trkpt>
      <trkpt lat="45.69653" lon="5.28711">
        <ele>272</ele>
        <time>2021-05-08T07:36:17.152Z</time>
      </trkpt>
      <trkpt lat="45.69659" lon="5.28715">
        <ele>272</ele>
        <time>2021-05-08T07:36:18.152Z</time>
      </trkpt>
      <trkpt lat="45.69664" lon="5.28719">
        <ele>273</ele>
        <time>2021-05-08T07:36:19.152Z</time>
      </trkpt>
      <trkpt lat="45.69669" lon="5.28723">
        <ele>273</ele>
        <time>2021-05-08T07:36:20.152Z</time>
      </trkpt>
      <trkpt lat="45.69673" lon="5.28727">
        <ele>273</ele>
        <time>2021-05-08T07:36:21.152Z</time>
      </trkpt>
      <trkpt lat="45.69678" lon="5.28731">
        <ele>273</ele>
        <time>2021-05-08T07:36:22.152Z</time>
      </trkpt>
      <trkpt lat="45.69683" lon="5.28735">
        <ele>273</ele>
        <time>2021-05-08T07:36:23.152Z</time>
      </trkpt>
      <trkpt lat="45.69688" lon="5.28739">
        <ele>274</ele>
        <time>2021-05-08T07:36:24.152Z</time>
      </trkpt>
      <trkpt lat="45.69693" lon="5.28743">
        <ele>274</ele>
        <time>2021-05-08T07:36:25.152Z</time>
      </trkpt>
      <trkpt lat="45.69698" lon="5.28747">
        <ele>274</ele>
        <time>2021-05-08T07:36:26.152Z</time>
      </trkpt>
      <trkpt lat="45.69703" lon="5.28751">
        <ele>274</ele>
        <time>2021-05-08T07:36:27.152Z</time>
      </trkpt>
      <trkpt lat="45.69708" lon="5.28755">
        <ele>275</ele>
        <time>2021-05-08T07:36:28.152Z</time>
      </trkpt>
      <trkpt lat="45.69713" lon="5.2876">
        <ele>275</ele>
        <time>2021-05-08T07:36:29.152Z</time>
      </trkpt>
      <trkpt lat="45.69717" lon="5.28765">
        <ele>275</ele>
        <time>2021-05-08T07:36:30.152Z</time>
      </trkpt>
      <trkpt lat="45.69723" lon="5.28769">
        <ele>275</ele>
        <time>2021-05-08T07:36:31.152Z</time>
      </trkpt>
      <trkpt lat="45.69729" lon="5.28774">
        <ele>275</ele>
        <time>2021-05-08T07:36:32.152Z</time>
      </trkpt>
      <trkpt lat="45.69734" lon="5.28779">
        <ele>274</ele>
        <time>2021-05-08T07:36:33.152Z</time>
      </trkpt>
      <trkpt lat="45.69741" lon="5.28785">
        <ele>274</ele>
        <time>2021-05-08T07:36:34.152Z</time>
      </trkpt>
      <trkpt lat="45.69748" lon="5.28791">
        <ele>275</ele>
        <time>2021-05-08T07:36:35.152Z</time>
      </trkpt>
      <trkpt lat="45.69754" lon="5.28796">
        <ele>275</ele>
        <time>2021-05-08T07:36:36.152Z</time>
      </trkpt>
      <trkpt lat="45.69762" lon="5.28802">
        <ele>275</ele>
        <time>2021-05-08T07:36:37.152Z</time>
      </trkpt>
      <trkpt lat="45.69769" lon="5.28809">
        <ele>275</ele>
        <time>2021-05-08T07:36:38.152Z</time>
      </trkpt>
      <trkpt lat="45.69777" lon="5.28815">
        <ele>275</ele>
        <time>2021-05-08T07:36:39.152Z</time>
      </trkpt>
      <trkpt lat="45.69784" lon="5.28821">
        <ele>275</ele>
        <time>2021-05-08T07:36:40.152Z</time>
      </trkpt>
      <trkpt lat="45.69792" lon="5.28828">
        <ele>275</ele>
        <time>2021-05-08T07:36:41.152Z</time>
      </trkpt>
      <trkpt lat="45.698" lon="5.28835">
        <ele>275</ele>
        <time>2021-05-08T07:36:42.152Z</time>
      </trkpt>
      <trkpt lat="45.69809" lon="5.28842">
        <ele>275</ele>
        <time>2021-05-08T07:36:43.152Z</time>
      </trkpt>
      <trkpt lat="45.69818" lon="5.28849">
        <ele>276</ele>
        <time>2021-05-08T07:36:44.152Z</time>
      </trkpt>
      <trkpt lat="45.69827" lon="5.28856">
        <ele>276</ele>
        <time>2021-05-08T07:36:45.152Z</time>
      </trkpt>
      <trkpt lat="45.69836" lon="5.28864">
        <ele>276</ele>
        <time>2021-05-08T07:36:46.152Z</time>
      </trkpt>
      <trkpt lat="45.69846" lon="5.28872">
        <ele>276</ele>
        <time>2021-05-08T07:36:47.152Z</time>
      </trkpt>
      <trkpt lat="45.69856" lon="5.28879">
        <ele>276</ele>
        <time>2021-05-08T07:36:48.152Z</time>
      </trkpt>
      <trkpt lat="45.69865" lon="5.28887">
        <ele>275</ele>
        <time>2021-05-08T07:36:49.152Z</time>
      </trkpt>
      <trkpt lat="45.69875" lon="5.28894">
        <ele>275</ele>
        <time>2021-05-08T07:36:50.152Z</time>
      </trkpt>
      <trkpt lat="45.69886" lon="5.28902">
        <ele>274</ele>
        <time>2021-05-08T07:36:51.152Z</time>
      </trkpt>
      <trkpt lat="45.69896" lon="5.28908">
        <ele>274</ele>
        <time>2021-05-08T07:36:52.152Z</time>
      </trkpt>
      <trkpt lat="45.69907" lon="5.28915">
        <ele>274</ele>
        <time>2021-05-08T07:36:53.152Z</time>
      </trkpt>
      <trkpt lat="45.69918" lon="5.28921">
        <ele>274</ele>
        <time>2021-05-08T07:36:54.152Z</time>
      </trkpt>
      <trkpt lat="45.69928" lon="5.28926">
        <ele>273</ele>
        <time>2021-05-08T07:36:55.152Z</time>
      </trkpt>
      <trkpt lat="45.69938" lon="5.28931">
        <ele>272</ele>
        <time>2021-05-08T07:36:56.152Z</time>
      </trkpt>
      <trkpt lat="45.69949" lon="5.28935">
        <ele>272</ele>
        <time>2021-05-08T07:36:57.152Z</time>
      </trkpt>
      <trkpt lat="45.69959" lon="5.2894">
        <ele>272</ele>
        <time>2021-05-08T07:36:58.152Z</time>
      </trkpt>
      <trkpt lat="45.69969" lon="5.28943">
        <ele>271</ele>
        <time>2021-05-08T07:36:59.152Z</time>
      </trkpt>
      <trkpt lat="45.69979" lon="5.28947">
        <ele>271</ele>
        <time>2021-05-08T07:37:00.152Z</time>
      </trkpt>
      <trkpt lat="45.6999" lon="5.2895">
        <ele>271</ele>
        <time>2021-05-08T07:37:01.152Z</time>
      </trkpt>
      <trkpt lat="45.70001" lon="5.28953">
        <ele>271</ele>
        <time>2021-05-08T07:37:02.152Z</time>
      </trkpt>
      <trkpt lat="45.70011" lon="5.28955">
        <ele>271</ele>
        <time>2021-05-08T07:37:03.152Z</time>
      </trkpt>
      <trkpt lat="45.70021" lon="5.28958">
        <ele>270</ele>
        <time>2021-05-08T07:37:04.152Z</time>
      </trkpt>
      <trkpt lat="45.70031" lon="5.2896">
        <ele>270</ele>
        <time>2021-05-08T07:37:05.152Z</time>
      </trkpt>
      <trkpt lat="45.70041" lon="5.28962">
        <ele>270</ele>
        <time>2021-05-08T07:37:06.152Z</time>
      </trkpt>
      <trkpt lat="45.70051" lon="5.28963">
        <ele>271</ele>
        <time>2021-05-08T07:37:07.152Z</time>
      </trkpt>
      <trkpt lat="45.70061" lon="5.28964">
        <ele>271</ele>
        <time>2021-05-08T07:37:08.152Z</time>
      </trkpt>
      <trkpt lat="45.7007" lon="5.28964">
        <ele>271</ele>
        <time>2021-05-08T07:37:09.152Z</time>
      </trkpt>
      <trkpt lat="45.7008" lon="5.28964">
        <ele>271</ele>
        <time>2021-05-08T07:37:10.152Z</time>
      </trkpt>
      <trkpt lat="45.70089" lon="5.28963">
        <ele>272</ele>
        <time>2021-05-08T07:37:11.152Z</time>
      </trkpt>
      <trkpt lat="45.70098" lon="5.28962">
        <ele>273</ele>
        <time>2021-05-08T07:37:12.152Z</time>
      </trkpt>
      <trkpt lat="45.70107" lon="5.2896">
        <ele>273</ele>
        <time>2021-05-08T07:37:13.152Z</time>
      </trkpt>
      <trkpt lat="45.70116" lon="5.28958">
        <ele>273</ele>
        <time>2021-05-08T07:37:14.152Z</time>
      </trkpt>
      <trkpt lat="45.70125" lon="5.28957">
        <ele>273</ele>
        <time>2021-05-08T07:37:15.152Z</time>
      </trkpt>
      <trkpt lat="45.70134" lon="5.28956">
        <ele>273</ele>
        <time>2021-05-08T07:37:16.152Z</time>
      </trkpt>
      <trkpt lat="45.70142" lon="5.28954">
        <ele>273</ele>
        <time>2021-05-08T07:37:17.152Z</time>
      </trkpt>
      <trkpt lat="45.7015" lon="5.28951">
        <ele>272</ele>
        <time>2021-05-08T07:37:18.152Z</time>
      </trkpt>
      <trkpt lat="45.70158" lon="5.28948">
        <ele>271</ele>
        <time>2021-05-08T07:37:19.152Z</time>
      </trkpt>
      <trkpt lat="45.70166" lon="5.28944">
        <ele>271</ele>
        <time>2021-05-08T07:37:20.152Z</time>
      </trkpt>
      <trkpt lat="45.70175" lon="5.28939">
        <ele>270</ele>
        <time>2021-05-08T07:37:21.152Z</time>
      </trkpt>
      <trkpt lat="45.70184" lon="5.28935">
        <ele>270</ele>
        <time>2021-05-08T07:37:22.152Z</time>
      </trkpt>
      <trkpt lat="45.70192" lon="5.28931">
        <ele>270</ele>
        <time>2021-05-08T07:37:23.152Z</time>
      </trkpt>
      <trkpt lat="45.702" lon="5.28926">
        <ele>269</ele>
        <time>2021-05-08T07:37:24.152Z</time>
      </trkpt>
      <trkpt lat="45.70208" lon="5.28922">
        <ele>269</ele>
        <time>2021-05-08T07:37:25.152Z</time>
      </trkpt>
      <trkpt lat="45.70216" lon="5.28917">
        <ele>269</ele>
        <time>2021-05-08T07:37:26.152Z</time>
      </trkpt>
      <trkpt lat="45.70223" lon="5.28911">
        <ele>268</ele>
        <time>2021-05-08T07:37:27.152Z</time>
      </trkpt>
      <trkpt lat="45.7023" lon="5.28905">
        <ele>268</ele>
        <time>2021-05-08T07:37:28.152Z</time>
      </trkpt>
      <trkpt lat="45.70238" lon="5.28899">
        <ele>267</ele>
        <time>2021-05-08T07:37:29.152Z</time>
      </trkpt>
      <trkpt lat="45.70245" lon="5.28893">
        <ele>267</ele>
        <time>2021-05-08T07:37:30.152Z</time>
      </trkpt>
      <trkpt lat="45.70253" lon="5.28886">
        <ele>267</ele>
        <time>2021-05-08T07:37:31.152Z</time>
      </trkpt>
      <trkpt lat="45.7026" lon="5.28878">
        <ele>267</ele>
        <time>2021-05-08T07:37:32.152Z</time>
      </trkpt>
      <trkpt lat="45.70267" lon="5.2887">
        <ele>267</ele>
        <time>2021-05-08T07:37:33.152Z</time>
      </trkpt>
      <trkpt lat="45.70275" lon="5.28862">
        <ele>267</ele>
        <time>2021-05-08T07:37:34.152Z</time>
      </trkpt>
      <trkpt lat="45.70283" lon="5.28854">
        <ele>267</ele>
        <time>2021-05-08T07:37:35.152Z</time>
      </trkpt>
      <trkpt lat="45.70291" lon="5.28845">
        <ele>268</ele>
        <time>2021-05-08T07:37:36.152Z</time>
      </trkpt>
      <trkpt lat="45.70299" lon="5.28835">
        <ele>268</ele>
        <time>2021-05-08T07:37:37.152Z</time>
      </trkpt>
      <trkpt lat="45.70307" lon="5.28826">
        <ele>269</ele>
        <time>2021-05-08T07:37:38.152Z</time>
      </trkpt>
      <trkpt lat="45.70315" lon="5.28816">
        <ele>269</ele>
        <time>2021-05-08T07:37:39.152Z</time>
      </trkpt>
      <trkpt lat="45.70324" lon="5.28806">
        <ele>269</ele>
        <time>2021-05-08T07:37:40.152Z</time>
      </trkpt>
      <trkpt lat="45.70332" lon="5.28795">
        <ele>269</ele>
        <time>2021-05-08T07:37:41.152Z</time>
      </trkpt>
      <trkpt lat="45.7034" lon="5.28784">
        <ele>269</ele>
        <time>2021-05-08T07:37:42.152Z</time>
      </trkpt>
      <trkpt lat="45.70348" lon="5.28772">
        <ele>269</ele>
        <time>2021-05-08T07:37:43.152Z</time>
      </trkpt>
      <trkpt lat="45.70357" lon="5.28761">
        <ele>270</ele>
        <time>2021-05-08T07:37:44.152Z</time>
      </trkpt>
      <trkpt lat="45.70364" lon="5.28749">
        <ele>270</ele>
        <time>2021-05-08T07:37:45.152Z</time>
      </trkpt>
      <trkpt lat="45.70372" lon="5.28737">
        <ele>270</ele>
        <time>2021-05-08T07:37:46.152Z</time>
      </trkpt>
      <trkpt lat="45.7038" lon="5.28725">
        <ele>269</ele>
        <time>2021-05-08T07:37:47.152Z</time>
      </trkpt>
      <trkpt lat="45.70387" lon="5.28712">
        <ele>269</ele>
        <time>2021-05-08T07:37:48.152Z</time>
      </trkpt>
      <trkpt lat="45.70394" lon="5.287">
        <ele>269</ele>
        <time>2021-05-08T07:37:49.152Z</time>
      </trkpt>
      <trkpt lat="45.70402" lon="5.28687">
        <ele>269</ele>
        <time>2021-05-08T07:37:50.152Z</time>
      </trkpt>
      <trkpt lat="45.70409" lon="5.28674">
        <ele>269</ele>
        <time>2021-05-08T07:37:51.152Z</time>
      </trkpt>
      <trkpt lat="45.70416" lon="5.28661">
        <ele>269</ele>
        <time>2021-05-08T07:37:52.152Z</time>
      </trkpt>
      <trkpt lat="45.70421" lon="5.2865">
        <ele>269</ele>
        <time>2021-05-08T07:37:53.152Z</time>
      </trkpt>
      <trkpt lat="45.7043" lon="5.28634">
        <ele>269</ele>
        <time>2021-05-08T07:37:54.152Z</time>
      </trkpt>
      <trkpt lat="45.70437" lon="5.28621">
        <ele>270</ele>
        <time>2021-05-08T07:37:55.152Z</time>
      </trkpt>
      <trkpt lat="45.70444" lon="5.28608">
        <ele>270</ele>
        <time>2021-05-08T07:37:56.152Z</time>
      </trkpt>
      <trkpt lat="45.7045" lon="5.28596">
        <ele>270</ele>
        <time>2021-05-08T07:37:57.152Z</time>
      </trkpt>
      <trkpt lat="45.70457" lon="5.28583">
        <ele>269</ele>
        <time>2021-05-08T07:37:58.152Z</time>
      </trkpt>
      <trkpt lat="45.70464" lon="5.2857">
        <ele>269</ele>
        <time>2021-05-08T07:37:59.152Z</time>
      </trkpt>
      <trkpt lat="45.70471" lon="5.28556">
        <ele>269</ele>
        <time>2021-05-08T07:38:00.152Z</time>
      </trkpt>
      <trkpt lat="45.70479" lon="5.28543">
        <ele>269</ele>
        <time>2021-05-08T07:38:01.152Z</time>
      </trkpt>
      <trkpt lat="45.70485" lon="5.2853">
        <ele>269</ele>
        <time>2021-05-08T07:38:02.152Z</time>
      </trkpt>
      <trkpt lat="45.70492" lon="5.28518">
        <ele>269</ele>
        <time>2021-05-08T07:38:03.152Z</time>
      </trkpt>
      <trkpt lat="45.70499" lon="5.28506">
        <ele>269</ele>
        <time>2021-05-08T07:38:04.152Z</time>
      </trkpt>
      <trkpt lat="45.70505" lon="5.28494">
        <ele>269</ele>
        <time>2021-05-08T07:38:05.152Z</time>
      </trkpt>
      <trkpt lat="45.70512" lon="5.28483">
        <ele>269</ele>
        <time>2021-05-08T07:38:06.152Z</time>
      </trkpt>
      <trkpt lat="45.70518" lon="5.28471">
        <ele>269</ele>
        <time>2021-05-08T07:38:07.152Z</time>
      </trkpt>
      <trkpt lat="45.70525" lon="5.2846">
        <ele>269</ele>
        <time>2021-05-08T07:38:08.152Z</time>
      </trkpt>
      <trkpt lat="45.7053" lon="5.28449">
        <ele>269</ele>
        <time>2021-05-08T07:38:09.152Z</time>
      </trkpt>
      <trkpt lat="45.70536" lon="5.28438">
        <ele>269</ele>
        <time>2021-05-08T07:38:10.152Z</time>
      </trkpt>
      <trkpt lat="45.70542" lon="5.28427">
        <ele>269</ele>
        <time>2021-05-08T07:38:11.152Z</time>
      </trkpt>
      <trkpt lat="45.70548" lon="5.28417">
        <ele>269</ele>
        <time>2021-05-08T07:38:12.152Z</time>
      </trkpt>
      <trkpt lat="45.70554" lon="5.28407">
        <ele>270</ele>
        <time>2021-05-08T07:38:13.152Z</time>
      </trkpt>
      <trkpt lat="45.70559" lon="5.28397">
        <ele>270</ele>
        <time>2021-05-08T07:38:14.152Z</time>
      </trkpt>
      <trkpt lat="45.70565" lon="5.28387">
        <ele>270</ele>
        <time>2021-05-08T07:38:15.152Z</time>
      </trkpt>
      <trkpt lat="45.7057" lon="5.28377">
        <ele>270</ele>
        <time>2021-05-08T07:38:16.152Z</time>
      </trkpt>
      <trkpt lat="45.70576" lon="5.28366">
        <ele>270</ele>
        <time>2021-05-08T07:38:17.152Z</time>
      </trkpt>
      <trkpt lat="45.70581" lon="5.28357">
        <ele>270</ele>
        <time>2021-05-08T07:38:18.152Z</time>
      </trkpt>
      <trkpt lat="45.70586" lon="5.28346">
        <ele>270</ele>
        <time>2021-05-08T07:38:19.152Z</time>
      </trkpt>
      <trkpt lat="45.70593" lon="5.28335">
        <ele>269</ele>
        <time>2021-05-08T07:38:20.152Z</time>
      </trkpt>
      <trkpt lat="45.70598" lon="5.28325">
        <ele>269</ele>
        <time>2021-05-08T07:38:21.152Z</time>
      </trkpt>
      <trkpt lat="45.70604" lon="5.28315">
        <ele>268</ele>
        <time>2021-05-08T07:38:22.152Z</time>
      </trkpt>
      <trkpt lat="45.70609" lon="5.28305">
        <ele>268</ele>
        <time>2021-05-08T07:38:23.152Z</time>
      </trkpt>
      <trkpt lat="45.70615" lon="5.28296">
        <ele>268</ele>
        <time>2021-05-08T07:38:24.152Z</time>
      </trkpt>
      <trkpt lat="45.7062" lon="5.28286">
        <ele>267</ele>
        <time>2021-05-08T07:38:25.152Z</time>
      </trkpt>
      <trkpt lat="45.70626" lon="5.28275">
        <ele>267</ele>
        <time>2021-05-08T07:38:26.152Z</time>
      </trkpt>
      <trkpt lat="45.70631" lon="5.28266">
        <ele>267</ele>
        <time>2021-05-08T07:38:27.152Z</time>
      </trkpt>
      <trkpt lat="45.70636" lon="5.28256">
        <ele>267</ele>
        <time>2021-05-08T07:38:28.152Z</time>
      </trkpt>
      <trkpt lat="45.70641" lon="5.28249">
        <ele>267</ele>
        <time>2021-05-08T07:38:29.152Z</time>
      </trkpt>
      <trkpt lat="45.70646" lon="5.28238">
        <ele>266</ele>
        <time>2021-05-08T07:38:30.152Z</time>
      </trkpt>
      <trkpt lat="45.70652" lon="5.28228">
        <ele>266</ele>
        <time>2021-05-08T07:38:31.152Z</time>
      </trkpt>
      <trkpt lat="45.70657" lon="5.28218">
        <ele>266</ele>
        <time>2021-05-08T07:38:32.152Z</time>
      </trkpt>
      <trkpt lat="45.70663" lon="5.28208">
        <ele>267</ele>
        <time>2021-05-08T07:38:33.152Z</time>
      </trkpt>
      <trkpt lat="45.70668" lon="5.28199">
        <ele>266</ele>
        <time>2021-05-08T07:38:34.152Z</time>
      </trkpt>
      <trkpt lat="45.70675" lon="5.28187">
        <ele>266</ele>
        <time>2021-05-08T07:38:35.152Z</time>
      </trkpt>
      <trkpt lat="45.7068" lon="5.28178">
        <ele>266</ele>
        <time>2021-05-08T07:38:36.152Z</time>
      </trkpt>
      <trkpt lat="45.70686" lon="5.28168">
        <ele>266</ele>
        <time>2021-05-08T07:38:37.152Z</time>
      </trkpt>
      <trkpt lat="45.70693" lon="5.28155">
        <ele>266</ele>
        <time>2021-05-08T07:38:38.152Z</time>
      </trkpt>
      <trkpt lat="45.70698" lon="5.28146">
        <ele>266</ele>
        <time>2021-05-08T07:38:39.152Z</time>
      </trkpt>
      <trkpt lat="45.70705" lon="5.28134">
        <ele>266</ele>
        <time>2021-05-08T07:38:40.152Z</time>
      </trkpt>
      <trkpt lat="45.70711" lon="5.28123">
        <ele>266</ele>
        <time>2021-05-08T07:38:41.152Z</time>
      </trkpt>
      <trkpt lat="45.70718" lon="5.28111">
        <ele>266</ele>
        <time>2021-05-08T07:38:42.152Z</time>
      </trkpt>
      <trkpt lat="45.70724" lon="5.281">
        <ele>266</ele>
        <time>2021-05-08T07:38:43.152Z</time>
      </trkpt>
      <trkpt lat="45.7073" lon="5.28088">
        <ele>266</ele>
        <time>2021-05-08T07:38:44.152Z</time>
      </trkpt>
      <trkpt lat="45.70737" lon="5.28077">
        <ele>266</ele>
        <time>2021-05-08T07:38:45.152Z</time>
      </trkpt>
      <trkpt lat="45.70743" lon="5.28065">
        <ele>265</ele>
        <time>2021-05-08T07:38:46.152Z</time>
      </trkpt>
      <trkpt lat="45.70749" lon="5.28053">
        <ele>265</ele>
        <time>2021-05-08T07:38:47.152Z</time>
      </trkpt>
      <trkpt lat="45.70756" lon="5.28041">
        <ele>265</ele>
        <time>2021-05-08T07:38:48.152Z</time>
      </trkpt>
      <trkpt lat="45.70762" lon="5.28029">
        <ele>265</ele>
        <time>2021-05-08T07:38:49.152Z</time>
      </trkpt>
      <trkpt lat="45.70769" lon="5.28017">
        <ele>265</ele>
        <time>2021-05-08T07:38:50.152Z</time>
      </trkpt>
      <trkpt lat="45.70775" lon="5.28006">
        <ele>265</ele>
        <time>2021-05-08T07:38:51.152Z</time>
      </trkpt>
      <trkpt lat="45.70782" lon="5.27994">
        <ele>265</ele>
        <time>2021-05-08T07:38:52.152Z</time>
      </trkpt>
      <trkpt lat="45.70788" lon="5.27982">
        <ele>264</ele>
        <time>2021-05-08T07:38:53.152Z</time>
      </trkpt>
      <trkpt lat="45.70795" lon="5.2797">
        <ele>264</ele>
        <time>2021-05-08T07:38:54.152Z</time>
      </trkpt>
      <trkpt lat="45.70801" lon="5.27959">
        <ele>264</ele>
        <time>2021-05-08T07:38:55.152Z</time>
      </trkpt>
      <trkpt lat="45.70808" lon="5.27947">
        <ele>264</ele>
        <time>2021-05-08T07:38:56.152Z</time>
      </trkpt>
      <trkpt lat="45.70814" lon="5.27935">
        <ele>264</ele>
        <time>2021-05-08T07:38:57.152Z</time>
      </trkpt>
      <trkpt lat="45.70821" lon="5.27923">
        <ele>264</ele>
        <time>2021-05-08T07:38:58.152Z</time>
      </trkpt>
      <trkpt lat="45.70828" lon="5.2791">
        <ele>264</ele>
        <time>2021-05-08T07:38:59.152Z</time>
      </trkpt>
      <trkpt lat="45.70834" lon="5.27898">
        <ele>265</ele>
        <time>2021-05-08T07:39:00.152Z</time>
      </trkpt>
      <trkpt lat="45.70841" lon="5.27886">
        <ele>265</ele>
        <time>2021-05-08T07:39:01.152Z</time>
      </trkpt>
      <trkpt lat="45.70847" lon="5.27874">
        <ele>265</ele>
        <time>2021-05-08T07:39:02.152Z</time>
      </trkpt>
      <trkpt lat="45.70853" lon="5.27863">
        <ele>264</ele>
        <time>2021-05-08T07:39:03.152Z</time>
      </trkpt>
      <trkpt lat="45.7086" lon="5.27852">
        <ele>263</ele>
        <time>2021-05-08T07:39:04.152Z</time>
      </trkpt>
      <trkpt lat="45.70865" lon="5.2784">
        <ele>262</ele>
        <time>2021-05-08T07:39:05.152Z</time>
      </trkpt>
      <trkpt lat="45.70871" lon="5.27829">
        <ele>262</ele>
        <time>2021-05-08T07:39:06.152Z</time>
      </trkpt>
      <trkpt lat="45.70876" lon="5.27818">
        <ele>262</ele>
        <time>2021-05-08T07:39:07.152Z</time>
      </trkpt>
      <trkpt lat="45.70881" lon="5.27807">
        <ele>262</ele>
        <time>2021-05-08T07:39:08.152Z</time>
      </trkpt>
      <trkpt lat="45.70886" lon="5.27796">
        <ele>262</ele>
        <time>2021-05-08T07:39:09.152Z</time>
      </trkpt>
      <trkpt lat="45.70891" lon="5.27785">
        <ele>262</ele>
        <time>2021-05-08T07:39:10.152Z</time>
      </trkpt>
      <trkpt lat="45.70895" lon="5.27773">
        <ele>262</ele>
        <time>2021-05-08T07:39:11.152Z</time>
      </trkpt>
      <trkpt lat="45.709" lon="5.27762">
        <ele>263</ele>
        <time>2021-05-08T07:39:12.152Z</time>
      </trkpt>
      <trkpt lat="45.70904" lon="5.27751">
        <ele>263</ele>
        <time>2021-05-08T07:39:13.152Z</time>
      </trkpt>
      <trkpt lat="45.70908" lon="5.2774">
        <ele>263</ele>
        <time>2021-05-08T07:39:14.152Z</time>
      </trkpt>
      <trkpt lat="45.70912" lon="5.2773">
        <ele>263</ele>
        <time>2021-05-08T07:39:15.152Z</time>
      </trkpt>
      <trkpt lat="45.70916" lon="5.27719">
        <ele>263</ele>
        <time>2021-05-08T07:39:16.152Z</time>
      </trkpt>
      <trkpt lat="45.7092" lon="5.27708">
        <ele>263</ele>
        <time>2021-05-08T07:39:17.152Z</time>
      </trkpt>
      <trkpt lat="45.70924" lon="5.27698">
        <ele>263</ele>
        <time>2021-05-08T07:39:18.152Z</time>
      </trkpt>
      <trkpt lat="45.70928" lon="5.27687">
        <ele>262</ele>
        <time>2021-05-08T07:39:19.152Z</time>
      </trkpt>
      <trkpt lat="45.70932" lon="5.27676">
        <ele>262</ele>
        <time>2021-05-08T07:39:20.152Z</time>
      </trkpt>
      <trkpt lat="45.70936" lon="5.27665">
        <ele>262</ele>
        <time>2021-05-08T07:39:21.152Z</time>
      </trkpt>
      <trkpt lat="45.7094" lon="5.27655">
        <ele>262</ele>
        <time>2021-05-08T07:39:22.152Z</time>
      </trkpt>
      <trkpt lat="45.70944" lon="5.27644">
        <ele>261</ele>
        <time>2021-05-08T07:39:23.152Z</time>
      </trkpt>
      <trkpt lat="45.70948" lon="5.27633">
        <ele>261</ele>
        <time>2021-05-08T07:39:24.152Z</time>
      </trkpt>
      <trkpt lat="45.70952" lon="5.27622">
        <ele>261</ele>
        <time>2021-05-08T07:39:25.152Z</time>
      </trkpt>
      <trkpt lat="45.70956" lon="5.27612">
        <ele>261</ele>
        <time>2021-05-08T07:39:26.152Z</time>
      </trkpt>
      <trkpt lat="45.7096" lon="5.27601">
        <ele>261</ele>
        <time>2021-05-08T07:39:27.152Z</time>
      </trkpt>
      <trkpt lat="45.70964" lon="5.27591">
        <ele>261</ele>
        <time>2021-05-08T07:39:28.152Z</time>
      </trkpt>
      <trkpt lat="45.70968" lon="5.2758">
        <ele>260</ele>
        <time>2021-05-08T07:39:29.152Z</time>
      </trkpt>
      <trkpt lat="45.70972" lon="5.2757">
        <ele>260</ele>
        <time>2021-05-08T07:39:30.152Z</time>
      </trkpt>
      <trkpt lat="45.70976" lon="5.27559">
        <ele>261</ele>
        <time>2021-05-08T07:39:31.152Z</time>
      </trkpt>
      <trkpt lat="45.70981" lon="5.27545">
        <ele>260</ele>
        <time>2021-05-08T07:39:32.152Z</time>
      </trkpt>
      <trkpt lat="45.70985" lon="5.27534">
        <ele>260</ele>
        <time>2021-05-08T07:39:33.152Z</time>
      </trkpt>
      <trkpt lat="45.70989" lon="5.27522">
        <ele>260</ele>
        <time>2021-05-08T07:39:34.152Z</time>
      </trkpt>
      <trkpt lat="45.70993" lon="5.27512">
        <ele>260</ele>
        <time>2021-05-08T07:39:35.152Z</time>
      </trkpt>
      <trkpt lat="45.70997" lon="5.275">
        <ele>260</ele>
        <time>2021-05-08T07:39:36.152Z</time>
      </trkpt>
      <trkpt lat="45.71002" lon="5.27487">
        <ele>261</ele>
        <time>2021-05-08T07:39:37.152Z</time>
      </trkpt>
      <trkpt lat="45.71007" lon="5.27473">
        <ele>261</ele>
        <time>2021-05-08T07:39:38.152Z</time>
      </trkpt>
      <trkpt lat="45.71012" lon="5.2746">
        <ele>262</ele>
        <time>2021-05-08T07:39:39.152Z</time>
      </trkpt>
      <trkpt lat="45.71017" lon="5.27446">
        <ele>262</ele>
        <time>2021-05-08T07:39:40.152Z</time>
      </trkpt>
      <trkpt lat="45.71023" lon="5.27432">
        <ele>262</ele>
        <time>2021-05-08T07:39:41.152Z</time>
      </trkpt>
      <trkpt lat="45.71028" lon="5.27418">
        <ele>262</ele>
        <time>2021-05-08T07:39:42.152Z</time>
      </trkpt>
      <trkpt lat="45.71033" lon="5.27404">
        <ele>263</ele>
        <time>2021-05-08T07:39:43.152Z</time>
      </trkpt>
      <trkpt lat="45.71039" lon="5.27389">
        <ele>263</ele>
        <time>2021-05-08T07:39:44.152Z</time>
      </trkpt>
      <trkpt lat="45.71045" lon="5.27375">
        <ele>263</ele>
        <time>2021-05-08T07:39:45.152Z</time>
      </trkpt>
      <trkpt lat="45.71051" lon="5.2736">
        <ele>263</ele>
        <time>2021-05-08T07:39:46.152Z</time>
      </trkpt>
      <trkpt lat="45.71057" lon="5.27346">
        <ele>263</ele>
        <time>2021-05-08T07:39:47.152Z</time>
      </trkpt>
      <trkpt lat="45.71063" lon="5.27332">
        <ele>263</ele>
        <time>2021-05-08T07:39:48.152Z</time>
      </trkpt>
      <trkpt lat="45.71068" lon="5.27319">
        <ele>263</ele>
        <time>2021-05-08T07:39:49.152Z</time>
      </trkpt>
      <trkpt lat="45.71074" lon="5.27306">
        <ele>263</ele>
        <time>2021-05-08T07:39:50.152Z</time>
      </trkpt>
      <trkpt lat="45.71081" lon="5.27293">
        <ele>262</ele>
        <time>2021-05-08T07:39:51.152Z</time>
      </trkpt>
      <trkpt lat="45.71087" lon="5.2728">
        <ele>262</ele>
        <time>2021-05-08T07:39:52.152Z</time>
      </trkpt>
      <trkpt lat="45.71094" lon="5.27267">
        <ele>262</ele>
        <time>2021-05-08T07:39:53.152Z</time>
      </trkpt>
      <trkpt lat="45.711" lon="5.27254">
        <ele>261</ele>
        <time>2021-05-08T07:39:54.152Z</time>
      </trkpt>
      <trkpt lat="45.71106" lon="5.27242">
        <ele>261</ele>
        <time>2021-05-08T07:39:55.152Z</time>
      </trkpt>
      <trkpt lat="45.71112" lon="5.2723">
        <ele>261</ele>
        <time>2021-05-08T07:39:56.152Z</time>
      </trkpt>
      <trkpt lat="45.71118" lon="5.27217">
        <ele>261</ele>
        <time>2021-05-08T07:39:57.152Z</time>
      </trkpt>
      <trkpt lat="45.71124" lon="5.27205">
        <ele>261</ele>
        <time>2021-05-08T07:39:58.152Z</time>
      </trkpt>
      <trkpt lat="45.7113" lon="5.27193">
        <ele>261</ele>
        <time>2021-05-08T07:39:59.152Z</time>
      </trkpt>
      <trkpt lat="45.71136" lon="5.27181">
        <ele>261</ele>
        <time>2021-05-08T07:40:00.152Z</time>
      </trkpt>
      <trkpt lat="45.71143" lon="5.27166">
        <ele>261</ele>
        <time>2021-05-08T07:40:01.152Z</time>
      </trkpt>
      <trkpt lat="45.71148" lon="5.27155">
        <ele>261</ele>
        <time>2021-05-08T07:40:02.152Z</time>
      </trkpt>
      <trkpt lat="45.71153" lon="5.27143">
        <ele>260</ele>
        <time>2021-05-08T07:40:03.152Z</time>
      </trkpt>
      <trkpt lat="45.71159" lon="5.27131">
        <ele>260</ele>
        <time>2021-05-08T07:40:04.152Z</time>
      </trkpt>
      <trkpt lat="45.71165" lon="5.27119">
        <ele>260</ele>
        <time>2021-05-08T07:40:05.152Z</time>
      </trkpt>
      <trkpt lat="45.71171" lon="5.27107">
        <ele>260</ele>
        <time>2021-05-08T07:40:06.152Z</time>
      </trkpt>
      <trkpt lat="45.71177" lon="5.27092">
        <ele>260</ele>
        <time>2021-05-08T07:40:07.152Z</time>
      </trkpt>
      <trkpt lat="45.71183" lon="5.27079">
        <ele>260</ele>
        <time>2021-05-08T07:40:08.152Z</time>
      </trkpt>
      <trkpt lat="45.71187" lon="5.27069">
        <ele>259</ele>
        <time>2021-05-08T07:40:09.152Z</time>
      </trkpt>
      <trkpt lat="45.71193" lon="5.27057">
        <ele>259</ele>
        <time>2021-05-08T07:40:10.152Z</time>
      </trkpt>
      <trkpt lat="45.71198" lon="5.27045">
        <ele>259</ele>
        <time>2021-05-08T07:40:11.152Z</time>
      </trkpt>
      <trkpt lat="45.71204" lon="5.27033">
        <ele>259</ele>
        <time>2021-05-08T07:40:12.152Z</time>
      </trkpt>
      <trkpt lat="45.7121" lon="5.27021">
        <ele>259</ele>
        <time>2021-05-08T07:40:13.152Z</time>
      </trkpt>
      <trkpt lat="45.71215" lon="5.2701">
        <ele>259</ele>
        <time>2021-05-08T07:40:14.152Z</time>
      </trkpt>
      <trkpt lat="45.7122" lon="5.26999">
        <ele>259</ele>
        <time>2021-05-08T07:40:15.152Z</time>
      </trkpt>
      <trkpt lat="45.71226" lon="5.26987">
        <ele>259</ele>
        <time>2021-05-08T07:40:16.152Z</time>
      </trkpt>
      <trkpt lat="45.71231" lon="5.26974">
        <ele>259</ele>
        <time>2021-05-08T07:40:17.152Z</time>
      </trkpt>
      <trkpt lat="45.71236" lon="5.26963">
        <ele>259</ele>
        <time>2021-05-08T07:40:18.152Z</time>
      </trkpt>
      <trkpt lat="45.71241" lon="5.26952">
        <ele>259</ele>
        <time>2021-05-08T07:40:19.152Z</time>
      </trkpt>
      <trkpt lat="45.71248" lon="5.26938">
        <ele>260</ele>
        <time>2021-05-08T07:40:20.152Z</time>
      </trkpt>
      <trkpt lat="45.71252" lon="5.26929">
        <ele>260</ele>
        <time>2021-05-08T07:40:21.152Z</time>
      </trkpt>
      <trkpt lat="45.71257" lon="5.26918">
        <ele>260</ele>
        <time>2021-05-08T07:40:22.152Z</time>
      </trkpt>
      <trkpt lat="45.71263" lon="5.26908">
        <ele>260</ele>
        <time>2021-05-08T07:40:23.152Z</time>
      </trkpt>
      <trkpt lat="45.71268" lon="5.26897">
        <ele>259</ele>
        <time>2021-05-08T07:40:24.152Z</time>
      </trkpt>
      <trkpt lat="45.71274" lon="5.26887">
        <ele>259</ele>
        <time>2021-05-08T07:40:25.152Z</time>
      </trkpt>
      <trkpt lat="45.71279" lon="5.26878">
        <ele>259</ele>
        <time>2021-05-08T07:40:26.152Z</time>
      </trkpt>
      <trkpt lat="45.71285" lon="5.26868">
        <ele>259</ele>
        <time>2021-05-08T07:40:27.152Z</time>
      </trkpt>
      <trkpt lat="45.71291" lon="5.26858">
        <ele>259</ele>
        <time>2021-05-08T07:40:28.152Z</time>
      </trkpt>
      <trkpt lat="45.71298" lon="5.26846">
        <ele>259</ele>
        <time>2021-05-08T07:40:29.152Z</time>
      </trkpt>
      <trkpt lat="45.71303" lon="5.26835">
        <ele>258</ele>
        <time>2021-05-08T07:40:30.152Z</time>
      </trkpt>
      <trkpt lat="45.71309" lon="5.26826">
        <ele>258</ele>
        <time>2021-05-08T07:40:31.152Z</time>
      </trkpt>
      <trkpt lat="45.71315" lon="5.26816">
        <ele>258</ele>
        <time>2021-05-08T07:40:32.152Z</time>
      </trkpt>
      <trkpt lat="45.71321" lon="5.26806">
        <ele>258</ele>
        <time>2021-05-08T07:40:33.152Z</time>
      </trkpt>
      <trkpt lat="45.71327" lon="5.26796">
        <ele>258</ele>
        <time>2021-05-08T07:40:34.152Z</time>
      </trkpt>
      <trkpt lat="45.71333" lon="5.26786">
        <ele>257</ele>
        <time>2021-05-08T07:40:35.152Z</time>
      </trkpt>
      <trkpt lat="45.71338" lon="5.26776">
        <ele>257</ele>
        <time>2021-05-08T07:40:36.152Z</time>
      </trkpt>
      <trkpt lat="45.71343" lon="5.26768">
        <ele>256</ele>
        <time>2021-05-08T07:40:37.152Z</time>
      </trkpt>
      <trkpt lat="45.71349" lon="5.26757">
        <ele>256</ele>
        <time>2021-05-08T07:40:38.152Z</time>
      </trkpt>
      <trkpt lat="45.71356" lon="5.26746">
        <ele>256</ele>
        <time>2021-05-08T07:40:39.152Z</time>
      </trkpt>
      <trkpt lat="45.71362" lon="5.26735">
        <ele>255</ele>
        <time>2021-05-08T07:40:40.152Z</time>
      </trkpt>
      <trkpt lat="45.71369" lon="5.26723">
        <ele>255</ele>
        <time>2021-05-08T07:40:41.152Z</time>
      </trkpt>
      <trkpt lat="45.71376" lon="5.26712">
        <ele>255</ele>
        <time>2021-05-08T07:40:42.152Z</time>
      </trkpt>
      <trkpt lat="45.71382" lon="5.267">
        <ele>255</ele>
        <time>2021-05-08T07:40:43.152Z</time>
      </trkpt>
      <trkpt lat="45.71389" lon="5.26689">
        <ele>256</ele>
        <time>2021-05-08T07:40:44.152Z</time>
      </trkpt>
      <trkpt lat="45.71396" lon="5.26677">
        <ele>256</ele>
        <time>2021-05-08T07:40:45.152Z</time>
      </trkpt>
      <trkpt lat="45.71403" lon="5.26665">
        <ele>256</ele>
        <time>2021-05-08T07:40:46.152Z</time>
      </trkpt>
      <trkpt lat="45.7141" lon="5.26653">
        <ele>256</ele>
        <time>2021-05-08T07:40:47.152Z</time>
      </trkpt>
      <trkpt lat="45.71417" lon="5.2664">
        <ele>256</ele>
        <time>2021-05-08T07:40:48.152Z</time>
      </trkpt>
      <trkpt lat="45.71424" lon="5.26627">
        <ele>256</ele>
        <time>2021-05-08T07:40:49.152Z</time>
      </trkpt>
      <trkpt lat="45.71431" lon="5.26615">
        <ele>256</ele>
        <time>2021-05-08T07:40:50.152Z</time>
      </trkpt>
      <trkpt lat="45.71438" lon="5.26602">
        <ele>257</ele>
        <time>2021-05-08T07:40:51.152Z</time>
      </trkpt>
      <trkpt lat="45.71446" lon="5.2659">
        <ele>257</ele>
        <time>2021-05-08T07:40:52.152Z</time>
      </trkpt>
      <trkpt lat="45.71453" lon="5.26578">
        <ele>258</ele>
        <time>2021-05-08T07:40:53.152Z</time>
      </trkpt>
      <trkpt lat="45.7146" lon="5.26565">
        <ele>258</ele>
        <time>2021-05-08T07:40:54.152Z</time>
      </trkpt>
      <trkpt lat="45.71467" lon="5.26553">
        <ele>258</ele>
        <time>2021-05-08T07:40:55.152Z</time>
      </trkpt>
      <trkpt lat="45.71474" lon="5.26541">
        <ele>258</ele>
        <time>2021-05-08T07:40:56.152Z</time>
      </trkpt>
      <trkpt lat="45.7148" lon="5.26529">
        <ele>257</ele>
        <time>2021-05-08T07:40:57.152Z</time>
      </trkpt>
      <trkpt lat="45.71487" lon="5.26517">
        <ele>256</ele>
        <time>2021-05-08T07:40:58.152Z</time>
      </trkpt>
      <trkpt lat="45.71496" lon="5.26504">
        <ele>256</ele>
        <time>2021-05-08T07:40:59.152Z</time>
      </trkpt>
      <trkpt lat="45.71501" lon="5.26495">
        <ele>255</ele>
        <time>2021-05-08T07:41:00.152Z</time>
      </trkpt>
      <trkpt lat="45.71508" lon="5.26483">
        <ele>255</ele>
        <time>2021-05-08T07:41:01.152Z</time>
      </trkpt>
      <trkpt lat="45.71515" lon="5.26471">
        <ele>255</ele>
        <time>2021-05-08T07:41:02.152Z</time>
      </trkpt>
      <trkpt lat="45.71523" lon="5.26456">
        <ele>254</ele>
        <time>2021-05-08T07:41:03.152Z</time>
      </trkpt>
      <trkpt lat="45.71528" lon="5.26447">
        <ele>254</ele>
        <time>2021-05-08T07:41:04.152Z</time>
      </trkpt>
      <trkpt lat="45.71533" lon="5.26436">
        <ele>254</ele>
        <time>2021-05-08T07:41:05.152Z</time>
      </trkpt>
      <trkpt lat="45.71539" lon="5.26423">
        <ele>254</ele>
        <time>2021-05-08T07:41:06.152Z</time>
      </trkpt>
      <trkpt lat="45.71542" lon="5.26411">
        <ele>254</ele>
        <time>2021-05-08T07:41:07.152Z</time>
      </trkpt>
      <trkpt lat="45.71546" lon="5.26396">
        <ele>254</ele>
        <time>2021-05-08T07:41:08.152Z</time>
      </trkpt>
      <trkpt lat="45.71548" lon="5.26386">
        <ele>254</ele>
        <time>2021-05-08T07:41:09.152Z</time>
      </trkpt>
      <trkpt lat="45.7155" lon="5.26374">
        <ele>254</ele>
        <time>2021-05-08T07:41:10.152Z</time>
      </trkpt>
      <trkpt lat="45.71552" lon="5.26362">
        <ele>254</ele>
        <time>2021-05-08T07:41:11.152Z</time>
      </trkpt>
      <trkpt lat="45.71553" lon="5.2635">
        <ele>254</ele>
        <time>2021-05-08T07:41:12.152Z</time>
      </trkpt>
      <trkpt lat="45.71553" lon="5.26338">
        <ele>254</ele>
        <time>2021-05-08T07:41:13.152Z</time>
      </trkpt>
      <trkpt lat="45.71553" lon="5.26325">
        <ele>253</ele>
        <time>2021-05-08T07:41:14.152Z</time>
      </trkpt>
      <trkpt lat="45.71553" lon="5.26315">
        <ele>253</ele>
        <time>2021-05-08T07:41:15.152Z</time>
      </trkpt>
      <trkpt lat="45.71553" lon="5.26304">
        <ele>253</ele>
        <time>2021-05-08T07:41:16.152Z</time>
      </trkpt>
      <trkpt lat="45.71552" lon="5.26294">
        <ele>253</ele>
        <time>2021-05-08T07:41:17.152Z</time>
      </trkpt>
      <trkpt lat="45.71552" lon="5.26284">
        <ele>252</ele>
        <time>2021-05-08T07:41:18.152Z</time>
      </trkpt>
      <trkpt lat="45.71552" lon="5.26275">
        <ele>251</ele>
        <time>2021-05-08T07:41:19.152Z</time>
      </trkpt>
      <trkpt lat="45.71553" lon="5.26267">
        <ele>251</ele>
        <time>2021-05-08T07:41:20.152Z</time>
      </trkpt>
      <trkpt lat="45.71553" lon="5.26261">
        <ele>251</ele>
        <time>2021-05-08T07:41:21.152Z</time>
      </trkpt>
      <trkpt lat="45.71551" lon="5.26258">
        <ele>250</ele>
        <time>2021-05-08T07:41:22.152Z</time>
      </trkpt>
      <trkpt lat="45.7155" lon="5.26254">
        <ele>251</ele>
        <time>2021-05-08T07:41:23.152Z</time>
      </trkpt>
      <trkpt lat="45.71549" lon="5.26251">
        <ele>251</ele>
        <time>2021-05-08T07:41:24.152Z</time>
      </trkpt>
      <trkpt lat="45.71548" lon="5.2625">
        <ele>251</ele>
        <time>2021-05-08T07:41:25.152Z</time>
      </trkpt>
      <trkpt lat="45.71545" lon="5.2625">
        <ele>251</ele>
        <time>2021-05-08T07:41:26.152Z</time>
      </trkpt>
      <trkpt lat="45.71542" lon="5.26253">
        <ele>250</ele>
        <time>2021-05-08T07:41:27.152Z</time>
      </trkpt>
      <trkpt lat="45.71539" lon="5.26257">
        <ele>250</ele>
        <time>2021-05-08T07:41:28.152Z</time>
      </trkpt>
      <trkpt lat="45.71536" lon="5.26262">
        <ele>250</ele>
        <time>2021-05-08T07:41:29.152Z</time>
      </trkpt>
      <trkpt lat="45.71535" lon="5.26269">
        <ele>249</ele>
        <time>2021-05-08T07:41:30.152Z</time>
      </trkpt>
      <trkpt lat="45.71534" lon="5.26276">
        <ele>249</ele>
        <time>2021-05-08T07:41:31.152Z</time>
      </trkpt>
      <trkpt lat="45.71534" lon="5.26285">
        <ele>249</ele>
        <time>2021-05-08T07:41:32.152Z</time>
      </trkpt>
      <trkpt lat="45.71534" lon="5.26291">
        <ele>248</ele>
        <time>2021-05-08T07:41:33.152Z</time>
      </trkpt>
      <trkpt lat="45.71534" lon="5.26298">
        <ele>248</ele>
        <time>2021-05-08T07:41:34.152Z</time>
      </trkpt>
      <trkpt lat="45.71535" lon="5.26308">
        <ele>248</ele>
        <time>2021-05-08T07:41:35.152Z</time>
      </trkpt>
      <trkpt lat="45.71537" lon="5.26314">
        <ele>248</ele>
        <time>2021-05-08T07:41:36.152Z</time>
      </trkpt>
      <trkpt lat="45.71536" lon="5.26325">
        <ele>248</ele>
        <time>2021-05-08T07:41:37.152Z</time>
      </trkpt>
      <trkpt lat="45.71535" lon="5.26332">
        <ele>248</ele>
        <time>2021-05-08T07:41:38.152Z</time>
      </trkpt>
      <trkpt lat="45.71533" lon="5.26339">
        <ele>248</ele>
        <time>2021-05-08T07:41:39.152Z</time>
      </trkpt>
      <trkpt lat="45.71529" lon="5.26348">
        <ele>248</ele>
        <time>2021-05-08T07:41:40.152Z</time>
      </trkpt>
      <trkpt lat="45.71526" lon="5.26354">
        <ele>248</ele>
        <time>2021-05-08T07:41:41.152Z</time>
      </trkpt>
      <trkpt lat="45.71522" lon="5.26357">
        <ele>249</ele>
        <time>2021-05-08T07:41:42.152Z</time>
      </trkpt>
      <trkpt lat="45.71516" lon="5.26358">
        <ele>249</ele>
        <time>2021-05-08T07:41:43.152Z</time>
      </trkpt>
      <trkpt lat="45.7151" lon="5.26358">
        <ele>249</ele>
        <time>2021-05-08T07:41:44.152Z</time>
      </trkpt>
      <trkpt lat="45.71505" lon="5.26357">
        <ele>250</ele>
        <time>2021-05-08T07:41:45.152Z</time>
      </trkpt>
      <trkpt lat="45.715" lon="5.26355">
        <ele>250</ele>
        <time>2021-05-08T07:41:46.152Z</time>
      </trkpt>
      <trkpt lat="45.71495" lon="5.26352">
        <ele>250</ele>
        <time>2021-05-08T07:41:47.152Z</time>
      </trkpt>
      <trkpt lat="45.71489" lon="5.26348">
        <ele>250</ele>
        <time>2021-05-08T07:41:48.152Z</time>
      </trkpt>
      <trkpt lat="45.71484" lon="5.26344">
        <ele>251</ele>
        <time>2021-05-08T07:41:49.152Z</time>
      </trkpt>
      <trkpt lat="45.7148" lon="5.26339">
        <ele>251</ele>
        <time>2021-05-08T07:41:50.152Z</time>
      </trkpt>
      <trkpt lat="45.71475" lon="5.26334">
        <ele>252</ele>
        <time>2021-05-08T07:41:51.152Z</time>
      </trkpt>
      <trkpt lat="45.71472" lon="5.26328">
        <ele>252</ele>
        <time>2021-05-08T07:41:52.152Z</time>
      </trkpt>
      <trkpt lat="45.71469" lon="5.26322">
        <ele>253</ele>
        <time>2021-05-08T07:41:53.152Z</time>
      </trkpt>
      <trkpt lat="45.71467" lon="5.26315">
        <ele>253</ele>
        <time>2021-05-08T07:41:54.152Z</time>
      </trkpt>
      <trkpt lat="45.71465" lon="5.26307">
        <ele>254</ele>
        <time>2021-05-08T07:41:55.152Z</time>
      </trkpt>
      <trkpt lat="45.71465" lon="5.26299">
        <ele>255</ele>
        <time>2021-05-08T07:41:56.152Z</time>
      </trkpt>
      <trkpt lat="45.71465" lon="5.2629">
        <ele>256</ele>
        <time>2021-05-08T07:41:57.152Z</time>
      </trkpt>
      <trkpt lat="45.71465" lon="5.26282">
        <ele>257</ele>
        <time>2021-05-08T07:41:58.152Z</time>
      </trkpt>
      <trkpt lat="45.71465" lon="5.26273">
        <ele>257</ele>
        <time>2021-05-08T07:41:59.152Z</time>
      </trkpt>
      <trkpt lat="45.71466" lon="5.26264">
        <ele>258</ele>
        <time>2021-05-08T07:42:00.152Z</time>
      </trkpt>
      <trkpt lat="45.71467" lon="5.26256">
        <ele>259</ele>
        <time>2021-05-08T07:42:01.152Z</time>
      </trkpt>
      <trkpt lat="45.71467" lon="5.26247">
        <ele>259</ele>
        <time>2021-05-08T07:42:02.152Z</time>
      </trkpt>
      <trkpt lat="45.71467" lon="5.26239">
        <ele>259</ele>
        <time>2021-05-08T07:42:03.152Z</time>
      </trkpt>
      <trkpt lat="45.71466" lon="5.26233">
        <ele>260</ele>
        <time>2021-05-08T07:42:04.152Z</time>
      </trkpt>
      <trkpt lat="45.71464" lon="5.26228">
        <ele>260</ele>
        <time>2021-05-08T07:42:05.152Z</time>
      </trkpt>
      <trkpt lat="45.7146" lon="5.26225">
        <ele>260</ele>
        <time>2021-05-08T07:42:06.152Z</time>
      </trkpt>
      <trkpt lat="45.71457" lon="5.26224">
        <ele>260</ele>
        <time>2021-05-08T07:42:07.152Z</time>
      </trkpt>
      <trkpt lat="45.71454" lon="5.26225">
        <ele>260</ele>
        <time>2021-05-08T07:42:08.152Z</time>
      </trkpt>
      <trkpt lat="45.71451" lon="5.26229">
        <ele>260</ele>
        <time>2021-05-08T07:42:09.152Z</time>
      </trkpt>
      <trkpt lat="45.71449" lon="5.26234">
        <ele>260</ele>
        <time>2021-05-08T07:42:10.152Z</time>
      </trkpt>
      <trkpt lat="45.71447" lon="5.26239">
        <ele>261</ele>
        <time>2021-05-08T07:42:11.152Z</time>
      </trkpt>
      <trkpt lat="45.71446" lon="5.26245">
        <ele>261</ele>
        <time>2021-05-08T07:42:12.152Z</time>
      </trkpt>
      <trkpt lat="45.71445" lon="5.26251">
        <ele>261</ele>
        <time>2021-05-08T07:42:13.152Z</time>
      </trkpt>
      <trkpt lat="45.71445" lon="5.26257">
        <ele>261</ele>
        <time>2021-05-08T07:42:14.152Z</time>
      </trkpt>
      <trkpt lat="45.71445" lon="5.26264">
        <ele>261</ele>
        <time>2021-05-08T07:42:15.152Z</time>
      </trkpt>
      <trkpt lat="45.71445" lon="5.2627">
        <ele>261</ele>
        <time>2021-05-08T07:42:16.152Z</time>
      </trkpt>
      <trkpt lat="45.71444" lon="5.26276">
        <ele>261</ele>
        <time>2021-05-08T07:42:17.152Z</time>
      </trkpt>
      <trkpt lat="45.71443" lon="5.26281">
        <ele>261</ele>
        <time>2021-05-08T07:42:18.152Z</time>
      </trkpt>
      <trkpt lat="45.71442" lon="5.26287">
        <ele>262</ele>
        <time>2021-05-08T07:42:19.152Z</time>
      </trkpt>
      <trkpt lat="45.71441" lon="5.26294">
        <ele>262</ele>
        <time>2021-05-08T07:42:20.152Z</time>
      </trkpt>
      <trkpt lat="45.7144" lon="5.26298">
        <ele>262</ele>
        <time>2021-05-08T07:42:21.152Z</time>
      </trkpt>
      <trkpt lat="45.71439" lon="5.26303">
        <ele>263</ele>
        <time>2021-05-08T07:42:22.152Z</time>
      </trkpt>
      <trkpt lat="45.71437" lon="5.26308">
        <ele>264</ele>
        <time>2021-05-08T07:42:23.152Z</time>
      </trkpt>
      <trkpt lat="45.71435" lon="5.26313">
        <ele>264</ele>
        <time>2021-05-08T07:42:24.152Z</time>
      </trkpt>
      <trkpt lat="45.71433" lon="5.26317">
        <ele>264</ele>
        <time>2021-05-08T07:42:25.152Z</time>
      </trkpt>
      <trkpt lat="45.71431" lon="5.2632">
        <ele>264</ele>
        <time>2021-05-08T07:42:26.152Z</time>
      </trkpt>
      <trkpt lat="45.71428" lon="5.26324">
        <ele>264</ele>
        <time>2021-05-08T07:42:27.152Z</time>
      </trkpt>
      <trkpt lat="45.71425" lon="5.26327">
        <ele>265</ele>
        <time>2021-05-08T07:42:28.152Z</time>
      </trkpt>
      <trkpt lat="45.71422" lon="5.2633">
        <ele>265</ele>
        <time>2021-05-08T07:42:29.152Z</time>
      </trkpt>
      <trkpt lat="45.71419" lon="5.26332">
        <ele>266</ele>
        <time>2021-05-08T07:42:30.152Z</time>
      </trkpt>
      <trkpt lat="45.71416" lon="5.26334">
        <ele>266</ele>
        <time>2021-05-08T07:42:31.152Z</time>
      </trkpt>
      <trkpt lat="45.71413" lon="5.26336">
        <ele>266</ele>
        <time>2021-05-08T07:42:32.152Z</time>
      </trkpt>
      <trkpt lat="45.71409" lon="5.26338">
        <ele>266</ele>
        <time>2021-05-08T07:42:33.152Z</time>
      </trkpt>
      <trkpt lat="45.71405" lon="5.2634">
        <ele>267</ele>
        <time>2021-05-08T07:42:34.152Z</time>
      </trkpt>
      <trkpt lat="45.714" lon="5.26341">
        <ele>267</ele>
        <time>2021-05-08T07:42:35.152Z</time>
      </trkpt>
      <trkpt lat="45.71395" lon="5.26341">
        <ele>267</ele>
        <time>2021-05-08T07:42:36.152Z</time>
      </trkpt>
      <trkpt lat="45.7139" lon="5.26341">
        <ele>267</ele>
        <time>2021-05-08T07:42:37.152Z</time>
      </trkpt>
      <trkpt lat="45.71385" lon="5.26339">
        <ele>267</ele>
        <time>2021-05-08T07:42:38.152Z</time>
      </trkpt>
      <trkpt lat="45.7138" lon="5.26336">
        <ele>267</ele>
        <time>2021-05-08T07:42:39.152Z</time>
      </trkpt>
      <trkpt lat="45.71375" lon="5.26333">
        <ele>267</ele>
        <time>2021-05-08T07:42:40.152Z</time>
      </trkpt>
      <trkpt lat="45.7137" lon="5.26328">
        <ele>267</ele>
        <time>2021-05-08T07:42:41.152Z</time>
      </trkpt>
      <trkpt lat="45.71366" lon="5.26323">
        <ele>268</ele>
        <time>2021-05-08T07:42:42.152Z</time>
      </trkpt>
      <trkpt lat="45.71362" lon="5.26318">
        <ele>268</ele>
        <time>2021-05-08T07:42:43.152Z</time>
      </trkpt>
      <trkpt lat="45.71357" lon="5.26312">
        <ele>269</ele>
        <time>2021-05-08T07:42:44.152Z</time>
      </trkpt>
      <trkpt lat="45.71352" lon="5.26307">
        <ele>269</ele>
        <time>2021-05-08T07:42:45.152Z</time>
      </trkpt>
      <trkpt lat="45.71347" lon="5.26302">
        <ele>269</ele>
        <time>2021-05-08T07:42:46.152Z</time>
      </trkpt>
      <trkpt lat="45.71341" lon="5.26298">
        <ele>269</ele>
        <time>2021-05-08T07:42:47.152Z</time>
      </trkpt>
      <trkpt lat="45.71336" lon="5.26296">
        <ele>270</ele>
        <time>2021-05-08T07:42:48.152Z</time>
      </trkpt>
      <trkpt lat="45.7133" lon="5.26294">
        <ele>270</ele>
        <time>2021-05-08T07:42:49.152Z</time>
      </trkpt>
      <trkpt lat="45.71324" lon="5.26294">
        <ele>270</ele>
        <time>2021-05-08T07:42:50.152Z</time>
      </trkpt>
      <trkpt lat="45.71317" lon="5.26293">
        <ele>270</ele>
        <time>2021-05-08T07:42:51.152Z</time>
      </trkpt>
      <trkpt lat="45.71311" lon="5.26292">
        <ele>271</ele>
        <time>2021-05-08T07:42:52.152Z</time>
      </trkpt>
      <trkpt lat="45.71305" lon="5.26292">
        <ele>271</ele>
        <time>2021-05-08T07:42:53.152Z</time>
      </trkpt>
      <trkpt lat="45.71299" lon="5.26291">
        <ele>271</ele>
        <time>2021-05-08T07:42:54.152Z</time>
      </trkpt>
      <trkpt lat="45.71293" lon="5.2629">
        <ele>271</ele>
        <time>2021-05-08T07:42:55.152Z</time>
      </trkpt>
      <trkpt lat="45.71287" lon="5.2629">
        <ele>271</ele>
        <time>2021-05-08T07:42:56.152Z</time>
      </trkpt>
      <trkpt lat="45.71281" lon="5.26289">
        <ele>272</ele>
        <time>2021-05-08T07:42:57.152Z</time>
      </trkpt>
      <trkpt lat="45.71275" lon="5.26289">
        <ele>273</ele>
        <time>2021-05-08T07:42:58.152Z</time>
      </trkpt>
      <trkpt lat="45.71269" lon="5.26288">
        <ele>273</ele>
        <time>2021-05-08T07:42:59.152Z</time>
      </trkpt>
      <trkpt lat="45.71264" lon="5.26288">
        <ele>274</ele>
        <time>2021-05-08T07:43:00.152Z</time>
      </trkpt>
      <trkpt lat="45.71258" lon="5.26288">
        <ele>275</ele>
        <time>2021-05-08T07:43:01.152Z</time>
      </trkpt>
      <trkpt lat="45.71253" lon="5.26287">
        <ele>276</ele>
        <time>2021-05-08T07:43:02.152Z</time>
      </trkpt>
      <trkpt lat="45.71248" lon="5.26287">
        <ele>277</ele>
        <time>2021-05-08T07:43:03.152Z</time>
      </trkpt>
      <trkpt lat="45.71243" lon="5.26286">
        <ele>278</ele>
        <time>2021-05-08T07:43:04.152Z</time>
      </trkpt>
      <trkpt lat="45.71238" lon="5.26285">
        <ele>279</ele>
        <time>2021-05-08T07:43:05.152Z</time>
      </trkpt>
      <trkpt lat="45.71233" lon="5.26283">
        <ele>279</ele>
        <time>2021-05-08T07:43:06.152Z</time>
      </trkpt>
      <trkpt lat="45.71228" lon="5.2628">
        <ele>280</ele>
        <time>2021-05-08T07:43:07.152Z</time>
      </trkpt>
      <trkpt lat="45.71224" lon="5.26278">
        <ele>280</ele>
        <time>2021-05-08T07:43:08.152Z</time>
      </trkpt>
      <trkpt lat="45.7122" lon="5.26274">
        <ele>280</ele>
        <time>2021-05-08T07:43:09.152Z</time>
      </trkpt>
      <trkpt lat="45.71216" lon="5.2627">
        <ele>280</ele>
        <time>2021-05-08T07:43:10.152Z</time>
      </trkpt>
      <trkpt lat="45.71213" lon="5.26266">
        <ele>280</ele>
        <time>2021-05-08T07:43:11.152Z</time>
      </trkpt>
      <trkpt lat="45.71211" lon="5.26262">
        <ele>280</ele>
        <time>2021-05-08T07:43:12.152Z</time>
      </trkpt>
      <trkpt lat="45.71209" lon="5.26258">
        <ele>280</ele>
        <time>2021-05-08T07:43:13.152Z</time>
      </trkpt>
      <trkpt lat="45.71208" lon="5.26253">
        <ele>281</ele>
        <time>2021-05-08T07:43:14.152Z</time>
      </trkpt>
      <trkpt lat="45.71207" lon="5.26248">
        <ele>282</ele>
        <time>2021-05-08T07:43:15.152Z</time>
      </trkpt>
      <trkpt lat="45.71206" lon="5.26244">
        <ele>282</ele>
        <time>2021-05-08T07:43:16.152Z</time>
      </trkpt>
      <trkpt lat="45.71206" lon="5.26239">
        <ele>282</ele>
        <time>2021-05-08T07:43:17.152Z</time>
      </trkpt>
      <trkpt lat="45.71206" lon="5.26234">
        <ele>283</ele>
        <time>2021-05-08T07:43:18.152Z</time>
      </trkpt>
      <trkpt lat="45.71207" lon="5.2623">
        <ele>283</ele>
        <time>2021-05-08T07:43:19.152Z</time>
      </trkpt>
      <trkpt lat="45.71207" lon="5.26226">
        <ele>283</ele>
        <time>2021-05-08T07:43:20.152Z</time>
      </trkpt>
      <trkpt lat="45.71207" lon="5.26222">
        <ele>283</ele>
        <time>2021-05-08T07:43:21.152Z</time>
      </trkpt>
      <trkpt lat="45.71207" lon="5.26218">
        <ele>283</ele>
        <time>2021-05-08T07:43:22.152Z</time>
      </trkpt>
      <trkpt lat="45.71208" lon="5.26213">
        <ele>283</ele>
        <time>2021-05-08T07:43:23.152Z</time>
      </trkpt>
      <trkpt lat="45.71209" lon="5.26209">
        <ele>283</ele>
        <time>2021-05-08T07:43:24.152Z</time>
      </trkpt>
      <trkpt lat="45.71211" lon="5.26204">
        <ele>283</ele>
        <time>2021-05-08T07:43:25.152Z</time>
      </trkpt>
      <trkpt lat="45.71212" lon="5.262">
        <ele>284</ele>
        <time>2021-05-08T07:43:26.152Z</time>
      </trkpt>
      <trkpt lat="45.71214" lon="5.26195">
        <ele>284</ele>
        <time>2021-05-08T07:43:27.152Z</time>
      </trkpt>
      <trkpt lat="45.71215" lon="5.26191">
        <ele>284</ele>
        <time>2021-05-08T07:43:28.152Z</time>
      </trkpt>
      <trkpt lat="45.71217" lon="5.26187">
        <ele>284</ele>
        <time>2021-05-08T07:43:29.152Z</time>
      </trkpt>
      <trkpt lat="45.71218" lon="5.26182">
        <ele>284</ele>
        <time>2021-05-08T07:43:30.152Z</time>
      </trkpt>
      <trkpt lat="45.71219" lon="5.26178">
        <ele>284</ele>
        <time>2021-05-08T07:43:31.152Z</time>
      </trkpt>
      <trkpt lat="45.71221" lon="5.26173">
        <ele>284</ele>
        <time>2021-05-08T07:43:32.152Z</time>
      </trkpt>
      <trkpt lat="45.71222" lon="5.26168">
        <ele>284</ele>
        <time>2021-05-08T07:43:33.152Z</time>
      </trkpt>
      <trkpt lat="45.71224" lon="5.26164">
        <ele>284</ele>
        <time>2021-05-08T07:43:34.152Z</time>
      </trkpt>
      <trkpt lat="45.71227" lon="5.26159">
        <ele>284</ele>
        <time>2021-05-08T07:43:35.152Z</time>
      </trkpt>
      <trkpt lat="45.71228" lon="5.26155">
        <ele>285</ele>
        <time>2021-05-08T07:43:36.152Z</time>
      </trkpt>
      <trkpt lat="45.7123" lon="5.26151">
        <ele>285</ele>
        <time>2021-05-08T07:43:37.152Z</time>
      </trkpt>
      <trkpt lat="45.71232" lon="5.26148">
        <ele>286</ele>
        <time>2021-05-08T07:43:38.152Z</time>
      </trkpt>
      <trkpt lat="45.71234" lon="5.26144">
        <ele>286</ele>
        <time>2021-05-08T07:43:39.152Z</time>
      </trkpt>
      <trkpt lat="45.71236" lon="5.26141">
        <ele>286</ele>
        <time>2021-05-08T07:43:40.152Z</time>
      </trkpt>
      <trkpt lat="45.71237" lon="5.26138">
        <ele>286</ele>
        <time>2021-05-08T07:43:41.152Z</time>
      </trkpt>
      <trkpt lat="45.71239" lon="5.26135">
        <ele>286</ele>
        <time>2021-05-08T07:43:42.152Z</time>
      </trkpt>
      <trkpt lat="45.71241" lon="5.26132">
        <ele>286</ele>
        <time>2021-05-08T07:43:43.152Z</time>
      </trkpt>
      <trkpt lat="45.71243" lon="5.26129">
        <ele>286</ele>
        <time>2021-05-08T07:43:44.152Z</time>
      </trkpt>
      <trkpt lat="45.71245" lon="5.26126">
        <ele>287</ele>
        <time>2021-05-08T07:43:45.152Z</time>
      </trkpt>
      <trkpt lat="45.71246" lon="5.26123">
        <ele>287</ele>
        <time>2021-05-08T07:43:46.152Z</time>
      </trkpt>
      <trkpt lat="45.71248" lon="5.2612">
        <ele>287</ele>
        <time>2021-05-08T07:43:47.152Z</time>
      </trkpt>
      <trkpt lat="45.7125" lon="5.26117">
        <ele>287</ele>
        <time>2021-05-08T07:43:48.152Z</time>
      </trkpt>
      <trkpt lat="45.71252" lon="5.26114">
        <ele>287</ele>
        <time>2021-05-08T07:43:49.152Z</time>
      </trkpt>
      <trkpt lat="45.71254" lon="5.2611">
        <ele>287</ele>
        <time>2021-05-08T07:43:50.152Z</time>
      </trkpt>
      <trkpt lat="45.71255" lon="5.26107">
        <ele>288</ele>
        <time>2021-05-08T07:43:51.152Z</time>
      </trkpt>
      <trkpt lat="45.71257" lon="5.26103">
        <ele>288</ele>
        <time>2021-05-08T07:43:52.152Z</time>
      </trkpt>
      <trkpt lat="45.71258" lon="5.26099">
        <ele>288</ele>
        <time>2021-05-08T07:43:53.152Z</time>
      </trkpt>
      <trkpt lat="45.71259" lon="5.26096">
        <ele>288</ele>
        <time>2021-05-08T07:43:54.152Z</time>
      </trkpt>
      <trkpt lat="45.7126" lon="5.26092">
        <ele>288</ele>
        <time>2021-05-08T07:43:55.152Z</time>
      </trkpt>
      <trkpt lat="45.7126" lon="5.26087">
        <ele>289</ele>
        <time>2021-05-08T07:43:56.152Z</time>
      </trkpt>
      <trkpt lat="45.7126" lon="5.26083">
        <ele>289</ele>
        <time>2021-05-08T07:43:57.152Z</time>
      </trkpt>
      <trkpt lat="45.71259" lon="5.26079">
        <ele>289</ele>
        <time>2021-05-08T07:43:58.152Z</time>
      </trkpt>
      <trkpt lat="45.71258" lon="5.26075">
        <ele>289</ele>
        <time>2021-05-08T07:43:59.152Z</time>
      </trkpt>
      <trkpt lat="45.71257" lon="5.2607">
        <ele>289</ele>
        <time>2021-05-08T07:44:00.152Z</time>
      </trkpt>
      <trkpt lat="45.71255" lon="5.26066">
        <ele>290</ele>
        <time>2021-05-08T07:44:01.152Z</time>
      </trkpt>
      <trkpt lat="45.71253" lon="5.26063">
        <ele>290</ele>
        <time>2021-05-08T07:44:02.152Z</time>
      </trkpt>
      <trkpt lat="45.71251" lon="5.26061">
        <ele>291</ele>
        <time>2021-05-08T07:44:03.152Z</time>
      </trkpt>
      <trkpt lat="45.71249" lon="5.26059">
        <ele>291</ele>
        <time>2021-05-08T07:44:04.152Z</time>
      </trkpt>
      <trkpt lat="45.71246" lon="5.26057">
        <ele>291</ele>
        <time>2021-05-08T07:44:05.152Z</time>
      </trkpt>
      <trkpt lat="45.71243" lon="5.26056">
        <ele>291</ele>
        <time>2021-05-08T07:44:06.152Z</time>
      </trkpt>
      <trkpt lat="45.7124" lon="5.26055">
        <ele>291</ele>
        <time>2021-05-08T07:44:07.152Z</time>
      </trkpt>
      <trkpt lat="45.71236" lon="5.26055">
        <ele>292</ele>
        <time>2021-05-08T07:44:08.152Z</time>
      </trkpt>
      <trkpt lat="45.71233" lon="5.26055">
        <ele>292</ele>
        <time>2021-05-08T07:44:09.152Z</time>
      </trkpt>
      <trkpt lat="45.7123" lon="5.26056">
        <ele>292</ele>
        <time>2021-05-08T07:44:10.152Z</time>
      </trkpt>
      <trkpt lat="45.71227" lon="5.26057">
        <ele>292</ele>
        <time>2021-05-08T07:44:11.152Z</time>
      </trkpt>
      <trkpt lat="45.71224" lon="5.26059">
        <ele>293</ele>
        <time>2021-05-08T07:44:12.152Z</time>
      </trkpt>
      <trkpt lat="45.71221" lon="5.26061">
        <ele>293</ele>
        <time>2021-05-08T07:44:13.152Z</time>
      </trkpt>
      <trkpt lat="45.71219" lon="5.26064">
        <ele>294</ele>
        <time>2021-05-08T07:44:14.152Z</time>
      </trkpt>
      <trkpt lat="45.71216" lon="5.26067">
        <ele>294</ele>
        <time>2021-05-08T07:44:15.152Z</time>
      </trkpt>
      <trkpt lat="45.71213" lon="5.2607">
        <ele>295</ele>
        <time>2021-05-08T07:44:16.152Z</time>
      </trkpt>
      <trkpt lat="45.7121" lon="5.26072">
        <ele>295</ele>
        <time>2021-05-08T07:44:17.152Z</time>
      </trkpt>
      <trkpt lat="45.71206" lon="5.26075">
        <ele>294</ele>
        <time>2021-05-08T07:44:18.152Z</time>
      </trkpt>
      <trkpt lat="45.71203" lon="5.26078">
        <ele>294</ele>
        <time>2021-05-08T07:44:19.152Z</time>
      </trkpt>
      <trkpt lat="45.712" lon="5.2608">
        <ele>294</ele>
        <time>2021-05-08T07:44:20.152Z</time>
      </trkpt>
      <trkpt lat="45.71198" lon="5.26083">
        <ele>293</ele>
        <time>2021-05-08T07:44:21.152Z</time>
      </trkpt>
      <trkpt lat="45.71195" lon="5.26086">
        <ele>294</ele>
        <time>2021-05-08T07:44:22.152Z</time>
      </trkpt>
      <trkpt lat="45.71192" lon="5.26089">
        <ele>294</ele>
        <time>2021-05-08T07:44:23.152Z</time>
      </trkpt>
      <trkpt lat="45.71189" lon="5.26092">
        <ele>293</ele>
        <time>2021-05-08T07:44:24.152Z</time>
      </trkpt>
      <trkpt lat="45.71186" lon="5.26094">
        <ele>293</ele>
        <time>2021-05-08T07:44:25.152Z</time>
      </trkpt>
      <trkpt lat="45.71184" lon="5.26097">
        <ele>293</ele>
        <time>2021-05-08T07:44:26.152Z</time>
      </trkpt>
      <trkpt lat="45.71181" lon="5.261">
        <ele>294</ele>
        <time>2021-05-08T07:44:27.152Z</time>
      </trkpt>
      <trkpt lat="45.71179" lon="5.26102">
        <ele>294</ele>
        <time>2021-05-08T07:44:28.152Z</time>
      </trkpt>
      <trkpt lat="45.71176" lon="5.26105">
        <ele>295</ele>
        <time>2021-05-08T07:44:29.152Z</time>
      </trkpt>
      <trkpt lat="45.71174" lon="5.26108">
        <ele>295</ele>
        <time>2021-05-08T07:44:30.152Z</time>
      </trkpt>
      <trkpt lat="45.71172" lon="5.26111">
        <ele>295</ele>
        <time>2021-05-08T07:44:31.152Z</time>
      </trkpt>
      <trkpt lat="45.71169" lon="5.26113">
        <ele>295</ele>
        <time>2021-05-08T07:44:32.152Z</time>
      </trkpt>
      <trkpt lat="45.71167" lon="5.26116">
        <ele>295</ele>
        <time>2021-05-08T07:44:33.152Z</time>
      </trkpt>
      <trkpt lat="45.71165" lon="5.26119">
        <ele>295</ele>
        <time>2021-05-08T07:44:34.152Z</time>
      </trkpt>
      <trkpt lat="45.71162" lon="5.26122">
        <ele>296</ele>
        <time>2021-05-08T07:44:35.152Z</time>
      </trkpt>
      <trkpt lat="45.71159" lon="5.26125">
        <ele>296</ele>
        <time>2021-05-08T07:44:36.152Z</time>
      </trkpt>
      <trkpt lat="45.71157" lon="5.26128">
        <ele>296</ele>
        <time>2021-05-08T07:44:37.152Z</time>
      </trkpt>
      <trkpt lat="45.71155" lon="5.26131">
        <ele>296</ele>
        <time>2021-05-08T07:44:38.152Z</time>
      </trkpt>
      <trkpt lat="45.71153" lon="5.26134">
        <ele>297</ele>
        <time>2021-05-08T07:44:39.152Z</time>
      </trkpt>
      <trkpt lat="45.71151" lon="5.26136">
        <ele>297</ele>
        <time>2021-05-08T07:44:40.152Z</time>
      </trkpt>
      <trkpt lat="45.71149" lon="5.2614">
        <ele>297</ele>
        <time>2021-05-08T07:44:41.152Z</time>
      </trkpt>
      <trkpt lat="45.71147" lon="5.26143">
        <ele>297</ele>
        <time>2021-05-08T07:44:42.152Z</time>
      </trkpt>
      <trkpt lat="45.71144" lon="5.26146">
        <ele>297</ele>
        <time>2021-05-08T07:44:43.152Z</time>
      </trkpt>
      <trkpt lat="45.71142" lon="5.26148">
        <ele>298</ele>
        <time>2021-05-08T07:44:44.152Z</time>
      </trkpt>
      <trkpt lat="45.7114" lon="5.26151">
        <ele>298</ele>
        <time>2021-05-08T07:44:45.152Z</time>
      </trkpt>
      <trkpt lat="45.71138" lon="5.26154">
        <ele>298</ele>
        <time>2021-05-08T07:44:46.152Z</time>
      </trkpt>
      <trkpt lat="45.71136" lon="5.26157">
        <ele>298</ele>
        <time>2021-05-08T07:44:47.152Z</time>
      </trkpt>
      <trkpt lat="45.71133" lon="5.2616">
        <ele>297</ele>
        <time>2021-05-08T07:44:48.152Z</time>
      </trkpt>
      <trkpt lat="45.7113" lon="5.26163">
        <ele>296</ele>
        <time>2021-05-08T07:44:49.152Z</time>
      </trkpt>
      <trkpt lat="45.71128" lon="5.26166">
        <ele>296</ele>
        <time>2021-05-08T07:44:50.152Z</time>
      </trkpt>
      <trkpt lat="45.71125" lon="5.26169">
        <ele>295</ele>
        <time>2021-05-08T07:44:51.152Z</time>
      </trkpt>
      <trkpt lat="45.71123" lon="5.26172">
        <ele>295</ele>
        <time>2021-05-08T07:44:52.152Z</time>
      </trkpt>
      <trkpt lat="45.7112" lon="5.26173">
        <ele>295</ele>
        <time>2021-05-08T07:44:53.152Z</time>
      </trkpt>
      <trkpt lat="45.71117" lon="5.26174">
        <ele>296</ele>
        <time>2021-05-08T07:44:54.152Z</time>
      </trkpt>
      <trkpt lat="45.71114" lon="5.26175">
        <ele>296</ele>
        <time>2021-05-08T07:44:55.152Z</time>
      </trkpt>
      <trkpt lat="45.71111" lon="5.26175">
        <ele>296</ele>
        <time>2021-05-08T07:44:56.152Z</time>
      </trkpt>
      <trkpt lat="45.71107" lon="5.26175">
        <ele>296</ele>
        <time>2021-05-08T07:44:57.152Z</time>
      </trkpt>
      <trkpt lat="45.71104" lon="5.26173">
        <ele>297</ele>
        <time>2021-05-08T07:44:58.152Z</time>
      </trkpt>
      <trkpt lat="45.71101" lon="5.26171">
        <ele>297</ele>
        <time>2021-05-08T07:44:59.152Z</time>
      </trkpt>
      <trkpt lat="45.71098" lon="5.26168">
        <ele>297</ele>
        <time>2021-05-08T07:45:00.152Z</time>
      </trkpt>
      <trkpt lat="45.71095" lon="5.26166">
        <ele>297</ele>
        <time>2021-05-08T07:45:01.152Z</time>
      </trkpt>
      <trkpt lat="45.71092" lon="5.26162">
        <ele>297</ele>
        <time>2021-05-08T07:45:02.152Z</time>
      </trkpt>
      <trkpt lat="45.71088" lon="5.26158">
        <ele>297</ele>
        <time>2021-05-08T07:45:03.152Z</time>
      </trkpt>
      <trkpt lat="45.71085" lon="5.26154">
        <ele>297</ele>
        <time>2021-05-08T07:45:04.152Z</time>
      </trkpt>
      <trkpt lat="45.71081" lon="5.26149">
        <ele>297</ele>
        <time>2021-05-08T07:45:05.152Z</time>
      </trkpt>
      <trkpt lat="45.71077" lon="5.26144">
        <ele>297</ele>
        <time>2021-05-08T07:45:06.152Z</time>
      </trkpt>
      <trkpt lat="45.71073" lon="5.26139">
        <ele>297</ele>
        <time>2021-05-08T07:45:07.152Z</time>
      </trkpt>
      <trkpt lat="45.71069" lon="5.26134">
        <ele>297</ele>
        <time>2021-05-08T07:45:08.152Z</time>
      </trkpt>
      <trkpt lat="45.71065" lon="5.26129">
        <ele>297</ele>
        <time>2021-05-08T07:45:09.152Z</time>
      </trkpt>
      <trkpt lat="45.7106" lon="5.26124">
        <ele>297</ele>
        <time>2021-05-08T07:45:10.152Z</time>
      </trkpt>
      <trkpt lat="45.71055" lon="5.26119">
        <ele>297</ele>
        <time>2021-05-08T07:45:11.152Z</time>
      </trkpt>
      <trkpt lat="45.7105" lon="5.26113">
        <ele>296</ele>
        <time>2021-05-08T07:45:12.152Z</time>
      </trkpt>
      <trkpt lat="45.71044" lon="5.26107">
        <ele>296</ele>
        <time>2021-05-08T07:45:13.152Z</time>
      </trkpt>
      <trkpt lat="45.71039" lon="5.26101">
        <ele>296</ele>
        <time>2021-05-08T07:45:14.152Z</time>
      </trkpt>
      <trkpt lat="45.71033" lon="5.26095">
        <ele>296</ele>
        <time>2021-05-08T07:45:15.152Z</time>
      </trkpt>
      <trkpt lat="45.71027" lon="5.26089">
        <ele>297</ele>
        <time>2021-05-08T07:45:16.152Z</time>
      </trkpt>
      <trkpt lat="45.71021" lon="5.26083">
        <ele>297</ele>
        <time>2021-05-08T07:45:17.152Z</time>
      </trkpt>
      <trkpt lat="45.71015" lon="5.26077">
        <ele>297</ele>
        <time>2021-05-08T07:45:18.152Z</time>
      </trkpt>
      <trkpt lat="45.71009" lon="5.26071">
        <ele>298</ele>
        <time>2021-05-08T07:45:19.152Z</time>
      </trkpt>
      <trkpt lat="45.71002" lon="5.26065">
        <ele>298</ele>
        <time>2021-05-08T07:45:20.152Z</time>
      </trkpt>
      <trkpt lat="45.70996" lon="5.26059">
        <ele>298</ele>
        <time>2021-05-08T07:45:21.152Z</time>
      </trkpt>
      <trkpt lat="45.7099" lon="5.26053">
        <ele>298</ele>
        <time>2021-05-08T07:45:22.152Z</time>
      </trkpt>
      <trkpt lat="45.70984" lon="5.26047">
        <ele>298</ele>
        <time>2021-05-08T07:45:23.152Z</time>
      </trkpt>
      <trkpt lat="45.70978" lon="5.26042">
        <ele>299</ele>
        <time>2021-05-08T07:45:24.152Z</time>
      </trkpt>
      <trkpt lat="45.70972" lon="5.26036">
        <ele>299</ele>
        <time>2021-05-08T07:45:25.152Z</time>
      </trkpt>
      <trkpt lat="45.70966" lon="5.26031">
        <ele>300</ele>
        <time>2021-05-08T07:45:26.152Z</time>
      </trkpt>
      <trkpt lat="45.70961" lon="5.26025">
        <ele>301</ele>
        <time>2021-05-08T07:45:27.152Z</time>
      </trkpt>
      <trkpt lat="45.70955" lon="5.2602">
        <ele>302</ele>
        <time>2021-05-08T07:45:28.152Z</time>
      </trkpt>
      <trkpt lat="45.70949" lon="5.26015">
        <ele>302</ele>
        <time>2021-05-08T07:45:29.152Z</time>
      </trkpt>
      <trkpt lat="45.70944" lon="5.26011">
        <ele>302</ele>
        <time>2021-05-08T07:45:30.152Z</time>
      </trkpt>
      <trkpt lat="45.70937" lon="5.26008">
        <ele>302</ele>
        <time>2021-05-08T07:45:31.152Z</time>
      </trkpt>
      <trkpt lat="45.70931" lon="5.26005">
        <ele>303</ele>
        <time>2021-05-08T07:45:32.152Z</time>
      </trkpt>
      <trkpt lat="45.70925" lon="5.26004">
        <ele>303</ele>
        <time>2021-05-08T07:45:33.152Z</time>
      </trkpt>
      <trkpt lat="45.7092" lon="5.26003">
        <ele>303</ele>
        <time>2021-05-08T07:45:34.152Z</time>
      </trkpt>
      <trkpt lat="45.70915" lon="5.26002">
        <ele>303</ele>
        <time>2021-05-08T07:45:35.152Z</time>
      </trkpt>
      <trkpt lat="45.70911" lon="5.26002">
        <ele>303</ele>
        <time>2021-05-08T07:45:36.152Z</time>
      </trkpt>
      <trkpt lat="45.70906" lon="5.26002">
        <ele>304</ele>
        <time>2021-05-08T07:45:37.152Z</time>
      </trkpt>
      <trkpt lat="45.70902" lon="5.26002">
        <ele>304</ele>
        <time>2021-05-08T07:45:38.152Z</time>
      </trkpt>
      <trkpt lat="45.70899" lon="5.26001">
        <ele>305</ele>
        <time>2021-05-08T07:45:39.152Z</time>
      </trkpt>
      <trkpt lat="45.70894" lon="5.26001">
        <ele>305</ele>
        <time>2021-05-08T07:45:40.152Z</time>
      </trkpt>
      <trkpt lat="45.7089" lon="5.26002">
        <ele>306</ele>
        <time>2021-05-08T07:45:41.152Z</time>
      </trkpt>
      <trkpt lat="45.70887" lon="5.26002">
        <ele>306</ele>
        <time>2021-05-08T07:45:42.152Z</time>
      </trkpt>
      <trkpt lat="45.70883" lon="5.26003">
        <ele>307</ele>
        <time>2021-05-08T07:45:43.152Z</time>
      </trkpt>
      <trkpt lat="45.7088" lon="5.26003">
        <ele>307</ele>
        <time>2021-05-08T07:45:44.152Z</time>
      </trkpt>
      <trkpt lat="45.70876" lon="5.26004">
        <ele>307</ele>
        <time>2021-05-08T07:45:45.152Z</time>
      </trkpt>
      <trkpt lat="45.70873" lon="5.26005">
        <ele>307</ele>
        <time>2021-05-08T07:45:46.152Z</time>
      </trkpt>
      <trkpt lat="45.70869" lon="5.26006">
        <ele>308</ele>
        <time>2021-05-08T07:45:47.152Z</time>
      </trkpt>
      <trkpt lat="45.70865" lon="5.26007">
        <ele>308</ele>
        <time>2021-05-08T07:45:48.152Z</time>
      </trkpt>
      <trkpt lat="45.70862" lon="5.26009">
        <ele>308</ele>
        <time>2021-05-08T07:45:49.152Z</time>
      </trkpt>
      <trkpt lat="45.70858" lon="5.26012">
        <ele>309</ele>
        <time>2021-05-08T07:45:50.152Z</time>
      </trkpt>
      <trkpt lat="45.70854" lon="5.26014">
        <ele>309</ele>
        <time>2021-05-08T07:45:51.152Z</time>
      </trkpt>
      <trkpt lat="45.70851" lon="5.26016">
        <ele>309</ele>
        <time>2021-05-08T07:45:52.152Z</time>
      </trkpt>
      <trkpt lat="45.70847" lon="5.26019">
        <ele>309</ele>
        <time>2021-05-08T07:45:53.152Z</time>
      </trkpt>
      <trkpt lat="45.70844" lon="5.26022">
        <ele>309</ele>
        <time>2021-05-08T07:45:54.152Z</time>
      </trkpt>
      <trkpt lat="45.7084" lon="5.26025">
        <ele>310</ele>
        <time>2021-05-08T07:45:55.152Z</time>
      </trkpt>
      <trkpt lat="45.70837" lon="5.26027">
        <ele>311</ele>
        <time>2021-05-08T07:45:56.152Z</time>
      </trkpt>
      <trkpt lat="45.70834" lon="5.2603">
        <ele>311</ele>
        <time>2021-05-08T07:45:57.152Z</time>
      </trkpt>
      <trkpt lat="45.70831" lon="5.26033">
        <ele>312</ele>
        <time>2021-05-08T07:45:58.152Z</time>
      </trkpt>
      <trkpt lat="45.70828" lon="5.26037">
        <ele>312</ele>
        <time>2021-05-08T07:45:59.152Z</time>
      </trkpt>
      <trkpt lat="45.70825" lon="5.2604">
        <ele>313</ele>
        <time>2021-05-08T07:46:00.152Z</time>
      </trkpt>
      <trkpt lat="45.70822" lon="5.26043">
        <ele>313</ele>
        <time>2021-05-08T07:46:01.152Z</time>
      </trkpt>
      <trkpt lat="45.7082" lon="5.26047">
        <ele>313</ele>
        <time>2021-05-08T07:46:02.152Z</time>
      </trkpt>
      <trkpt lat="45.70817" lon="5.26051">
        <ele>313</ele>
        <time>2021-05-08T07:46:03.152Z</time>
      </trkpt>
      <trkpt lat="45.70814" lon="5.26055">
        <ele>313</ele>
        <time>2021-05-08T07:46:04.152Z</time>
      </trkpt>
      <trkpt lat="45.70811" lon="5.2606">
        <ele>314</ele>
        <time>2021-05-08T07:46:05.152Z</time>
      </trkpt>
      <trkpt lat="45.70807" lon="5.26064">
        <ele>315</ele>
        <time>2021-05-08T07:46:06.152Z</time>
      </trkpt>
      <trkpt lat="45.70803" lon="5.2607">
        <ele>315</ele>
        <time>2021-05-08T07:46:07.152Z</time>
      </trkpt>
      <trkpt lat="45.70799" lon="5.26075">
        <ele>316</ele>
        <time>2021-05-08T07:46:08.152Z</time>
      </trkpt>
      <trkpt lat="45.70795" lon="5.26081">
        <ele>317</ele>
        <time>2021-05-08T07:46:09.152Z</time>
      </trkpt>
      <trkpt lat="45.70791" lon="5.26086">
        <ele>318</ele>
        <time>2021-05-08T07:46:10.152Z</time>
      </trkpt>
      <trkpt lat="45.70786" lon="5.26092">
        <ele>318</ele>
        <time>2021-05-08T07:46:11.152Z</time>
      </trkpt>
      <trkpt lat="45.70782" lon="5.26098">
        <ele>318</ele>
        <time>2021-05-08T07:46:12.152Z</time>
      </trkpt>
      <trkpt lat="45.70778" lon="5.26105">
        <ele>318</ele>
        <time>2021-05-08T07:46:13.152Z</time>
      </trkpt>
      <trkpt lat="45.70775" lon="5.26111">
        <ele>318</ele>
        <time>2021-05-08T07:46:14.152Z</time>
      </trkpt>
      <trkpt lat="45.70771" lon="5.26117">
        <ele>319</ele>
        <time>2021-05-08T07:46:15.152Z</time>
      </trkpt>
      <trkpt lat="45.70767" lon="5.26123">
        <ele>319</ele>
        <time>2021-05-08T07:46:16.152Z</time>
      </trkpt>
      <trkpt lat="45.70763" lon="5.26129">
        <ele>319</ele>
        <time>2021-05-08T07:46:17.152Z</time>
      </trkpt>
      <trkpt lat="45.70759" lon="5.26135">
        <ele>319</ele>
        <time>2021-05-08T07:46:18.152Z</time>
      </trkpt>
      <trkpt lat="45.70756" lon="5.26141">
        <ele>319</ele>
        <time>2021-05-08T07:46:19.152Z</time>
      </trkpt>
      <trkpt lat="45.70752" lon="5.26147">
        <ele>318</ele>
        <time>2021-05-08T07:46:20.152Z</time>
      </trkpt>
      <trkpt lat="45.70747" lon="5.26153">
        <ele>318</ele>
        <time>2021-05-08T07:46:21.152Z</time>
      </trkpt>
      <trkpt lat="45.70742" lon="5.26158">
        <ele>318</ele>
        <time>2021-05-08T07:46:22.152Z</time>
      </trkpt>
      <trkpt lat="45.70738" lon="5.26165">
        <ele>317</ele>
        <time>2021-05-08T07:46:23.152Z</time>
      </trkpt>
      <trkpt lat="45.70735" lon="5.26171">
        <ele>317</ele>
        <time>2021-05-08T07:46:24.152Z</time>
      </trkpt>
      <trkpt lat="45.70732" lon="5.26177">
        <ele>317</ele>
        <time>2021-05-08T07:46:25.152Z</time>
      </trkpt>
      <trkpt lat="45.70729" lon="5.26184">
        <ele>318</ele>
        <time>2021-05-08T07:46:26.152Z</time>
      </trkpt>
      <trkpt lat="45.70727" lon="5.26191">
        <ele>318</ele>
        <time>2021-05-08T07:46:27.152Z</time>
      </trkpt>
      <trkpt lat="45.70725" lon="5.26198">
        <ele>318</ele>
        <time>2021-05-08T07:46:28.152Z</time>
      </trkpt>
      <trkpt lat="45.70724" lon="5.26206">
        <ele>318</ele>
        <time>2021-05-08T07:46:29.152Z</time>
      </trkpt>
      <trkpt lat="45.70723" lon="5.26214">
        <ele>318</ele>
        <time>2021-05-08T07:46:30.152Z</time>
      </trkpt>
      <trkpt lat="45.70722" lon="5.26222">
        <ele>318</ele>
        <time>2021-05-08T07:46:31.152Z</time>
      </trkpt>
      <trkpt lat="45.70721" lon="5.2623">
        <ele>318</ele>
        <time>2021-05-08T07:46:32.152Z</time>
      </trkpt>
      <trkpt lat="45.7072" lon="5.26237">
        <ele>318</ele>
        <time>2021-05-08T07:46:33.152Z</time>
      </trkpt>
      <trkpt lat="45.7072" lon="5.26244">
        <ele>319</ele>
        <time>2021-05-08T07:46:34.152Z</time>
      </trkpt>
      <trkpt lat="45.7072" lon="5.2625">
        <ele>319</ele>
        <time>2021-05-08T07:46:35.152Z</time>
      </trkpt>
      <trkpt lat="45.70719" lon="5.26256">
        <ele>320</ele>
        <time>2021-05-08T07:46:36.152Z</time>
      </trkpt>
      <trkpt lat="45.70718" lon="5.26262">
        <ele>320</ele>
        <time>2021-05-08T07:46:37.152Z</time>
      </trkpt>
      <trkpt lat="45.70717" lon="5.26267">
        <ele>321</ele>
        <time>2021-05-08T07:46:38.152Z</time>
      </trkpt>
      <trkpt lat="45.70717" lon="5.26272">
        <ele>321</ele>
        <time>2021-05-08T07:46:39.152Z</time>
      </trkpt>
      <trkpt lat="45.70716" lon="5.26277">
        <ele>322</ele>
        <time>2021-05-08T07:46:40.152Z</time>
      </trkpt>
      <trkpt lat="45.70714" lon="5.26282">
        <ele>322</ele>
        <time>2021-05-08T07:46:41.152Z</time>
      </trkpt>
      <trkpt lat="45.70713" lon="5.26286">
        <ele>322</ele>
        <time>2021-05-08T07:46:42.152Z</time>
      </trkpt>
      <trkpt lat="45.70711" lon="5.26291">
        <ele>322</ele>
        <time>2021-05-08T07:46:43.152Z</time>
      </trkpt>
      <trkpt lat="45.7071" lon="5.26295">
        <ele>323</ele>
        <time>2021-05-08T07:46:44.152Z</time>
      </trkpt>
      <trkpt lat="45.70708" lon="5.263">
        <ele>323</ele>
        <time>2021-05-08T07:46:45.152Z</time>
      </trkpt>
      <trkpt lat="45.70706" lon="5.26304">
        <ele>324</ele>
        <time>2021-05-08T07:46:46.152Z</time>
      </trkpt>
      <trkpt lat="45.70704" lon="5.26308">
        <ele>324</ele>
        <time>2021-05-08T07:46:47.152Z</time>
      </trkpt>
      <trkpt lat="45.70701" lon="5.26311">
        <ele>325</ele>
        <time>2021-05-08T07:46:48.152Z</time>
      </trkpt>
      <trkpt lat="45.70699" lon="5.26315">
        <ele>325</ele>
        <time>2021-05-08T07:46:49.152Z</time>
      </trkpt>
      <trkpt lat="45.70697" lon="5.26318">
        <ele>326</ele>
        <time>2021-05-08T07:46:50.152Z</time>
      </trkpt>
      <trkpt lat="45.70694" lon="5.26321">
        <ele>326</ele>
        <time>2021-05-08T07:46:51.152Z</time>
      </trkpt>
      <trkpt lat="45.70691" lon="5.26324">
        <ele>326</ele>
        <time>2021-05-08T07:46:52.152Z</time>
      </trkpt>
      <trkpt lat="45.70688" lon="5.26327">
        <ele>327</ele>
        <time>2021-05-08T07:46:53.152Z</time>
      </trkpt>
      <trkpt lat="45.70685" lon="5.26329">
        <ele>327</ele>
        <time>2021-05-08T07:46:54.152Z</time>
      </trkpt>
      <trkpt lat="45.70682" lon="5.26331">
        <ele>328</ele>
        <time>2021-05-08T07:46:55.152Z</time>
      </trkpt>
      <trkpt lat="45.70679" lon="5.26333">
        <ele>329</ele>
        <time>2021-05-08T07:46:56.152Z</time>
      </trkpt>
      <trkpt lat="45.70675" lon="5.26334">
        <ele>329</ele>
        <time>2021-05-08T07:46:57.152Z</time>
      </trkpt>
      <trkpt lat="45.70672" lon="5.26336">
        <ele>330</ele>
        <time>2021-05-08T07:46:58.152Z</time>
      </trkpt>
      <trkpt lat="45.7067" lon="5.26337">
        <ele>330</ele>
        <time>2021-05-08T07:46:59.152Z</time>
      </trkpt>
      <trkpt lat="45.70666" lon="5.26339">
        <ele>330</ele>
        <time>2021-05-08T07:47:00.152Z</time>
      </trkpt>
      <trkpt lat="45.70663" lon="5.2634">
        <ele>330</ele>
        <time>2021-05-08T07:47:01.152Z</time>
      </trkpt>
      <trkpt lat="45.7066" lon="5.26342">
        <ele>330</ele>
        <time>2021-05-08T07:47:02.152Z</time>
      </trkpt>
      <trkpt lat="45.70657" lon="5.26344">
        <ele>330</ele>
        <time>2021-05-08T07:47:03.152Z</time>
      </trkpt>
      <trkpt lat="45.70654" lon="5.26346">
        <ele>329</ele>
        <time>2021-05-08T07:47:04.152Z</time>
      </trkpt>
      <trkpt lat="45.7065" lon="5.26349">
        <ele>329</ele>
        <time>2021-05-08T07:47:05.152Z</time>
      </trkpt>
      <trkpt lat="45.70646" lon="5.26351">
        <ele>329</ele>
        <time>2021-05-08T07:47:06.152Z</time>
      </trkpt>
      <trkpt lat="45.70641" lon="5.26354">
        <ele>330</ele>
        <time>2021-05-08T07:47:07.152Z</time>
      </trkpt>
      <trkpt lat="45.70636" lon="5.26356">
        <ele>330</ele>
        <time>2021-05-08T07:47:08.152Z</time>
      </trkpt>
      <trkpt lat="45.70631" lon="5.26359">
        <ele>330</ele>
        <time>2021-05-08T07:47:09.152Z</time>
      </trkpt>
      <trkpt lat="45.70626" lon="5.26362">
        <ele>330</ele>
        <time>2021-05-08T07:47:10.152Z</time>
      </trkpt>
      <trkpt lat="45.70621" lon="5.26365">
        <ele>331</ele>
        <time>2021-05-08T07:47:11.152Z</time>
      </trkpt>
      <trkpt lat="45.70615" lon="5.26367">
        <ele>331</ele>
        <time>2021-05-08T07:47:12.152Z</time>
      </trkpt>
      <trkpt lat="45.7061" lon="5.2637">
        <ele>331</ele>
        <time>2021-05-08T07:47:13.152Z</time>
      </trkpt>
      <trkpt lat="45.70605" lon="5.26373">
        <ele>332</ele>
        <time>2021-05-08T07:47:14.152Z</time>
      </trkpt>
      <trkpt lat="45.706" lon="5.26375">
        <ele>332</ele>
        <time>2021-05-08T07:47:15.152Z</time>
      </trkpt>
      <trkpt lat="45.70595" lon="5.26378">
        <ele>332</ele>
        <time>2021-05-08T07:47:16.152Z</time>
      </trkpt>
      <trkpt lat="45.7059" lon="5.26379">
        <ele>332</ele>
        <time>2021-05-08T07:47:17.152Z</time>
      </trkpt>
      <trkpt lat="45.70585" lon="5.2638">
        <ele>333</ele>
        <time>2021-05-08T07:47:18.152Z</time>
      </trkpt>
      <trkpt lat="45.7058" lon="5.2638">
        <ele>333</ele>
        <time>2021-05-08T07:47:19.152Z</time>
      </trkpt>
      <trkpt lat="45.70575" lon="5.2638">
        <ele>334</ele>
        <time>2021-05-08T07:47:20.152Z</time>
      </trkpt>
      <trkpt lat="45.7057" lon="5.26379">
        <ele>334</ele>
        <time>2021-05-08T07:47:21.152Z</time>
      </trkpt>
      <trkpt lat="45.70565" lon="5.26378">
        <ele>335</ele>
        <time>2021-05-08T07:47:22.152Z</time>
      </trkpt>
      <trkpt lat="45.7056" lon="5.26377">
        <ele>336</ele>
        <time>2021-05-08T07:47:23.152Z</time>
      </trkpt>
      <trkpt lat="45.70555" lon="5.26375">
        <ele>337</ele>
        <time>2021-05-08T07:47:24.152Z</time>
      </trkpt>
      <trkpt lat="45.7055" lon="5.26374">
        <ele>337</ele>
        <time>2021-05-08T07:47:25.152Z</time>
      </trkpt>
      <trkpt lat="45.70544" lon="5.26373">
        <ele>338</ele>
        <time>2021-05-08T07:47:26.152Z</time>
      </trkpt>
      <trkpt lat="45.70539" lon="5.26371">
        <ele>339</ele>
        <time>2021-05-08T07:47:27.152Z</time>
      </trkpt>
      <trkpt lat="45.70534" lon="5.2637">
        <ele>339</ele>
        <time>2021-05-08T07:47:28.152Z</time>
      </trkpt>
      <trkpt lat="45.7053" lon="5.26369">
        <ele>339</ele>
        <time>2021-05-08T07:47:29.152Z</time>
      </trkpt>
      <trkpt lat="45.70525" lon="5.26368">
        <ele>340</ele>
        <time>2021-05-08T07:47:30.152Z</time>
      </trkpt>
      <trkpt lat="45.70519" lon="5.26367">
        <ele>340</ele>
        <time>2021-05-08T07:47:31.152Z</time>
      </trkpt>
      <trkpt lat="45.70516" lon="5.26367">
        <ele>340</ele>
        <time>2021-05-08T07:47:32.152Z</time>
      </trkpt>
      <trkpt lat="45.70512" lon="5.26366">
        <ele>341</ele>
        <time>2021-05-08T07:47:33.152Z</time>
      </trkpt>
      <trkpt lat="45.70508" lon="5.26366">
        <ele>341</ele>
        <time>2021-05-08T07:47:34.152Z</time>
      </trkpt>
      <trkpt lat="45.70505" lon="5.26366">
        <ele>341</ele>
        <time>2021-05-08T07:47:35.152Z</time>
      </trkpt>
      <trkpt lat="45.70502" lon="5.26366">
        <ele>342</ele>
        <time>2021-05-08T07:47:36.152Z</time>
      </trkpt>
      <trkpt lat="45.70499" lon="5.26366">
        <ele>342</ele>
        <time>2021-05-08T07:47:37.152Z</time>
      </trkpt>
      <trkpt lat="45.70496" lon="5.26366">
        <ele>342</ele>
        <time>2021-05-08T07:47:38.152Z</time>
      </trkpt>
      <trkpt lat="45.70493" lon="5.26366">
        <ele>342</ele>
        <time>2021-05-08T07:47:39.152Z</time>
      </trkpt>
      <trkpt lat="45.70489" lon="5.26366">
        <ele>342</ele>
        <time>2021-05-08T07:47:40.152Z</time>
      </trkpt>
      <trkpt lat="45.70486" lon="5.26366">
        <ele>342</ele>
        <time>2021-05-08T07:47:41.152Z</time>
      </trkpt>
      <trkpt lat="45.70484" lon="5.26366">
        <ele>342</ele>
        <time>2021-05-08T07:47:42.152Z</time>
      </trkpt>
      <trkpt lat="45.70481" lon="5.26366">
        <ele>342</ele>
        <time>2021-05-08T07:47:43.152Z</time>
      </trkpt>
      <trkpt lat="45.70477" lon="5.26366">
        <ele>342</ele>
        <time>2021-05-08T07:47:44.152Z</time>
      </trkpt>
      <trkpt lat="45.70474" lon="5.26366">
        <ele>342</ele>
        <time>2021-05-08T07:47:45.152Z</time>
      </trkpt>
      <trkpt lat="45.70471" lon="5.26366">
        <ele>343</ele>
        <time>2021-05-08T07:47:46.152Z</time>
      </trkpt>
      <trkpt lat="45.70468" lon="5.26366">
        <ele>343</ele>
        <time>2021-05-08T07:47:47.152Z</time>
      </trkpt>
      <trkpt lat="45.70464" lon="5.26365">
        <ele>343</ele>
        <time>2021-05-08T07:47:48.152Z</time>
      </trkpt>
      <trkpt lat="45.70462" lon="5.26365">
        <ele>343</ele>
        <time>2021-05-08T07:47:49.152Z</time>
      </trkpt>
      <trkpt lat="45.70457" lon="5.26364">
        <ele>344</ele>
        <time>2021-05-08T07:47:50.152Z</time>
      </trkpt>
      <trkpt lat="45.70454" lon="5.26365">
        <ele>344</ele>
        <time>2021-05-08T07:47:51.152Z</time>
      </trkpt>
      <trkpt lat="45.7045" lon="5.26364">
        <ele>344</ele>
        <time>2021-05-08T07:47:52.152Z</time>
      </trkpt>
      <trkpt lat="45.70446" lon="5.26364">
        <ele>344</ele>
        <time>2021-05-08T07:47:53.152Z</time>
      </trkpt>
      <trkpt lat="45.70443" lon="5.26364">
        <ele>344</ele>
        <time>2021-05-08T07:47:54.152Z</time>
      </trkpt>
      <trkpt lat="45.7044" lon="5.26365">
        <ele>344</ele>
        <time>2021-05-08T07:47:55.152Z</time>
      </trkpt>
      <trkpt lat="45.70437" lon="5.26365">
        <ele>345</ele>
        <time>2021-05-08T07:47:56.152Z</time>
      </trkpt>
      <trkpt lat="45.70433" lon="5.26364">
        <ele>345</ele>
        <time>2021-05-08T07:47:57.152Z</time>
      </trkpt>
      <trkpt lat="45.7043" lon="5.26364">
        <ele>344</ele>
        <time>2021-05-08T07:47:58.152Z</time>
      </trkpt>
      <trkpt lat="45.70427" lon="5.26365">
        <ele>345</ele>
        <time>2021-05-08T07:47:59.152Z</time>
      </trkpt>
      <trkpt lat="45.70424" lon="5.26365">
        <ele>345</ele>
        <time>2021-05-08T07:48:00.152Z</time>
      </trkpt>
      <trkpt lat="45.70421" lon="5.26366">
        <ele>345</ele>
        <time>2021-05-08T07:48:01.152Z</time>
      </trkpt>
      <trkpt lat="45.70419" lon="5.26367">
        <ele>345</ele>
        <time>2021-05-08T07:48:02.152Z</time>
      </trkpt>
      <trkpt lat="45.70416" lon="5.26369">
        <ele>345</ele>
        <time>2021-05-08T07:48:03.152Z</time>
      </trkpt>
      <trkpt lat="45.70413" lon="5.2637">
        <ele>345</ele>
        <time>2021-05-08T07:48:04.152Z</time>
      </trkpt>
      <trkpt lat="45.70409" lon="5.26372">
        <ele>346</ele>
        <time>2021-05-08T07:48:05.152Z</time>
      </trkpt>
      <trkpt lat="45.70405" lon="5.26374">
        <ele>346</ele>
        <time>2021-05-08T07:48:06.152Z</time>
      </trkpt>
      <trkpt lat="45.70401" lon="5.26376">
        <ele>346</ele>
        <time>2021-05-08T07:48:07.152Z</time>
      </trkpt>
      <trkpt lat="45.70397" lon="5.26379">
        <ele>346</ele>
        <time>2021-05-08T07:48:08.152Z</time>
      </trkpt>
      <trkpt lat="45.70391" lon="5.26382">
        <ele>347</ele>
        <time>2021-05-08T07:48:09.152Z</time>
      </trkpt>
      <trkpt lat="45.70387" lon="5.26384">
        <ele>347</ele>
        <time>2021-05-08T07:48:10.152Z</time>
      </trkpt>
      <trkpt lat="45.70381" lon="5.26387">
        <ele>348</ele>
        <time>2021-05-08T07:48:11.152Z</time>
      </trkpt>
      <trkpt lat="45.70376" lon="5.2639">
        <ele>348</ele>
        <time>2021-05-08T07:48:12.152Z</time>
      </trkpt>
      <trkpt lat="45.70371" lon="5.26393">
        <ele>348</ele>
        <time>2021-05-08T07:48:13.152Z</time>
      </trkpt>
      <trkpt lat="45.70365" lon="5.26396">
        <ele>349</ele>
        <time>2021-05-08T07:48:14.152Z</time>
      </trkpt>
      <trkpt lat="45.7036" lon="5.26399">
        <ele>349</ele>
        <time>2021-05-08T07:48:15.152Z</time>
      </trkpt>
      <trkpt lat="45.70355" lon="5.26402">
        <ele>350</ele>
        <time>2021-05-08T07:48:16.152Z</time>
      </trkpt>
      <trkpt lat="45.7035" lon="5.26404">
        <ele>350</ele>
        <time>2021-05-08T07:48:17.152Z</time>
      </trkpt>
      <trkpt lat="45.70344" lon="5.26407">
        <ele>350</ele>
        <time>2021-05-08T07:48:18.152Z</time>
      </trkpt>
      <trkpt lat="45.70339" lon="5.2641">
        <ele>351</ele>
        <time>2021-05-08T07:48:19.152Z</time>
      </trkpt>
      <trkpt lat="45.70333" lon="5.26413">
        <ele>351</ele>
        <time>2021-05-08T07:48:20.152Z</time>
      </trkpt>
      <trkpt lat="45.70328" lon="5.26417">
        <ele>352</ele>
        <time>2021-05-08T07:48:21.152Z</time>
      </trkpt>
      <trkpt lat="45.70324" lon="5.2642">
        <ele>352</ele>
        <time>2021-05-08T07:48:22.152Z</time>
      </trkpt>
      <trkpt lat="45.70318" lon="5.26422">
        <ele>353</ele>
        <time>2021-05-08T07:48:23.152Z</time>
      </trkpt>
      <trkpt lat="45.70311" lon="5.26424">
        <ele>353</ele>
        <time>2021-05-08T07:48:24.152Z</time>
      </trkpt>
      <trkpt lat="45.70303" lon="5.26427">
        <ele>353</ele>
        <time>2021-05-08T07:48:25.152Z</time>
      </trkpt>
      <trkpt lat="45.70299" lon="5.2643">
        <ele>353</ele>
        <time>2021-05-08T07:48:26.152Z</time>
      </trkpt>
      <trkpt lat="45.70293" lon="5.26432">
        <ele>353</ele>
        <time>2021-05-08T07:48:27.152Z</time>
      </trkpt>
      <trkpt lat="45.70287" lon="5.26435">
        <ele>353</ele>
        <time>2021-05-08T07:48:28.152Z</time>
      </trkpt>
      <trkpt lat="45.70281" lon="5.26438">
        <ele>353</ele>
        <time>2021-05-08T07:48:29.152Z</time>
      </trkpt>
      <trkpt lat="45.70275" lon="5.26441">
        <ele>353</ele>
        <time>2021-05-08T07:48:30.152Z</time>
      </trkpt>
      <trkpt lat="45.7027" lon="5.26443">
        <ele>353</ele>
        <time>2021-05-08T07:48:31.152Z</time>
      </trkpt>
      <trkpt lat="45.70264" lon="5.26446">
        <ele>353</ele>
        <time>2021-05-08T07:48:32.152Z</time>
      </trkpt>
      <trkpt lat="45.70258" lon="5.26449">
        <ele>352</ele>
        <time>2021-05-08T07:48:33.152Z</time>
      </trkpt>
      <trkpt lat="45.70253" lon="5.26451">
        <ele>352</ele>
        <time>2021-05-08T07:48:34.152Z</time>
      </trkpt>
      <trkpt lat="45.70247" lon="5.26455">
        <ele>352</ele>
        <time>2021-05-08T07:48:35.152Z</time>
      </trkpt>
      <trkpt lat="45.70242" lon="5.26458">
        <ele>352</ele>
        <time>2021-05-08T07:48:36.152Z</time>
      </trkpt>
      <trkpt lat="45.70238" lon="5.26462">
        <ele>353</ele>
        <time>2021-05-08T07:48:37.152Z</time>
      </trkpt>
      <trkpt lat="45.70233" lon="5.26465">
        <ele>353</ele>
        <time>2021-05-08T07:48:38.152Z</time>
      </trkpt>
      <trkpt lat="45.70229" lon="5.26468">
        <ele>353</ele>
        <time>2021-05-08T07:48:39.152Z</time>
      </trkpt>
      <trkpt lat="45.70224" lon="5.26471">
        <ele>353</ele>
        <time>2021-05-08T07:48:40.152Z</time>
      </trkpt>
      <trkpt lat="45.70219" lon="5.26474">
        <ele>354</ele>
        <time>2021-05-08T07:48:41.152Z</time>
      </trkpt>
      <trkpt lat="45.70215" lon="5.26477">
        <ele>354</ele>
        <time>2021-05-08T07:48:42.152Z</time>
      </trkpt>
      <trkpt lat="45.7021" lon="5.2648">
        <ele>355</ele>
        <time>2021-05-08T07:48:43.152Z</time>
      </trkpt>
      <trkpt lat="45.70205" lon="5.26483">
        <ele>355</ele>
        <time>2021-05-08T07:48:44.152Z</time>
      </trkpt>
      <trkpt lat="45.702" lon="5.26486">
        <ele>355</ele>
        <time>2021-05-08T07:48:45.152Z</time>
      </trkpt>
      <trkpt lat="45.70196" lon="5.26488">
        <ele>356</ele>
        <time>2021-05-08T07:48:46.152Z</time>
      </trkpt>
      <trkpt lat="45.70191" lon="5.2649">
        <ele>356</ele>
        <time>2021-05-08T07:48:47.152Z</time>
      </trkpt>
      <trkpt lat="45.70186" lon="5.26491">
        <ele>357</ele>
        <time>2021-05-08T07:48:48.152Z</time>
      </trkpt>
      <trkpt lat="45.70181" lon="5.26493">
        <ele>357</ele>
        <time>2021-05-08T07:48:49.152Z</time>
      </trkpt>
      <trkpt lat="45.70176" lon="5.26494">
        <ele>357</ele>
        <time>2021-05-08T07:48:50.152Z</time>
      </trkpt>
      <trkpt lat="45.70171" lon="5.26496">
        <ele>357</ele>
        <time>2021-05-08T07:48:51.152Z</time>
      </trkpt>
      <trkpt lat="45.70165" lon="5.26497">
        <ele>357</ele>
        <time>2021-05-08T07:48:52.152Z</time>
      </trkpt>
      <trkpt lat="45.7016" lon="5.26499">
        <ele>357</ele>
        <time>2021-05-08T07:48:53.152Z</time>
      </trkpt>
      <trkpt lat="45.70154" lon="5.26502">
        <ele>356</ele>
        <time>2021-05-08T07:48:54.152Z</time>
      </trkpt>
      <trkpt lat="45.70148" lon="5.26505">
        <ele>356</ele>
        <time>2021-05-08T07:48:55.152Z</time>
      </trkpt>
      <trkpt lat="45.70143" lon="5.26507">
        <ele>356</ele>
        <time>2021-05-08T07:48:56.152Z</time>
      </trkpt>
      <trkpt lat="45.70137" lon="5.26511">
        <ele>356</ele>
        <time>2021-05-08T07:48:57.152Z</time>
      </trkpt>
      <trkpt lat="45.70131" lon="5.26515">
        <ele>355</ele>
        <time>2021-05-08T07:48:58.152Z</time>
      </trkpt>
      <trkpt lat="45.70125" lon="5.26519">
        <ele>355</ele>
        <time>2021-05-08T07:48:59.152Z</time>
      </trkpt>
      <trkpt lat="45.70119" lon="5.26523">
        <ele>355</ele>
        <time>2021-05-08T07:49:00.152Z</time>
      </trkpt>
      <trkpt lat="45.70114" lon="5.26528">
        <ele>354</ele>
        <time>2021-05-08T07:49:01.152Z</time>
      </trkpt>
      <trkpt lat="45.70108" lon="5.26533">
        <ele>354</ele>
        <time>2021-05-08T07:49:02.152Z</time>
      </trkpt>
      <trkpt lat="45.70103" lon="5.26538">
        <ele>353</ele>
        <time>2021-05-08T07:49:03.152Z</time>
      </trkpt>
      <trkpt lat="45.70097" lon="5.26544">
        <ele>353</ele>
        <time>2021-05-08T07:49:04.152Z</time>
      </trkpt>
      <trkpt lat="45.70091" lon="5.26551">
        <ele>353</ele>
        <time>2021-05-08T07:49:05.152Z</time>
      </trkpt>
      <trkpt lat="45.70085" lon="5.26558">
        <ele>352</ele>
        <time>2021-05-08T07:49:06.152Z</time>
      </trkpt>
      <trkpt lat="45.70079" lon="5.26566">
        <ele>352</ele>
        <time>2021-05-08T07:49:07.152Z</time>
      </trkpt>
      <trkpt lat="45.70074" lon="5.26575">
        <ele>352</ele>
        <time>2021-05-08T07:49:08.152Z</time>
      </trkpt>
      <trkpt lat="45.70068" lon="5.26586">
        <ele>351</ele>
        <time>2021-05-08T07:49:09.152Z</time>
      </trkpt>
      <trkpt lat="45.70065" lon="5.26594">
        <ele>351</ele>
        <time>2021-05-08T07:49:10.152Z</time>
      </trkpt>
      <trkpt lat="45.70061" lon="5.26605">
        <ele>350</ele>
        <time>2021-05-08T07:49:11.152Z</time>
      </trkpt>
      <trkpt lat="45.70058" lon="5.26617">
        <ele>350</ele>
        <time>2021-05-08T07:49:12.152Z</time>
      </trkpt>
      <trkpt lat="45.70053" lon="5.26628">
        <ele>350</ele>
        <time>2021-05-08T07:49:13.152Z</time>
      </trkpt>
      <trkpt lat="45.70049" lon="5.26638">
        <ele>350</ele>
        <time>2021-05-08T07:49:14.152Z</time>
      </trkpt>
      <trkpt lat="45.70043" lon="5.26645">
        <ele>349</ele>
        <time>2021-05-08T07:49:15.152Z</time>
      </trkpt>
      <trkpt lat="45.70037" lon="5.26651">
        <ele>349</ele>
        <time>2021-05-08T07:49:16.152Z</time>
      </trkpt>
      <trkpt lat="45.7003" lon="5.26656">
        <ele>349</ele>
        <time>2021-05-08T07:49:17.152Z</time>
      </trkpt>
      <trkpt lat="45.70023" lon="5.26659">
        <ele>349</ele>
        <time>2021-05-08T07:49:18.152Z</time>
      </trkpt>
      <trkpt lat="45.70015" lon="5.2666">
        <ele>349</ele>
        <time>2021-05-08T07:49:19.152Z</time>
      </trkpt>
      <trkpt lat="45.70007" lon="5.2666">
        <ele>349</ele>
        <time>2021-05-08T07:49:20.152Z</time>
      </trkpt>
      <trkpt lat="45.69998" lon="5.26658">
        <ele>348</ele>
        <time>2021-05-08T07:49:21.152Z</time>
      </trkpt>
      <trkpt lat="45.69989" lon="5.26655">
        <ele>348</ele>
        <time>2021-05-08T07:49:22.152Z</time>
      </trkpt>
      <trkpt lat="45.6998" lon="5.26651">
        <ele>348</ele>
        <time>2021-05-08T07:49:23.152Z</time>
      </trkpt>
      <trkpt lat="45.6997" lon="5.26647">
        <ele>348</ele>
        <time>2021-05-08T07:49:24.152Z</time>
      </trkpt>
      <trkpt lat="45.6996" lon="5.26644">
        <ele>347</ele>
        <time>2021-05-08T07:49:25.152Z</time>
      </trkpt>
      <trkpt lat="45.6995" lon="5.26639">
        <ele>347</ele>
        <time>2021-05-08T07:49:26.152Z</time>
      </trkpt>
      <trkpt lat="45.6994" lon="5.26633">
        <ele>347</ele>
        <time>2021-05-08T07:49:27.152Z</time>
      </trkpt>
      <trkpt lat="45.6993" lon="5.26627">
        <ele>347</ele>
        <time>2021-05-08T07:49:28.152Z</time>
      </trkpt>
      <trkpt lat="45.6992" lon="5.26622">
        <ele>347</ele>
        <time>2021-05-08T07:49:29.152Z</time>
      </trkpt>
      <trkpt lat="45.6991" lon="5.26617">
        <ele>347</ele>
        <time>2021-05-08T07:49:30.152Z</time>
      </trkpt>
      <trkpt lat="45.69899" lon="5.26611">
        <ele>347</ele>
        <time>2021-05-08T07:49:31.152Z</time>
      </trkpt>
      <trkpt lat="45.69889" lon="5.26606">
        <ele>346</ele>
        <time>2021-05-08T07:49:32.152Z</time>
      </trkpt>
      <trkpt lat="45.69878" lon="5.266">
        <ele>347</ele>
        <time>2021-05-08T07:49:33.152Z</time>
      </trkpt>
      <trkpt lat="45.69867" lon="5.26594">
        <ele>346</ele>
        <time>2021-05-08T07:49:34.152Z</time>
      </trkpt>
      <trkpt lat="45.69857" lon="5.26589">
        <ele>346</ele>
        <time>2021-05-08T07:49:35.152Z</time>
      </trkpt>
      <trkpt lat="45.69847" lon="5.26584">
        <ele>346</ele>
        <time>2021-05-08T07:49:36.152Z</time>
      </trkpt>
      <trkpt lat="45.69838" lon="5.2658">
        <ele>346</ele>
        <time>2021-05-08T07:49:37.152Z</time>
      </trkpt>
      <trkpt lat="45.69829" lon="5.26576">
        <ele>346</ele>
        <time>2021-05-08T07:49:38.152Z</time>
      </trkpt>
      <trkpt lat="45.6982" lon="5.26572">
        <ele>346</ele>
        <time>2021-05-08T07:49:39.152Z</time>
      </trkpt>
      <trkpt lat="45.6981" lon="5.26567">
        <ele>346</ele>
        <time>2021-05-08T07:49:40.152Z</time>
      </trkpt>
      <trkpt lat="45.69801" lon="5.26563">
        <ele>345</ele>
        <time>2021-05-08T07:49:41.152Z</time>
      </trkpt>
      <trkpt lat="45.69792" lon="5.26559">
        <ele>345</ele>
        <time>2021-05-08T07:49:42.152Z</time>
      </trkpt>
      <trkpt lat="45.69784" lon="5.26554">
        <ele>344</ele>
        <time>2021-05-08T07:49:43.152Z</time>
      </trkpt>
      <trkpt lat="45.69776" lon="5.2655">
        <ele>344</ele>
        <time>2021-05-08T07:49:44.152Z</time>
      </trkpt>
      <trkpt lat="45.69769" lon="5.26547">
        <ele>344</ele>
        <time>2021-05-08T07:49:45.152Z</time>
      </trkpt>
      <trkpt lat="45.69763" lon="5.26543">
        <ele>343</ele>
        <time>2021-05-08T07:49:46.152Z</time>
      </trkpt>
      <trkpt lat="45.69757" lon="5.2654">
        <ele>343</ele>
        <time>2021-05-08T07:49:47.152Z</time>
      </trkpt>
      <trkpt lat="45.69751" lon="5.26537">
        <ele>344</ele>
        <time>2021-05-08T07:49:48.152Z</time>
      </trkpt>
      <trkpt lat="45.69745" lon="5.26535">
        <ele>344</ele>
        <time>2021-05-08T07:49:49.152Z</time>
      </trkpt>
      <trkpt lat="45.6974" lon="5.26532">
        <ele>344</ele>
        <time>2021-05-08T07:49:50.152Z</time>
      </trkpt>
      <trkpt lat="45.69735" lon="5.2653">
        <ele>344</ele>
        <time>2021-05-08T07:49:51.152Z</time>
      </trkpt>
      <trkpt lat="45.69729" lon="5.26528">
        <ele>345</ele>
        <time>2021-05-08T07:49:52.152Z</time>
      </trkpt>
      <trkpt lat="45.69724" lon="5.26526">
        <ele>345</ele>
        <time>2021-05-08T07:49:53.152Z</time>
      </trkpt>
      <trkpt lat="45.69719" lon="5.26525">
        <ele>345</ele>
        <time>2021-05-08T07:49:54.152Z</time>
      </trkpt>
      <trkpt lat="45.69713" lon="5.26524">
        <ele>345</ele>
        <time>2021-05-08T07:49:55.152Z</time>
      </trkpt>
      <trkpt lat="45.69708" lon="5.26523">
        <ele>346</ele>
        <time>2021-05-08T07:49:56.152Z</time>
      </trkpt>
      <trkpt lat="45.69702" lon="5.26522">
        <ele>346</ele>
        <time>2021-05-08T07:49:57.152Z</time>
      </trkpt>
      <trkpt lat="45.69696" lon="5.26522">
        <ele>347</ele>
        <time>2021-05-08T07:49:58.152Z</time>
      </trkpt>
      <trkpt lat="45.69691" lon="5.26522">
        <ele>347</ele>
        <time>2021-05-08T07:49:59.152Z</time>
      </trkpt>
      <trkpt lat="45.69685" lon="5.26521">
        <ele>347</ele>
        <time>2021-05-08T07:50:00.152Z</time>
      </trkpt>
      <trkpt lat="45.69678" lon="5.26521">
        <ele>347</ele>
        <time>2021-05-08T07:50:01.152Z</time>
      </trkpt>
      <trkpt lat="45.69672" lon="5.2652">
        <ele>348</ele>
        <time>2021-05-08T07:50:02.152Z</time>
      </trkpt>
      <trkpt lat="45.69666" lon="5.26519">
        <ele>348</ele>
        <time>2021-05-08T07:50:03.152Z</time>
      </trkpt>
      <trkpt lat="45.69658" lon="5.26518">
        <ele>348</ele>
        <time>2021-05-08T07:50:04.152Z</time>
      </trkpt>
      <trkpt lat="45.69652" lon="5.26517">
        <ele>348</ele>
        <time>2021-05-08T07:50:05.152Z</time>
      </trkpt>
      <trkpt lat="45.69644" lon="5.26515">
        <ele>348</ele>
        <time>2021-05-08T07:50:06.152Z</time>
      </trkpt>
      <trkpt lat="45.69637" lon="5.26514">
        <ele>348</ele>
        <time>2021-05-08T07:50:07.152Z</time>
      </trkpt>
      <trkpt lat="45.69629" lon="5.26512">
        <ele>348</ele>
        <time>2021-05-08T07:50:08.152Z</time>
      </trkpt>
      <trkpt lat="45.69621" lon="5.26511">
        <ele>348</ele>
        <time>2021-05-08T07:50:09.152Z</time>
      </trkpt>
      <trkpt lat="45.69613" lon="5.2651">
        <ele>348</ele>
        <time>2021-05-08T07:50:10.152Z</time>
      </trkpt>
      <trkpt lat="45.69604" lon="5.26508">
        <ele>348</ele>
        <time>2021-05-08T07:50:11.152Z</time>
      </trkpt>
      <trkpt lat="45.69595" lon="5.26506">
        <ele>348</ele>
        <time>2021-05-08T07:50:12.152Z</time>
      </trkpt>
      <trkpt lat="45.69586" lon="5.26505">
        <ele>348</ele>
        <time>2021-05-08T07:50:13.152Z</time>
      </trkpt>
      <trkpt lat="45.69577" lon="5.26504">
        <ele>348</ele>
        <time>2021-05-08T07:50:14.152Z</time>
      </trkpt>
      <trkpt lat="45.69568" lon="5.26502">
        <ele>348</ele>
        <time>2021-05-08T07:50:15.152Z</time>
      </trkpt>
      <trkpt lat="45.69558" lon="5.265">
        <ele>348</ele>
        <time>2021-05-08T07:50:16.152Z</time>
      </trkpt>
      <trkpt lat="45.69549" lon="5.26497">
        <ele>348</ele>
        <time>2021-05-08T07:50:17.152Z</time>
      </trkpt>
      <trkpt lat="45.6954" lon="5.26495">
        <ele>348</ele>
        <time>2021-05-08T07:50:18.152Z</time>
      </trkpt>
      <trkpt lat="45.69531" lon="5.26492">
        <ele>348</ele>
        <time>2021-05-08T07:50:19.152Z</time>
      </trkpt>
      <trkpt lat="45.69522" lon="5.26488">
        <ele>347</ele>
        <time>2021-05-08T07:50:20.152Z</time>
      </trkpt>
      <trkpt lat="45.69513" lon="5.26485">
        <ele>347</ele>
        <time>2021-05-08T07:50:21.152Z</time>
      </trkpt>
      <trkpt lat="45.69504" lon="5.26482">
        <ele>346</ele>
        <time>2021-05-08T07:50:22.152Z</time>
      </trkpt>
      <trkpt lat="45.69495" lon="5.26478">
        <ele>346</ele>
        <time>2021-05-08T07:50:23.152Z</time>
      </trkpt>
      <trkpt lat="45.69486" lon="5.26475">
        <ele>346</ele>
        <time>2021-05-08T07:50:24.152Z</time>
      </trkpt>
      <trkpt lat="45.69476" lon="5.26472">
        <ele>345</ele>
        <time>2021-05-08T07:50:25.152Z</time>
      </trkpt>
      <trkpt lat="45.69467" lon="5.26469">
        <ele>345</ele>
        <time>2021-05-08T07:50:26.152Z</time>
      </trkpt>
      <trkpt lat="45.69458" lon="5.26468">
        <ele>345</ele>
        <time>2021-05-08T07:50:27.152Z</time>
      </trkpt>
      <trkpt lat="45.69449" lon="5.26466">
        <ele>344</ele>
        <time>2021-05-08T07:50:28.152Z</time>
      </trkpt>
      <trkpt lat="45.6944" lon="5.26466">
        <ele>344</ele>
        <time>2021-05-08T07:50:29.152Z</time>
      </trkpt>
      <trkpt lat="45.69431" lon="5.26465">
        <ele>344</ele>
        <time>2021-05-08T07:50:30.152Z</time>
      </trkpt>
      <trkpt lat="45.69421" lon="5.26465">
        <ele>344</ele>
        <time>2021-05-08T07:50:31.152Z</time>
      </trkpt>
      <trkpt lat="45.69412" lon="5.26465">
        <ele>344</ele>
        <time>2021-05-08T07:50:32.152Z</time>
      </trkpt>
      <trkpt lat="45.69403" lon="5.26466">
        <ele>344</ele>
        <time>2021-05-08T07:50:33.152Z</time>
      </trkpt>
      <trkpt lat="45.69395" lon="5.26468">
        <ele>344</ele>
        <time>2021-05-08T07:50:34.152Z</time>
      </trkpt>
      <trkpt lat="45.69387" lon="5.2647">
        <ele>344</ele>
        <time>2021-05-08T07:50:35.152Z</time>
      </trkpt>
      <trkpt lat="45.69378" lon="5.26472">
        <ele>344</ele>
        <time>2021-05-08T07:50:36.152Z</time>
      </trkpt>
      <trkpt lat="45.69371" lon="5.26474">
        <ele>344</ele>
        <time>2021-05-08T07:50:37.152Z</time>
      </trkpt>
      <trkpt lat="45.69363" lon="5.26476">
        <ele>344</ele>
        <time>2021-05-08T07:50:38.152Z</time>
      </trkpt>
      <trkpt lat="45.69355" lon="5.26478">
        <ele>344</ele>
        <time>2021-05-08T07:50:39.152Z</time>
      </trkpt>
      <trkpt lat="45.69346" lon="5.26479">
        <ele>344</ele>
        <time>2021-05-08T07:50:40.152Z</time>
      </trkpt>
      <trkpt lat="45.69339" lon="5.26481">
        <ele>344</ele>
        <time>2021-05-08T07:50:41.152Z</time>
      </trkpt>
      <trkpt lat="45.69331" lon="5.26483">
        <ele>344</ele>
        <time>2021-05-08T07:50:42.152Z</time>
      </trkpt>
      <trkpt lat="45.69322" lon="5.26485">
        <ele>344</ele>
        <time>2021-05-08T07:50:43.152Z</time>
      </trkpt>
      <trkpt lat="45.69314" lon="5.26487">
        <ele>344</ele>
        <time>2021-05-08T07:50:44.152Z</time>
      </trkpt>
      <trkpt lat="45.69306" lon="5.2649">
        <ele>344</ele>
        <time>2021-05-08T07:50:45.152Z</time>
      </trkpt>
      <trkpt lat="45.69298" lon="5.26494">
        <ele>344</ele>
        <time>2021-05-08T07:50:46.152Z</time>
      </trkpt>
      <trkpt lat="45.6929" lon="5.26496">
        <ele>345</ele>
        <time>2021-05-08T07:50:47.152Z</time>
      </trkpt>
      <trkpt lat="45.69281" lon="5.26498">
        <ele>345</ele>
        <time>2021-05-08T07:50:48.152Z</time>
      </trkpt>
      <trkpt lat="45.69273" lon="5.26499">
        <ele>345</ele>
        <time>2021-05-08T07:50:49.152Z</time>
      </trkpt>
      <trkpt lat="45.69264" lon="5.26497">
        <ele>345</ele>
        <time>2021-05-08T07:50:50.152Z</time>
      </trkpt>
      <trkpt lat="45.69257" lon="5.26492">
        <ele>345</ele>
        <time>2021-05-08T07:50:51.152Z</time>
      </trkpt>
      <trkpt lat="45.6925" lon="5.26485">
        <ele>344</ele>
        <time>2021-05-08T07:50:52.152Z</time>
      </trkpt>
      <trkpt lat="45.69245" lon="5.26475">
        <ele>344</ele>
        <time>2021-05-08T07:50:53.152Z</time>
      </trkpt>
      <trkpt lat="45.69241" lon="5.26465">
        <ele>344</ele>
        <time>2021-05-08T07:50:54.152Z</time>
      </trkpt>
      <trkpt lat="45.69239" lon="5.26453">
        <ele>344</ele>
        <time>2021-05-08T07:50:55.152Z</time>
      </trkpt>
      <trkpt lat="45.69236" lon="5.26441">
        <ele>344</ele>
        <time>2021-05-08T07:50:56.152Z</time>
      </trkpt>
      <trkpt lat="45.69234" lon="5.26429">
        <ele>343</ele>
        <time>2021-05-08T07:50:57.152Z</time>
      </trkpt>
      <trkpt lat="45.69232" lon="5.26418">
        <ele>343</ele>
        <time>2021-05-08T07:50:58.152Z</time>
      </trkpt>
      <trkpt lat="45.6923" lon="5.26407">
        <ele>343</ele>
        <time>2021-05-08T07:50:59.152Z</time>
      </trkpt>
      <trkpt lat="45.69228" lon="5.26397">
        <ele>342</ele>
        <time>2021-05-08T07:51:00.152Z</time>
      </trkpt>
      <trkpt lat="45.69225" lon="5.26386">
        <ele>342</ele>
        <time>2021-05-08T07:51:01.152Z</time>
      </trkpt>
      <trkpt lat="45.69223" lon="5.26376">
        <ele>342</ele>
        <time>2021-05-08T07:51:02.152Z</time>
      </trkpt>
      <trkpt lat="45.69221" lon="5.26365">
        <ele>341</ele>
        <time>2021-05-08T07:51:03.152Z</time>
      </trkpt>
      <trkpt lat="45.69219" lon="5.26354">
        <ele>340</ele>
        <time>2021-05-08T07:51:04.152Z</time>
      </trkpt>
      <trkpt lat="45.69218" lon="5.26343">
        <ele>340</ele>
        <time>2021-05-08T07:51:05.152Z</time>
      </trkpt>
      <trkpt lat="45.69217" lon="5.26331">
        <ele>340</ele>
        <time>2021-05-08T07:51:06.152Z</time>
      </trkpt>
      <trkpt lat="45.69215" lon="5.2632">
        <ele>340</ele>
        <time>2021-05-08T07:51:07.152Z</time>
      </trkpt>
      <trkpt lat="45.69213" lon="5.26308">
        <ele>340</ele>
        <time>2021-05-08T07:51:08.152Z</time>
      </trkpt>
      <trkpt lat="45.69211" lon="5.26296">
        <ele>339</ele>
        <time>2021-05-08T07:51:09.152Z</time>
      </trkpt>
      <trkpt lat="45.69209" lon="5.26283">
        <ele>339</ele>
        <time>2021-05-08T07:51:10.152Z</time>
      </trkpt>
      <trkpt lat="45.69207" lon="5.26271">
        <ele>339</ele>
        <time>2021-05-08T07:51:11.152Z</time>
      </trkpt>
      <trkpt lat="45.69205" lon="5.26259">
        <ele>340</ele>
        <time>2021-05-08T07:51:12.152Z</time>
      </trkpt>
      <trkpt lat="45.69202" lon="5.26247">
        <ele>340</ele>
        <time>2021-05-08T07:51:13.152Z</time>
      </trkpt>
      <trkpt lat="45.69198" lon="5.26236">
        <ele>341</ele>
        <time>2021-05-08T07:51:14.152Z</time>
      </trkpt>
      <trkpt lat="45.69194" lon="5.26226">
        <ele>341</ele>
        <time>2021-05-08T07:51:15.152Z</time>
      </trkpt>
      <trkpt lat="45.69188" lon="5.26217">
        <ele>341</ele>
        <time>2021-05-08T07:51:16.152Z</time>
      </trkpt>
      <trkpt lat="45.69181" lon="5.2621">
        <ele>342</ele>
        <time>2021-05-08T07:51:17.152Z</time>
      </trkpt>
      <trkpt lat="45.69174" lon="5.26207">
        <ele>342</ele>
        <time>2021-05-08T07:51:18.152Z</time>
      </trkpt>
      <trkpt lat="45.69165" lon="5.26205">
        <ele>342</ele>
        <time>2021-05-08T07:51:19.152Z</time>
      </trkpt>
      <trkpt lat="45.69156" lon="5.26203">
        <ele>343</ele>
        <time>2021-05-08T07:51:20.152Z</time>
      </trkpt>
      <trkpt lat="45.69148" lon="5.26201">
        <ele>343</ele>
        <time>2021-05-08T07:51:21.152Z</time>
      </trkpt>
      <trkpt lat="45.69138" lon="5.262">
        <ele>344</ele>
        <time>2021-05-08T07:51:22.152Z</time>
      </trkpt>
      <trkpt lat="45.69129" lon="5.262">
        <ele>344</ele>
        <time>2021-05-08T07:51:23.152Z</time>
      </trkpt>
      <trkpt lat="45.6912" lon="5.26201">
        <ele>345</ele>
        <time>2021-05-08T07:51:24.152Z</time>
      </trkpt>
      <trkpt lat="45.69111" lon="5.26202">
        <ele>346</ele>
        <time>2021-05-08T07:51:25.152Z</time>
      </trkpt>
      <trkpt lat="45.69102" lon="5.26205">
        <ele>347</ele>
        <time>2021-05-08T07:51:26.152Z</time>
      </trkpt>
      <trkpt lat="45.69094" lon="5.26208">
        <ele>348</ele>
        <time>2021-05-08T07:51:27.152Z</time>
      </trkpt>
      <trkpt lat="45.69085" lon="5.26211">
        <ele>348</ele>
        <time>2021-05-08T07:51:28.152Z</time>
      </trkpt>
      <trkpt lat="45.69076" lon="5.26214">
        <ele>349</ele>
        <time>2021-05-08T07:51:29.152Z</time>
      </trkpt>
      <trkpt lat="45.69067" lon="5.26217">
        <ele>350</ele>
        <time>2021-05-08T07:51:30.152Z</time>
      </trkpt>
      <trkpt lat="45.69057" lon="5.2622">
        <ele>350</ele>
        <time>2021-05-08T07:51:31.152Z</time>
      </trkpt>
      <trkpt lat="45.69047" lon="5.26222">
        <ele>349</ele>
        <time>2021-05-08T07:51:32.152Z</time>
      </trkpt>
      <trkpt lat="45.69038" lon="5.26224">
        <ele>349</ele>
        <time>2021-05-08T07:51:33.152Z</time>
      </trkpt>
      <trkpt lat="45.69029" lon="5.26226">
        <ele>348</ele>
        <time>2021-05-08T07:51:34.152Z</time>
      </trkpt>
      <trkpt lat="45.6902" lon="5.26227">
        <ele>348</ele>
        <time>2021-05-08T07:51:35.152Z</time>
      </trkpt>
      <trkpt lat="45.6901" lon="5.26227">
        <ele>348</ele>
        <time>2021-05-08T07:51:36.152Z</time>
      </trkpt>
      <trkpt lat="45.69001" lon="5.26228">
        <ele>348</ele>
        <time>2021-05-08T07:51:37.152Z</time>
      </trkpt>
      <trkpt lat="45.6899" lon="5.26229">
        <ele>347</ele>
        <time>2021-05-08T07:51:38.152Z</time>
      </trkpt>
      <trkpt lat="45.68981" lon="5.2623">
        <ele>347</ele>
        <time>2021-05-08T07:51:39.152Z</time>
      </trkpt>
      <trkpt lat="45.68974" lon="5.26232">
        <ele>346</ele>
        <time>2021-05-08T07:51:40.152Z</time>
      </trkpt>
      <trkpt lat="45.68965" lon="5.26235">
        <ele>345</ele>
        <time>2021-05-08T07:51:41.152Z</time>
      </trkpt>
      <trkpt lat="45.68956" lon="5.26237">
        <ele>345</ele>
        <time>2021-05-08T07:51:42.152Z</time>
      </trkpt>
      <trkpt lat="45.68948" lon="5.26239">
        <ele>345</ele>
        <time>2021-05-08T07:51:43.152Z</time>
      </trkpt>
      <trkpt lat="45.6894" lon="5.26242">
        <ele>345</ele>
        <time>2021-05-08T07:51:44.152Z</time>
      </trkpt>
      <trkpt lat="45.68932" lon="5.26245">
        <ele>345</ele>
        <time>2021-05-08T07:51:45.152Z</time>
      </trkpt>
      <trkpt lat="45.68925" lon="5.26247">
        <ele>345</ele>
        <time>2021-05-08T07:51:46.152Z</time>
      </trkpt>
      <trkpt lat="45.68918" lon="5.26249">
        <ele>344</ele>
        <time>2021-05-08T07:51:47.152Z</time>
      </trkpt>
      <trkpt lat="45.68912" lon="5.26251">
        <ele>344</ele>
        <time>2021-05-08T07:51:48.152Z</time>
      </trkpt>
      <trkpt lat="45.68905" lon="5.26253">
        <ele>344</ele>
        <time>2021-05-08T07:51:49.152Z</time>
      </trkpt>
      <trkpt lat="45.689" lon="5.26255">
        <ele>344</ele>
        <time>2021-05-08T07:51:50.152Z</time>
      </trkpt>
      <trkpt lat="45.68894" lon="5.26257">
        <ele>344</ele>
        <time>2021-05-08T07:51:51.152Z</time>
      </trkpt>
      <trkpt lat="45.68889" lon="5.26259">
        <ele>344</ele>
        <time>2021-05-08T07:51:52.152Z</time>
      </trkpt>
      <trkpt lat="45.68884" lon="5.2626">
        <ele>344</ele>
        <time>2021-05-08T07:51:53.152Z</time>
      </trkpt>
      <trkpt lat="45.6888" lon="5.26262">
        <ele>344</ele>
        <time>2021-05-08T07:51:54.152Z</time>
      </trkpt>
      <trkpt lat="45.68876" lon="5.26263">
        <ele>344</ele>
        <time>2021-05-08T07:51:55.152Z</time>
      </trkpt>
      <trkpt lat="45.68872" lon="5.26264">
        <ele>344</ele>
        <time>2021-05-08T07:51:56.152Z</time>
      </trkpt>
      <trkpt lat="45.68867" lon="5.26265">
        <ele>345</ele>
        <time>2021-05-08T07:51:57.152Z</time>
      </trkpt>
      <trkpt lat="45.68863" lon="5.26267">
        <ele>345</ele>
        <time>2021-05-08T07:51:58.152Z</time>
      </trkpt>
      <trkpt lat="45.68859" lon="5.26268">
        <ele>345</ele>
        <time>2021-05-08T07:51:59.152Z</time>
      </trkpt>
      <trkpt lat="45.68855" lon="5.26269">
        <ele>346</ele>
        <time>2021-05-08T07:52:00.152Z</time>
      </trkpt>
      <trkpt lat="45.68852" lon="5.2627">
        <ele>347</ele>
        <time>2021-05-08T07:52:01.152Z</time>
      </trkpt>
      <trkpt lat="45.68848" lon="5.26271">
        <ele>347</ele>
        <time>2021-05-08T07:52:02.152Z</time>
      </trkpt>
      <trkpt lat="45.68843" lon="5.26273">
        <ele>348</ele>
        <time>2021-05-08T07:52:03.152Z</time>
      </trkpt>
      <trkpt lat="45.68839" lon="5.26274">
        <ele>348</ele>
        <time>2021-05-08T07:52:04.152Z</time>
      </trkpt>
      <trkpt lat="45.68834" lon="5.26276">
        <ele>348</ele>
        <time>2021-05-08T07:52:05.152Z</time>
      </trkpt>
      <trkpt lat="45.68829" lon="5.26277">
        <ele>349</ele>
        <time>2021-05-08T07:52:06.152Z</time>
      </trkpt>
      <trkpt lat="45.68823" lon="5.26277">
        <ele>349</ele>
        <time>2021-05-08T07:52:07.152Z</time>
      </trkpt>
      <trkpt lat="45.68818" lon="5.26278">
        <ele>349</ele>
        <time>2021-05-08T07:52:08.152Z</time>
      </trkpt>
      <trkpt lat="45.68812" lon="5.26277">
        <ele>349</ele>
        <time>2021-05-08T07:52:09.152Z</time>
      </trkpt>
      <trkpt lat="45.68807" lon="5.26276">
        <ele>349</ele>
        <time>2021-05-08T07:52:10.152Z</time>
      </trkpt>
      <trkpt lat="45.68801" lon="5.26274">
        <ele>350</ele>
        <time>2021-05-08T07:52:11.152Z</time>
      </trkpt>
      <trkpt lat="45.68796" lon="5.26271">
        <ele>350</ele>
        <time>2021-05-08T07:52:12.152Z</time>
      </trkpt>
      <trkpt lat="45.6879" lon="5.26268">
        <ele>350</ele>
        <time>2021-05-08T07:52:13.152Z</time>
      </trkpt>
      <trkpt lat="45.68784" lon="5.26264">
        <ele>351</ele>
        <time>2021-05-08T07:52:14.152Z</time>
      </trkpt>
      <trkpt lat="45.68779" lon="5.26259">
        <ele>351</ele>
        <time>2021-05-08T07:52:15.152Z</time>
      </trkpt>
      <trkpt lat="45.68773" lon="5.26255">
        <ele>350</ele>
        <time>2021-05-08T07:52:16.152Z</time>
      </trkpt>
      <trkpt lat="45.68767" lon="5.26251">
        <ele>350</ele>
        <time>2021-05-08T07:52:17.152Z</time>
      </trkpt>
      <trkpt lat="45.68761" lon="5.26245">
        <ele>350</ele>
        <time>2021-05-08T07:52:18.152Z</time>
      </trkpt>
      <trkpt lat="45.68756" lon="5.26239">
        <ele>350</ele>
        <time>2021-05-08T07:52:19.152Z</time>
      </trkpt>
      <trkpt lat="45.6875" lon="5.26232">
        <ele>350</ele>
        <time>2021-05-08T07:52:20.152Z</time>
      </trkpt>
      <trkpt lat="45.68745" lon="5.26223">
        <ele>351</ele>
        <time>2021-05-08T07:52:21.152Z</time>
      </trkpt>
      <trkpt lat="45.6874" lon="5.26213">
        <ele>350</ele>
        <time>2021-05-08T07:52:22.152Z</time>
      </trkpt>
      <trkpt lat="45.68734" lon="5.26203">
        <ele>350</ele>
        <time>2021-05-08T07:52:23.152Z</time>
      </trkpt>
      <trkpt lat="45.68729" lon="5.26192">
        <ele>350</ele>
        <time>2021-05-08T07:52:24.152Z</time>
      </trkpt>
      <trkpt lat="45.68723" lon="5.26181">
        <ele>350</ele>
        <time>2021-05-08T07:52:25.152Z</time>
      </trkpt>
      <trkpt lat="45.68718" lon="5.26168">
        <ele>350</ele>
        <time>2021-05-08T07:52:26.152Z</time>
      </trkpt>
      <trkpt lat="45.68713" lon="5.26154">
        <ele>351</ele>
        <time>2021-05-08T07:52:27.152Z</time>
      </trkpt>
      <trkpt lat="45.6871" lon="5.26139">
        <ele>351</ele>
        <time>2021-05-08T07:52:28.152Z</time>
      </trkpt>
      <trkpt lat="45.6871" lon="5.26124">
        <ele>351</ele>
        <time>2021-05-08T07:52:29.152Z</time>
      </trkpt>
      <trkpt lat="45.68712" lon="5.26108">
        <ele>351</ele>
        <time>2021-05-08T07:52:30.152Z</time>
      </trkpt>
      <trkpt lat="45.68717" lon="5.26091">
        <ele>351</ele>
        <time>2021-05-08T07:52:31.152Z</time>
      </trkpt>
      <trkpt lat="45.68721" lon="5.26076">
        <ele>350</ele>
        <time>2021-05-08T07:52:32.152Z</time>
      </trkpt>
      <trkpt lat="45.68726" lon="5.26062">
        <ele>350</ele>
        <time>2021-05-08T07:52:33.152Z</time>
      </trkpt>
      <trkpt lat="45.68731" lon="5.26048">
        <ele>350</ele>
        <time>2021-05-08T07:52:34.152Z</time>
      </trkpt>
      <trkpt lat="45.68735" lon="5.26035">
        <ele>350</ele>
        <time>2021-05-08T07:52:35.152Z</time>
      </trkpt>
      <trkpt lat="45.68739" lon="5.26022">
        <ele>350</ele>
        <time>2021-05-08T07:52:36.152Z</time>
      </trkpt>
      <trkpt lat="45.68742" lon="5.26007">
        <ele>349</ele>
        <time>2021-05-08T07:52:37.152Z</time>
      </trkpt>
      <trkpt lat="45.68745" lon="5.25995">
        <ele>349</ele>
        <time>2021-05-08T07:52:38.152Z</time>
      </trkpt>
      <trkpt lat="45.68748" lon="5.25983">
        <ele>348</ele>
        <time>2021-05-08T07:52:39.152Z</time>
      </trkpt>
      <trkpt lat="45.68751" lon="5.25971">
        <ele>348</ele>
        <time>2021-05-08T07:52:40.152Z</time>
      </trkpt>
      <trkpt lat="45.68753" lon="5.25961">
        <ele>348</ele>
        <time>2021-05-08T07:52:41.152Z</time>
      </trkpt>
      <trkpt lat="45.68755" lon="5.25949">
        <ele>348</ele>
        <time>2021-05-08T07:52:42.152Z</time>
      </trkpt>
      <trkpt lat="45.68757" lon="5.25937">
        <ele>348</ele>
        <time>2021-05-08T07:52:43.152Z</time>
      </trkpt>
      <trkpt lat="45.68759" lon="5.25925">
        <ele>348</ele>
        <time>2021-05-08T07:52:44.152Z</time>
      </trkpt>
      <trkpt lat="45.6876" lon="5.25914">
        <ele>348</ele>
        <time>2021-05-08T07:52:45.152Z</time>
      </trkpt>
      <trkpt lat="45.6876" lon="5.25903">
        <ele>348</ele>
        <time>2021-05-08T07:52:46.152Z</time>
      </trkpt>
      <trkpt lat="45.68758" lon="5.25892">
        <ele>349</ele>
        <time>2021-05-08T07:52:47.152Z</time>
      </trkpt>
      <trkpt lat="45.68757" lon="5.25881">
        <ele>349</ele>
        <time>2021-05-08T07:52:48.152Z</time>
      </trkpt>
      <trkpt lat="45.68757" lon="5.25871">
        <ele>349</ele>
        <time>2021-05-08T07:52:49.152Z</time>
      </trkpt>
      <trkpt lat="45.68757" lon="5.2586">
        <ele>349</ele>
        <time>2021-05-08T07:52:50.152Z</time>
      </trkpt>
      <trkpt lat="45.68757" lon="5.25851">
        <ele>349</ele>
        <time>2021-05-08T07:52:51.152Z</time>
      </trkpt>
      <trkpt lat="45.68758" lon="5.25842">
        <ele>349</ele>
        <time>2021-05-08T07:52:52.152Z</time>
      </trkpt>
      <trkpt lat="45.68759" lon="5.25833">
        <ele>349</ele>
        <time>2021-05-08T07:52:53.152Z</time>
      </trkpt>
      <trkpt lat="45.68761" lon="5.25824">
        <ele>349</ele>
        <time>2021-05-08T07:52:54.152Z</time>
      </trkpt>
      <trkpt lat="45.68763" lon="5.25817">
        <ele>349</ele>
        <time>2021-05-08T07:52:55.152Z</time>
      </trkpt>
      <trkpt lat="45.68764" lon="5.25812">
        <ele>350</ele>
        <time>2021-05-08T07:52:56.152Z</time>
      </trkpt>
      <trkpt lat="45.68766" lon="5.25805">
        <ele>350</ele>
        <time>2021-05-08T07:52:57.152Z</time>
      </trkpt>
      <trkpt lat="45.68769" lon="5.25796">
        <ele>350</ele>
        <time>2021-05-08T07:52:58.152Z</time>
      </trkpt>
      <trkpt lat="45.68771" lon="5.2579">
        <ele>350</ele>
        <time>2021-05-08T07:52:59.152Z</time>
      </trkpt>
      <trkpt lat="45.68773" lon="5.25784">
        <ele>350</ele>
        <time>2021-05-08T07:53:00.152Z</time>
      </trkpt>
      <trkpt lat="45.68775" lon="5.25777">
        <ele>350</ele>
        <time>2021-05-08T07:53:01.152Z</time>
      </trkpt>
      <trkpt lat="45.68778" lon="5.2577">
        <ele>350</ele>
        <time>2021-05-08T07:53:02.152Z</time>
      </trkpt>
      <trkpt lat="45.68782" lon="5.25761">
        <ele>350</ele>
        <time>2021-05-08T07:53:03.152Z</time>
      </trkpt>
      <trkpt lat="45.68785" lon="5.25753">
        <ele>351</ele>
        <time>2021-05-08T07:53:04.152Z</time>
      </trkpt>
      <trkpt lat="45.68788" lon="5.25745">
        <ele>351</ele>
        <time>2021-05-08T07:53:05.152Z</time>
      </trkpt>
      <trkpt lat="45.68791" lon="5.25739">
        <ele>351</ele>
        <time>2021-05-08T07:53:06.152Z</time>
      </trkpt>
      <trkpt lat="45.68794" lon="5.25731">
        <ele>351</ele>
        <time>2021-05-08T07:53:07.152Z</time>
      </trkpt>
      <trkpt lat="45.68798" lon="5.25723">
        <ele>351</ele>
        <time>2021-05-08T07:53:08.152Z</time>
      </trkpt>
      <trkpt lat="45.68802" lon="5.25715">
        <ele>351</ele>
        <time>2021-05-08T07:53:09.152Z</time>
      </trkpt>
      <trkpt lat="45.68805" lon="5.25707">
        <ele>351</ele>
        <time>2021-05-08T07:53:10.152Z</time>
      </trkpt>
      <trkpt lat="45.68809" lon="5.25699">
        <ele>351</ele>
        <time>2021-05-08T07:53:11.152Z</time>
      </trkpt>
      <trkpt lat="45.68813" lon="5.2569">
        <ele>351</ele>
        <time>2021-05-08T07:53:12.152Z</time>
      </trkpt>
      <trkpt lat="45.68817" lon="5.25682">
        <ele>351</ele>
        <time>2021-05-08T07:53:13.152Z</time>
      </trkpt>
      <trkpt lat="45.68822" lon="5.25673">
        <ele>351</ele>
        <time>2021-05-08T07:53:14.152Z</time>
      </trkpt>
      <trkpt lat="45.68826" lon="5.25666">
        <ele>351</ele>
        <time>2021-05-08T07:53:15.152Z</time>
      </trkpt>
      <trkpt lat="45.6883" lon="5.25658">
        <ele>351</ele>
        <time>2021-05-08T07:53:16.152Z</time>
      </trkpt>
      <trkpt lat="45.68835" lon="5.2565">
        <ele>351</ele>
        <time>2021-05-08T07:53:17.152Z</time>
      </trkpt>
      <trkpt lat="45.6884" lon="5.2564">
        <ele>351</ele>
        <time>2021-05-08T07:53:18.152Z</time>
      </trkpt>
      <trkpt lat="45.68845" lon="5.25631">
        <ele>351</ele>
        <time>2021-05-08T07:53:19.152Z</time>
      </trkpt>
      <trkpt lat="45.68849" lon="5.25623">
        <ele>351</ele>
        <time>2021-05-08T07:53:20.152Z</time>
      </trkpt>
      <trkpt lat="45.68852" lon="5.25616">
        <ele>352</ele>
        <time>2021-05-08T07:53:21.152Z</time>
      </trkpt>
      <trkpt lat="45.68857" lon="5.25605">
        <ele>353</ele>
        <time>2021-05-08T07:53:22.152Z</time>
      </trkpt>
      <trkpt lat="45.6886" lon="5.25596">
        <ele>354</ele>
        <time>2021-05-08T07:53:23.152Z</time>
      </trkpt>
      <trkpt lat="45.68863" lon="5.25587">
        <ele>354</ele>
        <time>2021-05-08T07:53:24.152Z</time>
      </trkpt>
      <trkpt lat="45.68865" lon="5.25579">
        <ele>354</ele>
        <time>2021-05-08T07:53:25.152Z</time>
      </trkpt>
      <trkpt lat="45.68866" lon="5.2557">
        <ele>354</ele>
        <time>2021-05-08T07:53:26.152Z</time>
      </trkpt>
      <trkpt lat="45.68867" lon="5.25561">
        <ele>355</ele>
        <time>2021-05-08T07:53:27.152Z</time>
      </trkpt>
      <trkpt lat="45.68868" lon="5.25552">
        <ele>355</ele>
        <time>2021-05-08T07:53:28.152Z</time>
      </trkpt>
      <trkpt lat="45.68868" lon="5.25543">
        <ele>356</ele>
        <time>2021-05-08T07:53:29.152Z</time>
      </trkpt>
      <trkpt lat="45.68869" lon="5.25534">
        <ele>356</ele>
        <time>2021-05-08T07:53:30.152Z</time>
      </trkpt>
      <trkpt lat="45.68869" lon="5.25526">
        <ele>357</ele>
        <time>2021-05-08T07:53:31.152Z</time>
      </trkpt>
      <trkpt lat="45.68868" lon="5.25516">
        <ele>357</ele>
        <time>2021-05-08T07:53:32.152Z</time>
      </trkpt>
      <trkpt lat="45.68868" lon="5.25506">
        <ele>357</ele>
        <time>2021-05-08T07:53:33.152Z</time>
      </trkpt>
      <trkpt lat="45.68867" lon="5.25497">
        <ele>357</ele>
        <time>2021-05-08T07:53:34.152Z</time>
      </trkpt>
      <trkpt lat="45.68866" lon="5.25489">
        <ele>357</ele>
        <time>2021-05-08T07:53:35.152Z</time>
      </trkpt>
      <trkpt lat="45.68865" lon="5.25478">
        <ele>357</ele>
        <time>2021-05-08T07:53:36.152Z</time>
      </trkpt>
      <trkpt lat="45.68864" lon="5.25469">
        <ele>357</ele>
        <time>2021-05-08T07:53:37.152Z</time>
      </trkpt>
      <trkpt lat="45.68862" lon="5.2546">
        <ele>357</ele>
        <time>2021-05-08T07:53:38.152Z</time>
      </trkpt>
      <trkpt lat="45.68859" lon="5.25453">
        <ele>357</ele>
        <time>2021-05-08T07:53:39.152Z</time>
      </trkpt>
      <trkpt lat="45.68857" lon="5.25448">
        <ele>357</ele>
        <time>2021-05-08T07:53:40.152Z</time>
      </trkpt>
      <trkpt lat="45.68852" lon="5.2544">
        <ele>357</ele>
        <time>2021-05-08T07:53:41.152Z</time>
      </trkpt>
      <trkpt lat="45.68848" lon="5.25435">
        <ele>357</ele>
        <time>2021-05-08T07:53:42.152Z</time>
      </trkpt>
      <trkpt lat="45.68844" lon="5.25429">
        <ele>357</ele>
        <time>2021-05-08T07:53:43.152Z</time>
      </trkpt>
      <trkpt lat="45.6884" lon="5.25424">
        <ele>357</ele>
        <time>2021-05-08T07:53:44.152Z</time>
      </trkpt>
      <trkpt lat="45.68836" lon="5.25418">
        <ele>358</ele>
        <time>2021-05-08T07:53:45.152Z</time>
      </trkpt>
      <trkpt lat="45.68831" lon="5.25411">
        <ele>358</ele>
        <time>2021-05-08T07:53:46.152Z</time>
      </trkpt>
      <trkpt lat="45.68826" lon="5.25404">
        <ele>358</ele>
        <time>2021-05-08T07:53:47.152Z</time>
      </trkpt>
      <trkpt lat="45.68821" lon="5.25397">
        <ele>358</ele>
        <time>2021-05-08T07:53:48.152Z</time>
      </trkpt>
      <trkpt lat="45.68814" lon="5.25389">
        <ele>359</ele>
        <time>2021-05-08T07:53:49.152Z</time>
      </trkpt>
      <trkpt lat="45.68808" lon="5.25382">
        <ele>359</ele>
        <time>2021-05-08T07:53:50.152Z</time>
      </trkpt>
      <trkpt lat="45.68801" lon="5.25376">
        <ele>359</ele>
        <time>2021-05-08T07:53:51.152Z</time>
      </trkpt>
      <trkpt lat="45.68792" lon="5.25368">
        <ele>358</ele>
        <time>2021-05-08T07:53:52.152Z</time>
      </trkpt>
      <trkpt lat="45.68784" lon="5.25362">
        <ele>358</ele>
        <time>2021-05-08T07:53:53.152Z</time>
      </trkpt>
      <trkpt lat="45.68778" lon="5.25357">
        <ele>358</ele>
        <time>2021-05-08T07:53:54.152Z</time>
      </trkpt>
      <trkpt lat="45.6877" lon="5.2535">
        <ele>358</ele>
        <time>2021-05-08T07:53:55.152Z</time>
      </trkpt>
      <trkpt lat="45.68761" lon="5.25343">
        <ele>357</ele>
        <time>2021-05-08T07:53:56.152Z</time>
      </trkpt>
      <trkpt lat="45.6875" lon="5.25335">
        <ele>357</ele>
        <time>2021-05-08T07:53:57.152Z</time>
      </trkpt>
      <trkpt lat="45.68743" lon="5.2533">
        <ele>356</ele>
        <time>2021-05-08T07:53:58.152Z</time>
      </trkpt>
      <trkpt lat="45.68732" lon="5.25324">
        <ele>356</ele>
        <time>2021-05-08T07:53:59.152Z</time>
      </trkpt>
      <trkpt lat="45.68722" lon="5.25319">
        <ele>355</ele>
        <time>2021-05-08T07:54:00.152Z</time>
      </trkpt>
      <trkpt lat="45.68711" lon="5.25315">
        <ele>355</ele>
        <time>2021-05-08T07:54:01.152Z</time>
      </trkpt>
      <trkpt lat="45.68697" lon="5.25312">
        <ele>354</ele>
        <time>2021-05-08T07:54:02.152Z</time>
      </trkpt>
      <trkpt lat="45.68685" lon="5.2531">
        <ele>353</ele>
        <time>2021-05-08T07:54:03.152Z</time>
      </trkpt>
      <trkpt lat="45.68676" lon="5.25309">
        <ele>353</ele>
        <time>2021-05-08T07:54:04.152Z</time>
      </trkpt>
      <trkpt lat="45.68665" lon="5.25308">
        <ele>352</ele>
        <time>2021-05-08T07:54:05.152Z</time>
      </trkpt>
      <trkpt lat="45.68654" lon="5.25307">
        <ele>351</ele>
        <time>2021-05-08T07:54:06.152Z</time>
      </trkpt>
      <trkpt lat="45.68643" lon="5.25304">
        <ele>351</ele>
        <time>2021-05-08T07:54:07.152Z</time>
      </trkpt>
      <trkpt lat="45.68633" lon="5.25302">
        <ele>350</ele>
        <time>2021-05-08T07:54:08.152Z</time>
      </trkpt>
      <trkpt lat="45.68625" lon="5.253">
        <ele>349</ele>
        <time>2021-05-08T07:54:09.152Z</time>
      </trkpt>
      <trkpt lat="45.68617" lon="5.25298">
        <ele>349</ele>
        <time>2021-05-08T07:54:10.152Z</time>
      </trkpt>
      <trkpt lat="45.6861" lon="5.25297">
        <ele>349</ele>
        <time>2021-05-08T07:54:11.152Z</time>
      </trkpt>
      <trkpt lat="45.68604" lon="5.25296">
        <ele>348</ele>
        <time>2021-05-08T07:54:12.152Z</time>
      </trkpt>
      <trkpt lat="45.68598" lon="5.25298">
        <ele>348</ele>
        <time>2021-05-08T07:54:13.152Z</time>
      </trkpt>
      <trkpt lat="45.68591" lon="5.253">
        <ele>347</ele>
        <time>2021-05-08T07:54:14.152Z</time>
      </trkpt>
      <trkpt lat="45.68585" lon="5.25304">
        <ele>347</ele>
        <time>2021-05-08T07:54:15.152Z</time>
      </trkpt>
      <trkpt lat="45.68578" lon="5.25309">
        <ele>346</ele>
        <time>2021-05-08T07:54:16.152Z</time>
      </trkpt>
      <trkpt lat="45.68571" lon="5.25314">
        <ele>346</ele>
        <time>2021-05-08T07:54:17.152Z</time>
      </trkpt>
      <trkpt lat="45.68564" lon="5.25319">
        <ele>346</ele>
        <time>2021-05-08T07:54:18.152Z</time>
      </trkpt>
      <trkpt lat="45.68556" lon="5.25325">
        <ele>345</ele>
        <time>2021-05-08T07:54:19.152Z</time>
      </trkpt>
      <trkpt lat="45.68548" lon="5.25332">
        <ele>344</ele>
        <time>2021-05-08T07:54:20.152Z</time>
      </trkpt>
      <trkpt lat="45.6854" lon="5.25338">
        <ele>344</ele>
        <time>2021-05-08T07:54:21.152Z</time>
      </trkpt>
      <trkpt lat="45.68531" lon="5.25344">
        <ele>344</ele>
        <time>2021-05-08T07:54:22.152Z</time>
      </trkpt>
      <trkpt lat="45.68522" lon="5.25351">
        <ele>343</ele>
        <time>2021-05-08T07:54:23.152Z</time>
      </trkpt>
      <trkpt lat="45.68513" lon="5.25358">
        <ele>343</ele>
        <time>2021-05-08T07:54:24.152Z</time>
      </trkpt>
      <trkpt lat="45.68504" lon="5.25364">
        <ele>342</ele>
        <time>2021-05-08T07:54:25.152Z</time>
      </trkpt>
      <trkpt lat="45.68495" lon="5.25371">
        <ele>342</ele>
        <time>2021-05-08T07:54:26.152Z</time>
      </trkpt>
      <trkpt lat="45.68485" lon="5.25378">
        <ele>342</ele>
        <time>2021-05-08T07:54:27.152Z</time>
      </trkpt>
      <trkpt lat="45.68475" lon="5.25384">
        <ele>342</ele>
        <time>2021-05-08T07:54:28.152Z</time>
      </trkpt>
      <trkpt lat="45.68466" lon="5.25391">
        <ele>342</ele>
        <time>2021-05-08T07:54:29.152Z</time>
      </trkpt>
      <trkpt lat="45.68456" lon="5.25398">
        <ele>342</ele>
        <time>2021-05-08T07:54:30.152Z</time>
      </trkpt>
      <trkpt lat="45.68447" lon="5.25404">
        <ele>342</ele>
        <time>2021-05-08T07:54:31.152Z</time>
      </trkpt>
      <trkpt lat="45.68437" lon="5.25411">
        <ele>342</ele>
        <time>2021-05-08T07:54:32.152Z</time>
      </trkpt>
      <trkpt lat="45.68425" lon="5.25419">
        <ele>341</ele>
        <time>2021-05-08T07:54:33.152Z</time>
      </trkpt>
      <trkpt lat="45.68417" lon="5.25424">
        <ele>341</ele>
        <time>2021-05-08T07:54:34.152Z</time>
      </trkpt>
      <trkpt lat="45.68407" lon="5.25431">
        <ele>341</ele>
        <time>2021-05-08T07:54:35.152Z</time>
      </trkpt>
      <trkpt lat="45.68398" lon="5.25438">
        <ele>341</ele>
        <time>2021-05-08T07:54:36.152Z</time>
      </trkpt>
      <trkpt lat="45.68388" lon="5.25445">
        <ele>341</ele>
        <time>2021-05-08T07:54:37.152Z</time>
      </trkpt>
      <trkpt lat="45.68379" lon="5.25451">
        <ele>341</ele>
        <time>2021-05-08T07:54:38.152Z</time>
      </trkpt>
      <trkpt lat="45.68369" lon="5.25458">
        <ele>341</ele>
        <time>2021-05-08T07:54:39.152Z</time>
      </trkpt>
      <trkpt lat="45.68359" lon="5.25465">
        <ele>341</ele>
        <time>2021-05-08T07:54:40.152Z</time>
      </trkpt>
      <trkpt lat="45.6835" lon="5.25471">
        <ele>340</ele>
        <time>2021-05-08T07:54:41.152Z</time>
      </trkpt>
      <trkpt lat="45.6834" lon="5.25477">
        <ele>340</ele>
        <time>2021-05-08T07:54:42.152Z</time>
      </trkpt>
      <trkpt lat="45.68331" lon="5.25484">
        <ele>340</ele>
        <time>2021-05-08T07:54:43.152Z</time>
      </trkpt>
      <trkpt lat="45.68322" lon="5.2549">
        <ele>339</ele>
        <time>2021-05-08T07:54:44.152Z</time>
      </trkpt>
      <trkpt lat="45.68312" lon="5.25496">
        <ele>339</ele>
        <time>2021-05-08T07:54:45.152Z</time>
      </trkpt>
      <trkpt lat="45.68303" lon="5.25502">
        <ele>339</ele>
        <time>2021-05-08T07:54:46.152Z</time>
      </trkpt>
      <trkpt lat="45.68295" lon="5.25508">
        <ele>339</ele>
        <time>2021-05-08T07:54:47.152Z</time>
      </trkpt>
      <trkpt lat="45.68286" lon="5.25514">
        <ele>339</ele>
        <time>2021-05-08T07:54:48.152Z</time>
      </trkpt>
      <trkpt lat="45.68278" lon="5.25519">
        <ele>340</ele>
        <time>2021-05-08T07:54:49.152Z</time>
      </trkpt>
      <trkpt lat="45.68269" lon="5.25525">
        <ele>340</ele>
        <time>2021-05-08T07:54:50.152Z</time>
      </trkpt>
      <trkpt lat="45.68261" lon="5.25531">
        <ele>341</ele>
        <time>2021-05-08T07:54:51.152Z</time>
      </trkpt>
      <trkpt lat="45.68254" lon="5.25536">
        <ele>341</ele>
        <time>2021-05-08T07:54:52.152Z</time>
      </trkpt>
      <trkpt lat="45.68246" lon="5.25541">
        <ele>342</ele>
        <time>2021-05-08T07:54:53.152Z</time>
      </trkpt>
      <trkpt lat="45.68238" lon="5.25546">
        <ele>343</ele>
        <time>2021-05-08T07:54:54.152Z</time>
      </trkpt>
      <trkpt lat="45.68231" lon="5.25551">
        <ele>343</ele>
        <time>2021-05-08T07:54:55.152Z</time>
      </trkpt>
      <trkpt lat="45.68224" lon="5.25556">
        <ele>343</ele>
        <time>2021-05-08T07:54:56.152Z</time>
      </trkpt>
      <trkpt lat="45.68216" lon="5.2556">
        <ele>342</ele>
        <time>2021-05-08T07:54:57.152Z</time>
      </trkpt>
      <trkpt lat="45.68209" lon="5.25565">
        <ele>342</ele>
        <time>2021-05-08T07:54:58.152Z</time>
      </trkpt>
      <trkpt lat="45.68202" lon="5.2557">
        <ele>343</ele>
        <time>2021-05-08T07:54:59.152Z</time>
      </trkpt>
      <trkpt lat="45.68195" lon="5.25574">
        <ele>343</ele>
        <time>2021-05-08T07:55:00.152Z</time>
      </trkpt>
      <trkpt lat="45.68188" lon="5.25579">
        <ele>344</ele>
        <time>2021-05-08T07:55:01.152Z</time>
      </trkpt>
      <trkpt lat="45.68181" lon="5.25584">
        <ele>345</ele>
        <time>2021-05-08T07:55:02.152Z</time>
      </trkpt>
      <trkpt lat="45.68174" lon="5.25589">
        <ele>345</ele>
        <time>2021-05-08T07:55:03.152Z</time>
      </trkpt>
      <trkpt lat="45.68167" lon="5.25594">
        <ele>346</ele>
        <time>2021-05-08T07:55:04.152Z</time>
      </trkpt>
      <trkpt lat="45.6816" lon="5.25599">
        <ele>346</ele>
        <time>2021-05-08T07:55:05.152Z</time>
      </trkpt>
      <trkpt lat="45.68152" lon="5.25604">
        <ele>346</ele>
        <time>2021-05-08T07:55:06.152Z</time>
      </trkpt>
      <trkpt lat="45.68145" lon="5.25608">
        <ele>346</ele>
        <time>2021-05-08T07:55:07.152Z</time>
      </trkpt>
      <trkpt lat="45.68139" lon="5.25613">
        <ele>346</ele>
        <time>2021-05-08T07:55:08.152Z</time>
      </trkpt>
      <trkpt lat="45.68132" lon="5.25617">
        <ele>347</ele>
        <time>2021-05-08T07:55:09.152Z</time>
      </trkpt>
      <trkpt lat="45.68125" lon="5.25622">
        <ele>347</ele>
        <time>2021-05-08T07:55:10.152Z</time>
      </trkpt>
      <trkpt lat="45.68119" lon="5.25626">
        <ele>348</ele>
        <time>2021-05-08T07:55:11.152Z</time>
      </trkpt>
      <trkpt lat="45.68112" lon="5.2563">
        <ele>349</ele>
        <time>2021-05-08T07:55:12.152Z</time>
      </trkpt>
      <trkpt lat="45.68105" lon="5.25635">
        <ele>349</ele>
        <time>2021-05-08T07:55:13.152Z</time>
      </trkpt>
      <trkpt lat="45.68099" lon="5.2564">
        <ele>349</ele>
        <time>2021-05-08T07:55:14.152Z</time>
      </trkpt>
      <trkpt lat="45.68092" lon="5.25645">
        <ele>349</ele>
        <time>2021-05-08T07:55:15.152Z</time>
      </trkpt>
      <trkpt lat="45.68085" lon="5.25649">
        <ele>349</ele>
        <time>2021-05-08T07:55:16.152Z</time>
      </trkpt>
      <trkpt lat="45.68078" lon="5.25654">
        <ele>349</ele>
        <time>2021-05-08T07:55:17.152Z</time>
      </trkpt>
      <trkpt lat="45.68071" lon="5.25658">
        <ele>349</ele>
        <time>2021-05-08T07:55:18.152Z</time>
      </trkpt>
      <trkpt lat="45.68064" lon="5.25663">
        <ele>349</ele>
        <time>2021-05-08T07:55:19.152Z</time>
      </trkpt>
      <trkpt lat="45.68058" lon="5.25667">
        <ele>349</ele>
        <time>2021-05-08T07:55:20.152Z</time>
      </trkpt>
      <trkpt lat="45.68052" lon="5.25671">
        <ele>350</ele>
        <time>2021-05-08T07:55:21.152Z</time>
      </trkpt>
      <trkpt lat="45.68046" lon="5.25674">
        <ele>350</ele>
        <time>2021-05-08T07:55:22.152Z</time>
      </trkpt>
      <trkpt lat="45.68041" lon="5.25677">
        <ele>350</ele>
        <time>2021-05-08T07:55:23.152Z</time>
      </trkpt>
      <trkpt lat="45.68036" lon="5.2568">
        <ele>351</ele>
        <time>2021-05-08T07:55:24.152Z</time>
      </trkpt>
      <trkpt lat="45.68031" lon="5.25683">
        <ele>351</ele>
        <time>2021-05-08T07:55:25.152Z</time>
      </trkpt>
      <trkpt lat="45.68026" lon="5.25686">
        <ele>351</ele>
        <time>2021-05-08T07:55:26.152Z</time>
      </trkpt>
      <trkpt lat="45.68022" lon="5.25689">
        <ele>351</ele>
        <time>2021-05-08T07:55:27.152Z</time>
      </trkpt>
      <trkpt lat="45.68017" lon="5.25692">
        <ele>351</ele>
        <time>2021-05-08T07:55:28.152Z</time>
      </trkpt>
      <trkpt lat="45.68013" lon="5.25695">
        <ele>351</ele>
        <time>2021-05-08T07:55:29.152Z</time>
      </trkpt>
      <trkpt lat="45.68008" lon="5.25698">
        <ele>351</ele>
        <time>2021-05-08T07:55:30.152Z</time>
      </trkpt>
      <trkpt lat="45.68003" lon="5.25702">
        <ele>351</ele>
        <time>2021-05-08T07:55:31.152Z</time>
      </trkpt>
      <trkpt lat="45.67998" lon="5.25706">
        <ele>351</ele>
        <time>2021-05-08T07:55:32.152Z</time>
      </trkpt>
      <trkpt lat="45.67994" lon="5.2571">
        <ele>351</ele>
        <time>2021-05-08T07:55:33.152Z</time>
      </trkpt>
      <trkpt lat="45.67989" lon="5.25716">
        <ele>351</ele>
        <time>2021-05-08T07:55:34.152Z</time>
      </trkpt>
      <trkpt lat="45.67985" lon="5.25723">
        <ele>351</ele>
        <time>2021-05-08T07:55:35.152Z</time>
      </trkpt>
      <trkpt lat="45.67982" lon="5.25731">
        <ele>351</ele>
        <time>2021-05-08T07:55:36.152Z</time>
      </trkpt>
      <trkpt lat="45.67981" lon="5.2574">
        <ele>350</ele>
        <time>2021-05-08T07:55:37.152Z</time>
      </trkpt>
      <trkpt lat="45.6798" lon="5.25749">
        <ele>350</ele>
        <time>2021-05-08T07:55:38.152Z</time>
      </trkpt>
      <trkpt lat="45.6798" lon="5.25759">
        <ele>350</ele>
        <time>2021-05-08T07:55:39.152Z</time>
      </trkpt>
      <trkpt lat="45.67982" lon="5.25768">
        <ele>350</ele>
        <time>2021-05-08T07:55:40.152Z</time>
      </trkpt>
      <trkpt lat="45.67984" lon="5.25778">
        <ele>350</ele>
        <time>2021-05-08T07:55:41.152Z</time>
      </trkpt>
      <trkpt lat="45.67985" lon="5.25787">
        <ele>350</ele>
        <time>2021-05-08T07:55:42.152Z</time>
      </trkpt>
      <trkpt lat="45.67987" lon="5.25796">
        <ele>350</ele>
        <time>2021-05-08T07:55:43.152Z</time>
      </trkpt>
      <trkpt lat="45.67989" lon="5.25805">
        <ele>350</ele>
        <time>2021-05-08T07:55:44.152Z</time>
      </trkpt>
      <trkpt lat="45.67991" lon="5.25814">
        <ele>350</ele>
        <time>2021-05-08T07:55:45.152Z</time>
      </trkpt>
      <trkpt lat="45.67993" lon="5.25822">
        <ele>351</ele>
        <time>2021-05-08T07:55:46.152Z</time>
      </trkpt>
      <trkpt lat="45.67995" lon="5.2583">
        <ele>351</ele>
        <time>2021-05-08T07:55:47.152Z</time>
      </trkpt>
      <trkpt lat="45.67997" lon="5.25837">
        <ele>351</ele>
        <time>2021-05-08T07:55:48.152Z</time>
      </trkpt>
      <trkpt lat="45.67998" lon="5.25845">
        <ele>351</ele>
        <time>2021-05-08T07:55:49.152Z</time>
      </trkpt>
      <trkpt lat="45.68" lon="5.25852">
        <ele>351</ele>
        <time>2021-05-08T07:55:50.152Z</time>
      </trkpt>
      <trkpt lat="45.68001" lon="5.25859">
        <ele>350</ele>
        <time>2021-05-08T07:55:51.152Z</time>
      </trkpt>
      <trkpt lat="45.68003" lon="5.25866">
        <ele>351</ele>
        <time>2021-05-08T07:55:52.152Z</time>
      </trkpt>
      <trkpt lat="45.68004" lon="5.25874">
        <ele>351</ele>
        <time>2021-05-08T07:55:53.152Z</time>
      </trkpt>
      <trkpt lat="45.68006" lon="5.25881">
        <ele>352</ele>
        <time>2021-05-08T07:55:54.152Z</time>
      </trkpt>
      <trkpt lat="45.68007" lon="5.25888">
        <ele>352</ele>
        <time>2021-05-08T07:55:55.152Z</time>
      </trkpt>
      <trkpt lat="45.68009" lon="5.25895">
        <ele>352</ele>
        <time>2021-05-08T07:55:56.152Z</time>
      </trkpt>
      <trkpt lat="45.6801" lon="5.25903">
        <ele>352</ele>
        <time>2021-05-08T07:55:57.152Z</time>
      </trkpt>
      <trkpt lat="45.68012" lon="5.2591">
        <ele>352</ele>
        <time>2021-05-08T07:55:58.152Z</time>
      </trkpt>
      <trkpt lat="45.68013" lon="5.25917">
        <ele>352</ele>
        <time>2021-05-08T07:55:59.152Z</time>
      </trkpt>
      <trkpt lat="45.68014" lon="5.25924">
        <ele>352</ele>
        <time>2021-05-08T07:56:00.152Z</time>
      </trkpt>
      <trkpt lat="45.68015" lon="5.2593">
        <ele>352</ele>
        <time>2021-05-08T07:56:01.152Z</time>
      </trkpt>
      <trkpt lat="45.68016" lon="5.25936">
        <ele>351</ele>
        <time>2021-05-08T07:56:02.152Z</time>
      </trkpt>
      <trkpt lat="45.68017" lon="5.25942">
        <ele>351</ele>
        <time>2021-05-08T07:56:03.152Z</time>
      </trkpt>
      <trkpt lat="45.68018" lon="5.25948">
        <ele>351</ele>
        <time>2021-05-08T07:56:04.152Z</time>
      </trkpt>
      <trkpt lat="45.6802" lon="5.25953">
        <ele>351</ele>
        <time>2021-05-08T07:56:05.152Z</time>
      </trkpt>
      <trkpt lat="45.68021" lon="5.25958">
        <ele>351</ele>
        <time>2021-05-08T07:56:06.152Z</time>
      </trkpt>
      <trkpt lat="45.68022" lon="5.25963">
        <ele>351</ele>
        <time>2021-05-08T07:56:07.152Z</time>
      </trkpt>
      <trkpt lat="45.68023" lon="5.25969">
        <ele>351</ele>
        <time>2021-05-08T07:56:08.152Z</time>
      </trkpt>
      <trkpt lat="45.68023" lon="5.25974">
        <ele>351</ele>
        <time>2021-05-08T07:56:09.152Z</time>
      </trkpt>
      <trkpt lat="45.68024" lon="5.25979">
        <ele>351</ele>
        <time>2021-05-08T07:56:10.152Z</time>
      </trkpt>
      <trkpt lat="45.68024" lon="5.25985">
        <ele>350</ele>
        <time>2021-05-08T07:56:11.152Z</time>
      </trkpt>
      <trkpt lat="45.68025" lon="5.2599">
        <ele>350</ele>
        <time>2021-05-08T07:56:12.152Z</time>
      </trkpt>
      <trkpt lat="45.68026" lon="5.25996">
        <ele>350</ele>
        <time>2021-05-08T07:56:13.152Z</time>
      </trkpt>
      <trkpt lat="45.68027" lon="5.26001">
        <ele>350</ele>
        <time>2021-05-08T07:56:14.152Z</time>
      </trkpt>
      <trkpt lat="45.68028" lon="5.26007">
        <ele>350</ele>
        <time>2021-05-08T07:56:15.152Z</time>
      </trkpt>
      <trkpt lat="45.68028" lon="5.26012">
        <ele>350</ele>
        <time>2021-05-08T07:56:16.152Z</time>
      </trkpt>
      <trkpt lat="45.68029" lon="5.26018">
        <ele>350</ele>
        <time>2021-05-08T07:56:17.152Z</time>
      </trkpt>
      <trkpt lat="45.6803" lon="5.26023">
        <ele>350</ele>
        <time>2021-05-08T07:56:18.152Z</time>
      </trkpt>
      <trkpt lat="45.68031" lon="5.26029">
        <ele>350</ele>
        <time>2021-05-08T07:56:19.152Z</time>
      </trkpt>
      <trkpt lat="45.68032" lon="5.26035">
        <ele>350</ele>
        <time>2021-05-08T07:56:20.152Z</time>
      </trkpt>
      <trkpt lat="45.68033" lon="5.26041">
        <ele>350</ele>
        <time>2021-05-08T07:56:21.152Z</time>
      </trkpt>
      <trkpt lat="45.68034" lon="5.26047">
        <ele>350</ele>
        <time>2021-05-08T07:56:22.152Z</time>
      </trkpt>
      <trkpt lat="45.68035" lon="5.26054">
        <ele>350</ele>
        <time>2021-05-08T07:56:23.152Z</time>
      </trkpt>
      <trkpt lat="45.68036" lon="5.26061">
        <ele>350</ele>
        <time>2021-05-08T07:56:24.152Z</time>
      </trkpt>
      <trkpt lat="45.68037" lon="5.26067">
        <ele>350</ele>
        <time>2021-05-08T07:56:25.152Z</time>
      </trkpt>
      <trkpt lat="45.68038" lon="5.26074">
        <ele>350</ele>
        <time>2021-05-08T07:56:26.152Z</time>
      </trkpt>
      <trkpt lat="45.68039" lon="5.26081">
        <ele>350</ele>
        <time>2021-05-08T07:56:27.152Z</time>
      </trkpt>
      <trkpt lat="45.6804" lon="5.26088">
        <ele>350</ele>
        <time>2021-05-08T07:56:28.152Z</time>
      </trkpt>
      <trkpt lat="45.68041" lon="5.26095">
        <ele>350</ele>
        <time>2021-05-08T07:56:29.152Z</time>
      </trkpt>
      <trkpt lat="45.68042" lon="5.26102">
        <ele>350</ele>
        <time>2021-05-08T07:56:30.152Z</time>
      </trkpt>
      <trkpt lat="45.68043" lon="5.26109">
        <ele>351</ele>
        <time>2021-05-08T07:56:31.152Z</time>
      </trkpt>
      <trkpt lat="45.68044" lon="5.26117">
        <ele>351</ele>
        <time>2021-05-08T07:56:32.152Z</time>
      </trkpt>
      <trkpt lat="45.68046" lon="5.26124">
        <ele>351</ele>
        <time>2021-05-08T07:56:33.152Z</time>
      </trkpt>
      <trkpt lat="45.68047" lon="5.26131">
        <ele>351</ele>
        <time>2021-05-08T07:56:34.152Z</time>
      </trkpt>
      <trkpt lat="45.68048" lon="5.26139">
        <ele>351</ele>
        <time>2021-05-08T07:56:35.152Z</time>
      </trkpt>
      <trkpt lat="45.68048" lon="5.26146">
        <ele>351</ele>
        <time>2021-05-08T07:56:36.152Z</time>
      </trkpt>
      <trkpt lat="45.68049" lon="5.26154">
        <ele>351</ele>
        <time>2021-05-08T07:56:37.152Z</time>
      </trkpt>
      <trkpt lat="45.6805" lon="5.26161">
        <ele>351</ele>
        <time>2021-05-08T07:56:38.152Z</time>
      </trkpt>
      <trkpt lat="45.6805" lon="5.26169">
        <ele>351</ele>
        <time>2021-05-08T07:56:39.152Z</time>
      </trkpt>
      <trkpt lat="45.68051" lon="5.26176">
        <ele>351</ele>
        <time>2021-05-08T07:56:40.152Z</time>
      </trkpt>
      <trkpt lat="45.68051" lon="5.26184">
        <ele>350</ele>
        <time>2021-05-08T07:56:41.152Z</time>
      </trkpt>
      <trkpt lat="45.68051" lon="5.26191">
        <ele>350</ele>
        <time>2021-05-08T07:56:42.152Z</time>
      </trkpt>
      <trkpt lat="45.68051" lon="5.26198">
        <ele>350</ele>
        <time>2021-05-08T07:56:43.152Z</time>
      </trkpt>
      <trkpt lat="45.68051" lon="5.26206">
        <ele>350</ele>
        <time>2021-05-08T07:56:44.152Z</time>
      </trkpt>
      <trkpt lat="45.68051" lon="5.26212">
        <ele>350</ele>
        <time>2021-05-08T07:56:45.152Z</time>
      </trkpt>
      <trkpt lat="45.68051" lon="5.26218">
        <ele>350</ele>
        <time>2021-05-08T07:56:46.152Z</time>
      </trkpt>
      <trkpt lat="45.68051" lon="5.26225">
        <ele>350</ele>
        <time>2021-05-08T07:56:47.152Z</time>
      </trkpt>
      <trkpt lat="45.68051" lon="5.26232">
        <ele>349</ele>
        <time>2021-05-08T07:56:48.152Z</time>
      </trkpt>
      <trkpt lat="45.6805" lon="5.26238">
        <ele>349</ele>
        <time>2021-05-08T07:56:49.152Z</time>
      </trkpt>
      <trkpt lat="45.6805" lon="5.26245">
        <ele>349</ele>
        <time>2021-05-08T07:56:50.152Z</time>
      </trkpt>
      <trkpt lat="45.6805" lon="5.26252">
        <ele>350</ele>
        <time>2021-05-08T07:56:51.152Z</time>
      </trkpt>
      <trkpt lat="45.68051" lon="5.26258">
        <ele>350</ele>
        <time>2021-05-08T07:56:52.152Z</time>
      </trkpt>
      <trkpt lat="45.68051" lon="5.26265">
        <ele>350</ele>
        <time>2021-05-08T07:56:53.152Z</time>
      </trkpt>
      <trkpt lat="45.68051" lon="5.26271">
        <ele>351</ele>
        <time>2021-05-08T07:56:54.152Z</time>
      </trkpt>
      <trkpt lat="45.68051" lon="5.26277">
        <ele>351</ele>
        <time>2021-05-08T07:56:55.152Z</time>
      </trkpt>
      <trkpt lat="45.68051" lon="5.26283">
        <ele>351</ele>
        <time>2021-05-08T07:56:56.152Z</time>
      </trkpt>
      <trkpt lat="45.68051" lon="5.26288">
        <ele>351</ele>
        <time>2021-05-08T07:56:57.152Z</time>
      </trkpt>
      <trkpt lat="45.68051" lon="5.26293">
        <ele>352</ele>
        <time>2021-05-08T07:56:58.152Z</time>
      </trkpt>
      <trkpt lat="45.68051" lon="5.26297">
        <ele>352</ele>
        <time>2021-05-08T07:56:59.152Z</time>
      </trkpt>
      <trkpt lat="45.68051" lon="5.26299">
        <ele>351</ele>
        <time>2021-05-08T07:57:00.152Z</time>
      </trkpt>
      <trkpt lat="45.68051" lon="5.26299">
        <ele>351</ele>
        <time>2021-05-08T07:57:01.152Z</time>
      </trkpt>
      <trkpt lat="45.68051" lon="5.263">
        <ele>351</ele>
        <time>2021-05-08T07:57:02.152Z</time>
      </trkpt>
      <trkpt lat="45.68051" lon="5.263">
        <ele>351</ele>
        <time>2021-05-08T07:57:03.152Z</time>
      </trkpt>
      <trkpt lat="45.68051" lon="5.263">
        <ele>352</ele>
        <time>2021-05-08T07:57:04.152Z</time>
      </trkpt>
      <trkpt lat="45.68054" lon="5.263">
        <ele>356</ele>
        <time>2021-05-08T07:57:05.152Z</time>
      </trkpt>
      <trkpt lat="45.68054" lon="5.26304">
        <ele>355</ele>
        <time>2021-05-08T07:57:06.152Z</time>
      </trkpt>
      <trkpt lat="45.68054" lon="5.2631">
        <ele>355</ele>
        <time>2021-05-08T07:57:07.152Z</time>
      </trkpt>
      <trkpt lat="45.68054" lon="5.26316">
        <ele>355</ele>
        <time>2021-05-08T07:57:08.153Z</time>
      </trkpt>
      <trkpt lat="45.68054" lon="5.26323">
        <ele>354</ele>
        <time>2021-05-08T07:57:09.152Z</time>
      </trkpt>
      <trkpt lat="45.68054" lon="5.26331">
        <ele>354</ele>
        <time>2021-05-08T07:57:10.152Z</time>
      </trkpt>
      <trkpt lat="45.68054" lon="5.26339">
        <ele>354</ele>
        <time>2021-05-08T07:57:11.152Z</time>
      </trkpt>
      <trkpt lat="45.68055" lon="5.26348">
        <ele>353</ele>
        <time>2021-05-08T07:57:12.153Z</time>
      </trkpt>
      <trkpt lat="45.68055" lon="5.26356">
        <ele>353</ele>
        <time>2021-05-08T07:57:13.153Z</time>
      </trkpt>
      <trkpt lat="45.68056" lon="5.26366">
        <ele>353</ele>
        <time>2021-05-08T07:57:14.152Z</time>
      </trkpt>
      <trkpt lat="45.68056" lon="5.26375">
        <ele>354</ele>
        <time>2021-05-08T07:57:15.152Z</time>
      </trkpt>
      <trkpt lat="45.68057" lon="5.26385">
        <ele>353</ele>
        <time>2021-05-08T07:57:16.152Z</time>
      </trkpt>
      <trkpt lat="45.68058" lon="5.26394">
        <ele>353</ele>
        <time>2021-05-08T07:57:17.153Z</time>
      </trkpt>
      <trkpt lat="45.68059" lon="5.26404">
        <ele>353</ele>
        <time>2021-05-08T07:57:18.153Z</time>
      </trkpt>
      <trkpt lat="45.6806" lon="5.26415">
        <ele>353</ele>
        <time>2021-05-08T07:57:19.153Z</time>
      </trkpt>
      <trkpt lat="45.68061" lon="5.26425">
        <ele>353</ele>
        <time>2021-05-08T07:57:20.153Z</time>
      </trkpt>
      <trkpt lat="45.68062" lon="5.26436">
        <ele>352</ele>
        <time>2021-05-08T07:57:21.153Z</time>
      </trkpt>
      <trkpt lat="45.68064" lon="5.26447">
        <ele>352</ele>
        <time>2021-05-08T07:57:22.153Z</time>
      </trkpt>
      <trkpt lat="45.68065" lon="5.26458">
        <ele>351</ele>
        <time>2021-05-08T07:57:23.152Z</time>
      </trkpt>
      <trkpt lat="45.68066" lon="5.2647">
        <ele>351</ele>
        <time>2021-05-08T07:57:24.153Z</time>
      </trkpt>
      <trkpt lat="45.68066" lon="5.26482">
        <ele>350</ele>
        <time>2021-05-08T07:57:25.153Z</time>
      </trkpt>
      <trkpt lat="45.68066" lon="5.26493">
        <ele>349</ele>
        <time>2021-05-08T07:57:26.152Z</time>
      </trkpt>
      <trkpt lat="45.68065" lon="5.26505">
        <ele>349</ele>
        <time>2021-05-08T07:57:27.153Z</time>
      </trkpt>
      <trkpt lat="45.68063" lon="5.26517">
        <ele>348</ele>
        <time>2021-05-08T07:57:28.153Z</time>
      </trkpt>
      <trkpt lat="45.68059" lon="5.26529">
        <ele>348</ele>
        <time>2021-05-08T07:57:29.153Z</time>
      </trkpt>
      <trkpt lat="45.68055" lon="5.2654">
        <ele>348</ele>
        <time>2021-05-08T07:57:30.153Z</time>
      </trkpt>
      <trkpt lat="45.6805" lon="5.26551">
        <ele>347</ele>
        <time>2021-05-08T07:57:31.152Z</time>
      </trkpt>
      <trkpt lat="45.68044" lon="5.2656">
        <ele>347</ele>
        <time>2021-05-08T07:57:32.153Z</time>
      </trkpt>
      <trkpt lat="45.68037" lon="5.2657">
        <ele>346</ele>
        <time>2021-05-08T07:57:33.153Z</time>
      </trkpt>
      <trkpt lat="45.6803" lon="5.26578">
        <ele>346</ele>
        <time>2021-05-08T07:57:34.152Z</time>
      </trkpt>
      <trkpt lat="45.68023" lon="5.26586">
        <ele>346</ele>
        <time>2021-05-08T07:57:35.153Z</time>
      </trkpt>
      <trkpt lat="45.68015" lon="5.26594">
        <ele>345</ele>
        <time>2021-05-08T07:57:36.153Z</time>
      </trkpt>
      <trkpt lat="45.68008" lon="5.26603">
        <ele>345</ele>
        <time>2021-05-08T07:57:37.153Z</time>
      </trkpt>
      <trkpt lat="45.68" lon="5.26611">
        <ele>345</ele>
        <time>2021-05-08T07:57:38.152Z</time>
      </trkpt>
      <trkpt lat="45.67993" lon="5.2662">
        <ele>345</ele>
        <time>2021-05-08T07:57:39.153Z</time>
      </trkpt>
      <trkpt lat="45.67985" lon="5.26629">
        <ele>344</ele>
        <time>2021-05-08T07:57:40.152Z</time>
      </trkpt>
      <trkpt lat="45.67975" lon="5.26638">
        <ele>344</ele>
        <time>2021-05-08T07:57:41.153Z</time>
      </trkpt>
      <trkpt lat="45.67966" lon="5.26647">
        <ele>344</ele>
        <time>2021-05-08T07:57:42.152Z</time>
      </trkpt>
      <trkpt lat="45.67959" lon="5.26653">
        <ele>343</ele>
        <time>2021-05-08T07:57:43.153Z</time>
      </trkpt>
      <trkpt lat="45.6795" lon="5.26661">
        <ele>342</ele>
        <time>2021-05-08T07:57:44.153Z</time>
      </trkpt>
      <trkpt lat="45.67939" lon="5.2667">
        <ele>341</ele>
        <time>2021-05-08T07:57:45.152Z</time>
      </trkpt>
      <trkpt lat="45.67929" lon="5.26676">
        <ele>340</ele>
        <time>2021-05-08T07:57:46.152Z</time>
      </trkpt>
      <trkpt lat="45.67919" lon="5.26683">
        <ele>340</ele>
        <time>2021-05-08T07:57:47.152Z</time>
      </trkpt>
      <trkpt lat="45.67912" lon="5.26688">
        <ele>339</ele>
        <time>2021-05-08T07:57:48.153Z</time>
      </trkpt>
      <trkpt lat="45.67903" lon="5.26696">
        <ele>338</ele>
        <time>2021-05-08T07:57:49.152Z</time>
      </trkpt>
      <trkpt lat="45.67893" lon="5.26701">
        <ele>338</ele>
        <time>2021-05-08T07:57:50.152Z</time>
      </trkpt>
      <trkpt lat="45.67883" lon="5.26706">
        <ele>338</ele>
        <time>2021-05-08T07:57:51.152Z</time>
      </trkpt>
      <trkpt lat="45.67873" lon="5.26709">
        <ele>337</ele>
        <time>2021-05-08T07:57:52.152Z</time>
      </trkpt>
      <trkpt lat="45.67863" lon="5.26712">
        <ele>337</ele>
        <time>2021-05-08T07:57:53.153Z</time>
      </trkpt>
      <trkpt lat="45.67853" lon="5.26714">
        <ele>337</ele>
        <time>2021-05-08T07:57:54.153Z</time>
      </trkpt>
      <trkpt lat="45.67844" lon="5.26716">
        <ele>336</ele>
        <time>2021-05-08T07:57:55.152Z</time>
      </trkpt>
      <trkpt lat="45.67834" lon="5.26718">
        <ele>336</ele>
        <time>2021-05-08T07:57:56.153Z</time>
      </trkpt>
      <trkpt lat="45.67825" lon="5.26722">
        <ele>336</ele>
        <time>2021-05-08T07:57:57.152Z</time>
      </trkpt>
      <trkpt lat="45.67815" lon="5.26727">
        <ele>336</ele>
        <time>2021-05-08T07:57:58.153Z</time>
      </trkpt>
      <trkpt lat="45.67805" lon="5.26731">
        <ele>336</ele>
        <time>2021-05-08T07:57:59.152Z</time>
      </trkpt>
      <trkpt lat="45.67795" lon="5.26737">
        <ele>336</ele>
        <time>2021-05-08T07:58:00.153Z</time>
      </trkpt>
      <trkpt lat="45.67782" lon="5.26743">
        <ele>335</ele>
        <time>2021-05-08T07:58:01.153Z</time>
      </trkpt>
      <trkpt lat="45.67774" lon="5.26749">
        <ele>335</ele>
        <time>2021-05-08T07:58:02.153Z</time>
      </trkpt>
      <trkpt lat="45.67764" lon="5.26756">
        <ele>334</ele>
        <time>2021-05-08T07:58:03.152Z</time>
      </trkpt>
      <trkpt lat="45.67751" lon="5.26765">
        <ele>334</ele>
        <time>2021-05-08T07:58:04.153Z</time>
      </trkpt>
      <trkpt lat="45.6774" lon="5.26772">
        <ele>333</ele>
        <time>2021-05-08T07:58:05.153Z</time>
      </trkpt>
      <trkpt lat="45.67729" lon="5.26778">
        <ele>332</ele>
        <time>2021-05-08T07:58:06.153Z</time>
      </trkpt>
      <trkpt lat="45.6772" lon="5.26785">
        <ele>331</ele>
        <time>2021-05-08T07:58:07.153Z</time>
      </trkpt>
      <trkpt lat="45.67706" lon="5.26794">
        <ele>331</ele>
        <time>2021-05-08T07:58:08.153Z</time>
      </trkpt>
      <trkpt lat="45.67695" lon="5.26802">
        <ele>329</ele>
        <time>2021-05-08T07:58:09.153Z</time>
      </trkpt>
      <trkpt lat="45.67684" lon="5.26809">
        <ele>328</ele>
        <time>2021-05-08T07:58:10.153Z</time>
      </trkpt>
      <trkpt lat="45.67672" lon="5.26817">
        <ele>327</ele>
        <time>2021-05-08T07:58:11.153Z</time>
      </trkpt>
      <trkpt lat="45.67663" lon="5.26824">
        <ele>326</ele>
        <time>2021-05-08T07:58:12.152Z</time>
      </trkpt>
      <trkpt lat="45.67649" lon="5.26834">
        <ele>326</ele>
        <time>2021-05-08T07:58:13.153Z</time>
      </trkpt>
      <trkpt lat="45.67638" lon="5.26841">
        <ele>325</ele>
        <time>2021-05-08T07:58:14.153Z</time>
      </trkpt>
      <trkpt lat="45.67627" lon="5.26849">
        <ele>324</ele>
        <time>2021-05-08T07:58:15.153Z</time>
      </trkpt>
      <trkpt lat="45.67615" lon="5.26856">
        <ele>323</ele>
        <time>2021-05-08T07:58:16.153Z</time>
      </trkpt>
      <trkpt lat="45.67606" lon="5.26861">
        <ele>322</ele>
        <time>2021-05-08T07:58:17.153Z</time>
      </trkpt>
      <trkpt lat="45.67593" lon="5.26869">
        <ele>321</ele>
        <time>2021-05-08T07:58:18.153Z</time>
      </trkpt>
      <trkpt lat="45.67583" lon="5.26876">
        <ele>320</ele>
        <time>2021-05-08T07:58:19.152Z</time>
      </trkpt>
      <trkpt lat="45.67573" lon="5.26883">
        <ele>319</ele>
        <time>2021-05-08T07:58:20.152Z</time>
      </trkpt>
      <trkpt lat="45.67564" lon="5.2689">
        <ele>318</ele>
        <time>2021-05-08T07:58:21.153Z</time>
      </trkpt>
      <trkpt lat="45.67557" lon="5.26895">
        <ele>317</ele>
        <time>2021-05-08T07:58:22.153Z</time>
      </trkpt>
      <trkpt lat="45.67547" lon="5.26903">
        <ele>316</ele>
        <time>2021-05-08T07:58:23.152Z</time>
      </trkpt>
      <trkpt lat="45.67539" lon="5.2691">
        <ele>316</ele>
        <time>2021-05-08T07:58:24.152Z</time>
      </trkpt>
      <trkpt lat="45.67533" lon="5.26917">
        <ele>316</ele>
        <time>2021-05-08T07:58:25.153Z</time>
      </trkpt>
      <trkpt lat="45.67525" lon="5.26924">
        <ele>316</ele>
        <time>2021-05-08T07:58:26.153Z</time>
      </trkpt>
      <trkpt lat="45.67518" lon="5.2693">
        <ele>317</ele>
        <time>2021-05-08T07:58:27.153Z</time>
      </trkpt>
      <trkpt lat="45.6751" lon="5.26937">
        <ele>317</ele>
        <time>2021-05-08T07:58:28.153Z</time>
      </trkpt>
      <trkpt lat="45.67502" lon="5.26944">
        <ele>318</ele>
        <time>2021-05-08T07:58:29.153Z</time>
      </trkpt>
      <trkpt lat="45.67494" lon="5.26951">
        <ele>318</ele>
        <time>2021-05-08T07:58:30.153Z</time>
      </trkpt>
      <trkpt lat="45.67487" lon="5.26958">
        <ele>318</ele>
        <time>2021-05-08T07:58:31.153Z</time>
      </trkpt>
      <trkpt lat="45.6748" lon="5.26965">
        <ele>318</ele>
        <time>2021-05-08T07:58:32.152Z</time>
      </trkpt>
      <trkpt lat="45.67474" lon="5.26973">
        <ele>318</ele>
        <time>2021-05-08T07:58:33.153Z</time>
      </trkpt>
      <trkpt lat="45.67468" lon="5.2698">
        <ele>318</ele>
        <time>2021-05-08T07:58:34.153Z</time>
      </trkpt>
      <trkpt lat="45.67461" lon="5.26987">
        <ele>318</ele>
        <time>2021-05-08T07:58:35.153Z</time>
      </trkpt>
      <trkpt lat="45.67455" lon="5.26997">
        <ele>318</ele>
        <time>2021-05-08T07:58:36.152Z</time>
      </trkpt>
      <trkpt lat="45.6745" lon="5.27006">
        <ele>318</ele>
        <time>2021-05-08T07:58:37.152Z</time>
      </trkpt>
      <trkpt lat="45.67445" lon="5.27015">
        <ele>318</ele>
        <time>2021-05-08T07:58:38.152Z</time>
      </trkpt>
      <trkpt lat="45.6744" lon="5.27025">
        <ele>318</ele>
        <time>2021-05-08T07:58:39.153Z</time>
      </trkpt>
      <trkpt lat="45.67436" lon="5.27033">
        <ele>318</ele>
        <time>2021-05-08T07:58:40.152Z</time>
      </trkpt>
      <trkpt lat="45.67432" lon="5.27043">
        <ele>318</ele>
        <time>2021-05-08T07:58:41.152Z</time>
      </trkpt>
      <trkpt lat="45.67427" lon="5.27051">
        <ele>318</ele>
        <time>2021-05-08T07:58:42.153Z</time>
      </trkpt>
      <trkpt lat="45.67422" lon="5.2706">
        <ele>318</ele>
        <time>2021-05-08T07:58:43.153Z</time>
      </trkpt>
      <trkpt lat="45.67418" lon="5.27069">
        <ele>318</ele>
        <time>2021-05-08T07:58:44.152Z</time>
      </trkpt>
      <trkpt lat="45.67413" lon="5.27077">
        <ele>318</ele>
        <time>2021-05-08T07:58:45.153Z</time>
      </trkpt>
      <trkpt lat="45.67408" lon="5.27086">
        <ele>318</ele>
        <time>2021-05-08T07:58:46.153Z</time>
      </trkpt>
      <trkpt lat="45.67403" lon="5.27095">
        <ele>317</ele>
        <time>2021-05-08T07:58:47.153Z</time>
      </trkpt>
      <trkpt lat="45.67399" lon="5.27104">
        <ele>317</ele>
        <time>2021-05-08T07:58:48.153Z</time>
      </trkpt>
      <trkpt lat="45.67394" lon="5.27112">
        <ele>317</ele>
        <time>2021-05-08T07:58:49.152Z</time>
      </trkpt>
      <trkpt lat="45.6739" lon="5.2712">
        <ele>317</ele>
        <time>2021-05-08T07:58:50.152Z</time>
      </trkpt>
      <trkpt lat="45.67385" lon="5.27127">
        <ele>317</ele>
        <time>2021-05-08T07:58:51.153Z</time>
      </trkpt>
      <trkpt lat="45.67381" lon="5.27135">
        <ele>316</ele>
        <time>2021-05-08T07:58:52.152Z</time>
      </trkpt>
      <trkpt lat="45.67377" lon="5.27142">
        <ele>316</ele>
        <time>2021-05-08T07:58:53.152Z</time>
      </trkpt>
      <trkpt lat="45.67373" lon="5.27149">
        <ele>316</ele>
        <time>2021-05-08T07:58:54.153Z</time>
      </trkpt>
      <trkpt lat="45.67369" lon="5.27157">
        <ele>316</ele>
        <time>2021-05-08T07:58:55.153Z</time>
      </trkpt>
      <trkpt lat="45.67365" lon="5.27164">
        <ele>316</ele>
        <time>2021-05-08T07:58:56.153Z</time>
      </trkpt>
      <trkpt lat="45.67361" lon="5.27172">
        <ele>316</ele>
        <time>2021-05-08T07:58:57.152Z</time>
      </trkpt>
      <trkpt lat="45.67356" lon="5.2718">
        <ele>316</ele>
        <time>2021-05-08T07:58:58.152Z</time>
      </trkpt>
      <trkpt lat="45.67351" lon="5.27189">
        <ele>316</ele>
        <time>2021-05-08T07:58:59.153Z</time>
      </trkpt>
      <trkpt lat="45.67347" lon="5.27198">
        <ele>317</ele>
        <time>2021-05-08T07:59:00.152Z</time>
      </trkpt>
      <trkpt lat="45.67342" lon="5.27206">
        <ele>317</ele>
        <time>2021-05-08T07:59:01.153Z</time>
      </trkpt>
      <trkpt lat="45.67338" lon="5.27214">
        <ele>317</ele>
        <time>2021-05-08T07:59:02.153Z</time>
      </trkpt>
      <trkpt lat="45.67335" lon="5.27223">
        <ele>317</ele>
        <time>2021-05-08T07:59:03.153Z</time>
      </trkpt>
      <trkpt lat="45.6733" lon="5.27235">
        <ele>317</ele>
        <time>2021-05-08T07:59:04.153Z</time>
      </trkpt>
      <trkpt lat="45.67328" lon="5.27244">
        <ele>317</ele>
        <time>2021-05-08T07:59:05.153Z</time>
      </trkpt>
      <trkpt lat="45.67323" lon="5.27253">
        <ele>317</ele>
        <time>2021-05-08T07:59:06.152Z</time>
      </trkpt>
      <trkpt lat="45.67317" lon="5.27259">
        <ele>317</ele>
        <time>2021-05-08T07:59:07.153Z</time>
      </trkpt>
      <trkpt lat="45.67311" lon="5.27263">
        <ele>317</ele>
        <time>2021-05-08T07:59:08.153Z</time>
      </trkpt>
      <trkpt lat="45.67304" lon="5.27264">
        <ele>317</ele>
        <time>2021-05-08T07:59:09.153Z</time>
      </trkpt>
      <trkpt lat="45.67297" lon="5.27264">
        <ele>317</ele>
        <time>2021-05-08T07:59:10.152Z</time>
      </trkpt>
      <trkpt lat="45.6729" lon="5.27265">
        <ele>316</ele>
        <time>2021-05-08T07:59:11.153Z</time>
      </trkpt>
      <trkpt lat="45.67283" lon="5.27266">
        <ele>316</ele>
        <time>2021-05-08T07:59:12.152Z</time>
      </trkpt>
      <trkpt lat="45.67276" lon="5.27268">
        <ele>316</ele>
        <time>2021-05-08T07:59:13.153Z</time>
      </trkpt>
      <trkpt lat="45.67269" lon="5.27268">
        <ele>316</ele>
        <time>2021-05-08T07:59:14.153Z</time>
      </trkpt>
      <trkpt lat="45.67262" lon="5.27271">
        <ele>315</ele>
        <time>2021-05-08T07:59:15.153Z</time>
      </trkpt>
      <trkpt lat="45.67257" lon="5.27273">
        <ele>315</ele>
        <time>2021-05-08T07:59:16.153Z</time>
      </trkpt>
      <trkpt lat="45.67251" lon="5.27276">
        <ele>315</ele>
        <time>2021-05-08T07:59:17.152Z</time>
      </trkpt>
      <trkpt lat="45.67245" lon="5.27279">
        <ele>315</ele>
        <time>2021-05-08T07:59:18.153Z</time>
      </trkpt>
      <trkpt lat="45.67239" lon="5.27281">
        <ele>314</ele>
        <time>2021-05-08T07:59:19.153Z</time>
      </trkpt>
      <trkpt lat="45.67234" lon="5.27284">
        <ele>314</ele>
        <time>2021-05-08T07:59:20.153Z</time>
      </trkpt>
      <trkpt lat="45.67226" lon="5.27288">
        <ele>313</ele>
        <time>2021-05-08T07:59:21.152Z</time>
      </trkpt>
      <trkpt lat="45.67221" lon="5.27295">
        <ele>313</ele>
        <time>2021-05-08T07:59:22.153Z</time>
      </trkpt>
      <trkpt lat="45.67215" lon="5.273">
        <ele>312</ele>
        <time>2021-05-08T07:59:23.153Z</time>
      </trkpt>
      <trkpt lat="45.67209" lon="5.27306">
        <ele>312</ele>
        <time>2021-05-08T07:59:24.153Z</time>
      </trkpt>
      <trkpt lat="45.67204" lon="5.27312">
        <ele>311</ele>
        <time>2021-05-08T07:59:25.152Z</time>
      </trkpt>
      <trkpt lat="45.67199" lon="5.27319">
        <ele>311</ele>
        <time>2021-05-08T07:59:26.153Z</time>
      </trkpt>
      <trkpt lat="45.67193" lon="5.27327">
        <ele>310</ele>
        <time>2021-05-08T07:59:27.153Z</time>
      </trkpt>
      <trkpt lat="45.67187" lon="5.27335">
        <ele>310</ele>
        <time>2021-05-08T07:59:28.153Z</time>
      </trkpt>
      <trkpt lat="45.67182" lon="5.27343">
        <ele>310</ele>
        <time>2021-05-08T07:59:29.152Z</time>
      </trkpt>
      <trkpt lat="45.67176" lon="5.27351">
        <ele>309</ele>
        <time>2021-05-08T07:59:30.152Z</time>
      </trkpt>
      <trkpt lat="45.67171" lon="5.27361">
        <ele>309</ele>
        <time>2021-05-08T07:59:31.152Z</time>
      </trkpt>
      <trkpt lat="45.67166" lon="5.2737">
        <ele>308</ele>
        <time>2021-05-08T07:59:32.153Z</time>
      </trkpt>
      <trkpt lat="45.67162" lon="5.27381">
        <ele>308</ele>
        <time>2021-05-08T07:59:33.152Z</time>
      </trkpt>
      <trkpt lat="45.67158" lon="5.27392">
        <ele>307</ele>
        <time>2021-05-08T07:59:34.152Z</time>
      </trkpt>
      <trkpt lat="45.67153" lon="5.27403">
        <ele>307</ele>
        <time>2021-05-08T07:59:35.152Z</time>
      </trkpt>
      <trkpt lat="45.67149" lon="5.27415">
        <ele>306</ele>
        <time>2021-05-08T07:59:36.152Z</time>
      </trkpt>
      <trkpt lat="45.67144" lon="5.27427">
        <ele>306</ele>
        <time>2021-05-08T07:59:37.153Z</time>
      </trkpt>
      <trkpt lat="45.67138" lon="5.2744">
        <ele>305</ele>
        <time>2021-05-08T07:59:38.152Z</time>
      </trkpt>
      <trkpt lat="45.67133" lon="5.27453">
        <ele>305</ele>
        <time>2021-05-08T07:59:39.153Z</time>
      </trkpt>
      <trkpt lat="45.67128" lon="5.27466">
        <ele>304</ele>
        <time>2021-05-08T07:59:40.153Z</time>
      </trkpt>
      <trkpt lat="45.67123" lon="5.2748">
        <ele>304</ele>
        <time>2021-05-08T07:59:41.153Z</time>
      </trkpt>
      <trkpt lat="45.67117" lon="5.27493">
        <ele>303</ele>
        <time>2021-05-08T07:59:42.153Z</time>
      </trkpt>
      <trkpt lat="45.67112" lon="5.27507">
        <ele>303</ele>
        <time>2021-05-08T07:59:43.153Z</time>
      </trkpt>
      <trkpt lat="45.67107" lon="5.2752">
        <ele>302</ele>
        <time>2021-05-08T07:59:44.153Z</time>
      </trkpt>
      <trkpt lat="45.67101" lon="5.27533">
        <ele>302</ele>
        <time>2021-05-08T07:59:45.152Z</time>
      </trkpt>
      <trkpt lat="45.67094" lon="5.27546">
        <ele>301</ele>
        <time>2021-05-08T07:59:46.152Z</time>
      </trkpt>
      <trkpt lat="45.67088" lon="5.27555">
        <ele>301</ele>
        <time>2021-05-08T07:59:47.153Z</time>
      </trkpt>
      <trkpt lat="45.67081" lon="5.27565">
        <ele>300</ele>
        <time>2021-05-08T07:59:48.152Z</time>
      </trkpt>
      <trkpt lat="45.67073" lon="5.27574">
        <ele>300</ele>
        <time>2021-05-08T07:59:49.153Z</time>
      </trkpt>
      <trkpt lat="45.67064" lon="5.27583">
        <ele>300</ele>
        <time>2021-05-08T07:59:50.152Z</time>
      </trkpt>
      <trkpt lat="45.67056" lon="5.27592">
        <ele>299</ele>
        <time>2021-05-08T07:59:51.153Z</time>
      </trkpt>
      <trkpt lat="45.67046" lon="5.276">
        <ele>299</ele>
        <time>2021-05-08T07:59:52.152Z</time>
      </trkpt>
      <trkpt lat="45.67036" lon="5.27606">
        <ele>298</ele>
        <time>2021-05-08T07:59:53.153Z</time>
      </trkpt>
      <trkpt lat="45.67029" lon="5.27612">
        <ele>298</ele>
        <time>2021-05-08T07:59:54.152Z</time>
      </trkpt>
      <trkpt lat="45.67021" lon="5.27619">
        <ele>297</ele>
        <time>2021-05-08T07:59:55.153Z</time>
      </trkpt>
      <trkpt lat="45.67013" lon="5.27627">
        <ele>296</ele>
        <time>2021-05-08T07:59:56.153Z</time>
      </trkpt>
      <trkpt lat="45.67005" lon="5.27635">
        <ele>296</ele>
        <time>2021-05-08T07:59:57.153Z</time>
      </trkpt>
      <trkpt lat="45.66996" lon="5.27646">
        <ele>295</ele>
        <time>2021-05-08T07:59:58.153Z</time>
      </trkpt>
      <trkpt lat="45.6699" lon="5.27654">
        <ele>295</ele>
        <time>2021-05-08T07:59:59.152Z</time>
      </trkpt>
      <trkpt lat="45.66983" lon="5.27665">
        <ele>294</ele>
        <time>2021-05-08T08:00:00.152Z</time>
      </trkpt>
      <trkpt lat="45.66976" lon="5.27675">
        <ele>294</ele>
        <time>2021-05-08T08:00:01.152Z</time>
      </trkpt>
      <trkpt lat="45.66968" lon="5.27684">
        <ele>294</ele>
        <time>2021-05-08T08:00:02.153Z</time>
      </trkpt>
      <trkpt lat="45.66958" lon="5.27694">
        <ele>293</ele>
        <time>2021-05-08T08:00:03.153Z</time>
      </trkpt>
      <trkpt lat="45.66952" lon="5.27701">
        <ele>293</ele>
        <time>2021-05-08T08:00:04.153Z</time>
      </trkpt>
      <trkpt lat="45.66943" lon="5.27712">
        <ele>293</ele>
        <time>2021-05-08T08:00:05.153Z</time>
      </trkpt>
      <trkpt lat="45.66935" lon="5.27721">
        <ele>292</ele>
        <time>2021-05-08T08:00:06.153Z</time>
      </trkpt>
      <trkpt lat="45.66928" lon="5.2773">
        <ele>292</ele>
        <time>2021-05-08T08:00:07.153Z</time>
      </trkpt>
      <trkpt lat="45.66921" lon="5.2774">
        <ele>292</ele>
        <time>2021-05-08T08:00:08.152Z</time>
      </trkpt>
      <trkpt lat="45.66912" lon="5.27749">
        <ele>292</ele>
        <time>2021-05-08T08:00:09.153Z</time>
      </trkpt>
      <trkpt lat="45.66904" lon="5.27758">
        <ele>292</ele>
        <time>2021-05-08T08:00:10.152Z</time>
      </trkpt>
      <trkpt lat="45.66896" lon="5.27768">
        <ele>291</ele>
        <time>2021-05-08T08:00:11.153Z</time>
      </trkpt>
      <trkpt lat="45.66888" lon="5.27778">
        <ele>291</ele>
        <time>2021-05-08T08:00:12.153Z</time>
      </trkpt>
      <trkpt lat="45.66882" lon="5.27787">
        <ele>291</ele>
        <time>2021-05-08T08:00:13.152Z</time>
      </trkpt>
      <trkpt lat="45.66873" lon="5.278">
        <ele>290</ele>
        <time>2021-05-08T08:00:14.153Z</time>
      </trkpt>
      <trkpt lat="45.66865" lon="5.27811">
        <ele>290</ele>
        <time>2021-05-08T08:00:15.153Z</time>
      </trkpt>
      <trkpt lat="45.66858" lon="5.27822">
        <ele>289</ele>
        <time>2021-05-08T08:00:16.153Z</time>
      </trkpt>
      <trkpt lat="45.66849" lon="5.27832">
        <ele>288</ele>
        <time>2021-05-08T08:00:17.153Z</time>
      </trkpt>
      <trkpt lat="45.66839" lon="5.27841">
        <ele>288</ele>
        <time>2021-05-08T08:00:18.153Z</time>
      </trkpt>
      <trkpt lat="45.66831" lon="5.2785">
        <ele>287</ele>
        <time>2021-05-08T08:00:19.153Z</time>
      </trkpt>
      <trkpt lat="45.66823" lon="5.2786">
        <ele>286</ele>
        <time>2021-05-08T08:00:20.153Z</time>
      </trkpt>
      <trkpt lat="45.66814" lon="5.27869">
        <ele>286</ele>
        <time>2021-05-08T08:00:21.153Z</time>
      </trkpt>
      <trkpt lat="45.66806" lon="5.27879">
        <ele>285</ele>
        <time>2021-05-08T08:00:22.153Z</time>
      </trkpt>
      <trkpt lat="45.668" lon="5.27888">
        <ele>284</ele>
        <time>2021-05-08T08:00:23.153Z</time>
      </trkpt>
      <trkpt lat="45.66791" lon="5.27899">
        <ele>283</ele>
        <time>2021-05-08T08:00:24.153Z</time>
      </trkpt>
      <trkpt lat="45.66782" lon="5.27905">
        <ele>282</ele>
        <time>2021-05-08T08:00:25.152Z</time>
      </trkpt>
      <trkpt lat="45.66773" lon="5.2791">
        <ele>281</ele>
        <time>2021-05-08T08:00:26.153Z</time>
      </trkpt>
      <trkpt lat="45.66763" lon="5.27911">
        <ele>280</ele>
        <time>2021-05-08T08:00:27.153Z</time>
      </trkpt>
      <trkpt lat="45.66753" lon="5.2791">
        <ele>279</ele>
        <time>2021-05-08T08:00:28.153Z</time>
      </trkpt>
      <trkpt lat="45.66744" lon="5.27906">
        <ele>279</ele>
        <time>2021-05-08T08:00:29.152Z</time>
      </trkpt>
      <trkpt lat="45.66735" lon="5.27901">
        <ele>278</ele>
        <time>2021-05-08T08:00:30.152Z</time>
      </trkpt>
      <trkpt lat="45.66726" lon="5.27895">
        <ele>277</ele>
        <time>2021-05-08T08:00:31.153Z</time>
      </trkpt>
      <trkpt lat="45.66716" lon="5.27889">
        <ele>277</ele>
        <time>2021-05-08T08:00:32.153Z</time>
      </trkpt>
      <trkpt lat="45.66706" lon="5.27882">
        <ele>276</ele>
        <time>2021-05-08T08:00:33.153Z</time>
      </trkpt>
      <trkpt lat="45.66699" lon="5.27877">
        <ele>275</ele>
        <time>2021-05-08T08:00:34.153Z</time>
      </trkpt>
      <trkpt lat="45.66687" lon="5.27869">
        <ele>274</ele>
        <time>2021-05-08T08:00:35.153Z</time>
      </trkpt>
      <trkpt lat="45.66678" lon="5.27864">
        <ele>274</ele>
        <time>2021-05-08T08:00:36.153Z</time>
      </trkpt>
      <trkpt lat="45.66669" lon="5.2786">
        <ele>273</ele>
        <time>2021-05-08T08:00:37.153Z</time>
      </trkpt>
      <trkpt lat="45.66659" lon="5.27856">
        <ele>272</ele>
        <time>2021-05-08T08:00:38.152Z</time>
      </trkpt>
      <trkpt lat="45.66648" lon="5.27852">
        <ele>271</ele>
        <time>2021-05-08T08:00:39.153Z</time>
      </trkpt>
      <trkpt lat="45.66637" lon="5.2785">
        <ele>270</ele>
        <time>2021-05-08T08:00:40.153Z</time>
      </trkpt>
      <trkpt lat="45.66626" lon="5.27847">
        <ele>270</ele>
        <time>2021-05-08T08:00:41.152Z</time>
      </trkpt>
      <trkpt lat="45.66617" lon="5.27844">
        <ele>269</ele>
        <time>2021-05-08T08:00:42.152Z</time>
      </trkpt>
      <trkpt lat="45.66604" lon="5.27842">
        <ele>268</ele>
        <time>2021-05-08T08:00:43.153Z</time>
      </trkpt>
      <trkpt lat="45.66593" lon="5.27842">
        <ele>268</ele>
        <time>2021-05-08T08:00:44.153Z</time>
      </trkpt>
      <trkpt lat="45.66583" lon="5.27842">
        <ele>267</ele>
        <time>2021-05-08T08:00:45.153Z</time>
      </trkpt>
      <trkpt lat="45.66572" lon="5.27842">
        <ele>267</ele>
        <time>2021-05-08T08:00:46.153Z</time>
      </trkpt>
      <trkpt lat="45.66562" lon="5.27843">
        <ele>266</ele>
        <time>2021-05-08T08:00:47.153Z</time>
      </trkpt>
      <trkpt lat="45.66552" lon="5.27845">
        <ele>266</ele>
        <time>2021-05-08T08:00:48.153Z</time>
      </trkpt>
      <trkpt lat="45.66542" lon="5.27847">
        <ele>265</ele>
        <time>2021-05-08T08:00:49.153Z</time>
      </trkpt>
      <trkpt lat="45.66531" lon="5.2785">
        <ele>265</ele>
        <time>2021-05-08T08:00:50.152Z</time>
      </trkpt>
      <trkpt lat="45.6652" lon="5.27854">
        <ele>264</ele>
        <time>2021-05-08T08:00:51.153Z</time>
      </trkpt>
      <trkpt lat="45.66511" lon="5.27858">
        <ele>264</ele>
        <time>2021-05-08T08:00:52.153Z</time>
      </trkpt>
      <trkpt lat="45.66501" lon="5.27862">
        <ele>264</ele>
        <time>2021-05-08T08:00:53.152Z</time>
      </trkpt>
      <trkpt lat="45.66491" lon="5.27868">
        <ele>263</ele>
        <time>2021-05-08T08:00:54.153Z</time>
      </trkpt>
      <trkpt lat="45.66483" lon="5.27876">
        <ele>263</ele>
        <time>2021-05-08T08:00:55.153Z</time>
      </trkpt>
      <trkpt lat="45.66476" lon="5.27884">
        <ele>262</ele>
        <time>2021-05-08T08:00:56.153Z</time>
      </trkpt>
      <trkpt lat="45.66466" lon="5.27895">
        <ele>262</ele>
        <time>2021-05-08T08:00:57.153Z</time>
      </trkpt>
      <trkpt lat="45.66457" lon="5.27905">
        <ele>261</ele>
        <time>2021-05-08T08:00:58.152Z</time>
      </trkpt>
      <trkpt lat="45.6645" lon="5.27914">
        <ele>260</ele>
        <time>2021-05-08T08:00:59.153Z</time>
      </trkpt>
      <trkpt lat="45.66441" lon="5.27924">
        <ele>260</ele>
        <time>2021-05-08T08:01:00.153Z</time>
      </trkpt>
      <trkpt lat="45.66432" lon="5.27933">
        <ele>259</ele>
        <time>2021-05-08T08:01:01.153Z</time>
      </trkpt>
      <trkpt lat="45.6642" lon="5.27941">
        <ele>258</ele>
        <time>2021-05-08T08:01:02.152Z</time>
      </trkpt>
      <trkpt lat="45.66409" lon="5.27947">
        <ele>257</ele>
        <time>2021-05-08T08:01:03.153Z</time>
      </trkpt>
      <trkpt lat="45.66398" lon="5.27952">
        <ele>256</ele>
        <time>2021-05-08T08:01:04.152Z</time>
      </trkpt>
      <trkpt lat="45.66387" lon="5.27955">
        <ele>255</ele>
        <time>2021-05-08T08:01:05.153Z</time>
      </trkpt>
      <trkpt lat="45.66377" lon="5.27959">
        <ele>254</ele>
        <time>2021-05-08T08:01:06.153Z</time>
      </trkpt>
      <trkpt lat="45.66367" lon="5.27963">
        <ele>253</ele>
        <time>2021-05-08T08:01:07.152Z</time>
      </trkpt>
      <trkpt lat="45.66356" lon="5.27965">
        <ele>252</ele>
        <time>2021-05-08T08:01:08.153Z</time>
      </trkpt>
      <trkpt lat="45.66345" lon="5.27968">
        <ele>251</ele>
        <time>2021-05-08T08:01:09.153Z</time>
      </trkpt>
      <trkpt lat="45.66335" lon="5.2797">
        <ele>250</ele>
        <time>2021-05-08T08:01:10.153Z</time>
      </trkpt>
      <trkpt lat="45.66324" lon="5.27972">
        <ele>250</ele>
        <time>2021-05-08T08:01:11.153Z</time>
      </trkpt>
      <trkpt lat="45.66314" lon="5.27975">
        <ele>249</ele>
        <time>2021-05-08T08:01:12.152Z</time>
      </trkpt>
      <trkpt lat="45.66304" lon="5.27978">
        <ele>248</ele>
        <time>2021-05-08T08:01:13.153Z</time>
      </trkpt>
      <trkpt lat="45.66295" lon="5.27982">
        <ele>248</ele>
        <time>2021-05-08T08:01:14.153Z</time>
      </trkpt>
      <trkpt lat="45.66285" lon="5.27987">
        <ele>247</ele>
        <time>2021-05-08T08:01:15.153Z</time>
      </trkpt>
      <trkpt lat="45.66277" lon="5.27993">
        <ele>247</ele>
        <time>2021-05-08T08:01:16.153Z</time>
      </trkpt>
      <trkpt lat="45.66269" lon="5.28002">
        <ele>246</ele>
        <time>2021-05-08T08:01:17.152Z</time>
      </trkpt>
      <trkpt lat="45.66262" lon="5.28011">
        <ele>246</ele>
        <time>2021-05-08T08:01:18.152Z</time>
      </trkpt>
      <trkpt lat="45.66255" lon="5.28016">
        <ele>245</ele>
        <time>2021-05-08T08:01:19.153Z</time>
      </trkpt>
      <trkpt lat="45.66247" lon="5.28023">
        <ele>244</ele>
        <time>2021-05-08T08:01:20.153Z</time>
      </trkpt>
      <trkpt lat="45.66239" lon="5.2803">
        <ele>244</ele>
        <time>2021-05-08T08:01:21.152Z</time>
      </trkpt>
      <trkpt lat="45.66231" lon="5.28038">
        <ele>243</ele>
        <time>2021-05-08T08:01:22.153Z</time>
      </trkpt>
      <trkpt lat="45.66223" lon="5.28046">
        <ele>243</ele>
        <time>2021-05-08T08:01:23.153Z</time>
      </trkpt>
      <trkpt lat="45.66215" lon="5.28053">
        <ele>243</ele>
        <time>2021-05-08T08:01:24.152Z</time>
      </trkpt>
      <trkpt lat="45.66207" lon="5.28061">
        <ele>242</ele>
        <time>2021-05-08T08:01:25.153Z</time>
      </trkpt>
      <trkpt lat="45.662" lon="5.28069">
        <ele>241</ele>
        <time>2021-05-08T08:01:26.153Z</time>
      </trkpt>
      <trkpt lat="45.66192" lon="5.28077">
        <ele>241</ele>
        <time>2021-05-08T08:01:27.152Z</time>
      </trkpt>
      <trkpt lat="45.66183" lon="5.28085">
        <ele>240</ele>
        <time>2021-05-08T08:01:28.153Z</time>
      </trkpt>
      <trkpt lat="45.66176" lon="5.28093">
        <ele>239</ele>
        <time>2021-05-08T08:01:29.152Z</time>
      </trkpt>
      <trkpt lat="45.66168" lon="5.281">
        <ele>238</ele>
        <time>2021-05-08T08:01:30.152Z</time>
      </trkpt>
      <trkpt lat="45.6616" lon="5.28106">
        <ele>237</ele>
        <time>2021-05-08T08:01:31.153Z</time>
      </trkpt>
      <trkpt lat="45.66152" lon="5.28111">
        <ele>237</ele>
        <time>2021-05-08T08:01:32.153Z</time>
      </trkpt>
      <trkpt lat="45.66143" lon="5.28114">
        <ele>236</ele>
        <time>2021-05-08T08:01:33.153Z</time>
      </trkpt>
      <trkpt lat="45.66135" lon="5.28118">
        <ele>236</ele>
        <time>2021-05-08T08:01:34.153Z</time>
      </trkpt>
      <trkpt lat="45.66128" lon="5.28121">
        <ele>236</ele>
        <time>2021-05-08T08:01:35.153Z</time>
      </trkpt>
      <trkpt lat="45.66122" lon="5.28124">
        <ele>235</ele>
        <time>2021-05-08T08:01:36.152Z</time>
      </trkpt>
      <trkpt lat="45.66116" lon="5.28126">
        <ele>235</ele>
        <time>2021-05-08T08:01:37.153Z</time>
      </trkpt>
      <trkpt lat="45.66111" lon="5.28127">
        <ele>235</ele>
        <time>2021-05-08T08:01:38.153Z</time>
      </trkpt>
      <trkpt lat="45.66107" lon="5.28129">
        <ele>235</ele>
        <time>2021-05-08T08:01:39.153Z</time>
      </trkpt>
      <trkpt lat="45.66104" lon="5.2813">
        <ele>235</ele>
        <time>2021-05-08T08:01:40.152Z</time>
      </trkpt>
      <trkpt lat="45.66101" lon="5.28132">
        <ele>235</ele>
        <time>2021-05-08T08:01:41.153Z</time>
      </trkpt>
      <trkpt lat="45.66098" lon="5.28133">
        <ele>235</ele>
        <time>2021-05-08T08:01:42.153Z</time>
      </trkpt>
      <trkpt lat="45.66095" lon="5.28134">
        <ele>234</ele>
        <time>2021-05-08T08:01:43.153Z</time>
      </trkpt>
      <trkpt lat="45.66092" lon="5.28135">
        <ele>234</ele>
        <time>2021-05-08T08:01:44.153Z</time>
      </trkpt>
      <trkpt lat="45.66089" lon="5.28136">
        <ele>233</ele>
        <time>2021-05-08T08:01:45.153Z</time>
      </trkpt>
      <trkpt lat="45.66085" lon="5.28137">
        <ele>233</ele>
        <time>2021-05-08T08:01:46.153Z</time>
      </trkpt>
      <trkpt lat="45.66082" lon="5.28139">
        <ele>233</ele>
        <time>2021-05-08T08:01:47.153Z</time>
      </trkpt>
      <trkpt lat="45.66079" lon="5.28142">
        <ele>233</ele>
        <time>2021-05-08T08:01:48.153Z</time>
      </trkpt>
      <trkpt lat="45.66076" lon="5.28146">
        <ele>232</ele>
        <time>2021-05-08T08:01:49.153Z</time>
      </trkpt>
      <trkpt lat="45.66073" lon="5.28152">
        <ele>231</ele>
        <time>2021-05-08T08:01:50.153Z</time>
      </trkpt>
      <trkpt lat="45.66069" lon="5.28158">
        <ele>231</ele>
        <time>2021-05-08T08:01:51.153Z</time>
      </trkpt>
      <trkpt lat="45.66067" lon="5.28164">
        <ele>230</ele>
        <time>2021-05-08T08:01:52.153Z</time>
      </trkpt>
      <trkpt lat="45.66064" lon="5.28171">
        <ele>230</ele>
        <time>2021-05-08T08:01:53.152Z</time>
      </trkpt>
      <trkpt lat="45.66061" lon="5.28178">
        <ele>229</ele>
        <time>2021-05-08T08:01:54.153Z</time>
      </trkpt>
      <trkpt lat="45.66058" lon="5.28185">
        <ele>228</ele>
        <time>2021-05-08T08:01:55.153Z</time>
      </trkpt>
      <trkpt lat="45.66055" lon="5.28193">
        <ele>228</ele>
        <time>2021-05-08T08:01:56.153Z</time>
      </trkpt>
      <trkpt lat="45.66053" lon="5.28201">
        <ele>228</ele>
        <time>2021-05-08T08:01:57.153Z</time>
      </trkpt>
      <trkpt lat="45.6605" lon="5.2821">
        <ele>227</ele>
        <time>2021-05-08T08:01:58.153Z</time>
      </trkpt>
      <trkpt lat="45.66047" lon="5.28219">
        <ele>227</ele>
        <time>2021-05-08T08:01:59.153Z</time>
      </trkpt>
      <trkpt lat="45.66044" lon="5.28228">
        <ele>227</ele>
        <time>2021-05-08T08:02:00.153Z</time>
      </trkpt>
      <trkpt lat="45.66041" lon="5.28237">
        <ele>227</ele>
        <time>2021-05-08T08:02:01.153Z</time>
      </trkpt>
      <trkpt lat="45.66038" lon="5.28246">
        <ele>227</ele>
        <time>2021-05-08T08:02:02.153Z</time>
      </trkpt>
      <trkpt lat="45.66035" lon="5.28256">
        <ele>227</ele>
        <time>2021-05-08T08:02:03.152Z</time>
      </trkpt>
      <trkpt lat="45.66031" lon="5.28266">
        <ele>226</ele>
        <time>2021-05-08T08:02:04.152Z</time>
      </trkpt>
      <trkpt lat="45.66028" lon="5.28277">
        <ele>226</ele>
        <time>2021-05-08T08:02:05.152Z</time>
      </trkpt>
      <trkpt lat="45.66025" lon="5.28287">
        <ele>226</ele>
        <time>2021-05-08T08:02:06.153Z</time>
      </trkpt>
      <trkpt lat="45.6602" lon="5.28297">
        <ele>226</ele>
        <time>2021-05-08T08:02:07.153Z</time>
      </trkpt>
      <trkpt lat="45.66017" lon="5.28308">
        <ele>226</ele>
        <time>2021-05-08T08:02:08.153Z</time>
      </trkpt>
      <trkpt lat="45.66014" lon="5.28318">
        <ele>226</ele>
        <time>2021-05-08T08:02:09.153Z</time>
      </trkpt>
      <trkpt lat="45.6601" lon="5.28329">
        <ele>225</ele>
        <time>2021-05-08T08:02:10.153Z</time>
      </trkpt>
      <trkpt lat="45.66006" lon="5.2834">
        <ele>225</ele>
        <time>2021-05-08T08:02:11.153Z</time>
      </trkpt>
      <trkpt lat="45.66001" lon="5.28351">
        <ele>225</ele>
        <time>2021-05-08T08:02:12.153Z</time>
      </trkpt>
      <trkpt lat="45.65997" lon="5.28362">
        <ele>225</ele>
        <time>2021-05-08T08:02:13.153Z</time>
      </trkpt>
      <trkpt lat="45.65991" lon="5.28373">
        <ele>224</ele>
        <time>2021-05-08T08:02:14.153Z</time>
      </trkpt>
      <trkpt lat="45.65987" lon="5.28384">
        <ele>224</ele>
        <time>2021-05-08T08:02:15.152Z</time>
      </trkpt>
      <trkpt lat="45.65984" lon="5.28394">
        <ele>224</ele>
        <time>2021-05-08T08:02:16.153Z</time>
      </trkpt>
      <trkpt lat="45.6598" lon="5.28404">
        <ele>224</ele>
        <time>2021-05-08T08:02:17.153Z</time>
      </trkpt>
      <trkpt lat="45.65976" lon="5.28415">
        <ele>224</ele>
        <time>2021-05-08T08:02:18.152Z</time>
      </trkpt>
      <trkpt lat="45.65972" lon="5.28426">
        <ele>223</ele>
        <time>2021-05-08T08:02:19.153Z</time>
      </trkpt>
      <trkpt lat="45.65969" lon="5.28436">
        <ele>224</ele>
        <time>2021-05-08T08:02:20.152Z</time>
      </trkpt>
      <trkpt lat="45.65964" lon="5.28444">
        <ele>224</ele>
        <time>2021-05-08T08:02:21.152Z</time>
      </trkpt>
      <trkpt lat="45.65961" lon="5.28455">
        <ele>224</ele>
        <time>2021-05-08T08:02:22.153Z</time>
      </trkpt>
      <trkpt lat="45.65957" lon="5.28463">
        <ele>224</ele>
        <time>2021-05-08T08:02:23.153Z</time>
      </trkpt>
      <trkpt lat="45.65953" lon="5.28476">
        <ele>225</ele>
        <time>2021-05-08T08:02:24.152Z</time>
      </trkpt>
      <trkpt lat="45.65949" lon="5.28487">
        <ele>225</ele>
        <time>2021-05-08T08:02:25.153Z</time>
      </trkpt>
      <trkpt lat="45.65946" lon="5.28495">
        <ele>225</ele>
        <time>2021-05-08T08:02:26.152Z</time>
      </trkpt>
      <trkpt lat="45.65941" lon="5.28508">
        <ele>225</ele>
        <time>2021-05-08T08:02:27.153Z</time>
      </trkpt>
      <trkpt lat="45.65937" lon="5.28516">
        <ele>225</ele>
        <time>2021-05-08T08:02:28.153Z</time>
      </trkpt>
      <trkpt lat="45.65932" lon="5.28529">
        <ele>225</ele>
        <time>2021-05-08T08:02:29.153Z</time>
      </trkpt>
      <trkpt lat="45.65929" lon="5.28539">
        <ele>225</ele>
        <time>2021-05-08T08:02:30.153Z</time>
      </trkpt>
      <trkpt lat="45.65925" lon="5.28549">
        <ele>226</ele>
        <time>2021-05-08T08:02:31.153Z</time>
      </trkpt>
      <trkpt lat="45.65921" lon="5.28559">
        <ele>226</ele>
        <time>2021-05-08T08:02:32.153Z</time>
      </trkpt>
      <trkpt lat="45.65917" lon="5.28569">
        <ele>226</ele>
        <time>2021-05-08T08:02:33.153Z</time>
      </trkpt>
      <trkpt lat="45.65914" lon="5.28579">
        <ele>226</ele>
        <time>2021-05-08T08:02:34.153Z</time>
      </trkpt>
      <trkpt lat="45.6591" lon="5.28588">
        <ele>226</ele>
        <time>2021-05-08T08:02:35.153Z</time>
      </trkpt>
      <trkpt lat="45.65906" lon="5.28598">
        <ele>227</ele>
        <time>2021-05-08T08:02:36.153Z</time>
      </trkpt>
      <trkpt lat="45.65902" lon="5.28607">
        <ele>227</ele>
        <time>2021-05-08T08:02:37.152Z</time>
      </trkpt>
      <trkpt lat="45.65899" lon="5.28617">
        <ele>227</ele>
        <time>2021-05-08T08:02:38.152Z</time>
      </trkpt>
      <trkpt lat="45.65895" lon="5.28627">
        <ele>226</ele>
        <time>2021-05-08T08:02:39.152Z</time>
      </trkpt>
      <trkpt lat="45.65891" lon="5.28637">
        <ele>225</ele>
        <time>2021-05-08T08:02:40.153Z</time>
      </trkpt>
      <trkpt lat="45.65887" lon="5.28646">
        <ele>225</ele>
        <time>2021-05-08T08:02:41.152Z</time>
      </trkpt>
      <trkpt lat="45.65883" lon="5.28656">
        <ele>224</ele>
        <time>2021-05-08T08:02:42.153Z</time>
      </trkpt>
      <trkpt lat="45.65879" lon="5.28666">
        <ele>224</ele>
        <time>2021-05-08T08:02:43.152Z</time>
      </trkpt>
      <trkpt lat="45.65876" lon="5.28675">
        <ele>224</ele>
        <time>2021-05-08T08:02:44.153Z</time>
      </trkpt>
      <trkpt lat="45.65872" lon="5.28685">
        <ele>224</ele>
        <time>2021-05-08T08:02:45.152Z</time>
      </trkpt>
      <trkpt lat="45.65868" lon="5.28694">
        <ele>224</ele>
        <time>2021-05-08T08:02:46.153Z</time>
      </trkpt>
      <trkpt lat="45.65865" lon="5.28704">
        <ele>224</ele>
        <time>2021-05-08T08:02:47.153Z</time>
      </trkpt>
      <trkpt lat="45.65861" lon="5.28713">
        <ele>223</ele>
        <time>2021-05-08T08:02:48.152Z</time>
      </trkpt>
      <trkpt lat="45.65857" lon="5.28722">
        <ele>223</ele>
        <time>2021-05-08T08:02:49.152Z</time>
      </trkpt>
      <trkpt lat="45.65853" lon="5.28731">
        <ele>222</ele>
        <time>2021-05-08T08:02:50.153Z</time>
      </trkpt>
      <trkpt lat="45.6585" lon="5.28741">
        <ele>222</ele>
        <time>2021-05-08T08:02:51.153Z</time>
      </trkpt>
      <trkpt lat="45.65847" lon="5.2875">
        <ele>222</ele>
        <time>2021-05-08T08:02:52.153Z</time>
      </trkpt>
      <trkpt lat="45.65843" lon="5.28759">
        <ele>222</ele>
        <time>2021-05-08T08:02:53.153Z</time>
      </trkpt>
      <trkpt lat="45.6584" lon="5.28769">
        <ele>223</ele>
        <time>2021-05-08T08:02:54.153Z</time>
      </trkpt>
      <trkpt lat="45.65836" lon="5.28778">
        <ele>223</ele>
        <time>2021-05-08T08:02:55.153Z</time>
      </trkpt>
      <trkpt lat="45.65832" lon="5.28786">
        <ele>223</ele>
        <time>2021-05-08T08:02:56.153Z</time>
      </trkpt>
      <trkpt lat="45.65829" lon="5.28795">
        <ele>223</ele>
        <time>2021-05-08T08:02:57.153Z</time>
      </trkpt>
      <trkpt lat="45.65825" lon="5.28804">
        <ele>223</ele>
        <time>2021-05-08T08:02:58.153Z</time>
      </trkpt>
      <trkpt lat="45.65821" lon="5.28813">
        <ele>223</ele>
        <time>2021-05-08T08:02:59.153Z</time>
      </trkpt>
      <trkpt lat="45.65816" lon="5.28822">
        <ele>223</ele>
        <time>2021-05-08T08:03:00.153Z</time>
      </trkpt>
      <trkpt lat="45.65812" lon="5.28831">
        <ele>223</ele>
        <time>2021-05-08T08:03:01.153Z</time>
      </trkpt>
      <trkpt lat="45.65807" lon="5.28839">
        <ele>223</ele>
        <time>2021-05-08T08:03:02.153Z</time>
      </trkpt>
      <trkpt lat="45.65803" lon="5.28846">
        <ele>223</ele>
        <time>2021-05-08T08:03:03.153Z</time>
      </trkpt>
      <trkpt lat="45.65797" lon="5.28853">
        <ele>222</ele>
        <time>2021-05-08T08:03:04.152Z</time>
      </trkpt>
      <trkpt lat="45.65792" lon="5.28859">
        <ele>222</ele>
        <time>2021-05-08T08:03:05.152Z</time>
      </trkpt>
      <trkpt lat="45.65786" lon="5.28864">
        <ele>222</ele>
        <time>2021-05-08T08:03:06.153Z</time>
      </trkpt>
      <trkpt lat="45.65781" lon="5.28869">
        <ele>221</ele>
        <time>2021-05-08T08:03:07.152Z</time>
      </trkpt>
      <trkpt lat="45.65776" lon="5.28875">
        <ele>221</ele>
        <time>2021-05-08T08:03:08.153Z</time>
      </trkpt>
      <trkpt lat="45.6577" lon="5.2888">
        <ele>220</ele>
        <time>2021-05-08T08:03:09.152Z</time>
      </trkpt>
      <trkpt lat="45.65765" lon="5.28886">
        <ele>220</ele>
        <time>2021-05-08T08:03:10.153Z</time>
      </trkpt>
      <trkpt lat="45.6576" lon="5.28892">
        <ele>220</ele>
        <time>2021-05-08T08:03:11.153Z</time>
      </trkpt>
      <trkpt lat="45.65754" lon="5.28898">
        <ele>220</ele>
        <time>2021-05-08T08:03:12.153Z</time>
      </trkpt>
      <trkpt lat="45.65749" lon="5.28904">
        <ele>220</ele>
        <time>2021-05-08T08:03:13.153Z</time>
      </trkpt>
      <trkpt lat="45.65744" lon="5.28909">
        <ele>220</ele>
        <time>2021-05-08T08:03:14.152Z</time>
      </trkpt>
      <trkpt lat="45.65741" lon="5.28915">
        <ele>219</ele>
        <time>2021-05-08T08:03:15.153Z</time>
      </trkpt>
      <trkpt lat="45.65737" lon="5.2892">
        <ele>219</ele>
        <time>2021-05-08T08:03:16.153Z</time>
      </trkpt>
      <trkpt lat="45.65733" lon="5.28925">
        <ele>218</ele>
        <time>2021-05-08T08:03:17.153Z</time>
      </trkpt>
      <trkpt lat="45.65728" lon="5.2893">
        <ele>218</ele>
        <time>2021-05-08T08:03:18.153Z</time>
      </trkpt>
      <trkpt lat="45.65723" lon="5.28935">
        <ele>218</ele>
        <time>2021-05-08T08:03:19.152Z</time>
      </trkpt>
      <trkpt lat="45.65719" lon="5.2894">
        <ele>218</ele>
        <time>2021-05-08T08:03:20.153Z</time>
      </trkpt>
      <trkpt lat="45.65713" lon="5.28945">
        <ele>219</ele>
        <time>2021-05-08T08:03:21.152Z</time>
      </trkpt>
      <trkpt lat="45.65708" lon="5.2895">
        <ele>219</ele>
        <time>2021-05-08T08:03:22.153Z</time>
      </trkpt>
      <trkpt lat="45.65703" lon="5.28955">
        <ele>219</ele>
        <time>2021-05-08T08:03:23.153Z</time>
      </trkpt>
      <trkpt lat="45.65698" lon="5.2896">
        <ele>220</ele>
        <time>2021-05-08T08:03:24.153Z</time>
      </trkpt>
      <trkpt lat="45.65692" lon="5.28966">
        <ele>220</ele>
        <time>2021-05-08T08:03:25.153Z</time>
      </trkpt>
      <trkpt lat="45.65687" lon="5.28972">
        <ele>220</ele>
        <time>2021-05-08T08:03:26.152Z</time>
      </trkpt>
      <trkpt lat="45.65682" lon="5.28978">
        <ele>220</ele>
        <time>2021-05-08T08:03:27.153Z</time>
      </trkpt>
      <trkpt lat="45.65676" lon="5.28984">
        <ele>221</ele>
        <time>2021-05-08T08:03:28.153Z</time>
      </trkpt>
      <trkpt lat="45.6567" lon="5.2899">
        <ele>221</ele>
        <time>2021-05-08T08:03:29.153Z</time>
      </trkpt>
      <trkpt lat="45.65664" lon="5.28996">
        <ele>221</ele>
        <time>2021-05-08T08:03:30.153Z</time>
      </trkpt>
      <trkpt lat="45.65658" lon="5.29003">
        <ele>221</ele>
        <time>2021-05-08T08:03:31.152Z</time>
      </trkpt>
      <trkpt lat="45.65652" lon="5.29009">
        <ele>221</ele>
        <time>2021-05-08T08:03:32.152Z</time>
      </trkpt>
      <trkpt lat="45.65646" lon="5.29016">
        <ele>221</ele>
        <time>2021-05-08T08:03:33.153Z</time>
      </trkpt>
      <trkpt lat="45.6564" lon="5.29023">
        <ele>221</ele>
        <time>2021-05-08T08:03:34.152Z</time>
      </trkpt>
      <trkpt lat="45.65634" lon="5.29031">
        <ele>221</ele>
        <time>2021-05-08T08:03:35.153Z</time>
      </trkpt>
      <trkpt lat="45.65628" lon="5.29038">
        <ele>221</ele>
        <time>2021-05-08T08:03:36.152Z</time>
      </trkpt>
      <trkpt lat="45.65621" lon="5.29045">
        <ele>221</ele>
        <time>2021-05-08T08:03:37.153Z</time>
      </trkpt>
      <trkpt lat="45.65615" lon="5.29053">
        <ele>221</ele>
        <time>2021-05-08T08:03:38.153Z</time>
      </trkpt>
      <trkpt lat="45.65609" lon="5.2906">
        <ele>221</ele>
        <time>2021-05-08T08:03:39.152Z</time>
      </trkpt>
      <trkpt lat="45.65602" lon="5.29067">
        <ele>221</ele>
        <time>2021-05-08T08:03:40.153Z</time>
      </trkpt>
      <trkpt lat="45.65596" lon="5.29074">
        <ele>221</ele>
        <time>2021-05-08T08:03:41.152Z</time>
      </trkpt>
      <trkpt lat="45.6559" lon="5.29082">
        <ele>221</ele>
        <time>2021-05-08T08:03:42.152Z</time>
      </trkpt>
      <trkpt lat="45.65583" lon="5.29088">
        <ele>221</ele>
        <time>2021-05-08T08:03:43.152Z</time>
      </trkpt>
      <trkpt lat="45.65577" lon="5.29096">
        <ele>221</ele>
        <time>2021-05-08T08:03:44.152Z</time>
      </trkpt>
      <trkpt lat="45.65571" lon="5.29103">
        <ele>220</ele>
        <time>2021-05-08T08:03:45.153Z</time>
      </trkpt>
      <trkpt lat="45.65565" lon="5.29111">
        <ele>220</ele>
        <time>2021-05-08T08:03:46.153Z</time>
      </trkpt>
      <trkpt lat="45.65559" lon="5.29117">
        <ele>220</ele>
        <time>2021-05-08T08:03:47.152Z</time>
      </trkpt>
      <trkpt lat="45.65552" lon="5.29123">
        <ele>220</ele>
        <time>2021-05-08T08:03:48.153Z</time>
      </trkpt>
      <trkpt lat="45.65545" lon="5.29131">
        <ele>219</ele>
        <time>2021-05-08T08:03:49.152Z</time>
      </trkpt>
      <trkpt lat="45.65539" lon="5.29138">
        <ele>219</ele>
        <time>2021-05-08T08:03:50.153Z</time>
      </trkpt>
      <trkpt lat="45.65533" lon="5.29146">
        <ele>219</ele>
        <time>2021-05-08T08:03:51.152Z</time>
      </trkpt>
      <trkpt lat="45.65527" lon="5.29153">
        <ele>218</ele>
        <time>2021-05-08T08:03:52.152Z</time>
      </trkpt>
      <trkpt lat="45.6552" lon="5.2916">
        <ele>218</ele>
        <time>2021-05-08T08:03:53.152Z</time>
      </trkpt>
      <trkpt lat="45.65514" lon="5.29167">
        <ele>218</ele>
        <time>2021-05-08T08:03:54.153Z</time>
      </trkpt>
      <trkpt lat="45.65507" lon="5.29174">
        <ele>217</ele>
        <time>2021-05-08T08:03:55.152Z</time>
      </trkpt>
      <trkpt lat="45.65501" lon="5.29181">
        <ele>217</ele>
        <time>2021-05-08T08:03:56.152Z</time>
      </trkpt>
      <trkpt lat="45.65495" lon="5.29189">
        <ele>216</ele>
        <time>2021-05-08T08:03:57.153Z</time>
      </trkpt>
      <trkpt lat="45.6549" lon="5.29197">
        <ele>216</ele>
        <time>2021-05-08T08:03:58.152Z</time>
      </trkpt>
      <trkpt lat="45.65483" lon="5.29205">
        <ele>216</ele>
        <time>2021-05-08T08:03:59.152Z</time>
      </trkpt>
      <trkpt lat="45.65476" lon="5.29212">
        <ele>215</ele>
        <time>2021-05-08T08:04:00.153Z</time>
      </trkpt>
      <trkpt lat="45.65469" lon="5.29218">
        <ele>215</ele>
        <time>2021-05-08T08:04:01.153Z</time>
      </trkpt>
      <trkpt lat="45.65463" lon="5.29226">
        <ele>214</ele>
        <time>2021-05-08T08:04:02.153Z</time>
      </trkpt>
      <trkpt lat="45.65457" lon="5.29233">
        <ele>214</ele>
        <time>2021-05-08T08:04:03.152Z</time>
      </trkpt>
      <trkpt lat="45.65451" lon="5.2924">
        <ele>214</ele>
        <time>2021-05-08T08:04:04.153Z</time>
      </trkpt>
      <trkpt lat="45.65445" lon="5.29248">
        <ele>214</ele>
        <time>2021-05-08T08:04:05.153Z</time>
      </trkpt>
      <trkpt lat="45.65439" lon="5.29255">
        <ele>215</ele>
        <time>2021-05-08T08:04:06.152Z</time>
      </trkpt>
      <trkpt lat="45.65433" lon="5.29261">
        <ele>215</ele>
        <time>2021-05-08T08:04:07.153Z</time>
      </trkpt>
      <trkpt lat="45.65426" lon="5.29268">
        <ele>215</ele>
        <time>2021-05-08T08:04:08.153Z</time>
      </trkpt>
      <trkpt lat="45.6542" lon="5.29274">
        <ele>215</ele>
        <time>2021-05-08T08:04:09.153Z</time>
      </trkpt>
      <trkpt lat="45.65414" lon="5.29281">
        <ele>215</ele>
        <time>2021-05-08T08:04:10.152Z</time>
      </trkpt>
      <trkpt lat="45.65407" lon="5.29287">
        <ele>215</ele>
        <time>2021-05-08T08:04:11.153Z</time>
      </trkpt>
      <trkpt lat="45.65401" lon="5.29295">
        <ele>215</ele>
        <time>2021-05-08T08:04:12.152Z</time>
      </trkpt>
      <trkpt lat="45.65395" lon="5.29302">
        <ele>215</ele>
        <time>2021-05-08T08:04:13.153Z</time>
      </trkpt>
      <trkpt lat="45.65389" lon="5.29309">
        <ele>215</ele>
        <time>2021-05-08T08:04:14.152Z</time>
      </trkpt>
      <trkpt lat="45.65383" lon="5.29316">
        <ele>214</ele>
        <time>2021-05-08T08:04:15.153Z</time>
      </trkpt>
      <trkpt lat="45.65378" lon="5.29323">
        <ele>214</ele>
        <time>2021-05-08T08:04:16.153Z</time>
      </trkpt>
      <trkpt lat="45.65371" lon="5.2933">
        <ele>214</ele>
        <time>2021-05-08T08:04:17.153Z</time>
      </trkpt>
      <trkpt lat="45.65365" lon="5.29337">
        <ele>214</ele>
        <time>2021-05-08T08:04:18.153Z</time>
      </trkpt>
      <trkpt lat="45.65359" lon="5.29343">
        <ele>213</ele>
        <time>2021-05-08T08:04:19.152Z</time>
      </trkpt>
      <trkpt lat="45.65353" lon="5.2935">
        <ele>213</ele>
        <time>2021-05-08T08:04:20.152Z</time>
      </trkpt>
      <trkpt lat="45.65347" lon="5.29357">
        <ele>213</ele>
        <time>2021-05-08T08:04:21.153Z</time>
      </trkpt>
      <trkpt lat="45.65341" lon="5.29363">
        <ele>212</ele>
        <time>2021-05-08T08:04:22.153Z</time>
      </trkpt>
      <trkpt lat="45.65336" lon="5.2937">
        <ele>212</ele>
        <time>2021-05-08T08:04:23.152Z</time>
      </trkpt>
      <trkpt lat="45.6533" lon="5.29377">
        <ele>212</ele>
        <time>2021-05-08T08:04:24.153Z</time>
      </trkpt>
      <trkpt lat="45.65324" lon="5.29384">
        <ele>212</ele>
        <time>2021-05-08T08:04:25.153Z</time>
      </trkpt>
      <trkpt lat="45.65318" lon="5.2939">
        <ele>212</ele>
        <time>2021-05-08T08:04:26.152Z</time>
      </trkpt>
      <trkpt lat="45.65313" lon="5.29397">
        <ele>212</ele>
        <time>2021-05-08T08:04:27.152Z</time>
      </trkpt>
      <trkpt lat="45.65307" lon="5.29404">
        <ele>212</ele>
        <time>2021-05-08T08:04:28.153Z</time>
      </trkpt>
      <trkpt lat="45.65301" lon="5.29411">
        <ele>212</ele>
        <time>2021-05-08T08:04:29.153Z</time>
      </trkpt>
      <trkpt lat="45.65295" lon="5.29419">
        <ele>212</ele>
        <time>2021-05-08T08:04:30.152Z</time>
      </trkpt>
      <trkpt lat="45.6529" lon="5.29426">
        <ele>212</ele>
        <time>2021-05-08T08:04:31.153Z</time>
      </trkpt>
      <trkpt lat="45.65284" lon="5.29433">
        <ele>213</ele>
        <time>2021-05-08T08:04:32.153Z</time>
      </trkpt>
      <trkpt lat="45.65278" lon="5.2944">
        <ele>213</ele>
        <time>2021-05-08T08:04:33.153Z</time>
      </trkpt>
      <trkpt lat="45.65273" lon="5.29447">
        <ele>214</ele>
        <time>2021-05-08T08:04:34.153Z</time>
      </trkpt>
      <trkpt lat="45.65267" lon="5.29454">
        <ele>214</ele>
        <time>2021-05-08T08:04:35.153Z</time>
      </trkpt>
      <trkpt lat="45.65261" lon="5.29462">
        <ele>215</ele>
        <time>2021-05-08T08:04:36.153Z</time>
      </trkpt>
      <trkpt lat="45.65256" lon="5.2947">
        <ele>215</ele>
        <time>2021-05-08T08:04:37.153Z</time>
      </trkpt>
      <trkpt lat="45.6525" lon="5.29477">
        <ele>215</ele>
        <time>2021-05-08T08:04:38.153Z</time>
      </trkpt>
      <trkpt lat="45.65244" lon="5.29485">
        <ele>216</ele>
        <time>2021-05-08T08:04:39.152Z</time>
      </trkpt>
      <trkpt lat="45.65239" lon="5.29493">
        <ele>216</ele>
        <time>2021-05-08T08:04:40.152Z</time>
      </trkpt>
      <trkpt lat="45.65233" lon="5.29501">
        <ele>216</ele>
        <time>2021-05-08T08:04:41.152Z</time>
      </trkpt>
      <trkpt lat="45.65227" lon="5.29509">
        <ele>216</ele>
        <time>2021-05-08T08:04:42.153Z</time>
      </trkpt>
      <trkpt lat="45.65221" lon="5.29516">
        <ele>217</ele>
        <time>2021-05-08T08:04:43.152Z</time>
      </trkpt>
      <trkpt lat="45.65215" lon="5.29523">
        <ele>216</ele>
        <time>2021-05-08T08:04:44.152Z</time>
      </trkpt>
      <trkpt lat="45.6521" lon="5.2953">
        <ele>216</ele>
        <time>2021-05-08T08:04:45.152Z</time>
      </trkpt>
      <trkpt lat="45.65204" lon="5.29538">
        <ele>216</ele>
        <time>2021-05-08T08:04:46.152Z</time>
      </trkpt>
      <trkpt lat="45.65199" lon="5.29546">
        <ele>216</ele>
        <time>2021-05-08T08:04:47.153Z</time>
      </trkpt>
      <trkpt lat="45.65194" lon="5.29555">
        <ele>217</ele>
        <time>2021-05-08T08:04:48.153Z</time>
      </trkpt>
      <trkpt lat="45.65188" lon="5.29562">
        <ele>217</ele>
        <time>2021-05-08T08:04:49.152Z</time>
      </trkpt>
      <trkpt lat="45.65182" lon="5.2957">
        <ele>217</ele>
        <time>2021-05-08T08:04:50.153Z</time>
      </trkpt>
      <trkpt lat="45.65177" lon="5.29578">
        <ele>217</ele>
        <time>2021-05-08T08:04:51.152Z</time>
      </trkpt>
      <trkpt lat="45.65171" lon="5.29585">
        <ele>217</ele>
        <time>2021-05-08T08:04:52.153Z</time>
      </trkpt>
      <trkpt lat="45.65166" lon="5.29592">
        <ele>217</ele>
        <time>2021-05-08T08:04:53.153Z</time>
      </trkpt>
      <trkpt lat="45.6516" lon="5.29599">
        <ele>217</ele>
        <time>2021-05-08T08:04:54.153Z</time>
      </trkpt>
      <trkpt lat="45.65155" lon="5.29607">
        <ele>217</ele>
        <time>2021-05-08T08:04:55.152Z</time>
      </trkpt>
      <trkpt lat="45.6515" lon="5.29614">
        <ele>218</ele>
        <time>2021-05-08T08:04:56.153Z</time>
      </trkpt>
      <trkpt lat="45.65144" lon="5.29622">
        <ele>218</ele>
        <time>2021-05-08T08:04:57.153Z</time>
      </trkpt>
      <trkpt lat="45.65138" lon="5.29629">
        <ele>218</ele>
        <time>2021-05-08T08:04:58.152Z</time>
      </trkpt>
      <trkpt lat="45.65133" lon="5.29636">
        <ele>219</ele>
        <time>2021-05-08T08:04:59.153Z</time>
      </trkpt>
      <trkpt lat="45.65127" lon="5.29643">
        <ele>219</ele>
        <time>2021-05-08T08:05:00.152Z</time>
      </trkpt>
      <trkpt lat="45.65122" lon="5.2965">
        <ele>219</ele>
        <time>2021-05-08T08:05:01.153Z</time>
      </trkpt>
      <trkpt lat="45.65116" lon="5.29657">
        <ele>219</ele>
        <time>2021-05-08T08:05:02.152Z</time>
      </trkpt>
      <trkpt lat="45.6511" lon="5.29664">
        <ele>219</ele>
        <time>2021-05-08T08:05:03.152Z</time>
      </trkpt>
      <trkpt lat="45.65105" lon="5.29672">
        <ele>219</ele>
        <time>2021-05-08T08:05:04.152Z</time>
      </trkpt>
      <trkpt lat="45.65099" lon="5.29679">
        <ele>219</ele>
        <time>2021-05-08T08:05:05.152Z</time>
      </trkpt>
      <trkpt lat="45.65094" lon="5.29687">
        <ele>219</ele>
        <time>2021-05-08T08:05:06.153Z</time>
      </trkpt>
      <trkpt lat="45.65088" lon="5.29695">
        <ele>219</ele>
        <time>2021-05-08T08:05:07.152Z</time>
      </trkpt>
      <trkpt lat="45.65082" lon="5.29702">
        <ele>220</ele>
        <time>2021-05-08T08:05:08.153Z</time>
      </trkpt>
      <trkpt lat="45.65077" lon="5.2971">
        <ele>220</ele>
        <time>2021-05-08T08:05:09.153Z</time>
      </trkpt>
      <trkpt lat="45.65071" lon="5.29718">
        <ele>220</ele>
        <time>2021-05-08T08:05:10.153Z</time>
      </trkpt>
      <trkpt lat="45.65066" lon="5.29725">
        <ele>220</ele>
        <time>2021-05-08T08:05:11.153Z</time>
      </trkpt>
      <trkpt lat="45.6506" lon="5.29733">
        <ele>220</ele>
        <time>2021-05-08T08:05:12.153Z</time>
      </trkpt>
      <trkpt lat="45.65054" lon="5.2974">
        <ele>220</ele>
        <time>2021-05-08T08:05:13.153Z</time>
      </trkpt>
      <trkpt lat="45.65048" lon="5.29748">
        <ele>221</ele>
        <time>2021-05-08T08:05:14.152Z</time>
      </trkpt>
      <trkpt lat="45.65042" lon="5.29755">
        <ele>221</ele>
        <time>2021-05-08T08:05:15.153Z</time>
      </trkpt>
      <trkpt lat="45.65037" lon="5.29763">
        <ele>221</ele>
        <time>2021-05-08T08:05:16.152Z</time>
      </trkpt>
      <trkpt lat="45.65031" lon="5.29771">
        <ele>221</ele>
        <time>2021-05-08T08:05:17.153Z</time>
      </trkpt>
      <trkpt lat="45.65026" lon="5.2978">
        <ele>221</ele>
        <time>2021-05-08T08:05:18.152Z</time>
      </trkpt>
      <trkpt lat="45.65021" lon="5.29788">
        <ele>222</ele>
        <time>2021-05-08T08:05:19.153Z</time>
      </trkpt>
      <trkpt lat="45.65015" lon="5.29796">
        <ele>222</ele>
        <time>2021-05-08T08:05:20.152Z</time>
      </trkpt>
      <trkpt lat="45.6501" lon="5.29804">
        <ele>222</ele>
        <time>2021-05-08T08:05:21.153Z</time>
      </trkpt>
      <trkpt lat="45.65006" lon="5.29813">
        <ele>222</ele>
        <time>2021-05-08T08:05:22.153Z</time>
      </trkpt>
      <trkpt lat="45.65" lon="5.2982">
        <ele>222</ele>
        <time>2021-05-08T08:05:23.153Z</time>
      </trkpt>
      <trkpt lat="45.64994" lon="5.29828">
        <ele>222</ele>
        <time>2021-05-08T08:05:24.153Z</time>
      </trkpt>
      <trkpt lat="45.64987" lon="5.29835">
        <ele>222</ele>
        <time>2021-05-08T08:05:25.152Z</time>
      </trkpt>
      <trkpt lat="45.64982" lon="5.29843">
        <ele>222</ele>
        <time>2021-05-08T08:05:26.153Z</time>
      </trkpt>
      <trkpt lat="45.64977" lon="5.29851">
        <ele>221</ele>
        <time>2021-05-08T08:05:27.153Z</time>
      </trkpt>
      <trkpt lat="45.64971" lon="5.29858">
        <ele>221</ele>
        <time>2021-05-08T08:05:28.153Z</time>
      </trkpt>
      <trkpt lat="45.64965" lon="5.29865">
        <ele>221</ele>
        <time>2021-05-08T08:05:29.152Z</time>
      </trkpt>
      <trkpt lat="45.64959" lon="5.29872">
        <ele>220</ele>
        <time>2021-05-08T08:05:30.152Z</time>
      </trkpt>
      <trkpt lat="45.64954" lon="5.29879">
        <ele>220</ele>
        <time>2021-05-08T08:05:31.153Z</time>
      </trkpt>
      <trkpt lat="45.64949" lon="5.29886">
        <ele>220</ele>
        <time>2021-05-08T08:05:32.152Z</time>
      </trkpt>
      <trkpt lat="45.64943" lon="5.29893">
        <ele>220</ele>
        <time>2021-05-08T08:05:33.153Z</time>
      </trkpt>
      <trkpt lat="45.64938" lon="5.29901">
        <ele>220</ele>
        <time>2021-05-08T08:05:34.152Z</time>
      </trkpt>
      <trkpt lat="45.64933" lon="5.29908">
        <ele>220</ele>
        <time>2021-05-08T08:05:35.153Z</time>
      </trkpt>
      <trkpt lat="45.64927" lon="5.29916">
        <ele>220</ele>
        <time>2021-05-08T08:05:36.152Z</time>
      </trkpt>
      <trkpt lat="45.64922" lon="5.29923">
        <ele>220</ele>
        <time>2021-05-08T08:05:37.153Z</time>
      </trkpt>
      <trkpt lat="45.64917" lon="5.2993">
        <ele>220</ele>
        <time>2021-05-08T08:05:38.153Z</time>
      </trkpt>
      <trkpt lat="45.64911" lon="5.29937">
        <ele>220</ele>
        <time>2021-05-08T08:05:39.153Z</time>
      </trkpt>
      <trkpt lat="45.64906" lon="5.29944">
        <ele>220</ele>
        <time>2021-05-08T08:05:40.153Z</time>
      </trkpt>
      <trkpt lat="45.649" lon="5.29952">
        <ele>220</ele>
        <time>2021-05-08T08:05:41.153Z</time>
      </trkpt>
      <trkpt lat="45.64895" lon="5.29959">
        <ele>220</ele>
        <time>2021-05-08T08:05:42.153Z</time>
      </trkpt>
      <trkpt lat="45.6489" lon="5.29967">
        <ele>220</ele>
        <time>2021-05-08T08:05:43.153Z</time>
      </trkpt>
      <trkpt lat="45.64884" lon="5.29975">
        <ele>220</ele>
        <time>2021-05-08T08:05:44.153Z</time>
      </trkpt>
      <trkpt lat="45.64878" lon="5.29982">
        <ele>219</ele>
        <time>2021-05-08T08:05:45.153Z</time>
      </trkpt>
      <trkpt lat="45.64873" lon="5.29989">
        <ele>220</ele>
        <time>2021-05-08T08:05:46.153Z</time>
      </trkpt>
      <trkpt lat="45.64867" lon="5.29997">
        <ele>220</ele>
        <time>2021-05-08T08:05:47.152Z</time>
      </trkpt>
      <trkpt lat="45.64861" lon="5.30004">
        <ele>220</ele>
        <time>2021-05-08T08:05:48.152Z</time>
      </trkpt>
      <trkpt lat="45.64855" lon="5.30011">
        <ele>219</ele>
        <time>2021-05-08T08:05:49.152Z</time>
      </trkpt>
      <trkpt lat="45.6485" lon="5.30019">
        <ele>219</ele>
        <time>2021-05-08T08:05:50.152Z</time>
      </trkpt>
      <trkpt lat="45.64843" lon="5.30026">
        <ele>219</ele>
        <time>2021-05-08T08:05:51.153Z</time>
      </trkpt>
      <trkpt lat="45.64837" lon="5.30033">
        <ele>219</ele>
        <time>2021-05-08T08:05:52.153Z</time>
      </trkpt>
      <trkpt lat="45.64831" lon="5.3004">
        <ele>219</ele>
        <time>2021-05-08T08:05:53.153Z</time>
      </trkpt>
      <trkpt lat="45.64824" lon="5.30046">
        <ele>219</ele>
        <time>2021-05-08T08:05:54.152Z</time>
      </trkpt>
      <trkpt lat="45.64817" lon="5.30052">
        <ele>220</ele>
        <time>2021-05-08T08:05:55.152Z</time>
      </trkpt>
      <trkpt lat="45.6481" lon="5.30057">
        <ele>220</ele>
        <time>2021-05-08T08:05:56.153Z</time>
      </trkpt>
      <trkpt lat="45.64803" lon="5.30063">
        <ele>220</ele>
        <time>2021-05-08T08:05:57.152Z</time>
      </trkpt>
      <trkpt lat="45.64796" lon="5.30067">
        <ele>220</ele>
        <time>2021-05-08T08:05:58.153Z</time>
      </trkpt>
      <trkpt lat="45.64789" lon="5.30072">
        <ele>220</ele>
        <time>2021-05-08T08:05:59.153Z</time>
      </trkpt>
      <trkpt lat="45.64782" lon="5.30077">
        <ele>220</ele>
        <time>2021-05-08T08:06:00.153Z</time>
      </trkpt>
      <trkpt lat="45.64775" lon="5.30082">
        <ele>221</ele>
        <time>2021-05-08T08:06:01.153Z</time>
      </trkpt>
      <trkpt lat="45.64768" lon="5.30086">
        <ele>221</ele>
        <time>2021-05-08T08:06:02.153Z</time>
      </trkpt>
      <trkpt lat="45.64761" lon="5.30091">
        <ele>221</ele>
        <time>2021-05-08T08:06:03.153Z</time>
      </trkpt>
      <trkpt lat="45.64754" lon="5.30095">
        <ele>221</ele>
        <time>2021-05-08T08:06:04.152Z</time>
      </trkpt>
      <trkpt lat="45.64746" lon="5.301">
        <ele>221</ele>
        <time>2021-05-08T08:06:05.153Z</time>
      </trkpt>
      <trkpt lat="45.64739" lon="5.30105">
        <ele>221</ele>
        <time>2021-05-08T08:06:06.153Z</time>
      </trkpt>
      <trkpt lat="45.64733" lon="5.3011">
        <ele>220</ele>
        <time>2021-05-08T08:06:07.152Z</time>
      </trkpt>
      <trkpt lat="45.64726" lon="5.30115">
        <ele>220</ele>
        <time>2021-05-08T08:06:08.153Z</time>
      </trkpt>
      <trkpt lat="45.6472" lon="5.30119">
        <ele>220</ele>
        <time>2021-05-08T08:06:09.153Z</time>
      </trkpt>
      <trkpt lat="45.64713" lon="5.30124">
        <ele>220</ele>
        <time>2021-05-08T08:06:10.152Z</time>
      </trkpt>
      <trkpt lat="45.64706" lon="5.30129">
        <ele>220</ele>
        <time>2021-05-08T08:06:11.152Z</time>
      </trkpt>
      <trkpt lat="45.64698" lon="5.30133">
        <ele>219</ele>
        <time>2021-05-08T08:06:12.152Z</time>
      </trkpt>
      <trkpt lat="45.64691" lon="5.30137">
        <ele>219</ele>
        <time>2021-05-08T08:06:13.152Z</time>
      </trkpt>
      <trkpt lat="45.64684" lon="5.30142">
        <ele>219</ele>
        <time>2021-05-08T08:06:14.153Z</time>
      </trkpt>
      <trkpt lat="45.64676" lon="5.30147">
        <ele>219</ele>
        <time>2021-05-08T08:06:15.153Z</time>
      </trkpt>
      <trkpt lat="45.64669" lon="5.30151">
        <ele>219</ele>
        <time>2021-05-08T08:06:16.153Z</time>
      </trkpt>
      <trkpt lat="45.64662" lon="5.30155">
        <ele>218</ele>
        <time>2021-05-08T08:06:17.153Z</time>
      </trkpt>
      <trkpt lat="45.64654" lon="5.30159">
        <ele>218</ele>
        <time>2021-05-08T08:06:18.152Z</time>
      </trkpt>
      <trkpt lat="45.64648" lon="5.30165">
        <ele>218</ele>
        <time>2021-05-08T08:06:19.153Z</time>
      </trkpt>
      <trkpt lat="45.64641" lon="5.30169">
        <ele>217</ele>
        <time>2021-05-08T08:06:20.152Z</time>
      </trkpt>
      <trkpt lat="45.64634" lon="5.30173">
        <ele>217</ele>
        <time>2021-05-08T08:06:21.152Z</time>
      </trkpt>
      <trkpt lat="45.64627" lon="5.30176">
        <ele>216</ele>
        <time>2021-05-08T08:06:22.153Z</time>
      </trkpt>
      <trkpt lat="45.64622" lon="5.3018">
        <ele>216</ele>
        <time>2021-05-08T08:06:23.153Z</time>
      </trkpt>
      <trkpt lat="45.64617" lon="5.30183">
        <ele>216</ele>
        <time>2021-05-08T08:06:24.152Z</time>
      </trkpt>
      <trkpt lat="45.64612" lon="5.30185">
        <ele>215</ele>
        <time>2021-05-08T08:06:25.153Z</time>
      </trkpt>
      <trkpt lat="45.64609" lon="5.30185">
        <ele>215</ele>
        <time>2021-05-08T08:06:26.152Z</time>
      </trkpt>
      <trkpt lat="45.64607" lon="5.30185">
        <ele>215</ele>
        <time>2021-05-08T08:06:27.152Z</time>
      </trkpt>
      <trkpt lat="45.64605" lon="5.30184">
        <ele>215</ele>
        <time>2021-05-08T08:06:28.153Z</time>
      </trkpt>
      <trkpt lat="45.64604" lon="5.30184">
        <ele>215</ele>
        <time>2021-05-08T08:06:29.152Z</time>
      </trkpt>
      <trkpt lat="45.64601" lon="5.30181">
        <ele>215</ele>
        <time>2021-05-08T08:06:30.153Z</time>
      </trkpt>
      <trkpt lat="45.64599" lon="5.3018">
        <ele>215</ele>
        <time>2021-05-08T08:06:31.153Z</time>
      </trkpt>
      <trkpt lat="45.64597" lon="5.30178">
        <ele>215</ele>
        <time>2021-05-08T08:06:32.153Z</time>
      </trkpt>
      <trkpt lat="45.64594" lon="5.30176">
        <ele>215</ele>
        <time>2021-05-08T08:06:33.153Z</time>
      </trkpt>
      <trkpt lat="45.64591" lon="5.30175">
        <ele>215</ele>
        <time>2021-05-08T08:06:34.152Z</time>
      </trkpt>
      <trkpt lat="45.64587" lon="5.30173">
        <ele>215</ele>
        <time>2021-05-08T08:06:35.152Z</time>
      </trkpt>
      <trkpt lat="45.64582" lon="5.30171">
        <ele>214</ele>
        <time>2021-05-08T08:06:36.153Z</time>
      </trkpt>
      <trkpt lat="45.64578" lon="5.30167">
        <ele>214</ele>
        <time>2021-05-08T08:06:37.153Z</time>
      </trkpt>
      <trkpt lat="45.64573" lon="5.30163">
        <ele>214</ele>
        <time>2021-05-08T08:06:38.153Z</time>
      </trkpt>
      <trkpt lat="45.64568" lon="5.30157">
        <ele>213</ele>
        <time>2021-05-08T08:06:39.152Z</time>
      </trkpt>
      <trkpt lat="45.64563" lon="5.30151">
        <ele>213</ele>
        <time>2021-05-08T08:06:40.152Z</time>
      </trkpt>
      <trkpt lat="45.64558" lon="5.30145">
        <ele>213</ele>
        <time>2021-05-08T08:06:41.153Z</time>
      </trkpt>
      <trkpt lat="45.64553" lon="5.30138">
        <ele>213</ele>
        <time>2021-05-08T08:06:42.153Z</time>
      </trkpt>
      <trkpt lat="45.64548" lon="5.3013">
        <ele>213</ele>
        <time>2021-05-08T08:06:43.152Z</time>
      </trkpt>
      <trkpt lat="45.64543" lon="5.30122">
        <ele>213</ele>
        <time>2021-05-08T08:06:44.152Z</time>
      </trkpt>
      <trkpt lat="45.64538" lon="5.30114">
        <ele>213</ele>
        <time>2021-05-08T08:06:45.153Z</time>
      </trkpt>
      <trkpt lat="45.64532" lon="5.30106">
        <ele>213</ele>
        <time>2021-05-08T08:06:46.153Z</time>
      </trkpt>
      <trkpt lat="45.64526" lon="5.30098">
        <ele>213</ele>
        <time>2021-05-08T08:06:47.153Z</time>
      </trkpt>
      <trkpt lat="45.64521" lon="5.3009">
        <ele>213</ele>
        <time>2021-05-08T08:06:48.153Z</time>
      </trkpt>
      <trkpt lat="45.64515" lon="5.30082">
        <ele>213</ele>
        <time>2021-05-08T08:06:49.152Z</time>
      </trkpt>
      <trkpt lat="45.6451" lon="5.30074">
        <ele>213</ele>
        <time>2021-05-08T08:06:50.152Z</time>
      </trkpt>
      <trkpt lat="45.64504" lon="5.30066">
        <ele>213</ele>
        <time>2021-05-08T08:06:51.153Z</time>
      </trkpt>
      <trkpt lat="45.64498" lon="5.30057">
        <ele>214</ele>
        <time>2021-05-08T08:06:52.153Z</time>
      </trkpt>
      <trkpt lat="45.64493" lon="5.30048">
        <ele>214</ele>
        <time>2021-05-08T08:06:53.152Z</time>
      </trkpt>
      <trkpt lat="45.64487" lon="5.30039">
        <ele>213</ele>
        <time>2021-05-08T08:06:54.152Z</time>
      </trkpt>
      <trkpt lat="45.64481" lon="5.3003">
        <ele>213</ele>
        <time>2021-05-08T08:06:55.152Z</time>
      </trkpt>
      <trkpt lat="45.64476" lon="5.30021">
        <ele>213</ele>
        <time>2021-05-08T08:06:56.153Z</time>
      </trkpt>
      <trkpt lat="45.6447" lon="5.30012">
        <ele>213</ele>
        <time>2021-05-08T08:06:57.152Z</time>
      </trkpt>
      <trkpt lat="45.64464" lon="5.30003">
        <ele>213</ele>
        <time>2021-05-08T08:06:58.153Z</time>
      </trkpt>
      <trkpt lat="45.64458" lon="5.29995">
        <ele>213</ele>
        <time>2021-05-08T08:06:59.153Z</time>
      </trkpt>
      <trkpt lat="45.64453" lon="5.29987">
        <ele>213</ele>
        <time>2021-05-08T08:07:00.152Z</time>
      </trkpt>
      <trkpt lat="45.64447" lon="5.29978">
        <ele>213</ele>
        <time>2021-05-08T08:07:01.153Z</time>
      </trkpt>
      <trkpt lat="45.64441" lon="5.2997">
        <ele>213</ele>
        <time>2021-05-08T08:07:02.153Z</time>
      </trkpt>
      <trkpt lat="45.64435" lon="5.29961">
        <ele>214</ele>
        <time>2021-05-08T08:07:03.153Z</time>
      </trkpt>
      <trkpt lat="45.6443" lon="5.29953">
        <ele>215</ele>
        <time>2021-05-08T08:07:04.152Z</time>
      </trkpt>
      <trkpt lat="45.64423" lon="5.29944">
        <ele>215</ele>
        <time>2021-05-08T08:07:05.153Z</time>
      </trkpt>
      <trkpt lat="45.64418" lon="5.29936">
        <ele>216</ele>
        <time>2021-05-08T08:07:06.152Z</time>
      </trkpt>
      <trkpt lat="45.64412" lon="5.29927">
        <ele>217</ele>
        <time>2021-05-08T08:07:07.152Z</time>
      </trkpt>
      <trkpt lat="45.64406" lon="5.29919">
        <ele>217</ele>
        <time>2021-05-08T08:07:08.152Z</time>
      </trkpt>
      <trkpt lat="45.644" lon="5.29911">
        <ele>218</ele>
        <time>2021-05-08T08:07:09.152Z</time>
      </trkpt>
      <trkpt lat="45.64394" lon="5.29902">
        <ele>218</ele>
        <time>2021-05-08T08:07:10.153Z</time>
      </trkpt>
      <trkpt lat="45.64388" lon="5.29894">
        <ele>218</ele>
        <time>2021-05-08T08:07:11.153Z</time>
      </trkpt>
      <trkpt lat="45.64382" lon="5.29886">
        <ele>218</ele>
        <time>2021-05-08T08:07:12.153Z</time>
      </trkpt>
      <trkpt lat="45.64376" lon="5.29877">
        <ele>218</ele>
        <time>2021-05-08T08:07:13.153Z</time>
      </trkpt>
      <trkpt lat="45.64371" lon="5.29869">
        <ele>219</ele>
        <time>2021-05-08T08:07:14.153Z</time>
      </trkpt>
      <trkpt lat="45.64364" lon="5.2986">
        <ele>219</ele>
        <time>2021-05-08T08:07:15.153Z</time>
      </trkpt>
      <trkpt lat="45.64358" lon="5.29852">
        <ele>219</ele>
        <time>2021-05-08T08:07:16.152Z</time>
      </trkpt>
      <trkpt lat="45.64353" lon="5.29843">
        <ele>219</ele>
        <time>2021-05-08T08:07:17.153Z</time>
      </trkpt>
      <trkpt lat="45.64346" lon="5.29834">
        <ele>220</ele>
        <time>2021-05-08T08:07:18.153Z</time>
      </trkpt>
      <trkpt lat="45.6434" lon="5.29825">
        <ele>220</ele>
        <time>2021-05-08T08:07:19.153Z</time>
      </trkpt>
      <trkpt lat="45.64333" lon="5.29816">
        <ele>220</ele>
        <time>2021-05-08T08:07:20.153Z</time>
      </trkpt>
      <trkpt lat="45.64327" lon="5.29807">
        <ele>220</ele>
        <time>2021-05-08T08:07:21.153Z</time>
      </trkpt>
      <trkpt lat="45.64321" lon="5.29798">
        <ele>219</ele>
        <time>2021-05-08T08:07:22.152Z</time>
      </trkpt>
      <trkpt lat="45.64314" lon="5.29789">
        <ele>219</ele>
        <time>2021-05-08T08:07:23.153Z</time>
      </trkpt>
      <trkpt lat="45.64308" lon="5.2978">
        <ele>220</ele>
        <time>2021-05-08T08:07:24.152Z</time>
      </trkpt>
      <trkpt lat="45.64301" lon="5.29771">
        <ele>220</ele>
        <time>2021-05-08T08:07:25.153Z</time>
      </trkpt>
      <trkpt lat="45.64294" lon="5.29762">
        <ele>220</ele>
        <time>2021-05-08T08:07:26.153Z</time>
      </trkpt>
      <trkpt lat="45.64287" lon="5.29753">
        <ele>220</ele>
        <time>2021-05-08T08:07:27.153Z</time>
      </trkpt>
      <trkpt lat="45.6428" lon="5.29744">
        <ele>220</ele>
        <time>2021-05-08T08:07:28.152Z</time>
      </trkpt>
      <trkpt lat="45.64272" lon="5.29736">
        <ele>220</ele>
        <time>2021-05-08T08:07:29.153Z</time>
      </trkpt>
      <trkpt lat="45.64264" lon="5.29728">
        <ele>219</ele>
        <time>2021-05-08T08:07:30.152Z</time>
      </trkpt>
      <trkpt lat="45.64256" lon="5.2972">
        <ele>219</ele>
        <time>2021-05-08T08:07:31.152Z</time>
      </trkpt>
      <trkpt lat="45.64248" lon="5.29712">
        <ele>219</ele>
        <time>2021-05-08T08:07:32.152Z</time>
      </trkpt>
      <trkpt lat="45.64239" lon="5.29706">
        <ele>220</ele>
        <time>2021-05-08T08:07:33.153Z</time>
      </trkpt>
      <trkpt lat="45.6423" lon="5.297">
        <ele>220</ele>
        <time>2021-05-08T08:07:34.152Z</time>
      </trkpt>
      <trkpt lat="45.64221" lon="5.29695">
        <ele>220</ele>
        <time>2021-05-08T08:07:35.152Z</time>
      </trkpt>
      <trkpt lat="45.64212" lon="5.29691">
        <ele>220</ele>
        <time>2021-05-08T08:07:36.153Z</time>
      </trkpt>
      <trkpt lat="45.64203" lon="5.29687">
        <ele>220</ele>
        <time>2021-05-08T08:07:37.152Z</time>
      </trkpt>
      <trkpt lat="45.64194" lon="5.29684">
        <ele>220</ele>
        <time>2021-05-08T08:07:38.153Z</time>
      </trkpt>
      <trkpt lat="45.64184" lon="5.29681">
        <ele>220</ele>
        <time>2021-05-08T08:07:39.153Z</time>
      </trkpt>
      <trkpt lat="45.64175" lon="5.29678">
        <ele>220</ele>
        <time>2021-05-08T08:07:40.153Z</time>
      </trkpt>
      <trkpt lat="45.64165" lon="5.29677">
        <ele>219</ele>
        <time>2021-05-08T08:07:41.153Z</time>
      </trkpt>
      <trkpt lat="45.64156" lon="5.29675">
        <ele>219</ele>
        <time>2021-05-08T08:07:42.152Z</time>
      </trkpt>
      <trkpt lat="45.64146" lon="5.29674">
        <ele>219</ele>
        <time>2021-05-08T08:07:43.152Z</time>
      </trkpt>
      <trkpt lat="45.64136" lon="5.29673">
        <ele>219</ele>
        <time>2021-05-08T08:07:44.152Z</time>
      </trkpt>
      <trkpt lat="45.64127" lon="5.29671">
        <ele>219</ele>
        <time>2021-05-08T08:07:45.153Z</time>
      </trkpt>
      <trkpt lat="45.64117" lon="5.2967">
        <ele>219</ele>
        <time>2021-05-08T08:07:46.153Z</time>
      </trkpt>
      <trkpt lat="45.64108" lon="5.29669">
        <ele>219</ele>
        <time>2021-05-08T08:07:47.153Z</time>
      </trkpt>
      <trkpt lat="45.64098" lon="5.29668">
        <ele>219</ele>
        <time>2021-05-08T08:07:48.153Z</time>
      </trkpt>
      <trkpt lat="45.64089" lon="5.29666">
        <ele>219</ele>
        <time>2021-05-08T08:07:49.152Z</time>
      </trkpt>
      <trkpt lat="45.64079" lon="5.29665">
        <ele>219</ele>
        <time>2021-05-08T08:07:50.153Z</time>
      </trkpt>
      <trkpt lat="45.64068" lon="5.29663">
        <ele>219</ele>
        <time>2021-05-08T08:07:51.152Z</time>
      </trkpt>
      <trkpt lat="45.64061" lon="5.29663">
        <ele>220</ele>
        <time>2021-05-08T08:07:52.152Z</time>
      </trkpt>
      <trkpt lat="45.64052" lon="5.29661">
        <ele>220</ele>
        <time>2021-05-08T08:07:53.153Z</time>
      </trkpt>
      <trkpt lat="45.64043" lon="5.2966">
        <ele>220</ele>
        <time>2021-05-08T08:07:54.152Z</time>
      </trkpt>
      <trkpt lat="45.64032" lon="5.29658">
        <ele>220</ele>
        <time>2021-05-08T08:07:55.153Z</time>
      </trkpt>
      <trkpt lat="45.64024" lon="5.29657">
        <ele>220</ele>
        <time>2021-05-08T08:07:56.153Z</time>
      </trkpt>
      <trkpt lat="45.64015" lon="5.29656">
        <ele>220</ele>
        <time>2021-05-08T08:07:57.153Z</time>
      </trkpt>
      <trkpt lat="45.64006" lon="5.29655">
        <ele>221</ele>
        <time>2021-05-08T08:07:58.153Z</time>
      </trkpt>
      <trkpt lat="45.63995" lon="5.29653">
        <ele>221</ele>
        <time>2021-05-08T08:07:59.152Z</time>
      </trkpt>
      <trkpt lat="45.63986" lon="5.29652">
        <ele>221</ele>
        <time>2021-05-08T08:08:00.152Z</time>
      </trkpt>
      <trkpt lat="45.63977" lon="5.29651">
        <ele>222</ele>
        <time>2021-05-08T08:08:01.153Z</time>
      </trkpt>
      <trkpt lat="45.63968" lon="5.29649">
        <ele>222</ele>
        <time>2021-05-08T08:08:02.153Z</time>
      </trkpt>
      <trkpt lat="45.63961" lon="5.29648">
        <ele>221</ele>
        <time>2021-05-08T08:08:03.153Z</time>
      </trkpt>
      <trkpt lat="45.6395" lon="5.29647">
        <ele>221</ele>
        <time>2021-05-08T08:08:04.153Z</time>
      </trkpt>
      <trkpt lat="45.6394" lon="5.29645">
        <ele>221</ele>
        <time>2021-05-08T08:08:05.152Z</time>
      </trkpt>
      <trkpt lat="45.63931" lon="5.29644">
        <ele>221</ele>
        <time>2021-05-08T08:08:06.153Z</time>
      </trkpt>
      <trkpt lat="45.63922" lon="5.29643">
        <ele>222</ele>
        <time>2021-05-08T08:08:07.153Z</time>
      </trkpt>
      <trkpt lat="45.63913" lon="5.29642">
        <ele>222</ele>
        <time>2021-05-08T08:08:08.152Z</time>
      </trkpt>
      <trkpt lat="45.63904" lon="5.2964">
        <ele>222</ele>
        <time>2021-05-08T08:08:09.153Z</time>
      </trkpt>
      <trkpt lat="45.63894" lon="5.29639">
        <ele>222</ele>
        <time>2021-05-08T08:08:10.153Z</time>
      </trkpt>
      <trkpt lat="45.63885" lon="5.29638">
        <ele>222</ele>
        <time>2021-05-08T08:08:11.152Z</time>
      </trkpt>
      <trkpt lat="45.63878" lon="5.29637">
        <ele>222</ele>
        <time>2021-05-08T08:08:12.153Z</time>
      </trkpt>
      <trkpt lat="45.63869" lon="5.29636">
        <ele>222</ele>
        <time>2021-05-08T08:08:13.153Z</time>
      </trkpt>
      <trkpt lat="45.63858" lon="5.29634">
        <ele>222</ele>
        <time>2021-05-08T08:08:14.153Z</time>
      </trkpt>
      <trkpt lat="45.63849" lon="5.29633">
        <ele>222</ele>
        <time>2021-05-08T08:08:15.153Z</time>
      </trkpt>
      <trkpt lat="45.6384" lon="5.29632">
        <ele>222</ele>
        <time>2021-05-08T08:08:16.152Z</time>
      </trkpt>
      <trkpt lat="45.63833" lon="5.29631">
        <ele>223</ele>
        <time>2021-05-08T08:08:17.153Z</time>
      </trkpt>
      <trkpt lat="45.63824" lon="5.29629">
        <ele>222</ele>
        <time>2021-05-08T08:08:18.153Z</time>
      </trkpt>
      <trkpt lat="45.63815" lon="5.29628">
        <ele>222</ele>
        <time>2021-05-08T08:08:19.152Z</time>
      </trkpt>
      <trkpt lat="45.63806" lon="5.29627">
        <ele>222</ele>
        <time>2021-05-08T08:08:20.152Z</time>
      </trkpt>
      <trkpt lat="45.63797" lon="5.29626">
        <ele>223</ele>
        <time>2021-05-08T08:08:21.153Z</time>
      </trkpt>
      <trkpt lat="45.63788" lon="5.29624">
        <ele>222</ele>
        <time>2021-05-08T08:08:22.153Z</time>
      </trkpt>
      <trkpt lat="45.63779" lon="5.29623">
        <ele>222</ele>
        <time>2021-05-08T08:08:23.153Z</time>
      </trkpt>
      <trkpt lat="45.6377" lon="5.29621">
        <ele>222</ele>
        <time>2021-05-08T08:08:24.152Z</time>
      </trkpt>
      <trkpt lat="45.63759" lon="5.2962">
        <ele>222</ele>
        <time>2021-05-08T08:08:25.152Z</time>
      </trkpt>
      <trkpt lat="45.63752" lon="5.29619">
        <ele>222</ele>
        <time>2021-05-08T08:08:26.153Z</time>
      </trkpt>
      <trkpt lat="45.63743" lon="5.29617">
        <ele>221</ele>
        <time>2021-05-08T08:08:27.153Z</time>
      </trkpt>
      <trkpt lat="45.63734" lon="5.29616">
        <ele>221</ele>
        <time>2021-05-08T08:08:28.153Z</time>
      </trkpt>
      <trkpt lat="45.63724" lon="5.29614">
        <ele>221</ele>
        <time>2021-05-08T08:08:29.153Z</time>
      </trkpt>
      <trkpt lat="45.63715" lon="5.29613">
        <ele>221</ele>
        <time>2021-05-08T08:08:30.153Z</time>
      </trkpt>
      <trkpt lat="45.63705" lon="5.29611">
        <ele>221</ele>
        <time>2021-05-08T08:08:31.152Z</time>
      </trkpt>
      <trkpt lat="45.63696" lon="5.29609">
        <ele>220</ele>
        <time>2021-05-08T08:08:32.153Z</time>
      </trkpt>
      <trkpt lat="45.63687" lon="5.29608">
        <ele>220</ele>
        <time>2021-05-08T08:08:33.152Z</time>
      </trkpt>
      <trkpt lat="45.63678" lon="5.29607">
        <ele>220</ele>
        <time>2021-05-08T08:08:34.153Z</time>
      </trkpt>
      <trkpt lat="45.63668" lon="5.29605">
        <ele>220</ele>
        <time>2021-05-08T08:08:35.152Z</time>
      </trkpt>
      <trkpt lat="45.63659" lon="5.29604">
        <ele>221</ele>
        <time>2021-05-08T08:08:36.153Z</time>
      </trkpt>
      <trkpt lat="45.63649" lon="5.29603">
        <ele>221</ele>
        <time>2021-05-08T08:08:37.153Z</time>
      </trkpt>
      <trkpt lat="45.6364" lon="5.29601">
        <ele>221</ele>
        <time>2021-05-08T08:08:38.153Z</time>
      </trkpt>
      <trkpt lat="45.6363" lon="5.296">
        <ele>222</ele>
        <time>2021-05-08T08:08:39.152Z</time>
      </trkpt>
      <trkpt lat="45.63622" lon="5.29599">
        <ele>222</ele>
        <time>2021-05-08T08:08:40.153Z</time>
      </trkpt>
      <trkpt lat="45.63613" lon="5.29597">
        <ele>222</ele>
        <time>2021-05-08T08:08:41.153Z</time>
      </trkpt>
      <trkpt lat="45.63604" lon="5.29596">
        <ele>222</ele>
        <time>2021-05-08T08:08:42.152Z</time>
      </trkpt>
      <trkpt lat="45.63595" lon="5.29595">
        <ele>222</ele>
        <time>2021-05-08T08:08:43.153Z</time>
      </trkpt>
      <trkpt lat="45.63585" lon="5.29594">
        <ele>222</ele>
        <time>2021-05-08T08:08:44.153Z</time>
      </trkpt>
      <trkpt lat="45.63576" lon="5.29592">
        <ele>222</ele>
        <time>2021-05-08T08:08:45.153Z</time>
      </trkpt>
      <trkpt lat="45.63566" lon="5.29591">
        <ele>222</ele>
        <time>2021-05-08T08:08:46.153Z</time>
      </trkpt>
      <trkpt lat="45.63557" lon="5.29589">
        <ele>221</ele>
        <time>2021-05-08T08:08:47.153Z</time>
      </trkpt>
      <trkpt lat="45.63547" lon="5.29587">
        <ele>221</ele>
        <time>2021-05-08T08:08:48.153Z</time>
      </trkpt>
      <trkpt lat="45.63536" lon="5.29586">
        <ele>221</ele>
        <time>2021-05-08T08:08:49.152Z</time>
      </trkpt>
      <trkpt lat="45.63527" lon="5.29584">
        <ele>221</ele>
        <time>2021-05-08T08:08:50.153Z</time>
      </trkpt>
      <trkpt lat="45.63517" lon="5.29583">
        <ele>221</ele>
        <time>2021-05-08T08:08:51.153Z</time>
      </trkpt>
      <trkpt lat="45.6351" lon="5.29582">
        <ele>221</ele>
        <time>2021-05-08T08:08:52.152Z</time>
      </trkpt>
      <trkpt lat="45.635" lon="5.2958">
        <ele>221</ele>
        <time>2021-05-08T08:08:53.153Z</time>
      </trkpt>
      <trkpt lat="45.63489" lon="5.29578">
        <ele>221</ele>
        <time>2021-05-08T08:08:54.153Z</time>
      </trkpt>
      <trkpt lat="45.6348" lon="5.29576">
        <ele>221</ele>
        <time>2021-05-08T08:08:55.153Z</time>
      </trkpt>
      <trkpt lat="45.63473" lon="5.29575">
        <ele>221</ele>
        <time>2021-05-08T08:08:56.153Z</time>
      </trkpt>
      <trkpt lat="45.63464" lon="5.29573">
        <ele>221</ele>
        <time>2021-05-08T08:08:57.153Z</time>
      </trkpt>
      <trkpt lat="45.63455" lon="5.2957">
        <ele>221</ele>
        <time>2021-05-08T08:08:58.152Z</time>
      </trkpt>
      <trkpt lat="45.63446" lon="5.29568">
        <ele>221</ele>
        <time>2021-05-08T08:08:59.153Z</time>
      </trkpt>
      <trkpt lat="45.63437" lon="5.29565">
        <ele>221</ele>
        <time>2021-05-08T08:09:00.153Z</time>
      </trkpt>
      <trkpt lat="45.63427" lon="5.2956">
        <ele>221</ele>
        <time>2021-05-08T08:09:01.153Z</time>
      </trkpt>
      <trkpt lat="45.6342" lon="5.29557">
        <ele>222</ele>
        <time>2021-05-08T08:09:02.153Z</time>
      </trkpt>
      <trkpt lat="45.63411" lon="5.29553">
        <ele>222</ele>
        <time>2021-05-08T08:09:03.153Z</time>
      </trkpt>
      <trkpt lat="45.63401" lon="5.29547">
        <ele>222</ele>
        <time>2021-05-08T08:09:04.153Z</time>
      </trkpt>
      <trkpt lat="45.63393" lon="5.29541">
        <ele>222</ele>
        <time>2021-05-08T08:09:05.153Z</time>
      </trkpt>
      <trkpt lat="45.63385" lon="5.29535">
        <ele>222</ele>
        <time>2021-05-08T08:09:06.153Z</time>
      </trkpt>
      <trkpt lat="45.63379" lon="5.2953">
        <ele>222</ele>
        <time>2021-05-08T08:09:07.152Z</time>
      </trkpt>
      <trkpt lat="45.63372" lon="5.29523">
        <ele>222</ele>
        <time>2021-05-08T08:09:08.152Z</time>
      </trkpt>
      <trkpt lat="45.63364" lon="5.29516">
        <ele>222</ele>
        <time>2021-05-08T08:09:09.153Z</time>
      </trkpt>
      <trkpt lat="45.63358" lon="5.29509">
        <ele>222</ele>
        <time>2021-05-08T08:09:10.152Z</time>
      </trkpt>
      <trkpt lat="45.6335" lon="5.29501">
        <ele>223</ele>
        <time>2021-05-08T08:09:11.153Z</time>
      </trkpt>
      <trkpt lat="45.63343" lon="5.29493">
        <ele>223</ele>
        <time>2021-05-08T08:09:12.152Z</time>
      </trkpt>
      <trkpt lat="45.63334" lon="5.29484">
        <ele>223</ele>
        <time>2021-05-08T08:09:13.152Z</time>
      </trkpt>
      <trkpt lat="45.63327" lon="5.29477">
        <ele>223</ele>
        <time>2021-05-08T08:09:14.152Z</time>
      </trkpt>
      <trkpt lat="45.6332" lon="5.29469">
        <ele>222</ele>
        <time>2021-05-08T08:09:15.153Z</time>
      </trkpt>
      <trkpt lat="45.63313" lon="5.29461">
        <ele>222</ele>
        <time>2021-05-08T08:09:16.153Z</time>
      </trkpt>
      <trkpt lat="45.63306" lon="5.29454">
        <ele>222</ele>
        <time>2021-05-08T08:09:17.153Z</time>
      </trkpt>
      <trkpt lat="45.63299" lon="5.29446">
        <ele>221</ele>
        <time>2021-05-08T08:09:18.153Z</time>
      </trkpt>
      <trkpt lat="45.63293" lon="5.2944">
        <ele>221</ele>
        <time>2021-05-08T08:09:19.153Z</time>
      </trkpt>
      <trkpt lat="45.63285" lon="5.29431">
        <ele>221</ele>
        <time>2021-05-08T08:09:20.153Z</time>
      </trkpt>
      <trkpt lat="45.63279" lon="5.29425">
        <ele>221</ele>
        <time>2021-05-08T08:09:21.153Z</time>
      </trkpt>
      <trkpt lat="45.63273" lon="5.29418">
        <ele>221</ele>
        <time>2021-05-08T08:09:22.153Z</time>
      </trkpt>
      <trkpt lat="45.63264" lon="5.29408">
        <ele>220</ele>
        <time>2021-05-08T08:09:23.153Z</time>
      </trkpt>
      <trkpt lat="45.63257" lon="5.294">
        <ele>220</ele>
        <time>2021-05-08T08:09:24.153Z</time>
      </trkpt>
      <trkpt lat="45.6325" lon="5.29392">
        <ele>220</ele>
        <time>2021-05-08T08:09:25.153Z</time>
      </trkpt>
      <trkpt lat="45.63244" lon="5.29385">
        <ele>220</ele>
        <time>2021-05-08T08:09:26.153Z</time>
      </trkpt>
      <trkpt lat="45.63238" lon="5.29377">
        <ele>220</ele>
        <time>2021-05-08T08:09:27.152Z</time>
      </trkpt>
      <trkpt lat="45.63231" lon="5.29369">
        <ele>221</ele>
        <time>2021-05-08T08:09:28.153Z</time>
      </trkpt>
      <trkpt lat="45.63224" lon="5.2936">
        <ele>221</ele>
        <time>2021-05-08T08:09:29.152Z</time>
      </trkpt>
      <trkpt lat="45.63217" lon="5.29352">
        <ele>220</ele>
        <time>2021-05-08T08:09:30.152Z</time>
      </trkpt>
      <trkpt lat="45.6321" lon="5.29343">
        <ele>220</ele>
        <time>2021-05-08T08:09:31.153Z</time>
      </trkpt>
      <trkpt lat="45.63203" lon="5.29334">
        <ele>220</ele>
        <time>2021-05-08T08:09:32.153Z</time>
      </trkpt>
      <trkpt lat="45.63196" lon="5.29326">
        <ele>221</ele>
        <time>2021-05-08T08:09:33.153Z</time>
      </trkpt>
      <trkpt lat="45.63189" lon="5.29317">
        <ele>221</ele>
        <time>2021-05-08T08:09:34.152Z</time>
      </trkpt>
      <trkpt lat="45.63182" lon="5.29308">
        <ele>221</ele>
        <time>2021-05-08T08:09:35.153Z</time>
      </trkpt>
      <trkpt lat="45.63176" lon="5.293">
        <ele>221</ele>
        <time>2021-05-08T08:09:36.152Z</time>
      </trkpt>
      <trkpt lat="45.63169" lon="5.29291">
        <ele>221</ele>
        <time>2021-05-08T08:09:37.153Z</time>
      </trkpt>
      <trkpt lat="45.63162" lon="5.29282">
        <ele>221</ele>
        <time>2021-05-08T08:09:38.153Z</time>
      </trkpt>
      <trkpt lat="45.63155" lon="5.29273">
        <ele>221</ele>
        <time>2021-05-08T08:09:39.152Z</time>
      </trkpt>
      <trkpt lat="45.63148" lon="5.29264">
        <ele>221</ele>
        <time>2021-05-08T08:09:40.153Z</time>
      </trkpt>
      <trkpt lat="45.63142" lon="5.29256">
        <ele>221</ele>
        <time>2021-05-08T08:09:41.153Z</time>
      </trkpt>
      <trkpt lat="45.63135" lon="5.29247">
        <ele>221</ele>
        <time>2021-05-08T08:09:42.153Z</time>
      </trkpt>
      <trkpt lat="45.63128" lon="5.29239">
        <ele>221</ele>
        <time>2021-05-08T08:09:43.152Z</time>
      </trkpt>
      <trkpt lat="45.6312" lon="5.29228">
        <ele>221</ele>
        <time>2021-05-08T08:09:44.152Z</time>
      </trkpt>
      <trkpt lat="45.63114" lon="5.2922">
        <ele>221</ele>
        <time>2021-05-08T08:09:45.152Z</time>
      </trkpt>
      <trkpt lat="45.63108" lon="5.29214">
        <ele>221</ele>
        <time>2021-05-08T08:09:46.153Z</time>
      </trkpt>
      <trkpt lat="45.63102" lon="5.29205">
        <ele>220</ele>
        <time>2021-05-08T08:09:47.153Z</time>
      </trkpt>
      <trkpt lat="45.63095" lon="5.29197">
        <ele>219</ele>
        <time>2021-05-08T08:09:48.152Z</time>
      </trkpt>
      <trkpt lat="45.63088" lon="5.29188">
        <ele>219</ele>
        <time>2021-05-08T08:09:49.152Z</time>
      </trkpt>
      <trkpt lat="45.63082" lon="5.2918">
        <ele>218</ele>
        <time>2021-05-08T08:09:50.152Z</time>
      </trkpt>
      <trkpt lat="45.63075" lon="5.29171">
        <ele>218</ele>
        <time>2021-05-08T08:09:51.153Z</time>
      </trkpt>
      <trkpt lat="45.63069" lon="5.29163">
        <ele>218</ele>
        <time>2021-05-08T08:09:52.153Z</time>
      </trkpt>
      <trkpt lat="45.63063" lon="5.29155">
        <ele>217</ele>
        <time>2021-05-08T08:09:53.153Z</time>
      </trkpt>
      <trkpt lat="45.63056" lon="5.29147">
        <ele>217</ele>
        <time>2021-05-08T08:09:54.153Z</time>
      </trkpt>
      <trkpt lat="45.63049" lon="5.29138">
        <ele>217</ele>
        <time>2021-05-08T08:09:55.152Z</time>
      </trkpt>
      <trkpt lat="45.63043" lon="5.29129">
        <ele>217</ele>
        <time>2021-05-08T08:09:56.153Z</time>
      </trkpt>
      <trkpt lat="45.63036" lon="5.29121">
        <ele>218</ele>
        <time>2021-05-08T08:09:57.153Z</time>
      </trkpt>
      <trkpt lat="45.6303" lon="5.29113">
        <ele>218</ele>
        <time>2021-05-08T08:09:58.152Z</time>
      </trkpt>
      <trkpt lat="45.63023" lon="5.29105">
        <ele>218</ele>
        <time>2021-05-08T08:09:59.153Z</time>
      </trkpt>
      <trkpt lat="45.63017" lon="5.29097">
        <ele>218</ele>
        <time>2021-05-08T08:10:00.153Z</time>
      </trkpt>
      <trkpt lat="45.6301" lon="5.29088">
        <ele>218</ele>
        <time>2021-05-08T08:10:01.153Z</time>
      </trkpt>
      <trkpt lat="45.63004" lon="5.2908">
        <ele>217</ele>
        <time>2021-05-08T08:10:02.153Z</time>
      </trkpt>
      <trkpt lat="45.62997" lon="5.29072">
        <ele>217</ele>
        <time>2021-05-08T08:10:03.153Z</time>
      </trkpt>
      <trkpt lat="45.6299" lon="5.29063">
        <ele>217</ele>
        <time>2021-05-08T08:10:04.153Z</time>
      </trkpt>
      <trkpt lat="45.62984" lon="5.29055">
        <ele>216</ele>
        <time>2021-05-08T08:10:05.153Z</time>
      </trkpt>
      <trkpt lat="45.62977" lon="5.29047">
        <ele>216</ele>
        <time>2021-05-08T08:10:06.153Z</time>
      </trkpt>
      <trkpt lat="45.62971" lon="5.29039">
        <ele>216</ele>
        <time>2021-05-08T08:10:07.153Z</time>
      </trkpt>
      <trkpt lat="45.62966" lon="5.29032">
        <ele>216</ele>
        <time>2021-05-08T08:10:08.153Z</time>
      </trkpt>
      <trkpt lat="45.62958" lon="5.29023">
        <ele>216</ele>
        <time>2021-05-08T08:10:09.152Z</time>
      </trkpt>
      <trkpt lat="45.62952" lon="5.29014">
        <ele>216</ele>
        <time>2021-05-08T08:10:10.152Z</time>
      </trkpt>
      <trkpt lat="45.62947" lon="5.29008">
        <ele>216</ele>
        <time>2021-05-08T08:10:11.153Z</time>
      </trkpt>
      <trkpt lat="45.62941" lon="5.29001">
        <ele>217</ele>
        <time>2021-05-08T08:10:12.153Z</time>
      </trkpt>
      <trkpt lat="45.62933" lon="5.28991">
        <ele>217</ele>
        <time>2021-05-08T08:10:13.152Z</time>
      </trkpt>
      <trkpt lat="45.62927" lon="5.28984">
        <ele>217</ele>
        <time>2021-05-08T08:10:14.153Z</time>
      </trkpt>
      <trkpt lat="45.62922" lon="5.28977">
        <ele>217</ele>
        <time>2021-05-08T08:10:15.153Z</time>
      </trkpt>
      <trkpt lat="45.62917" lon="5.28971">
        <ele>217</ele>
        <time>2021-05-08T08:10:16.153Z</time>
      </trkpt>
      <trkpt lat="45.62911" lon="5.28963">
        <ele>217</ele>
        <time>2021-05-08T08:10:17.153Z</time>
      </trkpt>
      <trkpt lat="45.62906" lon="5.28956">
        <ele>217</ele>
        <time>2021-05-08T08:10:18.152Z</time>
      </trkpt>
      <trkpt lat="45.62901" lon="5.2895">
        <ele>217</ele>
        <time>2021-05-08T08:10:19.153Z</time>
      </trkpt>
      <trkpt lat="45.62896" lon="5.28943">
        <ele>217</ele>
        <time>2021-05-08T08:10:20.153Z</time>
      </trkpt>
      <trkpt lat="45.62892" lon="5.28939">
        <ele>217</ele>
        <time>2021-05-08T08:10:21.153Z</time>
      </trkpt>
      <trkpt lat="45.62888" lon="5.28933">
        <ele>217</ele>
        <time>2021-05-08T08:10:22.153Z</time>
      </trkpt>
      <trkpt lat="45.62884" lon="5.28929">
        <ele>217</ele>
        <time>2021-05-08T08:10:23.153Z</time>
      </trkpt>
      <trkpt lat="45.6288" lon="5.28924">
        <ele>217</ele>
        <time>2021-05-08T08:10:24.152Z</time>
      </trkpt>
      <trkpt lat="45.62876" lon="5.28918">
        <ele>217</ele>
        <time>2021-05-08T08:10:25.153Z</time>
      </trkpt>
      <trkpt lat="45.62872" lon="5.28913">
        <ele>218</ele>
        <time>2021-05-08T08:10:26.152Z</time>
      </trkpt>
      <trkpt lat="45.62867" lon="5.28907">
        <ele>218</ele>
        <time>2021-05-08T08:10:27.152Z</time>
      </trkpt>
      <trkpt lat="45.62862" lon="5.28901">
        <ele>218</ele>
        <time>2021-05-08T08:10:28.153Z</time>
      </trkpt>
      <trkpt lat="45.62857" lon="5.28894">
        <ele>218</ele>
        <time>2021-05-08T08:10:29.152Z</time>
      </trkpt>
      <trkpt lat="45.62852" lon="5.28887">
        <ele>218</ele>
        <time>2021-05-08T08:10:30.153Z</time>
      </trkpt>
      <trkpt lat="45.62846" lon="5.28881">
        <ele>218</ele>
        <time>2021-05-08T08:10:31.153Z</time>
      </trkpt>
      <trkpt lat="45.6284" lon="5.28874">
        <ele>218</ele>
        <time>2021-05-08T08:10:32.152Z</time>
      </trkpt>
      <trkpt lat="45.62834" lon="5.28867">
        <ele>219</ele>
        <time>2021-05-08T08:10:33.153Z</time>
      </trkpt>
      <trkpt lat="45.62828" lon="5.28859">
        <ele>219</ele>
        <time>2021-05-08T08:10:34.153Z</time>
      </trkpt>
      <trkpt lat="45.62822" lon="5.28852">
        <ele>220</ele>
        <time>2021-05-08T08:10:35.152Z</time>
      </trkpt>
      <trkpt lat="45.62816" lon="5.28844">
        <ele>220</ele>
        <time>2021-05-08T08:10:36.153Z</time>
      </trkpt>
      <trkpt lat="45.6281" lon="5.28837">
        <ele>220</ele>
        <time>2021-05-08T08:10:37.153Z</time>
      </trkpt>
      <trkpt lat="45.62804" lon="5.28829">
        <ele>220</ele>
        <time>2021-05-08T08:10:38.153Z</time>
      </trkpt>
      <trkpt lat="45.62796" lon="5.28819">
        <ele>220</ele>
        <time>2021-05-08T08:10:39.152Z</time>
      </trkpt>
      <trkpt lat="45.62791" lon="5.28813">
        <ele>221</ele>
        <time>2021-05-08T08:10:40.153Z</time>
      </trkpt>
      <trkpt lat="45.62785" lon="5.28804">
        <ele>220</ele>
        <time>2021-05-08T08:10:41.153Z</time>
      </trkpt>
      <trkpt lat="45.62779" lon="5.28796">
        <ele>220</ele>
        <time>2021-05-08T08:10:42.152Z</time>
      </trkpt>
      <trkpt lat="45.62773" lon="5.28788">
        <ele>220</ele>
        <time>2021-05-08T08:10:43.153Z</time>
      </trkpt>
      <trkpt lat="45.62766" lon="5.28779">
        <ele>220</ele>
        <time>2021-05-08T08:10:44.153Z</time>
      </trkpt>
      <trkpt lat="45.6276" lon="5.2877">
        <ele>220</ele>
        <time>2021-05-08T08:10:45.153Z</time>
      </trkpt>
      <trkpt lat="45.62754" lon="5.28763">
        <ele>220</ele>
        <time>2021-05-08T08:10:46.153Z</time>
      </trkpt>
      <trkpt lat="45.62748" lon="5.28755">
        <ele>219</ele>
        <time>2021-05-08T08:10:47.152Z</time>
      </trkpt>
      <trkpt lat="45.62741" lon="5.28747">
        <ele>219</ele>
        <time>2021-05-08T08:10:48.152Z</time>
      </trkpt>
      <trkpt lat="45.62735" lon="5.28738">
        <ele>219</ele>
        <time>2021-05-08T08:10:49.153Z</time>
      </trkpt>
      <trkpt lat="45.62728" lon="5.2873">
        <ele>219</ele>
        <time>2021-05-08T08:10:50.152Z</time>
      </trkpt>
      <trkpt lat="45.62721" lon="5.28723">
        <ele>219</ele>
        <time>2021-05-08T08:10:51.153Z</time>
      </trkpt>
      <trkpt lat="45.62714" lon="5.28716">
        <ele>219</ele>
        <time>2021-05-08T08:10:52.153Z</time>
      </trkpt>
      <trkpt lat="45.62707" lon="5.28711">
        <ele>219</ele>
        <time>2021-05-08T08:10:53.152Z</time>
      </trkpt>
      <trkpt lat="45.627" lon="5.28706">
        <ele>219</ele>
        <time>2021-05-08T08:10:54.152Z</time>
      </trkpt>
      <trkpt lat="45.62692" lon="5.28702">
        <ele>219</ele>
        <time>2021-05-08T08:10:55.153Z</time>
      </trkpt>
      <trkpt lat="45.62685" lon="5.287">
        <ele>219</ele>
        <time>2021-05-08T08:10:56.152Z</time>
      </trkpt>
      <trkpt lat="45.62677" lon="5.28697">
        <ele>220</ele>
        <time>2021-05-08T08:10:57.152Z</time>
      </trkpt>
      <trkpt lat="45.62668" lon="5.28695">
        <ele>220</ele>
        <time>2021-05-08T08:10:58.153Z</time>
      </trkpt>
      <trkpt lat="45.62661" lon="5.28692">
        <ele>220</ele>
        <time>2021-05-08T08:10:59.153Z</time>
      </trkpt>
      <trkpt lat="45.62653" lon="5.28689">
        <ele>220</ele>
        <time>2021-05-08T08:11:00.153Z</time>
      </trkpt>
      <trkpt lat="45.62645" lon="5.28686">
        <ele>220</ele>
        <time>2021-05-08T08:11:01.152Z</time>
      </trkpt>
      <trkpt lat="45.62637" lon="5.28682">
        <ele>220</ele>
        <time>2021-05-08T08:11:02.153Z</time>
      </trkpt>
      <trkpt lat="45.62629" lon="5.28679">
        <ele>221</ele>
        <time>2021-05-08T08:11:03.153Z</time>
      </trkpt>
      <trkpt lat="45.62621" lon="5.28676">
        <ele>220</ele>
        <time>2021-05-08T08:11:04.153Z</time>
      </trkpt>
      <trkpt lat="45.62614" lon="5.28671">
        <ele>220</ele>
        <time>2021-05-08T08:11:05.153Z</time>
      </trkpt>
      <trkpt lat="45.62608" lon="5.28666">
        <ele>220</ele>
        <time>2021-05-08T08:11:06.153Z</time>
      </trkpt>
      <trkpt lat="45.62601" lon="5.2866">
        <ele>219</ele>
        <time>2021-05-08T08:11:07.153Z</time>
      </trkpt>
      <trkpt lat="45.62592" lon="5.28654">
        <ele>219</ele>
        <time>2021-05-08T08:11:08.153Z</time>
      </trkpt>
      <trkpt lat="45.62585" lon="5.2865">
        <ele>219</ele>
        <time>2021-05-08T08:11:09.153Z</time>
      </trkpt>
      <trkpt lat="45.62579" lon="5.28645">
        <ele>219</ele>
        <time>2021-05-08T08:11:10.152Z</time>
      </trkpt>
      <trkpt lat="45.62573" lon="5.28639">
        <ele>219</ele>
        <time>2021-05-08T08:11:11.152Z</time>
      </trkpt>
      <trkpt lat="45.62566" lon="5.28632">
        <ele>219</ele>
        <time>2021-05-08T08:11:12.153Z</time>
      </trkpt>
      <trkpt lat="45.6256" lon="5.28625">
        <ele>218</ele>
        <time>2021-05-08T08:11:13.152Z</time>
      </trkpt>
      <trkpt lat="45.62553" lon="5.28615">
        <ele>218</ele>
        <time>2021-05-08T08:11:14.153Z</time>
      </trkpt>
      <trkpt lat="45.62548" lon="5.28609">
        <ele>219</ele>
        <time>2021-05-08T08:11:15.153Z</time>
      </trkpt>
      <trkpt lat="45.62542" lon="5.28601">
        <ele>219</ele>
        <time>2021-05-08T08:11:16.153Z</time>
      </trkpt>
      <trkpt lat="45.62534" lon="5.28591">
        <ele>219</ele>
        <time>2021-05-08T08:11:17.153Z</time>
      </trkpt>
      <trkpt lat="45.62528" lon="5.28583">
        <ele>219</ele>
        <time>2021-05-08T08:11:18.153Z</time>
      </trkpt>
      <trkpt lat="45.62523" lon="5.28576">
        <ele>220</ele>
        <time>2021-05-08T08:11:19.152Z</time>
      </trkpt>
      <trkpt lat="45.62517" lon="5.28568">
        <ele>220</ele>
        <time>2021-05-08T08:11:20.153Z</time>
      </trkpt>
      <trkpt lat="45.62509" lon="5.28558">
        <ele>220</ele>
        <time>2021-05-08T08:11:21.153Z</time>
      </trkpt>
      <trkpt lat="45.62504" lon="5.28548">
        <ele>221</ele>
        <time>2021-05-08T08:11:22.153Z</time>
      </trkpt>
      <trkpt lat="45.62498" lon="5.28539">
        <ele>221</ele>
        <time>2021-05-08T08:11:23.152Z</time>
      </trkpt>
      <trkpt lat="45.62493" lon="5.28528">
        <ele>221</ele>
        <time>2021-05-08T08:11:24.153Z</time>
      </trkpt>
      <trkpt lat="45.6249" lon="5.28519">
        <ele>221</ele>
        <time>2021-05-08T08:11:25.152Z</time>
      </trkpt>
      <trkpt lat="45.62487" lon="5.28508">
        <ele>221</ele>
        <time>2021-05-08T08:11:26.153Z</time>
      </trkpt>
      <trkpt lat="45.62484" lon="5.28496">
        <ele>222</ele>
        <time>2021-05-08T08:11:27.153Z</time>
      </trkpt>
      <trkpt lat="45.62482" lon="5.28483">
        <ele>222</ele>
        <time>2021-05-08T08:11:28.153Z</time>
      </trkpt>
      <trkpt lat="45.6248" lon="5.28471">
        <ele>222</ele>
        <time>2021-05-08T08:11:29.153Z</time>
      </trkpt>
      <trkpt lat="45.62478" lon="5.28458">
        <ele>222</ele>
        <time>2021-05-08T08:11:30.153Z</time>
      </trkpt>
      <trkpt lat="45.62476" lon="5.28446">
        <ele>222</ele>
        <time>2021-05-08T08:11:31.153Z</time>
      </trkpt>
      <trkpt lat="45.62474" lon="5.28434">
        <ele>222</ele>
        <time>2021-05-08T08:11:32.153Z</time>
      </trkpt>
      <trkpt lat="45.6247" lon="5.28419">
        <ele>222</ele>
        <time>2021-05-08T08:11:33.153Z</time>
      </trkpt>
      <trkpt lat="45.62468" lon="5.2841">
        <ele>222</ele>
        <time>2021-05-08T08:11:34.152Z</time>
      </trkpt>
      <trkpt lat="45.62463" lon="5.28399">
        <ele>222</ele>
        <time>2021-05-08T08:11:35.153Z</time>
      </trkpt>
      <trkpt lat="45.62459" lon="5.28388">
        <ele>222</ele>
        <time>2021-05-08T08:11:36.153Z</time>
      </trkpt>
      <trkpt lat="45.62453" lon="5.28379">
        <ele>222</ele>
        <time>2021-05-08T08:11:37.153Z</time>
      </trkpt>
      <trkpt lat="45.62447" lon="5.2837">
        <ele>222</ele>
        <time>2021-05-08T08:11:38.153Z</time>
      </trkpt>
      <trkpt lat="45.62441" lon="5.28361">
        <ele>222</ele>
        <time>2021-05-08T08:11:39.153Z</time>
      </trkpt>
      <trkpt lat="45.62435" lon="5.28353">
        <ele>222</ele>
        <time>2021-05-08T08:11:40.152Z</time>
      </trkpt>
      <trkpt lat="45.62428" lon="5.28344">
        <ele>221</ele>
        <time>2021-05-08T08:11:41.153Z</time>
      </trkpt>
      <trkpt lat="45.62422" lon="5.28335">
        <ele>221</ele>
        <time>2021-05-08T08:11:42.153Z</time>
      </trkpt>
      <trkpt lat="45.62416" lon="5.28327">
        <ele>221</ele>
        <time>2021-05-08T08:11:43.152Z</time>
      </trkpt>
      <trkpt lat="45.62409" lon="5.28318">
        <ele>221</ele>
        <time>2021-05-08T08:11:44.152Z</time>
      </trkpt>
      <trkpt lat="45.62403" lon="5.2831">
        <ele>221</ele>
        <time>2021-05-08T08:11:45.153Z</time>
      </trkpt>
      <trkpt lat="45.62396" lon="5.28301">
        <ele>221</ele>
        <time>2021-05-08T08:11:46.153Z</time>
      </trkpt>
      <trkpt lat="45.62389" lon="5.28293">
        <ele>220</ele>
        <time>2021-05-08T08:11:47.152Z</time>
      </trkpt>
      <trkpt lat="45.62383" lon="5.28285">
        <ele>220</ele>
        <time>2021-05-08T08:11:48.152Z</time>
      </trkpt>
      <trkpt lat="45.62376" lon="5.28277">
        <ele>220</ele>
        <time>2021-05-08T08:11:49.153Z</time>
      </trkpt>
      <trkpt lat="45.62369" lon="5.28269">
        <ele>220</ele>
        <time>2021-05-08T08:11:50.152Z</time>
      </trkpt>
      <trkpt lat="45.62362" lon="5.28259">
        <ele>220</ele>
        <time>2021-05-08T08:11:51.152Z</time>
      </trkpt>
      <trkpt lat="45.62357" lon="5.28253">
        <ele>220</ele>
        <time>2021-05-08T08:11:52.153Z</time>
      </trkpt>
      <trkpt lat="45.6235" lon="5.28245">
        <ele>219</ele>
        <time>2021-05-08T08:11:53.153Z</time>
      </trkpt>
      <trkpt lat="45.62343" lon="5.28235">
        <ele>219</ele>
        <time>2021-05-08T08:11:54.153Z</time>
      </trkpt>
      <trkpt lat="45.62337" lon="5.28228">
        <ele>219</ele>
        <time>2021-05-08T08:11:55.153Z</time>
      </trkpt>
      <trkpt lat="45.62331" lon="5.2822">
        <ele>219</ele>
        <time>2021-05-08T08:11:56.153Z</time>
      </trkpt>
      <trkpt lat="45.62324" lon="5.28211">
        <ele>219</ele>
        <time>2021-05-08T08:11:57.153Z</time>
      </trkpt>
      <trkpt lat="45.62318" lon="5.28203">
        <ele>220</ele>
        <time>2021-05-08T08:11:58.153Z</time>
      </trkpt>
      <trkpt lat="45.62311" lon="5.28195">
        <ele>220</ele>
        <time>2021-05-08T08:11:59.153Z</time>
      </trkpt>
      <trkpt lat="45.62305" lon="5.28186">
        <ele>220</ele>
        <time>2021-05-08T08:12:00.153Z</time>
      </trkpt>
      <trkpt lat="45.62299" lon="5.28178">
        <ele>221</ele>
        <time>2021-05-08T08:12:01.152Z</time>
      </trkpt>
      <trkpt lat="45.62292" lon="5.2817">
        <ele>221</ele>
        <time>2021-05-08T08:12:02.152Z</time>
      </trkpt>
      <trkpt lat="45.62286" lon="5.28163">
        <ele>222</ele>
        <time>2021-05-08T08:12:03.153Z</time>
      </trkpt>
      <trkpt lat="45.6228" lon="5.28155">
        <ele>223</ele>
        <time>2021-05-08T08:12:04.152Z</time>
      </trkpt>
      <trkpt lat="45.62274" lon="5.28147">
        <ele>223</ele>
        <time>2021-05-08T08:12:05.153Z</time>
      </trkpt>
      <trkpt lat="45.62268" lon="5.28139">
        <ele>223</ele>
        <time>2021-05-08T08:12:06.152Z</time>
      </trkpt>
      <trkpt lat="45.62262" lon="5.28131">
        <ele>223</ele>
        <time>2021-05-08T08:12:07.152Z</time>
      </trkpt>
      <trkpt lat="45.62256" lon="5.28123">
        <ele>223</ele>
        <time>2021-05-08T08:12:08.153Z</time>
      </trkpt>
      <trkpt lat="45.6225" lon="5.28116">
        <ele>223</ele>
        <time>2021-05-08T08:12:09.153Z</time>
      </trkpt>
      <trkpt lat="45.62244" lon="5.28108">
        <ele>223</ele>
        <time>2021-05-08T08:12:10.153Z</time>
      </trkpt>
      <trkpt lat="45.62238" lon="5.28101">
        <ele>224</ele>
        <time>2021-05-08T08:12:11.153Z</time>
      </trkpt>
      <trkpt lat="45.62232" lon="5.28093">
        <ele>224</ele>
        <time>2021-05-08T08:12:12.153Z</time>
      </trkpt>
      <trkpt lat="45.62226" lon="5.28085">
        <ele>224</ele>
        <time>2021-05-08T08:12:13.153Z</time>
      </trkpt>
      <trkpt lat="45.6222" lon="5.28077">
        <ele>224</ele>
        <time>2021-05-08T08:12:14.152Z</time>
      </trkpt>
      <trkpt lat="45.62214" lon="5.2807">
        <ele>224</ele>
        <time>2021-05-08T08:12:15.153Z</time>
      </trkpt>
      <trkpt lat="45.62206" lon="5.2806">
        <ele>224</ele>
        <time>2021-05-08T08:12:16.153Z</time>
      </trkpt>
      <trkpt lat="45.62201" lon="5.28053">
        <ele>225</ele>
        <time>2021-05-08T08:12:17.153Z</time>
      </trkpt>
      <trkpt lat="45.62195" lon="5.28045">
        <ele>225</ele>
        <time>2021-05-08T08:12:18.153Z</time>
      </trkpt>
      <trkpt lat="45.6219" lon="5.28039">
        <ele>225</ele>
        <time>2021-05-08T08:12:19.152Z</time>
      </trkpt>
      <trkpt lat="45.62183" lon="5.28031">
        <ele>225</ele>
        <time>2021-05-08T08:12:20.152Z</time>
      </trkpt>
      <trkpt lat="45.62179" lon="5.28025">
        <ele>224</ele>
        <time>2021-05-08T08:12:21.152Z</time>
      </trkpt>
      <trkpt lat="45.62172" lon="5.28016">
        <ele>224</ele>
        <time>2021-05-08T08:12:22.152Z</time>
      </trkpt>
      <trkpt lat="45.62167" lon="5.2801">
        <ele>225</ele>
        <time>2021-05-08T08:12:23.153Z</time>
      </trkpt>
      <trkpt lat="45.62162" lon="5.28002">
        <ele>225</ele>
        <time>2021-05-08T08:12:24.152Z</time>
      </trkpt>
      <trkpt lat="45.62155" lon="5.27992">
        <ele>225</ele>
        <time>2021-05-08T08:12:25.153Z</time>
      </trkpt>
      <trkpt lat="45.62151" lon="5.27985">
        <ele>225</ele>
        <time>2021-05-08T08:12:26.152Z</time>
      </trkpt>
      <trkpt lat="45.62146" lon="5.27977">
        <ele>225</ele>
        <time>2021-05-08T08:12:27.153Z</time>
      </trkpt>
      <trkpt lat="45.6214" lon="5.27968">
        <ele>225</ele>
        <time>2021-05-08T08:12:28.153Z</time>
      </trkpt>
      <trkpt lat="45.62135" lon="5.27959">
        <ele>225</ele>
        <time>2021-05-08T08:12:29.153Z</time>
      </trkpt>
      <trkpt lat="45.62129" lon="5.2795">
        <ele>225</ele>
        <time>2021-05-08T08:12:30.153Z</time>
      </trkpt>
      <trkpt lat="45.62123" lon="5.27939">
        <ele>225</ele>
        <time>2021-05-08T08:12:31.153Z</time>
      </trkpt>
      <trkpt lat="45.62118" lon="5.27929">
        <ele>224</ele>
        <time>2021-05-08T08:12:32.153Z</time>
      </trkpt>
      <trkpt lat="45.62114" lon="5.27922">
        <ele>225</ele>
        <time>2021-05-08T08:12:33.153Z</time>
      </trkpt>
      <trkpt lat="45.62109" lon="5.27912">
        <ele>225</ele>
        <time>2021-05-08T08:12:34.152Z</time>
      </trkpt>
      <trkpt lat="45.62103" lon="5.27902">
        <ele>225</ele>
        <time>2021-05-08T08:12:35.153Z</time>
      </trkpt>
      <trkpt lat="45.62098" lon="5.27892">
        <ele>225</ele>
        <time>2021-05-08T08:12:36.153Z</time>
      </trkpt>
      <trkpt lat="45.62093" lon="5.27882">
        <ele>225</ele>
        <time>2021-05-08T08:12:37.153Z</time>
      </trkpt>
      <trkpt lat="45.62088" lon="5.27872">
        <ele>226</ele>
        <time>2021-05-08T08:12:38.152Z</time>
      </trkpt>
      <trkpt lat="45.62084" lon="5.27862">
        <ele>226</ele>
        <time>2021-05-08T08:12:39.153Z</time>
      </trkpt>
      <trkpt lat="45.62079" lon="5.27852">
        <ele>226</ele>
        <time>2021-05-08T08:12:40.152Z</time>
      </trkpt>
      <trkpt lat="45.62074" lon="5.27842">
        <ele>226</ele>
        <time>2021-05-08T08:12:41.153Z</time>
      </trkpt>
      <trkpt lat="45.6207" lon="5.27831">
        <ele>226</ele>
        <time>2021-05-08T08:12:42.153Z</time>
      </trkpt>
      <trkpt lat="45.62065" lon="5.2782">
        <ele>226</ele>
        <time>2021-05-08T08:12:43.153Z</time>
      </trkpt>
      <trkpt lat="45.62061" lon="5.27809">
        <ele>226</ele>
        <time>2021-05-08T08:12:44.153Z</time>
      </trkpt>
      <trkpt lat="45.62056" lon="5.27798">
        <ele>226</ele>
        <time>2021-05-08T08:12:45.153Z</time>
      </trkpt>
      <trkpt lat="45.62052" lon="5.27786">
        <ele>226</ele>
        <time>2021-05-08T08:12:46.153Z</time>
      </trkpt>
      <trkpt lat="45.62048" lon="5.27775">
        <ele>226</ele>
        <time>2021-05-08T08:12:47.152Z</time>
      </trkpt>
      <trkpt lat="45.62044" lon="5.27763">
        <ele>226</ele>
        <time>2021-05-08T08:12:48.153Z</time>
      </trkpt>
      <trkpt lat="45.6204" lon="5.27752">
        <ele>226</ele>
        <time>2021-05-08T08:12:49.152Z</time>
      </trkpt>
      <trkpt lat="45.62036" lon="5.2774">
        <ele>226</ele>
        <time>2021-05-08T08:12:50.153Z</time>
      </trkpt>
      <trkpt lat="45.62032" lon="5.27728">
        <ele>226</ele>
        <time>2021-05-08T08:12:51.153Z</time>
      </trkpt>
      <trkpt lat="45.62028" lon="5.27717">
        <ele>226</ele>
        <time>2021-05-08T08:12:52.152Z</time>
      </trkpt>
      <trkpt lat="45.62024" lon="5.27705">
        <ele>226</ele>
        <time>2021-05-08T08:12:53.153Z</time>
      </trkpt>
      <trkpt lat="45.6202" lon="5.27693">
        <ele>225</ele>
        <time>2021-05-08T08:12:54.153Z</time>
      </trkpt>
      <trkpt lat="45.62016" lon="5.27682">
        <ele>224</ele>
        <time>2021-05-08T08:12:55.153Z</time>
      </trkpt>
      <trkpt lat="45.62013" lon="5.2767">
        <ele>223</ele>
        <time>2021-05-08T08:12:56.152Z</time>
      </trkpt>
      <trkpt lat="45.62009" lon="5.27658">
        <ele>223</ele>
        <time>2021-05-08T08:12:57.153Z</time>
      </trkpt>
      <trkpt lat="45.62005" lon="5.27647">
        <ele>222</ele>
        <time>2021-05-08T08:12:58.153Z</time>
      </trkpt>
      <trkpt lat="45.62001" lon="5.27636">
        <ele>221</ele>
        <time>2021-05-08T08:12:59.153Z</time>
      </trkpt>
      <trkpt lat="45.61997" lon="5.27624">
        <ele>221</ele>
        <time>2021-05-08T08:13:00.153Z</time>
      </trkpt>
      <trkpt lat="45.61993" lon="5.27612">
        <ele>220</ele>
        <time>2021-05-08T08:13:01.152Z</time>
      </trkpt>
      <trkpt lat="45.61989" lon="5.276">
        <ele>220</ele>
        <time>2021-05-08T08:13:02.153Z</time>
      </trkpt>
      <trkpt lat="45.61985" lon="5.27588">
        <ele>220</ele>
        <time>2021-05-08T08:13:03.153Z</time>
      </trkpt>
      <trkpt lat="45.61981" lon="5.27576">
        <ele>219</ele>
        <time>2021-05-08T08:13:04.153Z</time>
      </trkpt>
      <trkpt lat="45.61978" lon="5.27563">
        <ele>219</ele>
        <time>2021-05-08T08:13:05.152Z</time>
      </trkpt>
      <trkpt lat="45.61974" lon="5.27551">
        <ele>219</ele>
        <time>2021-05-08T08:13:06.152Z</time>
      </trkpt>
      <trkpt lat="45.6197" lon="5.27538">
        <ele>219</ele>
        <time>2021-05-08T08:13:07.153Z</time>
      </trkpt>
      <trkpt lat="45.61965" lon="5.27526">
        <ele>219</ele>
        <time>2021-05-08T08:13:08.153Z</time>
      </trkpt>
      <trkpt lat="45.61961" lon="5.27513">
        <ele>219</ele>
        <time>2021-05-08T08:13:09.153Z</time>
      </trkpt>
      <trkpt lat="45.61956" lon="5.275">
        <ele>219</ele>
        <time>2021-05-08T08:13:10.153Z</time>
      </trkpt>
      <trkpt lat="45.61952" lon="5.27487">
        <ele>219</ele>
        <time>2021-05-08T08:13:11.153Z</time>
      </trkpt>
      <trkpt lat="45.61947" lon="5.27474">
        <ele>219</ele>
        <time>2021-05-08T08:13:12.153Z</time>
      </trkpt>
      <trkpt lat="45.61943" lon="5.27461">
        <ele>220</ele>
        <time>2021-05-08T08:13:13.152Z</time>
      </trkpt>
      <trkpt lat="45.61939" lon="5.27448">
        <ele>220</ele>
        <time>2021-05-08T08:13:14.153Z</time>
      </trkpt>
      <trkpt lat="45.61935" lon="5.27435">
        <ele>220</ele>
        <time>2021-05-08T08:13:15.153Z</time>
      </trkpt>
      <trkpt lat="45.6193" lon="5.27422">
        <ele>220</ele>
        <time>2021-05-08T08:13:16.153Z</time>
      </trkpt>
      <trkpt lat="45.61925" lon="5.2741">
        <ele>220</ele>
        <time>2021-05-08T08:13:17.152Z</time>
      </trkpt>
      <trkpt lat="45.6192" lon="5.27397">
        <ele>220</ele>
        <time>2021-05-08T08:13:18.153Z</time>
      </trkpt>
      <trkpt lat="45.61915" lon="5.27385">
        <ele>220</ele>
        <time>2021-05-08T08:13:19.153Z</time>
      </trkpt>
      <trkpt lat="45.6191" lon="5.27372">
        <ele>220</ele>
        <time>2021-05-08T08:13:20.152Z</time>
      </trkpt>
      <trkpt lat="45.61904" lon="5.2736">
        <ele>220</ele>
        <time>2021-05-08T08:13:21.153Z</time>
      </trkpt>
      <trkpt lat="45.61898" lon="5.27348">
        <ele>220</ele>
        <time>2021-05-08T08:13:22.152Z</time>
      </trkpt>
      <trkpt lat="45.61892" lon="5.27336">
        <ele>220</ele>
        <time>2021-05-08T08:13:23.152Z</time>
      </trkpt>
      <trkpt lat="45.61887" lon="5.27324">
        <ele>219</ele>
        <time>2021-05-08T08:13:24.152Z</time>
      </trkpt>
      <trkpt lat="45.61881" lon="5.27312">
        <ele>220</ele>
        <time>2021-05-08T08:13:25.153Z</time>
      </trkpt>
      <trkpt lat="45.61875" lon="5.27301">
        <ele>220</ele>
        <time>2021-05-08T08:13:26.153Z</time>
      </trkpt>
      <trkpt lat="45.61868" lon="5.27289">
        <ele>220</ele>
        <time>2021-05-08T08:13:27.153Z</time>
      </trkpt>
      <trkpt lat="45.61862" lon="5.27278">
        <ele>220</ele>
        <time>2021-05-08T08:13:28.153Z</time>
      </trkpt>
      <trkpt lat="45.61856" lon="5.27267">
        <ele>221</ele>
        <time>2021-05-08T08:13:29.153Z</time>
      </trkpt>
      <trkpt lat="45.61849" lon="5.27256">
        <ele>221</ele>
        <time>2021-05-08T08:13:30.152Z</time>
      </trkpt>
      <trkpt lat="45.61843" lon="5.27244">
        <ele>221</ele>
        <time>2021-05-08T08:13:31.152Z</time>
      </trkpt>
      <trkpt lat="45.61836" lon="5.27233">
        <ele>221</ele>
        <time>2021-05-08T08:13:32.153Z</time>
      </trkpt>
      <trkpt lat="45.6183" lon="5.27222">
        <ele>221</ele>
        <time>2021-05-08T08:13:33.152Z</time>
      </trkpt>
      <trkpt lat="45.61823" lon="5.2721">
        <ele>221</ele>
        <time>2021-05-08T08:13:34.153Z</time>
      </trkpt>
      <trkpt lat="45.61817" lon="5.27199">
        <ele>221</ele>
        <time>2021-05-08T08:13:35.153Z</time>
      </trkpt>
      <trkpt lat="45.61811" lon="5.27188">
        <ele>221</ele>
        <time>2021-05-08T08:13:36.153Z</time>
      </trkpt>
      <trkpt lat="45.61803" lon="5.27174">
        <ele>221</ele>
        <time>2021-05-08T08:13:37.153Z</time>
      </trkpt>
      <trkpt lat="45.61799" lon="5.27165">
        <ele>221</ele>
        <time>2021-05-08T08:13:38.153Z</time>
      </trkpt>
      <trkpt lat="45.61793" lon="5.27153">
        <ele>221</ele>
        <time>2021-05-08T08:13:39.152Z</time>
      </trkpt>
      <trkpt lat="45.61787" lon="5.27142">
        <ele>221</ele>
        <time>2021-05-08T08:13:40.152Z</time>
      </trkpt>
      <trkpt lat="45.61781" lon="5.2713">
        <ele>221</ele>
        <time>2021-05-08T08:13:41.153Z</time>
      </trkpt>
      <trkpt lat="45.61775" lon="5.27119">
        <ele>221</ele>
        <time>2021-05-08T08:13:42.153Z</time>
      </trkpt>
      <trkpt lat="45.61768" lon="5.27107">
        <ele>221</ele>
        <time>2021-05-08T08:13:43.153Z</time>
      </trkpt>
      <trkpt lat="45.61762" lon="5.27096">
        <ele>220</ele>
        <time>2021-05-08T08:13:44.153Z</time>
      </trkpt>
      <trkpt lat="45.61755" lon="5.27083">
        <ele>220</ele>
        <time>2021-05-08T08:13:45.153Z</time>
      </trkpt>
      <trkpt lat="45.61748" lon="5.27071">
        <ele>220</ele>
        <time>2021-05-08T08:13:46.152Z</time>
      </trkpt>
      <trkpt lat="45.61741" lon="5.27059">
        <ele>221</ele>
        <time>2021-05-08T08:13:47.152Z</time>
      </trkpt>
      <trkpt lat="45.61734" lon="5.27048">
        <ele>220</ele>
        <time>2021-05-08T08:13:48.153Z</time>
      </trkpt>
      <trkpt lat="45.61727" lon="5.27037">
        <ele>220</ele>
        <time>2021-05-08T08:13:49.153Z</time>
      </trkpt>
      <trkpt lat="45.61719" lon="5.27026">
        <ele>220</ele>
        <time>2021-05-08T08:13:50.153Z</time>
      </trkpt>
      <trkpt lat="45.61712" lon="5.27015">
        <ele>220</ele>
        <time>2021-05-08T08:13:51.152Z</time>
      </trkpt>
      <trkpt lat="45.61705" lon="5.27004">
        <ele>220</ele>
        <time>2021-05-08T08:13:52.152Z</time>
      </trkpt>
      <trkpt lat="45.61698" lon="5.26992">
        <ele>220</ele>
        <time>2021-05-08T08:13:53.153Z</time>
      </trkpt>
      <trkpt lat="45.61693" lon="5.26982">
        <ele>220</ele>
        <time>2021-05-08T08:13:54.152Z</time>
      </trkpt>
      <trkpt lat="45.61688" lon="5.26971">
        <ele>220</ele>
        <time>2021-05-08T08:13:55.152Z</time>
      </trkpt>
      <trkpt lat="45.61683" lon="5.2696">
        <ele>220</ele>
        <time>2021-05-08T08:13:56.153Z</time>
      </trkpt>
      <trkpt lat="45.61681" lon="5.2695">
        <ele>220</ele>
        <time>2021-05-08T08:13:57.152Z</time>
      </trkpt>
      <trkpt lat="45.61681" lon="5.26939">
        <ele>220</ele>
        <time>2021-05-08T08:13:58.153Z</time>
      </trkpt>
      <trkpt lat="45.61681" lon="5.26928">
        <ele>219</ele>
        <time>2021-05-08T08:13:59.153Z</time>
      </trkpt>
      <trkpt lat="45.61681" lon="5.26916">
        <ele>219</ele>
        <time>2021-05-08T08:14:00.152Z</time>
      </trkpt>
      <trkpt lat="45.61679" lon="5.26905">
        <ele>219</ele>
        <time>2021-05-08T08:14:01.153Z</time>
      </trkpt>
      <trkpt lat="45.61675" lon="5.26895">
        <ele>219</ele>
        <time>2021-05-08T08:14:02.153Z</time>
      </trkpt>
      <trkpt lat="45.61669" lon="5.26887">
        <ele>219</ele>
        <time>2021-05-08T08:14:03.153Z</time>
      </trkpt>
      <trkpt lat="45.61662" lon="5.26881">
        <ele>219</ele>
        <time>2021-05-08T08:14:04.153Z</time>
      </trkpt>
      <trkpt lat="45.61654" lon="5.26881">
        <ele>220</ele>
        <time>2021-05-08T08:14:05.153Z</time>
      </trkpt>
      <trkpt lat="45.61645" lon="5.26885">
        <ele>220</ele>
        <time>2021-05-08T08:14:06.152Z</time>
      </trkpt>
      <trkpt lat="45.61638" lon="5.26892">
        <ele>220</ele>
        <time>2021-05-08T08:14:07.152Z</time>
      </trkpt>
      <trkpt lat="45.61633" lon="5.26899">
        <ele>221</ele>
        <time>2021-05-08T08:14:08.153Z</time>
      </trkpt>
      <trkpt lat="45.61629" lon="5.26909">
        <ele>221</ele>
        <time>2021-05-08T08:14:09.153Z</time>
      </trkpt>
      <trkpt lat="45.61625" lon="5.26923">
        <ele>221</ele>
        <time>2021-05-08T08:14:10.153Z</time>
      </trkpt>
      <trkpt lat="45.61623" lon="5.26934">
        <ele>221</ele>
        <time>2021-05-08T08:14:11.152Z</time>
      </trkpt>
      <trkpt lat="45.6162" lon="5.26947">
        <ele>221</ele>
        <time>2021-05-08T08:14:12.153Z</time>
      </trkpt>
      <trkpt lat="45.61615" lon="5.26959">
        <ele>221</ele>
        <time>2021-05-08T08:14:13.153Z</time>
      </trkpt>
      <trkpt lat="45.61608" lon="5.2697">
        <ele>221</ele>
        <time>2021-05-08T08:14:14.153Z</time>
      </trkpt>
      <trkpt lat="45.61602" lon="5.2698">
        <ele>221</ele>
        <time>2021-05-08T08:14:15.153Z</time>
      </trkpt>
      <trkpt lat="45.61595" lon="5.2699">
        <ele>221</ele>
        <time>2021-05-08T08:14:16.153Z</time>
      </trkpt>
      <trkpt lat="45.61588" lon="5.27">
        <ele>221</ele>
        <time>2021-05-08T08:14:17.153Z</time>
      </trkpt>
      <trkpt lat="45.61581" lon="5.27009">
        <ele>221</ele>
        <time>2021-05-08T08:14:18.153Z</time>
      </trkpt>
      <trkpt lat="45.61573" lon="5.27018">
        <ele>221</ele>
        <time>2021-05-08T08:14:19.153Z</time>
      </trkpt>
      <trkpt lat="45.61566" lon="5.27027">
        <ele>221</ele>
        <time>2021-05-08T08:14:20.152Z</time>
      </trkpt>
      <trkpt lat="45.61557" lon="5.27038">
        <ele>221</ele>
        <time>2021-05-08T08:14:21.153Z</time>
      </trkpt>
      <trkpt lat="45.6155" lon="5.27047">
        <ele>221</ele>
        <time>2021-05-08T08:14:22.153Z</time>
      </trkpt>
      <trkpt lat="45.61544" lon="5.27054">
        <ele>221</ele>
        <time>2021-05-08T08:14:23.153Z</time>
      </trkpt>
      <trkpt lat="45.61537" lon="5.27063">
        <ele>221</ele>
        <time>2021-05-08T08:14:24.152Z</time>
      </trkpt>
      <trkpt lat="45.6153" lon="5.27072">
        <ele>222</ele>
        <time>2021-05-08T08:14:25.153Z</time>
      </trkpt>
      <trkpt lat="45.61523" lon="5.2708">
        <ele>222</ele>
        <time>2021-05-08T08:14:26.152Z</time>
      </trkpt>
      <trkpt lat="45.61516" lon="5.27088">
        <ele>222</ele>
        <time>2021-05-08T08:14:27.153Z</time>
      </trkpt>
      <trkpt lat="45.6151" lon="5.27096">
        <ele>222</ele>
        <time>2021-05-08T08:14:28.153Z</time>
      </trkpt>
      <trkpt lat="45.61503" lon="5.27104">
        <ele>221</ele>
        <time>2021-05-08T08:14:29.153Z</time>
      </trkpt>
      <trkpt lat="45.61497" lon="5.27112">
        <ele>221</ele>
        <time>2021-05-08T08:14:30.152Z</time>
      </trkpt>
      <trkpt lat="45.6149" lon="5.27119">
        <ele>222</ele>
        <time>2021-05-08T08:14:31.153Z</time>
      </trkpt>
      <trkpt lat="45.61484" lon="5.27126">
        <ele>222</ele>
        <time>2021-05-08T08:14:32.153Z</time>
      </trkpt>
      <trkpt lat="45.61478" lon="5.27133">
        <ele>221</ele>
        <time>2021-05-08T08:14:33.153Z</time>
      </trkpt>
      <trkpt lat="45.61472" lon="5.2714">
        <ele>222</ele>
        <time>2021-05-08T08:14:34.153Z</time>
      </trkpt>
      <trkpt lat="45.61467" lon="5.27147">
        <ele>221</ele>
        <time>2021-05-08T08:14:35.153Z</time>
      </trkpt>
      <trkpt lat="45.61461" lon="5.27153">
        <ele>221</ele>
        <time>2021-05-08T08:14:36.153Z</time>
      </trkpt>
      <trkpt lat="45.61455" lon="5.27159">
        <ele>221</ele>
        <time>2021-05-08T08:14:37.152Z</time>
      </trkpt>
      <trkpt lat="45.61449" lon="5.27166">
        <ele>221</ele>
        <time>2021-05-08T08:14:38.153Z</time>
      </trkpt>
      <trkpt lat="45.61444" lon="5.27172">
        <ele>221</ele>
        <time>2021-05-08T08:14:39.153Z</time>
      </trkpt>
      <trkpt lat="45.61438" lon="5.27178">
        <ele>222</ele>
        <time>2021-05-08T08:14:40.153Z</time>
      </trkpt>
      <trkpt lat="45.61433" lon="5.27185">
        <ele>221</ele>
        <time>2021-05-08T08:14:41.153Z</time>
      </trkpt>
      <trkpt lat="45.61428" lon="5.27191">
        <ele>221</ele>
        <time>2021-05-08T08:14:42.153Z</time>
      </trkpt>
      <trkpt lat="45.61422" lon="5.27197">
        <ele>221</ele>
        <time>2021-05-08T08:14:43.153Z</time>
      </trkpt>
      <trkpt lat="45.61417" lon="5.27202">
        <ele>221</ele>
        <time>2021-05-08T08:14:44.152Z</time>
      </trkpt>
      <trkpt lat="45.61411" lon="5.27208">
        <ele>221</ele>
        <time>2021-05-08T08:14:45.153Z</time>
      </trkpt>
      <trkpt lat="45.61406" lon="5.27214">
        <ele>220</ele>
        <time>2021-05-08T08:14:46.153Z</time>
      </trkpt>
      <trkpt lat="45.61401" lon="5.2722">
        <ele>220</ele>
        <time>2021-05-08T08:14:47.153Z</time>
      </trkpt>
      <trkpt lat="45.61397" lon="5.27225">
        <ele>220</ele>
        <time>2021-05-08T08:14:48.153Z</time>
      </trkpt>
      <trkpt lat="45.61393" lon="5.27231">
        <ele>220</ele>
        <time>2021-05-08T08:14:49.153Z</time>
      </trkpt>
      <trkpt lat="45.61389" lon="5.27236">
        <ele>220</ele>
        <time>2021-05-08T08:14:50.153Z</time>
      </trkpt>
      <trkpt lat="45.61384" lon="5.27241">
        <ele>221</ele>
        <time>2021-05-08T08:14:51.153Z</time>
      </trkpt>
      <trkpt lat="45.6138" lon="5.27245">
        <ele>221</ele>
        <time>2021-05-08T08:14:52.153Z</time>
      </trkpt>
      <trkpt lat="45.61377" lon="5.2725">
        <ele>221</ele>
        <time>2021-05-08T08:14:53.153Z</time>
      </trkpt>
      <trkpt lat="45.61374" lon="5.27255">
        <ele>221</ele>
        <time>2021-05-08T08:14:54.153Z</time>
      </trkpt>
      <trkpt lat="45.61373" lon="5.27262">
        <ele>221</ele>
        <time>2021-05-08T08:14:55.153Z</time>
      </trkpt>
      <trkpt lat="45.61373" lon="5.27268">
        <ele>221</ele>
        <time>2021-05-08T08:14:56.153Z</time>
      </trkpt>
      <trkpt lat="45.61374" lon="5.27274">
        <ele>221</ele>
        <time>2021-05-08T08:14:57.153Z</time>
      </trkpt>
      <trkpt lat="45.61376" lon="5.2728">
        <ele>221</ele>
        <time>2021-05-08T08:14:58.153Z</time>
      </trkpt>
      <trkpt lat="45.61378" lon="5.27285">
        <ele>221</ele>
        <time>2021-05-08T08:14:59.153Z</time>
      </trkpt>
      <trkpt lat="45.6138" lon="5.27291">
        <ele>220</ele>
        <time>2021-05-08T08:15:00.152Z</time>
      </trkpt>
      <trkpt lat="45.61382" lon="5.27297">
        <ele>220</ele>
        <time>2021-05-08T08:15:01.152Z</time>
      </trkpt>
      <trkpt lat="45.61385" lon="5.27303">
        <ele>220</ele>
        <time>2021-05-08T08:15:02.152Z</time>
      </trkpt>
      <trkpt lat="45.61387" lon="5.27309">
        <ele>220</ele>
        <time>2021-05-08T08:15:03.153Z</time>
      </trkpt>
      <trkpt lat="45.61388" lon="5.27315">
        <ele>219</ele>
        <time>2021-05-08T08:15:04.152Z</time>
      </trkpt>
      <trkpt lat="45.61391" lon="5.2732">
        <ele>219</ele>
        <time>2021-05-08T08:15:05.152Z</time>
      </trkpt>
      <trkpt lat="45.61393" lon="5.27326">
        <ele>219</ele>
        <time>2021-05-08T08:15:06.153Z</time>
      </trkpt>
      <trkpt lat="45.61395" lon="5.27332">
        <ele>219</ele>
        <time>2021-05-08T08:15:07.153Z</time>
      </trkpt>
      <trkpt lat="45.61398" lon="5.27338">
        <ele>219</ele>
        <time>2021-05-08T08:15:08.152Z</time>
      </trkpt>
      <trkpt lat="45.614" lon="5.27344">
        <ele>219</ele>
        <time>2021-05-08T08:15:09.152Z</time>
      </trkpt>
      <trkpt lat="45.61402" lon="5.2735">
        <ele>219</ele>
        <time>2021-05-08T08:15:10.153Z</time>
      </trkpt>
      <trkpt lat="45.61404" lon="5.27356">
        <ele>219</ele>
        <time>2021-05-08T08:15:11.153Z</time>
      </trkpt>
      <trkpt lat="45.61406" lon="5.27362">
        <ele>219</ele>
        <time>2021-05-08T08:15:12.152Z</time>
      </trkpt>
      <trkpt lat="45.61408" lon="5.27367">
        <ele>219</ele>
        <time>2021-05-08T08:15:13.153Z</time>
      </trkpt>
      <trkpt lat="45.61411" lon="5.27373">
        <ele>218</ele>
        <time>2021-05-08T08:15:14.153Z</time>
      </trkpt>
      <trkpt lat="45.61413" lon="5.27379">
        <ele>218</ele>
        <time>2021-05-08T08:15:15.153Z</time>
      </trkpt>
      <trkpt lat="45.61415" lon="5.27384">
        <ele>219</ele>
        <time>2021-05-08T08:15:16.152Z</time>
      </trkpt>
      <trkpt lat="45.61417" lon="5.2739">
        <ele>219</ele>
        <time>2021-05-08T08:15:17.153Z</time>
      </trkpt>
      <trkpt lat="45.61419" lon="5.27396">
        <ele>220</ele>
        <time>2021-05-08T08:15:18.153Z</time>
      </trkpt>
      <trkpt lat="45.6142" lon="5.27401">
        <ele>221</ele>
        <time>2021-05-08T08:15:19.153Z</time>
      </trkpt>
      <trkpt lat="45.61421" lon="5.27407">
        <ele>221</ele>
        <time>2021-05-08T08:15:20.152Z</time>
      </trkpt>
      <trkpt lat="45.61422" lon="5.27412">
        <ele>222</ele>
        <time>2021-05-08T08:15:21.152Z</time>
      </trkpt>
      <trkpt lat="45.61423" lon="5.27419">
        <ele>222</ele>
        <time>2021-05-08T08:15:22.153Z</time>
      </trkpt>
      <trkpt lat="45.61422" lon="5.27425">
        <ele>222</ele>
        <time>2021-05-08T08:15:23.153Z</time>
      </trkpt>
      <trkpt lat="45.61421" lon="5.2743">
        <ele>222</ele>
        <time>2021-05-08T08:15:24.152Z</time>
      </trkpt>
      <trkpt lat="45.61421" lon="5.27435">
        <ele>222</ele>
        <time>2021-05-08T08:15:25.153Z</time>
      </trkpt>
      <trkpt lat="45.61423" lon="5.27439">
        <ele>221</ele>
        <time>2021-05-08T08:15:26.152Z</time>
      </trkpt>
      <trkpt lat="45.61425" lon="5.27442">
        <ele>221</ele>
        <time>2021-05-08T08:15:27.153Z</time>
      </trkpt>
      <trkpt lat="45.61426" lon="5.27443">
        <ele>221</ele>
        <time>2021-05-08T08:15:28.153Z</time>
      </trkpt>
      <trkpt lat="45.61431" lon="5.27446">
        <ele>221</ele>
        <time>2021-05-08T08:15:29.152Z</time>
      </trkpt>
      <trkpt lat="45.61436" lon="5.27448">
        <ele>221</ele>
        <time>2021-05-08T08:15:30.152Z</time>
      </trkpt>
      <trkpt lat="45.61439" lon="5.2745">
        <ele>221</ele>
        <time>2021-05-08T08:15:31.153Z</time>
      </trkpt>
      <trkpt lat="45.61442" lon="5.27451">
        <ele>221</ele>
        <time>2021-05-08T08:15:32.152Z</time>
      </trkpt>
      <trkpt lat="45.61446" lon="5.27453">
        <ele>221</ele>
        <time>2021-05-08T08:15:33.153Z</time>
      </trkpt>
      <trkpt lat="45.6145" lon="5.27454">
        <ele>221</ele>
        <time>2021-05-08T08:15:34.153Z</time>
      </trkpt>
      <trkpt lat="45.61454" lon="5.27456">
        <ele>221</ele>
        <time>2021-05-08T08:15:35.153Z</time>
      </trkpt>
      <trkpt lat="45.61459" lon="5.27457">
        <ele>221</ele>
        <time>2021-05-08T08:15:36.153Z</time>
      </trkpt>
      <trkpt lat="45.61462" lon="5.27459">
        <ele>221</ele>
        <time>2021-05-08T08:15:37.153Z</time>
      </trkpt>
      <trkpt lat="45.61466" lon="5.2746">
        <ele>221</ele>
        <time>2021-05-08T08:15:38.153Z</time>
      </trkpt>
      <trkpt lat="45.6147" lon="5.27462">
        <ele>221</ele>
        <time>2021-05-08T08:15:39.153Z</time>
      </trkpt>
      <trkpt lat="45.61473" lon="5.27463">
        <ele>221</ele>
        <time>2021-05-08T08:15:40.153Z</time>
      </trkpt>
      <trkpt lat="45.61477" lon="5.27464">
        <ele>221</ele>
        <time>2021-05-08T08:15:41.153Z</time>
      </trkpt>
      <trkpt lat="45.6148" lon="5.27465">
        <ele>221</ele>
        <time>2021-05-08T08:15:42.153Z</time>
      </trkpt>
      <trkpt lat="45.61484" lon="5.27466">
        <ele>221</ele>
        <time>2021-05-08T08:15:43.152Z</time>
      </trkpt>
      <trkpt lat="45.61489" lon="5.27467">
        <ele>220</ele>
        <time>2021-05-08T08:15:44.153Z</time>
      </trkpt>
      <trkpt lat="45.61492" lon="5.27468">
        <ele>220</ele>
        <time>2021-05-08T08:15:45.153Z</time>
      </trkpt>
      <trkpt lat="45.61494" lon="5.27468">
        <ele>220</ele>
        <time>2021-05-08T08:15:46.152Z</time>
      </trkpt>
      <trkpt lat="45.61497" lon="5.27469">
        <ele>220</ele>
        <time>2021-05-08T08:15:47.153Z</time>
      </trkpt>
      <trkpt lat="45.61499" lon="5.27471">
        <ele>221</ele>
        <time>2021-05-08T08:15:48.153Z</time>
      </trkpt>
      <trkpt lat="45.615" lon="5.27473">
        <ele>221</ele>
        <time>2021-05-08T08:15:49.152Z</time>
      </trkpt>
      <trkpt lat="45.61501" lon="5.27475">
        <ele>221</ele>
        <time>2021-05-08T08:15:50.152Z</time>
      </trkpt>
      <trkpt lat="45.61501" lon="5.27476">
        <ele>221</ele>
        <time>2021-05-08T08:15:51.152Z</time>
      </trkpt>
      <trkpt lat="45.61501" lon="5.27476">
        <ele>222</ele>
        <time>2021-05-08T08:15:52.153Z</time>
      </trkpt>
      <trkpt lat="45.61502" lon="5.27476">
        <ele>222</ele>
        <time>2021-05-08T08:15:53.153Z</time>
      </trkpt>
    </trkseg>
  </trk>
</gpx>